GFSSW_sfc_wetblb_000.txt.gz
Wetbulb
56.73 57.01 57.36 57.31 57.35 57.39 57.56 57.92 58.23 58.52 58.74 58.79 59.10 59.99 61.18 61.79 61.83 60.98 58.12 61.48 61.96 68.65 66.94 62.49 61.64 61.13 59.89 56.60 57.57 55.54 44.71 42.05 45.84 47.39 50.33 54.69 53.37 55.70 54.61 52.55 53.18 53.23 54.93 59.30 62.29
56.18 56.58 56.75 56.56 56.59 56.78 57.05 57.19 57.51 57.63 57.98 58.33 58.57 59.41 60.51 61.22 56.98 56.01 63.13 66.61 68.39 69.52 60.10 58.90 57.04 58.43 55.07 55.02 54.92 50.67 45.06 45.21 49.78 51.11 51.89 54.17 54.13 54.21 52.26 52.86 52.15 52.47 56.86 61.21 61.59
55.98 56.06 55.97 56.00 56.06 56.44 56.64 56.83 56.96 57.16 57.32 57.75 58.37 59.36 60.40 60.17 52.83 53.64 65.48 67.03 69.22 68.16 60.98 60.81 59.92 58.18 54.11 55.15 53.25 51.46 46.74 50.54 50.16 53.88 53.97 52.85 52.72 55.83 51.98 51.22 53.95 52.87 55.19 58.84 60.46
55.46 55.49 55.89 56.02 55.85 56.29 56.44 56.37 56.47 56.96 57.33 58.00 58.69 59.88 60.21 56.79 41.62 55.41 66.18 67.10 68.79 66.50 61.24 58.00 57.19 54.24 52.43 51.02 54.12 48.92 51.70 51.39 51.91 54.08 52.84 51.33 54.30 52.68 53.22 53.23 55.10 54.97 57.07 58.29 59.13
55.24 54.29 54.47 54.97 55.10 55.26 55.89 55.99 56.12 56.68 57.30 57.71 59.05 60.11 56.68 50.91 49.93 61.70 66.91 67.36 65.52 64.42 58.02 56.36 54.68 54.41 51.08 52.27 52.27 50.03 50.55 51.97 52.44 52.75 52.96 53.24 50.99 51.89 52.65 55.37 55.65 55.69 55.64 57.33 58.32
54.88 54.88 54.78 54.66 54.50 54.78 55.27 55.21 55.77 56.87 57.38 58.48 58.27 59.54 53.02 45.59 57.80 60.59 64.48 63.78 62.75 62.15 58.06 56.86 55.98 57.22 53.93 52.22 49.57 51.18 51.71 51.07 52.64 52.68 53.64 50.93 50.79 50.84 53.35 55.25 54.53 54.57 53.80 54.32 57.17
55.11 54.70 54.45 54.63 54.79 54.81 54.67 55.02 56.06 56.71 57.07 57.46 58.01 57.15 51.58 49.77 58.60 61.04 64.22 63.38 63.62 60.84 57.50 58.26 58.68 56.11 54.91 50.06 52.82 51.40 47.37 50.03 50.85 51.63 50.33 50.29 47.71 48.69 52.83 53.83 52.59 53.36 53.06 54.43 55.21
55.05 54.65 54.47 54.75 54.80 54.76 54.91 55.57 56.38 56.50 56.85 57.07 55.62 55.26 47.31 56.02 62.21 61.16 62.53 62.27 62.22 61.47 60.23 59.75 60.41 56.71 53.48 52.37 50.80 47.22 46.98 42.57 49.61 50.91 50.15 48.75 42.64 50.12 52.82 52.71 51.14 52.59 52.41 53.18 54.71
54.72 54.43 53.62 53.79 54.51 55.03 55.15 55.69 56.25 56.66 56.77 56.14 51.37 51.21 44.73 58.02 56.90 60.62 62.56 59.13 59.63 59.78 60.21 61.77 57.29 51.99 50.94 45.87 43.85 45.22 38.57 41.99 45.26 50.98 49.49 47.85 44.45 50.43 52.11 51.00 49.94 50.81 51.09 52.37 52.86
54.02 53.12 53.25 54.99 55.74 55.37 55.60 56.31 55.97 55.13 53.66 52.52 50.00 45.77 49.27 47.79 56.91 59.30 61.67 60.69 57.86 56.51 54.23 54.49 51.37 46.56 46.33 42.87 36.81 40.15 40.05 42.97 42.62 47.50 47.17 45.70 45.19 49.02 49.53 49.54 48.82 48.92 48.10 49.34 50.40
55.76 55.19 55.41 55.93 55.44 55.82 55.20 53.73 48.39 45.73 47.42 46.55 46.38 46.46 48.72 56.98 60.07 58.60 59.94 57.47 56.22 54.34 48.93 50.91 44.80 41.21 43.88 46.08 45.93 45.93 43.55 42.01 44.26 48.19 44.02 44.24 44.91 45.98 47.38 47.36 47.70 47.04 47.64 48.23 49.20
55.64 55.97 55.59 56.05 56.43 56.77 55.47 49.73 49.74 50.40 45.92 51.94 52.13 51.74 53.66 54.46 50.54 52.38 57.35 50.96 51.53 49.43 50.78 47.03 41.52 46.15 48.11 48.83 47.29 45.39 42.46 42.12 45.18 47.81 44.09 44.32 44.32 45.59 45.86 45.34 45.94 47.09 47.54 48.83 49.55
55.29 55.53 55.71 55.19 55.68 55.64 53.01 51.27 55.00 53.35 46.86 49.20 51.94 51.03 51.84 54.34 50.13 50.02 53.89 51.94 50.65 49.62 48.05 42.74 44.75 48.93 49.42 46.63 45.54 43.83 41.91 42.18 42.44 45.41 46.45 43.47 42.10 43.18 45.81 48.00 48.08 48.81 49.49 49.89 49.81
55.26 55.52 55.50 55.44 53.23 54.65 52.26 54.98 54.78 54.51 40.33 43.40 46.31 49.28 52.52 52.87 47.01 54.21 54.73 51.42 47.87 47.23 46.56 44.16 47.81 47.92 46.39 45.53 45.97 41.05 46.09 45.77 44.77 41.45 37.14 43.39 33.97 40.39 44.29 45.96 46.98 46.73 47.85 48.53 49.07
55.33 55.38 55.02 55.66 53.99 52.17 54.41 54.87 54.93 52.09 31.16 45.08 46.61 55.38 52.63 47.95 48.25 48.43 54.78 50.00 45.11 45.98 44.63 41.68 44.29 45.02 44.57 46.13 46.88 44.11 47.21 43.97 43.39 39.84 38.62 40.18 36.01 39.03 44.53 43.77 45.45 46.23 47.72 48.82 49.17
55.53 55.24 54.76 54.90 54.57 55.38 54.87 54.38 53.70 43.16 31.53 42.52 46.47 46.70 46.34 48.75 47.67 48.24 50.80 53.42 50.13 45.56 45.58 44.30 47.63 47.11 46.57 47.47 47.07 47.49 43.63 43.06 41.47 38.77 33.31 36.26 36.38 36.62 41.50 43.90 45.58 47.20 48.19 49.41 49.71
55.42 55.42 53.43 54.89 51.28 55.48 53.60 52.07 43.01 35.69 43.69 41.87 42.60 46.21 44.51 43.96 46.36 48.31 45.31 43.92 42.25 38.35 37.88 42.33 42.84 43.82 46.23 42.89 44.38 43.35 38.92 34.04 31.90 31.87 32.81 37.77 35.48 38.46 43.78 46.90 47.40 47.51 48.07 49.00 49.51
55.00 54.14 54.58 55.18 56.16 54.88 53.47 47.17 36.47 41.12 41.85 46.16 46.00 45.75 41.84 45.05 45.16 46.83 43.91 42.66 46.32 45.41 40.58 38.12 35.75 42.52 45.50 43.28 41.73 41.11 39.60 35.27 30.49 31.78 33.33 37.90 34.13 40.25 45.16 47.03 47.57 49.14 49.27 49.80 48.95
54.25 56.24 56.06 58.08 56.99 54.35 51.31 41.53 40.23 42.91 45.19 44.39 45.44 41.30 42.46 45.46 45.44 45.97 44.29 44.28 47.07 47.01 41.40 40.56 38.67 43.92 45.00 44.58 42.70 41.19 38.57 40.43 37.87 37.71 33.41 37.63 40.85 43.49 45.16 44.61 45.15 46.95 48.85 47.90 48.24
50.87 54.30 55.98 58.86 57.65 55.22 49.73 43.07 44.41 48.17 48.30 47.10 42.50 44.33 40.56 43.20 42.92 44.11 45.12 47.08 47.57 48.98 48.15 44.88 37.50 43.48 43.39 43.95 42.36 39.04 41.65 35.79 37.32 29.44 27.41 34.94 35.44 37.41 40.62 42.14 44.63 46.20 46.51 47.73 48.79
52.25 51.42 56.77 58.81 58.65 53.77 44.78 45.07 46.26 49.43 49.42 46.06 46.00 45.17 44.48 43.69 45.73 44.50 44.41 46.33 48.51 48.10 48.36 46.07 43.42 39.68 41.93 40.73 39.84 38.85 37.97 38.24 37.34 36.03 30.47 29.33 34.19 41.68 42.78 44.17 43.86 45.80 48.02 47.58 47.44
53.17 47.42 57.00 58.55 50.15 49.69 44.37 47.99 47.68 48.40 50.88 48.68 48.70 47.66 45.62 46.32 44.64 43.68 43.72 45.89 49.65 49.73 45.41 45.88 43.79 38.03 39.52 42.18 44.21 41.04 40.11 40.50 34.33 32.99 34.47 31.37 32.74 44.58 44.06 45.66 46.89 47.28 48.62 47.20 47.89
50.12 49.70 57.67 57.32 43.88 44.10 47.04 46.04 47.76 47.72 47.31 48.12 46.88 48.80 48.94 45.45 42.87 45.61 44.96 48.98 49.77 47.78 45.04 46.75 42.60 36.65 36.12 39.47 42.02 40.43 41.98 41.35 40.68 39.23 35.09 30.64 33.25 44.31 44.34 45.61 47.19 46.66 47.00 46.70 47.93
50.11 46.45 52.03 51.98 49.78 46.85 45.27 45.24 44.03 48.44 47.83 48.94 47.49 49.21 47.01 45.41 47.07 44.48 43.81 47.30 49.09 48.04 47.94 47.47 42.22 38.70 34.16 36.72 40.65 38.57 40.93 41.82 39.70 34.21 34.71 36.45 38.14 42.60 44.02 44.81 45.78 44.59 46.98 46.56 47.34
49.38 44.71 47.36 44.22 44.47 45.46 46.25 45.63 43.69 43.90 48.13 48.77 46.72 46.55 45.69 42.58 43.53 42.62 44.46 45.01 46.92 47.20 46.60 45.90 39.22 39.94 40.62 41.25 40.22 40.00 39.99 40.46 38.92 40.06 35.14 38.92 39.45 43.17 44.17 45.25 46.75 46.14 46.40 46.52 46.33
47.28 45.69 46.65 45.19 45.89 44.18 43.34 43.19 42.86 43.52 44.21 44.72 44.93 46.63 46.67 42.85 44.16 42.65 44.75 43.95 43.04 43.81 43.06 43.69 37.37 37.60 35.39 39.63 38.11 36.84 38.94 39.12 39.86 40.53 40.23 40.69 40.01 46.23 46.96 44.41 44.93 43.89 46.08 46.28 45.63
50.79 50.12 47.70 42.67 43.96 42.31 42.05 42.35 43.29 44.64 44.82 46.34 46.66 45.81 43.78 42.49 43.79 44.33 45.75 46.58 45.33 42.75 41.63 40.45 37.37 34.71 30.69 36.92 36.47 33.33 37.98 38.87 39.43 40.69 39.76 36.39 41.44 44.76 43.46 45.44 45.42 45.39 44.95 45.78 44.54

GFSSW_sfc_wetblb_003.txt.gz
Wetbulb
57.33 57.41 57.43 57.58 57.67 57.80 57.81 57.99 58.14 58.43 58.76 58.94 59.05 59.06 59.68 60.74 61.14 58.62 53.59 61.22 63.42 66.72 65.90 60.14 59.68 59.12 58.49 53.12 53.82 50.82 41.54 36.75 40.40 42.97 45.42 52.07 51.03 54.11 53.05 50.69 51.64 52.29 53.08 56.14 59.76
56.40 56.72 56.91 57.07 57.21 57.36 57.31 57.45 57.64 57.85 58.02 58.17 58.52 58.61 59.26 60.42 56.15 53.31 58.63 65.84 67.69 68.69 60.48 55.61 55.25 55.97 51.24 50.93 51.19 46.68 40.96 42.19 45.84 47.07 46.61 51.18 50.47 51.44 51.58 50.87 49.94 52.18 57.67 59.11 59.38
56.00 56.01 56.44 56.60 56.66 56.66 56.84 56.99 57.16 57.30 57.47 57.56 57.88 58.24 59.31 59.22 50.70 49.80 61.33 65.30 67.54 68.70 62.55 58.77 57.27 54.76 50.62 51.11 49.78 47.80 43.48 48.45 50.27 51.17 50.67 50.12 50.44 52.27 50.69 48.50 51.51 50.68 55.49 58.14 57.48
55.99 55.47 55.39 55.58 56.08 56.41 56.55 56.94 56.62 56.64 56.84 56.98 57.28 58.08 59.48 55.44 39.39 51.39 61.73 64.54 67.17 66.80 63.39 57.35 54.65 50.89 49.21 48.37 51.55 46.32 49.86 50.08 51.61 52.05 50.90 50.02 50.96 49.24 49.96 51.36 53.51 52.78 55.81 57.93 57.66
55.42 54.38 54.22 54.39 55.03 55.71 55.88 56.64 56.88 56.46 56.68 57.02 57.48 58.43 55.15 48.50 48.27 56.21 63.95 65.41 64.53 64.25 60.36 56.32 53.21 51.24 48.04 49.31 50.00 46.96 49.33 51.06 50.74 50.19 49.47 52.04 49.42 48.44 49.71 53.23 53.22 54.40 56.58 56.79 57.77
55.28 55.15 54.89 54.79 54.80 54.70 54.86 55.76 56.21 56.03 56.21 56.90 57.75 58.17 51.42 43.17 55.08 57.34 60.39 62.09 62.32 62.11 60.26 56.10 54.33 53.68 50.56 50.40 48.01 48.95 49.07 48.60 50.01 49.55 49.79 49.80 48.99 48.00 50.75 52.51 52.12 52.75 53.49 55.16 56.47
55.43 55.12 55.02 54.81 54.91 55.13 55.07 55.21 55.46 55.79 56.69 57.64 58.39 55.31 48.84 46.32 55.17 57.31 56.88 60.98 62.33 62.15 57.58 57.70 56.18 52.92 52.85 51.07 52.07 49.76 44.91 46.64 48.23 49.14 48.57 48.22 45.56 46.48 50.36 50.21 51.68 50.89 50.46 52.50 54.98
54.98 54.41 54.31 54.49 55.03 55.19 55.25 55.41 55.68 56.48 56.87 57.38 58.28 53.30 45.08 55.40 55.92 56.67 57.21 58.90 62.05 62.84 60.93 60.45 59.09 56.00 53.36 51.17 47.69 44.58 42.50 38.72 46.09 48.02 49.01 47.76 41.43 48.04 50.06 49.29 50.50 50.10 49.30 49.45 51.90
54.35 54.03 52.86 53.08 54.01 54.85 55.31 55.54 56.34 56.91 57.02 56.97 53.00 49.88 44.91 57.11 53.76 56.31 57.88 58.46 60.00 60.83 61.12 61.75 57.85 52.48 51.35 43.37 40.07 40.26 35.35 37.57 41.91 47.55 47.44 45.49 42.00 47.54 49.37 48.17 47.34 47.73 47.91 48.14 48.22
55.35 55.39 54.05 53.95 55.22 55.88 55.51 56.11 55.68 55.93 54.88 52.55 50.44 46.22 48.99 47.96 53.86 57.55 60.59 60.77 57.93 56.58 55.77 55.42 52.19 46.81 45.15 40.93 33.69 36.65 35.69 38.06 38.36 44.13 45.26 43.27 43.44 46.56 47.21 45.39 44.71 43.49 44.59 46.35 48.28
55.79 55.87 55.73 55.76 55.50 55.71 54.52 53.30 46.75 46.01 48.19 43.27 44.00 45.68 48.78 52.85 56.15 56.39 59.35 58.56 56.20 53.60 48.12 51.56 45.55 42.38 42.49 41.55 42.39 41.23 38.92 38.18 40.58 45.74 43.89 42.87 42.59 44.82 45.81 44.19 44.18 43.78 45.28 46.46 48.15
55.52 55.40 55.74 54.97 56.35 56.37 54.61 48.88 49.00 48.48 40.16 46.10 47.85 48.77 53.16 55.33 50.25 53.86 59.22 53.20 51.50 47.14 49.59 46.70 42.96 44.85 45.26 45.31 43.55 41.57 39.56 38.48 42.58 46.17 42.82 41.07 42.81 43.33 43.75 43.43 44.58 46.28 46.15 46.66 48.02
55.41 55.20 55.34 55.05 55.53 55.44 52.77 51.45 54.06 52.39 43.94 46.31 47.27 49.53 51.61 54.63 50.78 51.25 55.21 53.02 50.03 48.20 48.44 44.40 45.23 47.31 46.34 43.75 43.07 41.50 37.62 38.91 40.41 43.71 43.15 40.83 39.77 40.23 43.55 44.87 45.62 46.83 47.26 47.68 47.97
55.67 55.70 55.37 54.87 52.43 53.28 51.48 54.64 54.72 53.74 38.49 40.85 45.68 49.60 52.40 52.90 47.95 54.76 54.40 52.77 49.98 48.15 47.67 45.63 46.45 45.69 43.91 43.49 43.17 37.68 43.95 44.11 42.69 38.67 34.52 40.65 32.15 36.77 41.61 42.86 44.13 43.95 45.26 45.81 46.43
56.37 55.70 54.99 55.36 52.33 51.19 53.75 55.19 55.10 51.24 28.68 42.29 45.76 54.53 53.06 48.02 49.17 49.54 53.69 51.18 48.71 48.79 45.99 41.68 43.07 42.55 42.29 43.65 44.51 42.32 45.51 42.73 41.54 36.73 34.64 36.78 34.32 36.91 41.24 40.63 42.55 43.92 44.98 45.60 46.17
56.20 55.79 54.89 54.43 54.16 54.96 55.09 54.82 52.72 39.49 29.68 39.07 46.34 46.73 45.69 47.60 46.65 48.61 49.28 52.13 50.64 45.89 43.66 41.69 45.58 44.70 44.58 45.22 45.43 45.82 41.55 40.57 38.39 36.34 30.89 35.20 35.35 34.46 39.66 41.45 42.24 43.56 45.49 46.68 46.67
55.99 55.70 54.57 55.56 51.12 55.30 54.26 51.68 40.03 34.59 42.04 39.38 42.46 45.41 43.95 42.43 43.75 45.58 44.71 43.84 40.28 34.80 34.04 39.46 38.88 40.83 44.77 41.30 41.83 41.26 36.60 31.62 30.12 29.58 30.22 36.05 34.09 36.32 42.57 45.15 45.89 44.94 45.42 46.04 46.43
55.51 55.12 54.11 54.08 55.76 53.51 52.12 45.59 35.81 40.24 40.24 45.59 43.81 44.48 41.04 43.71 44.24 44.30 42.94 39.61 43.56 41.98 35.76 34.00 32.67 39.71 43.12 41.13 39.25 38.00 37.80 33.20 29.63 29.41 32.30 35.98 31.97 38.58 44.02 46.69 47.09 47.25 46.86 46.41 46.02
54.65 53.39 53.07 54.53 55.19 54.36 50.19 39.93 39.59 41.54 44.24 43.02 43.57 40.68 41.83 44.88 43.79 42.98 41.97 43.07 45.14 43.86 39.52 36.74 35.06 42.25 43.73 42.77 41.78 39.46 36.82 40.42 35.44 34.67 31.40 34.45 37.70 41.35 42.30 43.21 44.81 45.64 46.10 45.48 45.55
47.67 49.41 51.20 56.07 55.01 53.50 46.73 42.39 43.72 46.99 47.14 46.83 40.00 43.18 39.52 42.34 42.76 43.26 43.37 45.46 46.32 47.55 46.11 41.60 34.87 41.58 41.83 42.84 41.12 38.23 40.29 35.59 34.88 28.46 26.19 31.68 33.40 35.13 37.87 39.57 42.38 44.14 44.20 45.06 45.61
47.82 46.17 52.27 55.17 54.65 48.97 41.54 42.08 45.36 48.82 49.10 45.88 44.62 43.35 43.02 42.39 43.57 42.22 42.21 45.55 47.58 46.98 46.42 44.06 40.78 38.06 41.05 38.91 38.47 38.54 36.37 36.32 35.74 33.40 29.09 26.56 31.79 39.41 40.66 41.07 42.05 43.57 45.16 45.34 45.34
47.41 41.22 52.57 56.46 45.48 43.96 41.47 45.84 47.23 47.49 49.76 48.51 48.65 46.52 44.00 44.60 42.46 42.12 42.18 44.68 48.64 48.13 43.50 45.02 40.45 35.85 37.87 40.43 42.50 39.65 38.94 37.67 32.51 31.83 31.74 29.45 32.13 41.71 41.88 42.52 44.87 45.57 46.19 44.83 46.07
43.91 45.61 54.27 51.66 39.74 39.67 43.68 45.29 46.33 46.46 46.58 47.16 46.50 48.16 47.20 44.09 41.94 43.67 43.06 47.44 48.73 46.89 43.92 44.96 40.20 34.20 35.35 38.48 40.22 38.80 40.21 39.60 38.42 36.38 33.00 29.93 32.42 42.45 40.57 43.48 44.64 44.18 44.23 45.15 46.32
44.19 41.12 45.58 45.21 44.23 42.23 41.94 42.95 43.02 47.36 46.67 47.61 46.50 47.59 45.82 43.73 45.63 42.73 42.43 46.62 47.72 46.84 47.67 46.80 40.62 36.99 33.07 34.58 38.58 37.27 39.52 40.24 38.15 32.29 32.47 34.27 35.73 39.46 41.08 42.55 43.79 44.12 44.56 44.20 45.64
42.75 39.58 42.92 38.13 40.31 41.02 41.52 42.84 42.07 43.02 46.75 47.28 45.12 45.61 44.53 41.49 41.36 40.96 42.98 44.29 45.86 46.71 44.50 43.25 36.41 37.41 38.41 39.66 38.93 38.90 38.83 38.93 37.90 37.51 34.39 36.37 37.49 41.13 40.28 40.70 42.25 44.60 43.93 43.96 43.31
41.80 40.15 41.91 39.78 41.86 40.26 40.13 39.28 40.61 41.73 43.30 44.39 43.72 44.15 43.28 39.75 42.39 41.49 42.98 42.69 42.42 43.35 42.32 41.98 36.19 36.31 34.11 37.54 37.12 35.69 37.30 37.01 37.97 38.59 37.43 38.08 38.61 44.00 44.19 42.23 43.96 42.98 43.68 43.45 42.03
45.03 44.92 41.55 40.31 39.17 38.07 38.35 39.43 41.25 42.60 44.11 44.70 44.54 43.12 40.71 40.53 41.76 41.79 43.36 43.96 44.18 41.94 39.74 38.81 35.46 32.78 29.08 35.21 35.62 33.57 36.54 36.97 36.12 37.35 37.50 33.94 39.03 41.57 41.41 43.78 43.43 43.37 43.84 42.65 40.75

GFSSW_sfc_wetblb_006.txt.gz
Wetbulb
57.20 57.55 57.63 57.58 57.70 58.15 58.51 58.85 58.97 58.91 59.45 59.72 59.81 59.61 59.76 60.22 60.36 57.27 52.67 57.32 62.95 67.73 67.85 59.50 59.12 57.73 57.78 52.63 52.79 49.03 40.64 36.36 38.60 40.18 43.45 48.02 47.73 52.20 52.69 49.76 50.56 52.93 51.43 54.36 56.71
56.23 56.60 57.01 57.16 57.29 57.57 57.79 58.10 58.20 58.29 58.53 58.87 59.07 59.13 59.30 59.79 55.07 52.54 57.76 61.61 65.50 68.66 61.74 55.35 54.57 55.32 50.79 50.22 49.79 45.81 40.31 42.02 45.33 44.31 45.74 48.02 48.52 49.90 50.50 49.92 48.54 51.94 56.56 56.85 58.08
55.78 55.99 56.31 56.77 57.13 56.98 57.39 57.32 57.60 57.76 57.98 58.19 58.39 58.56 59.16 57.95 49.89 48.47 60.91 62.28 64.12 67.63 64.47 59.46 55.87 53.66 49.24 49.55 48.47 46.52 42.69 46.86 48.85 49.98 49.87 48.45 48.49 49.85 47.94 48.10 50.00 50.04 54.53 56.59 56.10
55.77 55.76 55.83 55.97 56.25 56.42 56.80 56.75 57.12 57.17 57.50 57.73 57.82 57.89 58.78 54.78 37.43 50.18 60.95 62.73 64.64 64.98 63.22 58.90 54.49 49.66 48.02 47.41 50.44 45.06 48.65 48.60 50.34 51.61 49.26 47.59 50.02 48.59 47.99 49.73 52.10 52.51 53.90 56.77 56.20
55.85 55.68 55.22 55.10 55.18 55.45 56.09 56.40 56.79 57.22 57.03 57.04 57.17 57.77 54.35 47.13 46.01 54.80 60.60 61.84 60.54 63.19 60.84 56.62 52.59 50.40 46.91 47.91 48.77 46.40 48.67 50.34 51.14 50.33 48.12 48.98 47.58 48.23 47.92 51.06 50.95 52.60 55.68 56.85 56.61
55.92 56.07 55.60 55.44 55.44 54.97 55.08 55.42 56.30 56.79 56.68 56.83 57.01 57.56 50.87 41.63 53.02 55.15 55.24 56.98 59.59 61.70 60.94 57.13 53.05 53.94 49.60 49.12 47.90 49.01 48.53 47.88 48.35 48.57 48.14 47.21 47.63 46.80 49.26 50.55 49.82 51.20 53.08 55.18 56.50
55.61 55.43 55.45 55.47 55.33 55.26 55.24 55.02 55.44 55.97 56.25 56.40 57.04 54.28 48.81 45.19 52.65 55.26 55.01 56.02 60.54 61.09 58.65 58.46 56.73 54.21 51.17 48.85 51.32 48.78 44.65 46.10 46.82 47.49 47.27 46.94 44.63 45.42 49.15 47.89 48.51 49.56 49.60 51.69 54.17
55.36 54.92 55.19 54.94 54.98 55.50 55.46 55.62 55.28 55.65 55.76 56.63 57.47 52.64 43.80 53.01 53.71 53.32 55.52 54.67 58.89 61.64 61.14 60.71 58.70 54.41 52.95 50.65 46.47 42.56 41.47 38.16 44.01 45.96 47.35 46.72 39.64 47.02 48.89 45.06 46.78 48.45 46.16 47.44 48.14
55.62 55.28 55.04 53.63 53.61 54.46 55.04 55.21 55.45 55.79 56.37 56.70 52.26 48.15 41.11 57.29 51.61 53.17 54.05 52.79 56.12 59.32 61.16 61.33 57.89 51.77 51.53 44.93 41.09 39.44 35.42 36.32 40.47 45.91 45.25 44.17 41.19 46.87 46.90 46.56 46.61 44.26 43.39 45.70 47.30
55.69 55.88 56.22 55.05 54.60 54.96 55.48 55.48 54.86 55.13 54.29 53.98 51.88 44.87 47.55 47.08 52.79 54.77 55.41 54.94 55.43 56.18 56.96 56.15 53.69 47.52 44.62 41.85 36.00 35.89 35.39 37.10 36.81 41.87 43.06 41.19 42.37 45.26 45.51 43.96 42.52 42.01 42.75 45.26 47.33
55.49 55.54 55.57 55.90 55.89 55.86 54.41 52.30 45.55 44.12 48.85 44.15 44.00 44.72 47.38 51.81 55.45 54.45 57.54 54.35 55.74 54.00 49.12 53.03 47.61 43.71 44.79 44.61 42.09 40.30 37.17 36.26 39.52 43.85 42.85 41.70 41.28 44.50 44.00 42.72 42.03 42.59 43.70 45.10 46.83
55.22 55.12 55.22 55.72 55.58 56.07 53.67 48.87 47.71 47.60 41.15 46.38 46.75 47.12 52.35 52.49 47.21 52.42 58.23 51.43 50.39 46.52 50.25 48.26 45.09 47.79 47.99 45.07 42.12 40.01 37.38 36.30 40.90 44.25 42.34 40.13 40.99 43.45 41.47 42.10 43.16 44.64 44.32 45.75 46.30
55.07 55.15 55.67 55.61 55.18 54.42 50.91 50.52 53.99 51.14 40.22 44.10 47.32 45.76 49.06 51.57 48.63 50.31 55.04 53.11 48.06 46.64 47.63 45.40 47.50 49.67 46.50 42.28 42.19 39.31 36.96 37.14 39.28 42.36 41.96 39.84 38.92 38.28 41.72 42.97 44.01 44.48 45.50 46.32 46.92
55.64 56.16 55.75 55.29 51.51 53.27 50.83 54.00 54.62 53.30 38.28 38.50 43.16 46.98 50.14 51.99 47.69 54.64 55.51 53.28 49.47 45.38 48.01 45.88 46.22 46.49 45.10 41.79 40.96 36.34 42.22 42.74 40.92 37.18 33.87 38.77 31.47 34.53 38.93 41.55 42.34 41.93 44.12 45.05 46.43
56.39 56.04 55.31 55.19 52.57 50.01 52.86 55.00 55.02 50.26 27.87 40.54 43.61 53.17 51.61 48.06 49.28 49.28 54.40 52.19 47.46 46.33 44.24 44.29 44.23 43.94 42.52 41.98 42.65 40.60 44.48 41.02 39.80 35.15 33.06 34.38 32.94 35.60 39.56 39.59 41.89 42.32 43.10 44.33 45.31
56.45 55.89 55.07 54.29 54.23 54.90 55.32 55.18 52.05 37.64 27.71 39.13 45.95 45.83 43.22 47.15 47.36 49.34 49.98 52.77 53.08 46.17 44.63 42.45 46.16 44.16 43.04 44.37 44.28 44.97 40.59 38.82 36.28 34.36 29.49 34.06 34.80 33.97 37.04 40.74 41.11 41.68 43.04 44.76 45.47
56.06 55.88 54.59 55.42 50.70 55.72 54.87 50.95 37.18 33.64 41.27 39.41 41.84 44.16 43.28 43.39 44.54 46.73 45.86 45.33 43.19 38.15 37.56 40.91 40.06 40.89 44.26 39.97 40.70 40.05 35.63 30.24 29.14 28.57 29.10 33.69 32.61 36.79 40.70 42.32 45.35 43.62 43.33 43.96 45.22
55.38 55.36 54.81 53.47 56.14 55.07 52.33 44.55 34.87 38.51 39.18 44.48 44.00 43.04 41.09 43.41 43.46 44.02 43.09 40.42 43.73 39.89 36.20 34.26 34.09 39.02 41.81 40.82 38.41 37.15 36.66 31.25 27.84 27.14 31.00 34.35 31.28 37.14 40.24 43.07 45.18 45.62 44.80 44.58 45.10
54.76 51.69 51.24 52.83 55.60 54.10 47.52 39.05 37.95 40.51 42.92 42.32 42.49 38.77 41.08 43.27 42.75 42.39 41.16 40.89 42.46 42.49 37.89 35.05 33.70 39.84 41.39 40.99 41.80 37.29 35.12 38.45 34.18 31.58 30.44 33.39 36.61 38.53 41.67 42.02 43.60 43.67 43.97 43.56 44.61
48.92 47.30 50.49 54.06 54.81 51.72 45.88 41.58 43.27 46.12 44.72 44.78 38.66 41.16 38.49 39.18 38.77 40.10 39.60 45.32 45.23 46.06 44.15 38.82 32.19 38.51 39.69 41.15 39.25 38.52 40.42 34.06 33.30 28.21 26.18 30.14 31.38 34.79 36.98 39.78 42.22 42.60 42.85 43.35 43.94
46.57 44.94 51.71 54.22 54.23 49.26 42.37 43.37 45.70 47.06 48.12 45.86 43.03 40.76 39.65 39.55 39.80 40.85 41.37 44.50 46.66 45.87 45.09 41.24 37.16 35.38 38.27 36.96 36.97 36.94 34.76 34.69 34.71 32.78 28.60 26.25 31.22 37.95 38.76 40.64 42.60 43.19 43.85 44.03 43.67
45.52 40.84 52.71 54.54 43.81 43.83 43.23 46.36 47.53 47.74 49.61 47.80 46.40 43.80 43.06 44.42 42.60 41.12 41.14 43.33 47.06 46.96 42.92 42.98 37.82 32.93 35.57 39.23 40.54 38.44 38.04 36.07 31.54 30.26 29.86 28.48 31.80 40.13 38.47 40.80 42.17 43.44 44.72 43.54 44.45
42.19 45.42 52.85 52.21 41.37 40.09 44.21 45.04 46.80 46.68 46.78 47.45 46.39 47.86 47.34 44.22 41.13 42.91 43.30 47.09 47.70 45.92 43.71 44.22 38.30 32.47 33.72 37.33 39.12 37.75 38.69 37.62 36.63 34.85 31.82 29.40 32.35 40.80 41.23 40.18 41.96 42.79 43.08 43.88 44.43
42.84 40.96 44.53 43.73 42.60 42.03 42.16 41.88 43.05 47.80 46.76 47.24 46.66 47.67 45.12 42.85 44.21 41.65 42.24 45.48 46.58 45.95 47.53 45.85 38.27 36.29 34.47 35.46 38.16 36.49 39.14 38.70 36.52 31.27 31.67 32.19 33.73 37.22 39.47 41.28 42.62 43.64 44.92 42.91 44.51
41.23 39.19 41.69 39.74 39.58 39.97 41.46 43.41 41.68 42.42 46.41 47.01 45.25 44.93 44.00 40.57 40.64 40.39 42.39 43.13 45.05 46.29 43.31 41.89 36.19 36.41 36.70 37.96 37.70 38.00 38.19 38.68 36.60 35.09 33.51 33.76 35.61 37.58 40.04 40.78 42.32 42.28 41.97 43.04 41.93
40.75 39.20 40.35 39.07 40.20 38.90 38.86 38.00 40.83 41.48 43.27 43.18 41.84 42.21 42.41 39.83 40.81 40.73 42.47 41.83 41.99 42.87 41.72 41.44 36.14 36.36 33.70 36.95 36.53 34.92 36.42 36.51 36.93 37.82 37.48 36.91 37.65 41.53 42.32 40.32 41.27 39.49 41.55 41.70 40.64
43.32 43.45 39.75 39.22 37.49 36.81 37.25 38.96 40.53 42.99 43.10 42.76 43.91 41.53 38.63 39.45 41.62 42.25 43.83 43.71 43.72 42.09 40.05 38.83 36.00 33.42 29.59 34.86 35.43 32.50 34.99 34.81 33.93 35.00 35.99 32.62 37.02 40.27 40.40 42.12 41.16 40.95 41.57 40.88 39.47

GFSSW_sfc_wetblb_009.txt.gz
Wetbulb
56.46 57.08 57.48 57.63 57.65 57.75 58.31 58.82 59.46 59.75 60.04 60.27 60.40 60.68 60.20 60.32 59.89 55.20 51.53 55.01 59.29 66.53 67.98 60.72 59.81 56.96 56.42 52.86 51.44 47.01 40.31 36.70 38.44 38.21 41.44 46.51 46.58 49.67 51.29 48.86 50.48 50.69 50.56 53.55 55.28
55.90 56.36 56.61 56.99 57.23 57.53 57.69 58.28 58.64 59.05 59.09 59.32 59.61 59.80 59.85 59.66 53.40 51.11 56.95 61.13 62.89 65.93 62.16 55.10 53.77 54.39 50.72 49.98 48.67 45.09 39.96 41.86 44.81 42.63 43.99 47.72 46.93 48.29 48.56 47.98 48.43 49.55 55.65 55.78 56.49
55.72 55.89 56.34 56.47 56.72 57.34 57.43 57.60 57.93 58.16 58.36 58.58 58.88 58.90 58.84 57.35 48.89 47.05 59.68 61.78 62.67 63.20 63.01 59.55 55.48 53.59 49.05 47.92 46.73 45.01 41.92 45.86 47.52 48.15 48.83 47.79 47.36 48.60 46.67 46.06 49.16 49.32 50.36 55.01 55.55
55.69 55.70 55.57 55.77 55.96 56.32 57.03 57.32 57.41 57.47 57.80 58.00 58.28 58.52 58.35 53.98 36.45 49.11 59.47 61.86 62.67 60.48 60.54 59.28 54.50 48.98 47.08 46.20 49.01 43.35 47.51 47.62 49.35 50.28 48.87 47.08 48.21 46.87 47.40 48.91 51.24 51.06 51.08 55.12 55.42
55.55 55.99 55.67 55.37 55.03 55.09 55.82 56.67 56.90 57.06 57.43 57.48 57.57 57.69 53.59 47.12 45.22 53.36 58.92 60.04 58.61 58.01 58.19 57.17 50.15 48.53 46.11 46.95 47.65 44.93 47.72 49.59 50.28 49.92 48.32 48.33 45.82 45.92 47.22 50.08 50.18 50.77 51.46 54.18 55.42
56.04 55.94 56.06 55.99 55.53 55.58 55.08 55.78 56.39 56.87 56.91 56.90 57.20 57.16 49.92 41.00 51.91 53.94 53.35 54.62 56.27 56.28 59.12 57.18 52.19 51.73 48.42 47.90 47.20 48.51 48.46 48.71 48.20 48.14 46.96 45.98 46.26 45.31 47.67 49.17 49.03 48.81 49.93 51.98 55.13
56.05 55.92 55.58 55.38 55.60 55.67 55.50 55.40 55.45 56.03 56.50 56.55 56.92 53.52 47.87 44.42 51.26 54.13 53.59 53.47 56.32 58.38 58.25 58.94 55.39 53.32 51.37 47.78 51.02 47.75 43.37 45.04 46.16 47.17 46.04 45.97 44.11 43.96 48.40 46.83 46.47 46.71 47.28 48.61 50.76
55.94 55.64 55.25 55.14 55.39 55.29 55.54 55.40 55.35 55.72 56.07 56.53 56.66 51.31 43.80 52.51 53.65 52.65 53.18 53.88 55.92 59.35 60.39 59.73 57.55 54.93 50.25 51.92 45.25 41.71 40.46 37.47 43.75 44.65 45.73 46.49 39.47 45.97 48.21 45.50 46.38 45.39 43.34 44.46 46.57
55.76 55.60 56.05 56.17 55.26 54.26 54.62 55.10 55.15 55.14 55.86 55.94 50.86 48.18 42.27 54.06 49.28 52.18 52.37 50.29 53.07 56.82 59.91 60.80 57.20 52.61 50.08 44.48 40.25 40.12 34.54 35.87 40.03 44.03 42.84 42.57 39.82 46.14 45.56 44.55 45.11 42.09 42.93 45.70 46.75
54.41 55.24 55.54 55.86 55.98 55.05 54.74 54.87 54.64 54.19 53.15 52.90 51.27 43.64 45.71 45.19 50.75 52.80 53.18 51.62 53.47 53.66 55.74 55.83 53.35 45.94 45.82 43.61 39.51 36.45 34.82 36.69 36.17 40.82 40.90 39.30 40.88 45.65 44.05 43.09 40.41 40.70 42.63 44.69 46.59
55.25 55.21 55.14 55.31 55.97 56.08 53.84 50.55 45.06 44.79 47.30 42.33 44.15 44.33 46.52 49.70 53.70 51.11 52.77 50.06 52.72 51.90 48.43 52.98 47.29 43.77 43.46 44.70 45.06 40.31 37.07 35.14 37.79 41.50 39.49 39.57 40.76 43.54 43.54 41.68 40.59 41.96 43.15 44.62 46.11
54.45 54.47 54.72 55.53 55.95 56.10 52.76 46.91 46.54 46.79 40.85 46.57 46.30 46.59 48.91 51.71 47.21 50.45 53.36 47.14 47.51 43.72 49.85 49.06 44.24 48.16 47.77 45.14 41.56 40.21 36.10 36.27 40.10 42.24 40.01 38.47 39.75 42.41 41.75 41.26 41.11 42.51 43.08 44.47 45.31
55.58 54.80 55.61 56.05 55.57 54.08 49.73 49.23 53.68 51.48 41.31 42.64 45.52 45.37 46.56 49.99 45.47 48.72 51.30 49.93 45.03 42.86 46.85 44.76 47.25 50.49 48.32 46.14 41.88 39.13 36.40 35.92 37.04 41.06 40.11 38.19 37.67 39.76 40.33 41.31 43.40 43.61 44.39 45.58 45.67
55.82 55.66 55.65 55.83 51.52 52.39 48.23 53.03 54.25 53.11 34.46 36.96 41.92 45.32 47.43 48.31 44.28 53.06 53.03 50.74 46.23 41.56 46.13 46.43 48.35 48.26 45.73 41.97 45.43 41.17 41.74 40.29 39.28 36.54 32.93 37.95 30.59 35.79 37.99 39.87 41.59 41.17 42.85 44.67 45.41
56.21 55.78 55.14 54.64 52.78 50.10 52.65 53.67 54.00 48.41 22.02 39.08 42.34 51.92 50.10 44.45 46.96 48.90 55.06 52.18 43.94 43.57 46.08 43.12 45.74 46.33 45.50 44.01 42.46 39.98 42.37 39.98 38.98 35.01 31.42 32.95 31.75 35.83 36.94 38.46 40.53 40.96 41.74 43.26 45.27
56.29 56.25 55.16 54.59 53.89 53.96 55.07 54.12 49.05 34.20 27.71 37.33 43.29 41.61 42.78 44.70 46.07 49.86 50.62 52.81 51.10 45.93 45.93 43.37 49.30 48.97 47.86 45.94 42.90 43.10 39.32 37.59 34.86 33.28 28.38 33.02 33.83 34.15 35.14 39.66 39.27 40.47 41.66 43.72 45.05
55.86 55.95 54.79 55.42 49.86 55.57 55.21 49.99 36.17 29.36 38.83 37.17 37.94 42.00 41.32 40.54 44.29 45.85 45.81 45.96 41.83 38.84 39.48 40.62 42.15 44.07 43.80 41.18 40.53 39.15 35.40 29.67 28.35 28.13 28.04 31.76 31.03 38.03 38.97 40.62 43.43 42.72 42.00 42.98 44.70
55.01 55.09 54.56 53.62 56.53 55.28 51.72 40.95 30.77 37.50 37.52 43.77 42.51 41.57 37.66 42.26 43.35 44.74 44.03 43.24 45.29 41.31 40.54 36.06 34.28 39.41 41.05 40.10 37.45 36.58 36.81 30.59 26.13 25.78 28.35 32.50 29.51 36.58 39.29 40.66 44.27 44.88 43.25 43.12 44.00
55.07 50.90 50.89 53.49 56.00 54.56 45.88 33.89 36.91 40.29 43.43 41.34 40.64 37.14 39.55 42.68 43.60 42.83 41.97 41.65 43.62 44.60 38.22 35.18 35.69 39.16 39.97 40.55 41.66 35.97 34.03 37.56 33.43 29.69 28.33 31.46 34.91 38.12 40.84 39.77 41.53 42.38 42.45 42.35 43.67
49.54 46.26 49.68 54.01 55.59 51.77 42.99 38.78 42.43 45.09 45.00 43.32 37.58 40.53 37.25 39.73 40.27 39.90 40.36 43.71 42.66 43.65 41.47 38.11 31.30 38.18 38.58 40.13 38.55 38.19 39.80 33.42 31.94 27.53 25.62 28.70 29.68 34.36 36.89 37.97 39.98 40.85 41.45 42.29 43.26
45.62 43.65 51.35 55.35 54.39 47.44 41.22 42.26 43.36 46.79 47.55 44.64 41.11 40.12 40.29 39.25 40.66 39.82 40.26 43.81 46.83 45.04 44.87 38.64 35.57 33.90 37.39 35.73 35.46 35.14 33.26 33.57 34.17 31.32 27.34 25.29 30.36 36.86 37.80 40.37 41.14 41.96 42.60 42.64 42.43
43.75 39.49 52.15 54.10 45.74 45.78 42.49 46.50 45.82 45.55 49.26 47.60 44.48 42.73 39.86 40.12 40.53 41.58 40.31 41.60 46.97 46.08 41.96 41.19 35.77 32.51 33.31 38.46 38.80 36.16 36.08 34.69 30.58 29.01 27.92 26.90 30.68 37.98 39.01 40.36 42.37 42.69 42.83 42.27 43.08
40.96 45.21 52.44 51.21 41.38 42.06 45.60 46.11 47.60 47.06 47.05 46.47 42.96 44.91 45.48 41.99 40.53 41.05 42.56 45.47 46.51 45.12 43.58 43.30 36.70 31.97 32.58 36.76 37.61 36.24 36.63 35.62 34.83 33.45 29.32 27.77 31.36 39.69 38.35 39.15 40.52 41.91 42.97 43.66 43.26
41.66 38.34 45.00 47.80 43.76 43.81 42.05 43.30 43.96 48.31 46.74 47.18 46.67 46.78 43.57 41.35 42.45 40.19 41.28 44.67 45.53 45.20 47.21 45.20 37.58 34.51 32.55 34.08 37.09 35.02 37.35 36.39 35.77 30.63 30.44 30.83 32.98 36.72 39.45 40.56 41.18 41.92 43.68 42.06 42.94
40.00 37.96 40.26 36.87 39.01 42.57 42.83 43.67 42.91 43.28 47.08 47.21 45.45 45.75 44.03 39.79 39.32 39.75 42.02 42.57 44.61 45.83 43.17 41.19 36.03 35.99 35.09 36.52 37.21 37.08 37.62 36.77 34.74 33.96 32.65 32.57 34.16 36.01 37.16 38.97 40.28 42.44 41.84 42.90 42.77
39.45 38.35 39.19 37.87 39.37 39.78 39.70 40.05 40.39 41.29 44.88 44.19 43.64 43.35 44.33 41.29 40.81 40.14 41.70 41.31 41.70 41.97 39.90 39.41 34.47 34.38 31.18 34.90 34.57 32.73 34.85 37.39 36.78 36.37 35.36 35.89 35.44 39.81 40.01 39.70 41.58 41.23 40.06 41.09 40.44
42.22 42.49 39.29 38.56 36.46 36.23 37.37 39.66 41.52 41.97 42.47 44.31 43.32 40.92 39.87 39.54 40.86 42.19 42.71 41.69 41.65 40.59 38.78 37.34 34.63 31.83 28.20 32.69 33.00 30.37 33.90 34.02 33.60 34.67 36.19 32.81 36.59 39.84 39.97 40.89 40.06 40.46 40.30 41.27 39.69

GFSSW_sfc_wetblb_012.txt.gz
Wetbulb
56.40 56.78 57.08 57.56 57.75 57.84 57.98 58.54 59.15 59.96 60.49 60.70 60.72 60.90 61.03 60.68 59.64 54.48 50.74 54.48 57.06 64.05 66.71 60.61 58.87 56.73 55.35 52.37 50.15 45.74 40.13 36.95 38.70 37.83 40.16 44.64 46.27 48.64 49.33 47.36 48.94 48.93 49.53 52.32 55.65
56.33 56.36 56.50 56.78 56.96 57.34 57.59 57.62 58.34 58.76 59.25 59.66 59.85 60.11 60.27 59.55 52.51 50.61 56.46 60.64 62.00 63.33 59.77 56.57 54.19 53.86 49.62 49.97 47.70 44.31 39.49 41.44 44.52 42.08 41.97 46.32 46.11 48.04 47.02 46.46 46.70 47.61 52.52 55.21 55.56
56.27 56.11 56.28 56.56 56.65 56.80 57.49 57.47 57.65 58.07 58.54 58.84 59.05 59.30 59.32 56.25 48.26 46.83 59.80 61.69 61.85 61.68 59.58 59.96 55.82 52.82 48.61 46.87 45.79 44.16 41.28 44.90 46.79 47.02 46.72 47.10 47.24 48.04 45.32 44.96 47.55 48.37 49.99 51.78 54.46
55.95 56.02 56.15 56.02 56.03 56.24 56.57 57.31 57.24 57.53 57.64 57.85 58.17 58.36 58.23 53.27 38.43 48.94 59.38 60.57 62.16 59.09 58.17 59.32 54.72 48.85 47.00 45.51 47.76 42.82 46.40 46.29 48.46 49.37 48.22 46.68 47.84 46.34 46.34 47.88 50.32 49.87 49.83 49.28 53.85
55.48 56.13 56.34 56.17 55.75 55.28 55.38 56.20 56.71 57.10 57.23 57.52 57.73 57.50 53.30 47.05 44.95 51.86 57.97 56.57 57.44 56.55 55.31 56.66 49.78 47.79 45.65 46.15 46.95 44.46 46.54 48.47 49.24 49.26 48.25 48.05 45.62 45.21 46.46 49.14 49.98 49.41 49.37 48.97 51.57
56.03 56.38 56.15 55.96 56.28 55.74 55.74 55.23 55.95 56.47 56.68 57.08 57.21 56.76 49.02 41.19 50.58 52.96 52.88 51.42 54.55 54.62 55.12 57.20 51.37 50.44 47.50 47.11 46.81 47.82 48.19 48.39 48.32 48.37 47.03 45.71 46.18 45.19 46.43 47.42 47.96 47.95 47.59 47.38 49.76
56.66 56.52 56.27 55.58 55.44 55.68 55.92 55.73 55.20 55.83 56.21 56.50 56.98 53.12 47.46 43.93 50.38 51.70 53.47 51.26 53.76 54.72 53.90 58.11 55.30 52.52 50.97 47.13 49.53 47.74 43.32 45.13 45.00 45.72 45.82 45.48 43.90 43.21 47.48 45.25 46.24 45.68 44.68 45.95 46.64
56.62 56.36 56.11 55.97 55.38 55.63 55.62 55.90 55.51 55.53 55.47 56.21 56.47 50.24 42.30 51.74 52.49 50.97 51.62 52.04 54.40 56.18 55.71 59.32 56.99 54.46 51.19 51.15 45.33 42.56 39.83 36.80 43.46 43.77 44.89 44.62 39.60 44.63 46.53 44.80 45.80 44.61 42.60 44.01 46.91
55.84 55.22 55.39 55.94 56.13 55.75 54.85 54.97 55.54 55.24 55.20 55.52 50.60 47.28 41.35 53.05 48.37 50.72 51.08 48.47 52.09 54.00 57.70 60.29 56.44 52.05 51.47 45.48 39.52 39.24 36.06 35.06 39.60 43.42 42.47 41.57 38.39 43.54 44.29 43.90 42.81 41.34 41.80 44.03 45.90
56.02 54.90 55.05 55.56 55.85 56.26 55.18 54.16 54.24 53.44 52.58 52.02 50.85 43.07 44.44 43.90 48.69 50.38 52.00 51.16 51.12 51.43 53.38 54.44 52.47 46.82 45.21 41.55 38.53 35.60 34.63 35.35 36.54 39.97 39.68 39.03 39.29 44.63 43.71 42.33 40.74 40.32 41.67 43.20 45.33
56.31 55.12 54.63 55.07 55.44 56.02 54.05 49.43 43.95 43.31 46.17 41.86 41.86 42.57 45.00 48.13 51.96 49.29 51.39 48.98 49.24 48.93 46.42 51.19 46.84 42.99 43.88 46.44 42.56 40.36 36.67 36.71 37.70 40.41 37.65 37.88 37.96 41.93 43.27 41.88 40.39 39.91 42.16 42.62 45.08
56.93 55.78 54.38 54.97 55.63 56.16 52.51 45.42 45.78 47.28 39.00 44.88 46.05 44.97 48.06 49.67 45.45 48.10 51.43 45.20 45.70 38.29 47.68 48.92 43.39 47.05 46.46 45.35 43.20 39.61 38.76 35.27 40.05 40.66 38.18 38.41 38.54 41.62 41.65 41.64 40.24 41.30 42.40 43.30 43.96
56.66 55.14 55.29 55.83 56.14 54.44 49.64 47.66 52.71 50.86 40.81 41.46 44.25 44.81 45.65 47.78 44.04 46.01 48.36 46.89 43.18 38.43 43.23 44.75 46.73 49.07 46.82 42.66 42.80 38.90 38.55 36.71 38.15 39.52 39.06 36.83 36.33 37.71 39.33 40.03 41.15 42.23 43.24 43.98 44.53
56.36 55.40 55.19 55.94 52.30 51.95 48.63 53.04 53.58 51.33 35.38 36.04 40.00 43.60 46.65 46.92 42.28 50.62 49.88 47.85 44.42 38.11 43.12 46.03 49.42 47.75 45.69 43.93 43.94 39.60 41.81 40.87 38.38 35.51 31.77 36.60 29.88 34.83 37.09 38.34 40.10 40.31 42.55 43.58 44.48
56.53 56.39 55.33 55.54 51.73 48.93 51.64 53.69 53.19 49.13 21.89 37.32 40.59 49.34 46.90 42.56 44.21 46.34 50.70 47.69 42.30 40.44 45.07 43.91 45.91 46.49 44.83 45.65 45.82 42.07 44.01 41.70 40.24 34.15 29.88 32.18 30.75 34.02 34.72 36.91 39.24 39.83 41.12 42.77 43.87
56.37 56.49 55.41 53.98 53.30 53.27 54.13 53.21 49.18 33.56 23.22 34.94 41.71 40.68 40.36 42.08 44.04 47.44 47.30 50.91 49.79 42.96 45.88 44.40 48.30 48.41 47.79 47.16 45.73 44.83 41.02 39.02 34.79 32.61 27.73 32.16 32.93 31.69 34.29 36.65 37.54 39.46 40.64 43.11 44.03
56.10 55.96 54.73 55.16 49.34 55.07 53.16 47.52 33.92 28.46 36.91 35.72 36.09 39.90 38.72 38.78 40.93 43.31 42.38 41.39 40.37 35.94 38.01 41.10 43.71 45.69 45.87 42.44 42.58 41.83 38.01 31.41 28.04 27.69 27.51 30.50 29.30 34.04 37.43 39.04 41.42 41.84 41.02 42.33 43.76
55.43 55.14 54.11 53.68 55.65 54.03 50.18 39.82 29.91 35.56 33.49 41.45 39.02 38.52 35.92 39.32 39.97 42.05 41.13 39.45 45.27 38.33 37.48 35.87 34.85 40.66 41.33 43.28 39.92 39.22 35.67 29.86 25.98 24.97 27.27 30.75 28.45 34.84 37.56 39.85 41.01 43.67 42.77 42.64 43.30
55.15 51.24 51.13 52.91 55.78 53.50 42.33 32.84 34.12 39.15 40.41 39.84 39.11 34.49 36.01 38.89 41.60 40.21 40.33 40.03 44.37 42.36 35.43 36.33 35.20 39.68 41.68 42.72 44.38 35.28 34.71 36.40 31.67 27.63 27.57 30.66 33.53 38.78 39.44 39.32 39.02 40.77 41.75 41.80 42.70
48.93 46.56 48.26 53.79 55.82 50.06 39.79 35.49 38.99 45.06 43.52 41.90 35.12 38.13 33.12 36.82 39.21 38.76 39.59 44.23 43.69 44.72 41.14 37.32 30.91 38.87 39.14 41.53 39.82 37.86 39.56 32.72 31.44 26.89 25.17 27.97 28.47 33.03 36.48 37.99 38.48 38.95 40.12 41.11 42.31
46.09 42.16 51.48 54.49 53.90 45.60 36.10 36.69 43.71 46.52 45.19 42.78 39.84 37.48 38.27 36.30 40.20 38.54 38.63 43.35 45.00 42.93 40.61 37.25 34.02 34.01 38.60 35.24 35.01 34.81 33.38 32.60 33.77 30.72 26.76 24.72 29.66 35.44 36.59 37.42 39.61 39.62 40.48 41.05 42.18
42.89 38.77 52.98 53.44 43.60 44.24 38.42 44.57 45.99 45.91 48.63 46.60 45.17 42.62 39.45 40.98 40.05 39.55 39.40 42.49 46.55 45.39 39.04 38.84 34.20 30.30 33.41 37.42 37.77 35.75 35.05 34.35 30.63 27.57 26.63 26.22 30.09 37.16 37.08 38.09 40.31 40.88 41.62 41.38 42.41
40.42 46.23 52.81 51.95 41.01 42.33 45.52 45.13 46.64 45.47 45.75 45.75 42.22 44.59 44.54 41.57 39.31 42.64 43.09 46.18 46.31 44.47 41.19 41.12 34.71 30.63 34.12 36.12 36.75 35.04 34.74 34.16 33.39 31.53 26.85 26.90 30.46 38.88 36.76 38.65 40.23 40.95 41.72 42.68 42.16
40.72 39.08 46.62 47.87 46.34 43.06 43.31 43.41 43.72 48.31 46.82 46.80 44.81 45.69 43.29 41.24 43.46 40.70 41.06 44.72 45.92 45.65 47.21 45.51 36.70 33.40 31.90 32.95 36.41 33.68 34.86 34.00 34.49 29.31 29.03 29.49 32.71 36.73 37.52 38.29 39.57 40.74 41.45 41.49 41.56
39.68 37.51 41.45 39.12 41.11 41.97 43.48 44.67 43.29 43.44 46.96 46.99 44.18 44.09 42.03 38.53 39.20 39.91 40.59 41.08 42.76 46.18 42.11 41.23 35.17 34.51 34.03 36.82 37.09 36.88 36.95 34.77 33.71 34.29 32.73 34.01 33.53 36.36 37.66 38.56 39.53 40.06 40.51 40.99 41.44
38.74 37.76 38.03 38.13 40.35 41.48 40.14 41.72 42.55 41.40 44.32 43.65 42.76 43.04 43.19 41.51 40.63 39.15 40.61 40.47 39.43 40.22 39.80 39.66 34.58 33.42 30.35 33.84 33.43 32.97 35.94 35.20 34.52 34.15 32.75 34.06 34.17 38.09 37.89 39.49 40.49 39.28 40.75 40.70 41.46
40.91 43.34 38.82 38.76 38.01 38.52 38.92 40.69 41.94 42.81 43.35 42.57 44.21 42.35 38.92 39.89 39.77 41.46 41.11 40.61 41.89 40.10 37.97 36.72 34.29 32.49 28.29 31.91 31.71 29.35 32.92 35.04 34.89 35.17 36.40 33.52 36.44 38.29 39.16 40.80 40.46 40.90 40.46 40.50 40.37

GFSSW_sfc_wetblb_015.txt.gz
Wetbulb
56.37 56.38 56.51 56.91 57.38 57.75 58.04 58.21 58.72 59.46 60.40 60.77 60.88 61.01 61.11 61.00 60.09 55.79 51.19 54.59 56.69 61.91 62.59 61.01 60.20 59.65 57.34 55.10 52.17 49.24 44.13 41.09 42.88 41.06 45.39 47.44 49.02 51.64 52.81 51.14 51.65 53.10 54.29 56.82 59.20
56.73 56.46 56.29 56.51 56.77 57.06 57.45 57.69 57.90 58.50 58.85 59.40 59.74 60.22 60.16 59.58 54.35 51.83 56.77 60.76 61.49 61.84 57.54 57.92 55.50 55.62 52.49 52.82 50.52 47.75 43.64 43.90 47.29 45.62 45.58 48.10 49.11 50.67 50.47 49.67 50.58 51.97 54.69 57.80 58.86
56.26 56.22 56.24 56.23 56.44 56.90 57.00 57.66 57.64 57.73 58.16 58.63 58.95 59.12 59.09 56.43 49.79 49.30 60.03 62.08 62.53 61.33 57.81 58.64 59.05 54.38 50.62 50.43 49.11 46.92 44.42 46.94 48.60 48.79 48.48 48.55 49.56 51.25 49.16 48.72 50.62 51.51 53.16 53.79 56.36
55.77 55.78 55.74 56.22 56.20 56.11 56.48 56.77 57.58 57.44 57.68 57.99 58.25 58.36 58.07 52.74 38.34 49.59 59.58 59.06 61.92 59.61 56.50 56.38 57.18 50.30 49.30 47.14 49.13 45.51 47.44 48.25 49.97 50.98 50.70 49.11 50.61 49.30 49.28 51.79 53.24 53.10 52.47 51.85 52.76
55.95 55.63 56.07 56.30 56.54 55.99 55.66 55.70 56.63 57.12 57.34 57.32 57.53 57.50 53.44 47.68 46.56 53.03 57.04 55.56 55.31 57.32 53.90 53.62 53.27 50.27 48.55 48.73 48.09 46.19 48.40 49.25 50.12 50.26 49.75 50.20 48.83 49.28 49.21 51.91 52.83 51.28 51.80 51.54 51.39
56.38 56.28 56.51 56.39 56.17 56.56 56.05 56.03 55.56 56.35 56.84 56.74 57.22 56.81 49.39 41.65 51.32 53.70 52.64 52.29 52.23 54.76 53.79 54.32 54.11 51.83 49.59 48.61 48.80 49.36 49.60 50.16 50.25 50.79 49.45 47.91 49.37 47.85 52.09 51.33 50.86 50.24 50.33 49.70 49.61
56.59 56.98 56.84 56.25 56.33 55.86 56.16 56.07 55.86 55.36 56.29 56.80 56.80 53.20 47.48 44.50 51.32 52.13 52.50 51.63 51.96 54.44 51.94 55.24 57.04 52.02 51.10 47.99 50.44 49.51 46.81 47.63 47.65 48.64 48.39 48.04 45.34 44.80 51.18 49.89 49.57 49.45 48.13 48.52 49.37
56.61 56.68 56.44 56.27 56.44 56.10 55.92 55.87 55.99 55.93 55.14 55.81 56.00 50.73 43.51 51.99 53.06 51.37 51.48 50.29 54.01 54.82 54.95 56.21 57.37 54.61 51.39 50.92 47.88 46.03 45.00 42.33 47.09 46.84 47.22 47.38 43.45 47.72 47.74 47.39 48.02 47.95 47.16 48.65 49.45
56.47 56.19 55.21 55.39 56.24 56.40 56.36 55.58 55.29 55.55 55.05 54.61 50.25 47.85 41.20 52.85 48.76 50.52 50.66 47.88 50.97 54.59 55.02 55.90 56.28 52.76 51.50 44.86 41.92 41.95 39.83 38.75 43.22 46.67 46.55 45.14 42.57 46.82 47.92 47.54 47.27 46.80 47.43 48.44 49.14
56.95 56.97 55.39 54.97 55.33 56.00 56.40 54.54 53.78 53.66 52.56 52.23 50.44 43.76 44.87 43.68 48.82 50.12 51.00 50.32 48.68 51.69 51.15 50.62 51.59 47.97 47.31 44.34 37.99 38.29 37.95 38.72 40.16 44.02 43.00 42.10 41.84 45.33 46.44 46.15 47.02 46.49 46.78 47.80 48.26
56.93 56.93 55.61 54.44 54.37 55.17 55.07 50.52 44.31 43.04 46.21 41.42 42.47 41.58 44.61 47.30 50.72 48.74 50.28 48.14 47.70 48.70 42.20 47.28 46.34 42.92 44.85 45.80 45.01 40.60 39.92 41.11 42.49 43.35 41.78 41.23 40.46 44.20 46.35 45.39 45.25 44.24 46.01 47.14 47.86
56.97 56.91 56.10 55.18 54.99 55.53 53.72 45.59 44.73 45.57 38.59 44.67 45.07 44.75 47.13 49.39 44.59 47.48 50.35 43.34 43.26 40.13 43.95 44.83 42.92 47.09 47.30 46.07 43.90 41.41 40.04 38.49 41.63 42.55 41.90 41.52 41.43 44.66 44.84 45.05 45.46 44.23 45.51 46.91 47.65
56.49 56.51 54.91 54.37 55.72 54.68 50.11 47.32 52.15 50.36 39.65 41.40 43.46 43.71 45.36 46.69 42.86 44.43 47.05 45.67 43.35 39.11 40.88 41.58 44.87 49.11 46.73 44.85 43.23 40.91 39.12 38.66 40.66 41.53 41.74 39.44 39.72 41.05 43.83 44.20 43.63 44.26 46.42 47.02 47.62
56.42 56.57 55.75 54.93 52.69 52.62 48.74 51.96 52.39 50.33 34.05 36.33 38.44 42.13 46.28 46.73 40.78 47.76 48.58 46.34 43.95 37.88 40.60 43.12 48.84 46.78 45.47 43.22 44.50 40.13 42.88 42.82 40.92 40.33 36.43 40.60 33.66 38.33 42.52 41.72 42.56 43.49 45.44 46.32 47.02
56.68 56.59 56.21 54.15 51.30 48.86 51.17 52.93 52.05 47.07 23.59 37.93 39.11 48.49 47.06 41.77 43.04 44.68 49.23 46.30 41.22 39.42 41.48 42.00 46.35 45.08 43.62 43.99 45.32 42.57 45.11 43.62 42.26 38.81 35.39 35.90 34.85 38.34 38.92 39.41 41.38 42.64 44.41 45.96 47.08
56.43 56.37 55.79 53.02 53.18 53.22 53.68 52.97 48.93 33.28 22.85 35.35 41.09 40.04 40.01 41.73 42.46 45.62 44.43 48.15 49.07 41.68 42.46 44.69 50.36 48.60 47.33 46.99 47.08 42.76 40.63 39.91 38.19 36.92 31.11 34.76 36.09 36.61 38.46 40.14 40.58 42.36 43.82 45.63 46.29
56.44 56.11 54.21 53.97 49.59 54.62 53.42 46.76 32.82 27.28 37.17 34.78 35.84 39.02 37.56 37.15 38.88 41.11 39.88 38.36 37.91 33.31 34.49 41.12 45.61 47.96 48.79 42.55 43.45 42.22 41.14 33.54 30.63 30.88 30.38 33.64 32.70 37.85 40.42 41.85 43.25 43.70 43.85 45.35 46.58
55.82 55.24 53.48 52.80 54.61 53.53 49.42 39.77 28.81 33.58 32.89 39.90 38.00 37.98 34.83 38.05 38.67 39.86 37.72 35.62 40.67 40.50 34.74 35.11 34.97 42.27 45.01 45.15 41.08 41.49 40.58 33.36 28.08 27.68 30.48 32.77 31.59 38.05 41.61 42.93 42.93 44.68 45.07 45.49 45.84
55.26 51.56 50.93 51.54 54.41 52.26 43.09 31.27 32.11 35.53 36.45 37.72 37.15 33.10 33.87 37.46 38.24 38.90 37.87 36.58 40.07 41.16 33.90 34.83 35.73 42.10 42.28 43.47 45.41 38.69 37.36 39.64 32.81 31.64 30.61 33.64 36.73 41.40 42.07 41.69 41.35 42.16 43.78 44.94 45.42
48.75 47.01 48.50 53.26 54.48 47.71 36.92 34.52 37.22 41.64 41.17 39.80 31.58 34.48 30.60 34.46 36.12 37.45 35.67 42.42 40.62 44.27 41.12 38.36 32.21 38.20 39.30 42.24 40.69 41.27 41.98 35.93 33.78 29.19 27.54 31.24 31.69 36.17 39.23 39.74 40.81 40.54 42.74 43.86 44.79
47.57 43.11 51.58 54.27 52.83 42.65 34.03 35.18 39.32 43.92 43.11 38.76 37.25 35.22 33.64 33.36 37.52 36.78 36.54 42.68 45.01 44.02 41.03 37.33 35.12 33.88 38.17 37.39 35.79 36.78 35.83 35.26 36.12 33.22 29.94 28.06 32.87 38.40 39.01 39.61 40.53 41.35 42.88 43.98 44.54
42.07 40.74 52.80 53.62 41.92 41.27 37.55 40.25 43.51 45.01 45.67 43.95 43.10 40.26 36.22 36.55 36.54 37.65 38.21 41.08 46.92 45.12 37.81 38.35 34.96 32.67 33.48 38.20 39.79 38.93 37.33 36.81 32.74 29.73 29.14 29.99 33.25 39.72 38.69 38.86 40.17 41.75 42.82 43.85 45.15
40.55 45.74 52.54 50.84 38.66 37.92 41.64 41.47 42.36 44.75 44.12 44.94 43.00 43.36 41.16 36.87 37.55 40.07 41.40 44.72 46.62 45.26 40.04 40.82 35.00 31.11 34.29 37.48 38.10 35.44 35.20 36.17 35.11 33.29 28.74 29.81 33.40 40.40 40.35 41.49 42.17 41.90 42.81 43.64 44.04
40.54 41.79 46.10 46.41 45.97 42.48 42.83 42.60 42.83 47.88 46.41 47.31 43.60 44.43 41.17 40.30 43.00 39.28 42.03 45.21 46.45 45.16 47.37 45.31 36.64 34.46 32.59 34.06 36.69 34.70 34.79 34.62 36.84 31.25 30.90 31.23 35.02 38.42 40.55 41.54 41.89 42.65 43.57 43.59 43.48
39.58 37.88 43.03 39.20 41.16 42.38 44.76 44.22 41.25 42.82 46.48 47.36 43.92 43.01 40.94 38.23 40.35 40.01 41.85 42.03 44.42 46.77 43.81 42.07 36.21 35.04 33.99 36.62 37.57 36.31 36.05 34.37 34.60 37.06 35.59 35.84 34.61 38.59 40.47 41.49 42.68 43.43 43.34 43.01 42.43
38.71 36.33 38.23 39.07 39.85 42.46 42.53 42.78 42.23 43.26 43.99 43.54 42.59 43.12 43.68 39.07 40.13 39.02 40.59 41.23 41.18 41.53 40.37 39.92 35.33 34.63 31.74 34.85 36.24 35.32 36.40 36.66 36.65 34.76 35.40 35.34 35.82 40.02 40.96 41.71 41.98 42.68 42.25 42.24 42.40
40.78 40.99 39.13 40.40 38.22 39.71 39.54 41.90 43.00 43.74 44.68 41.71 43.74 42.24 42.42 40.03 41.16 44.58 44.17 42.50 42.84 39.95 37.71 38.77 34.26 33.78 30.49 32.82 33.34 31.29 34.16 35.45 36.65 35.88 38.28 34.57 40.33 39.43 40.33 41.18 41.61 41.79 42.45 42.38 42.35

GFSSW_sfc_wetblb_018.txt.gz
Wetbulb
56.40 56.67 56.53 56.46 56.75 57.11 57.45 57.79 58.16 58.87 59.86 60.50 61.05 61.11 61.28 61.58 60.61 57.93 53.37 56.82 57.75 60.86 61.41 61.18 62.74 63.13 62.29 58.40 57.17 55.15 49.59 46.57 48.03 48.26 50.40 51.73 52.54 56.00 57.08 55.17 55.55 56.63 57.05 59.27 61.60
56.27 56.37 56.15 56.11 56.33 56.51 56.95 57.42 57.53 57.79 58.38 58.86 59.56 59.99 60.31 60.22 57.06 53.61 59.13 61.00 61.73 61.87 57.33 57.91 58.52 60.66 57.88 56.54 56.49 53.44 49.43 48.90 52.50 52.91 51.60 52.59 53.41 54.79 54.41 54.74 54.96 55.31 57.86 58.73 59.07
56.21 56.16 56.00 56.11 55.93 56.08 56.57 56.90 57.74 57.74 57.92 58.44 58.95 59.16 59.49 59.17 51.26 51.04 61.05 62.28 62.84 61.96 59.15 58.28 59.50 58.07 55.80 56.34 55.05 53.76 49.46 52.68 52.66 53.37 53.06 52.85 53.94 55.56 54.24 53.18 54.94 54.48 56.12 57.97 58.26
56.38 55.86 55.68 55.89 56.28 55.82 55.81 56.23 56.91 57.90 57.74 58.01 58.48 58.60 58.85 55.75 40.04 55.21 60.14 59.72 59.80 61.05 58.40 55.05 55.04 53.36 52.34 52.15 55.28 50.28 53.33 53.65 53.98 53.85 53.55 53.00 55.16 54.22 55.39 55.63 58.57 58.64 59.00 57.54 57.12
56.81 56.25 55.89 56.32 56.47 56.34 55.69 55.33 55.93 57.03 57.40 57.75 57.86 57.92 55.40 48.50 48.14 57.89 57.83 56.02 56.36 57.46 55.55 52.83 53.02 53.28 51.31 53.94 53.87 51.34 53.00 54.00 54.42 53.84 53.83 54.64 53.41 54.34 54.82 57.88 59.27 58.91 57.48 56.48 56.67
57.07 56.68 56.51 56.78 56.77 56.03 56.41 56.03 56.09 55.77 57.06 57.29 57.51 57.38 51.16 42.37 54.69 56.45 56.65 55.64 54.18 55.13 54.17 54.07 53.81 55.82 53.72 52.98 52.64 53.96 53.36 53.57 54.48 53.94 54.61 52.35 53.88 52.86 55.49 58.30 57.63 56.47 56.02 56.49 54.93
57.23 56.95 57.61 57.03 56.58 56.63 55.73 56.28 56.14 55.95 56.07 56.94 57.06 54.93 49.09 47.06 54.30 54.96 54.06 53.42 54.02 53.73 51.96 55.26 56.39 54.89 54.99 52.01 54.81 54.57 50.24 52.50 53.27 53.68 53.19 53.57 50.76 51.64 55.84 54.69 53.05 54.01 55.05 53.77 54.42
56.98 57.44 56.99 56.75 56.62 56.46 56.05 56.23 56.19 56.39 55.53 56.09 55.87 53.33 44.15 53.55 56.17 53.46 54.10 52.90 54.76 54.31 54.72 56.13 56.18 53.78 53.03 55.41 51.24 50.41 50.24 46.27 52.05 53.22 53.70 51.74 46.58 53.15 54.38 52.62 52.30 52.48 52.88 54.04 53.88
56.90 57.52 57.21 55.90 55.72 56.27 56.15 56.65 56.06 56.08 55.87 55.32 52.22 49.50 42.40 53.49 49.84 53.03 53.80 50.11 52.40 53.75 53.97 55.24 53.14 51.25 53.22 46.32 44.49 47.49 43.49 45.24 47.94 52.92 52.14 50.35 48.07 52.55 52.52 52.40 52.31 53.59 52.81 53.33 53.89
56.92 57.29 57.34 56.21 55.26 55.11 55.72 55.98 54.70 54.98 53.79 53.15 51.72 44.71 46.82 44.55 49.43 50.84 53.20 51.53 49.23 51.50 49.67 50.00 47.79 47.00 48.88 45.36 38.52 42.06 43.41 45.90 45.83 50.24 48.73 49.12 48.24 51.37 53.18 51.68 52.45 53.04 52.83 53.35 53.45
57.24 57.24 57.11 56.52 54.91 54.42 54.45 51.50 45.70 44.21 47.36 42.95 42.82 43.15 45.37 49.79 52.25 49.43 51.65 49.03 48.63 48.03 41.03 47.38 41.12 40.31 44.75 47.74 47.77 47.17 45.58 44.65 47.91 50.66 47.15 48.08 49.21 50.07 52.77 53.39 51.99 52.18 52.19 52.86 53.06
57.17 57.14 57.17 56.62 55.61 55.24 54.01 45.72 45.30 47.32 40.20 46.00 45.65 45.86 48.43 49.41 44.29 47.52 51.59 43.93 43.25 39.72 43.23 42.28 38.51 45.61 48.68 48.84 47.21 47.27 44.77 44.48 48.30 47.88 46.54 48.25 48.28 51.32 52.78 52.28 52.18 52.54 51.76 52.58 52.19
56.68 56.83 56.66 55.67 54.75 54.18 51.30 48.06 52.30 50.50 38.53 41.16 44.19 44.15 45.45 47.17 43.08 44.68 48.15 44.61 41.55 38.67 39.61 38.69 41.36 46.87 47.36 46.89 45.32 45.62 43.70 44.62 45.13 46.19 48.87 46.56 46.70 49.43 49.33 48.99 48.96 50.01 52.91 52.99 52.53
56.59 56.57 56.69 55.68 51.77 53.01 50.17 52.11 51.28 49.96 33.39 36.90 39.39 42.01 45.48 46.83 41.30 48.12 49.42 44.71 42.87 38.28 39.96 40.52 45.41 45.17 46.03 44.99 46.65 42.97 47.70 47.16 45.63 45.00 41.53 46.31 40.38 47.04 49.14 48.57 47.96 49.52 51.26 51.91 52.29
56.82 56.65 56.63 54.97 51.76 49.09 51.07 51.98 50.59 46.40 24.41 38.83 39.13 48.20 46.12 42.25 43.59 43.45 50.38 45.22 40.12 40.18 39.43 38.04 42.92 44.26 43.83 45.76 48.54 44.75 48.86 47.35 46.69 44.33 41.37 44.57 41.27 45.92 45.64 46.18 46.99 48.99 50.81 51.50 52.37
56.64 56.55 55.88 54.23 53.30 53.23 53.16 51.76 48.16 32.54 24.58 35.65 40.28 39.36 39.07 41.75 41.51 44.95 45.16 47.22 45.98 41.73 40.92 42.42 47.71 47.56 48.09 49.29 49.08 48.90 46.94 44.39 42.91 40.80 38.04 43.63 41.82 44.19 45.32 45.99 46.65 48.92 50.58 51.12 51.73
56.81 56.23 54.85 54.24 49.85 54.94 52.88 46.27 32.29 28.06 37.24 34.98 36.15 38.66 38.58 37.48 38.66 40.45 39.98 38.59 34.41 34.62 34.14 37.75 38.56 48.44 50.10 45.36 45.77 47.34 44.43 36.28 34.46 35.13 36.68 40.24 39.27 45.15 47.04 47.05 48.21 48.42 50.18 51.17 51.97
56.42 55.85 54.49 53.12 55.22 54.26 48.72 38.27 29.12 34.09 34.49 39.02 38.70 38.65 35.25 38.65 38.28 39.12 38.49 35.74 39.96 39.26 34.64 33.57 34.83 44.61 49.21 46.92 41.29 43.10 44.77 39.58 32.33 34.47 37.63 38.25 38.19 44.18 46.50 47.70 48.15 50.69 51.48 51.53 51.51
55.89 53.50 51.87 52.97 54.98 52.86 42.47 30.88 33.00 35.91 38.04 37.29 37.58 33.51 34.34 38.23 38.72 38.16 37.52 36.64 38.69 40.57 34.45 34.10 35.10 44.19 46.34 46.55 46.65 41.98 41.02 44.55 38.19 38.37 38.15 40.84 43.31 46.45 46.69 46.78 46.52 47.92 50.29 50.41 51.19
49.54 47.89 48.14 53.25 54.74 49.04 37.41 34.46 36.83 41.05 39.43 39.05 33.13 35.41 32.83 36.15 36.32 37.38 35.79 40.44 39.21 43.47 44.44 40.58 34.48 41.28 41.16 46.52 44.30 44.87 46.80 38.26 39.63 33.50 32.32 38.14 39.33 43.31 44.89 45.43 45.75 46.62 48.83 50.50 51.24
48.46 43.89 51.02 53.50 51.98 42.22 33.35 35.64 38.69 42.92 41.92 38.30 36.44 35.50 36.59 36.28 37.48 36.81 37.15 41.23 43.06 43.78 45.74 43.85 41.57 36.71 38.76 41.76 41.72 41.41 39.34 40.07 41.41 40.07 37.08 35.82 39.79 46.07 45.41 46.16 45.72 47.72 49.63 50.67 50.47
47.59 41.68 52.05 52.10 39.80 39.25 35.89 39.05 42.21 41.68 43.02 41.10 41.78 39.58 37.85 38.70 37.34 37.35 37.49 41.57 45.87 45.99 41.77 45.02 42.94 38.34 39.31 41.80 45.94 46.43 43.14 44.54 38.42 36.06 39.05 39.03 40.94 45.83 46.23 45.73 45.74 48.07 49.09 50.96 51.09
45.21 46.16 52.56 50.91 36.91 37.45 39.79 40.20 41.18 40.33 41.22 40.13 41.38 42.10 41.93 38.57 35.39 39.09 41.33 45.32 47.91 46.13 44.01 45.21 41.54 36.17 36.98 40.95 41.77 41.14 44.94 46.26 45.16 41.31 38.60 37.54 40.46 45.60 47.38 47.67 46.97 48.19 49.18 50.23 50.41
46.09 41.62 45.46 46.01 45.73 41.84 39.01 38.84 39.30 44.31 44.04 44.48 43.71 45.17 40.60 38.33 41.69 37.84 41.87 45.30 48.29 47.46 47.99 46.68 42.84 40.32 36.66 39.69 43.07 40.04 42.81 44.04 44.02 39.40 40.08 39.89 43.01 44.44 46.35 47.30 47.56 48.30 49.49 49.82 49.51
45.14 43.56 45.14 38.36 39.69 41.60 42.16 41.95 40.33 41.84 46.21 47.16 43.95 43.51 41.10 36.84 39.74 40.63 44.59 44.99 47.02 47.86 47.25 45.27 40.31 42.10 41.83 42.21 43.25 42.02 41.43 41.49 41.51 43.47 40.22 43.31 41.99 45.68 47.96 48.21 49.30 49.56 49.18 48.93 48.66
43.05 42.42 43.08 44.44 43.69 43.01 41.01 40.78 41.48 41.92 43.61 41.97 42.97 44.61 44.61 40.91 42.78 40.94 44.43 44.41 44.07 46.88 45.46 46.11 40.82 40.45 38.35 40.07 41.97 39.98 42.31 43.34 43.73 44.49 44.21 44.04 43.56 48.14 48.41 48.52 47.38 49.23 48.81 48.31 48.26
45.18 45.97 43.92 43.50 41.49 41.96 41.57 42.45 44.14 44.33 45.02 43.94 46.11 45.08 43.69 45.36 48.01 49.30 49.71 48.46 47.41 44.93 44.32 44.60 42.61 39.79 37.44 38.40 39.00 36.76 41.38 41.51 42.36 44.16 44.05 40.74 46.02 46.54 44.90 45.78 47.21 47.93 48.02 47.97 48.32

GFSSW_sfc_wetblb_021.txt.gz
Wetbulb
56.95 57.14 56.72 56.66 56.83 57.09 57.29 57.57 58.13 58.94 59.57 60.29 61.07 61.47 61.59 61.67 60.70 58.45 54.38 58.43 59.08 61.15 61.36 60.63 59.83 62.67 63.12 60.33 60.30 58.91 50.11 47.24 48.60 49.42 50.84 54.68 52.95 56.27 58.19 55.93 56.76 57.61 57.78 59.86 60.41
56.94 57.04 56.55 56.34 56.51 56.99 56.88 57.06 57.29 57.62 58.44 58.80 59.56 59.97 60.54 60.07 57.51 54.38 60.62 61.79 61.50 61.81 58.24 56.55 55.70 58.68 58.15 58.02 57.83 54.19 49.24 49.25 53.39 53.67 52.50 54.41 54.46 55.72 55.38 55.36 55.81 57.19 58.89 59.94 60.04
57.15 56.71 56.87 56.33 56.66 56.47 56.86 56.72 56.85 57.67 57.75 58.07 58.56 59.13 59.47 59.39 52.73 53.17 62.27 63.11 63.14 62.21 59.79 57.68 57.53 58.30 54.90 57.73 56.14 54.87 49.46 53.45 54.09 55.03 55.16 53.61 54.18 56.78 55.03 53.50 56.38 55.67 57.24 59.57 59.90
57.25 56.95 56.48 56.07 56.74 56.89 56.18 56.33 56.30 57.20 57.68 57.60 58.26 58.70 59.22 56.38 41.17 55.94 59.70 59.14 61.25 61.50 59.03 56.40 53.93 52.95 52.64 52.05 56.17 51.49 54.07 54.32 55.18 55.69 54.50 53.32 55.33 54.18 55.57 56.09 58.98 59.41 60.14 60.00 59.28
57.25 57.36 56.79 56.27 56.90 56.97 56.80 55.88 55.40 56.34 56.83 57.64 57.90 58.21 55.83 49.40 49.22 58.79 58.15 57.05 57.49 57.34 56.28 54.61 51.25 51.33 49.40 52.81 53.89 51.87 53.44 54.80 55.55 55.38 54.89 55.35 53.45 53.64 54.62 58.03 59.70 59.67 59.74 59.54 59.19
57.11 57.44 57.09 56.85 57.14 57.25 56.74 56.70 56.30 55.32 55.93 57.19 57.71 57.71 52.31 42.83 55.12 56.91 58.26 56.86 55.79 55.71 55.21 55.59 52.51 53.68 51.58 50.93 51.37 53.81 54.07 53.88 55.06 54.76 54.97 53.16 53.55 54.44 55.50 58.13 58.00 58.06 57.87 57.99 58.40
56.96 57.36 57.76 57.24 57.66 57.10 57.31 56.63 56.54 56.02 55.31 56.28 57.06 55.24 49.08 47.30 55.17 56.27 55.66 54.61 55.50 54.91 53.37 55.93 56.07 53.00 52.80 49.91 54.12 53.62 49.95 52.72 53.42 54.23 53.52 55.05 50.99 51.52 55.99 57.21 55.51 54.40 55.22 56.33 56.44
56.97 57.27 58.15 57.18 57.08 56.88 56.90 56.68 56.34 56.60 55.77 55.46 55.90 53.68 45.18 54.80 56.70 54.72 55.02 53.65 55.07 55.00 53.71 55.85 56.71 52.62 51.88 54.40 52.10 49.66 50.72 44.36 51.62 53.18 54.07 53.52 46.52 53.37 56.54 55.16 53.83 54.25 54.36 55.16 56.12
57.37 57.75 58.09 57.22 56.61 56.22 56.44 56.63 56.89 56.18 56.08 55.35 52.25 50.33 43.26 54.97 50.62 53.73 54.74 51.11 52.80 54.06 53.78 54.67 53.85 49.31 49.53 47.34 44.52 47.59 43.59 44.56 47.35 53.23 52.63 51.96 48.24 53.17 55.77 54.28 53.22 54.19 54.47 55.11 55.72
58.35 57.64 57.70 57.74 56.56 56.00 55.34 56.17 55.99 55.14 54.38 53.61 51.78 45.04 47.77 45.58 50.62 52.06 54.21 52.83 49.86 50.17 49.38 48.89 48.55 44.80 44.60 43.97 37.27 41.59 43.92 45.05 45.88 50.49 51.74 49.84 49.34 52.62 54.52 53.80 54.01 53.97 54.48 54.91 55.36
58.52 57.44 57.41 57.38 56.86 55.09 53.82 51.40 45.83 43.70 47.99 44.53 44.84 44.87 46.31 50.29 52.36 50.08 51.90 50.14 49.20 46.48 41.19 46.30 40.80 38.13 40.91 45.27 47.11 46.79 45.98 44.50 49.11 51.50 50.27 49.39 49.14 50.76 53.31 53.70 53.72 54.14 54.01 54.53 54.93
58.08 57.43 57.46 57.32 57.02 55.57 53.84 46.65 46.45 47.92 41.03 47.49 47.44 46.88 49.05 50.19 44.86 48.00 52.09 44.76 43.45 38.68 43.01 41.08 36.76 43.65 44.75 44.90 45.68 44.91 44.79 45.44 48.70 50.80 49.46 48.48 47.71 51.25 53.10 53.45 54.89 54.63 53.80 54.20 54.27
57.85 57.26 57.27 56.96 56.01 53.96 51.01 48.98 52.40 50.14 39.44 40.39 45.97 45.19 45.58 47.17 42.74 44.53 48.25 45.90 41.94 38.87 39.68 36.94 39.79 44.76 43.09 42.99 43.18 44.18 44.79 44.83 45.04 49.12 49.26 47.54 46.06 48.81 52.49 54.11 55.01 54.23 54.80 54.95 53.91
57.71 57.01 56.90 55.87 51.18 52.54 50.23 52.88 51.44 50.49 33.27 36.84 40.02 42.82 44.88 45.51 40.54 47.76 49.90 45.98 42.18 37.81 39.46 38.13 42.38 38.84 41.65 40.60 45.46 42.06 47.97 46.74 45.84 45.07 41.22 48.96 39.62 47.90 50.63 50.19 50.22 51.47 53.16 54.04 53.97
57.38 56.93 56.77 55.79 53.46 50.28 50.81 51.14 50.59 46.99 25.26 39.55 39.64 48.03 45.67 41.44 43.42 44.59 49.50 46.50 38.82 38.91 37.92 35.22 39.16 37.59 39.68 40.17 46.00 44.07 48.97 46.58 46.82 45.08 44.19 43.74 41.93 46.32 50.56 48.06 49.66 51.13 52.60 53.67 53.86
57.13 56.85 56.39 54.27 53.16 53.47 51.84 50.78 47.88 32.04 25.52 36.00 39.99 39.16 38.73 40.92 42.30 44.81 44.53 47.31 45.46 39.28 39.88 38.86 44.63 44.17 43.02 44.79 46.65 48.84 46.32 46.42 45.77 44.24 36.96 43.20 43.34 44.17 46.95 48.25 49.77 50.98 52.24 52.96 53.11
57.02 56.52 55.18 54.20 49.36 54.37 51.38 46.14 32.42 28.19 38.10 34.93 35.72 38.45 38.34 36.92 39.13 39.86 38.67 37.69 36.13 31.41 32.51 37.01 36.14 42.65 45.67 43.25 47.09 46.47 42.82 35.92 33.90 34.72 36.15 44.78 43.32 46.24 47.23 48.56 49.91 50.11 51.51 52.54 53.08
56.71 56.25 54.76 53.11 55.76 53.00 48.40 37.22 28.76 34.96 34.54 38.65 38.25 38.33 35.17 37.67 38.25 38.14 36.26 35.75 38.79 36.51 34.02 33.11 31.24 38.72 43.27 45.49 42.95 43.90 42.99 37.93 31.25 33.21 37.61 42.25 38.28 44.62 49.00 49.75 50.67 52.03 52.47 52.60 52.48
56.23 54.58 52.28 52.64 55.47 52.40 42.66 30.33 32.78 36.48 38.46 36.72 37.36 34.66 34.43 37.22 38.11 37.34 36.11 36.30 39.05 38.35 33.10 34.55 34.11 39.37 45.56 47.90 47.31 43.29 41.49 46.00 40.62 42.27 40.44 41.20 44.78 46.96 48.70 48.46 49.12 50.62 51.66 51.37 52.09
51.87 49.47 48.93 54.39 54.72 48.97 38.69 34.03 36.66 41.26 40.14 39.28 34.39 36.89 33.33 34.92 35.04 36.13 36.28 41.04 39.10 41.03 40.05 38.76 32.93 36.66 44.29 46.69 45.75 45.83 48.38 40.33 41.66 34.41 33.84 39.70 41.63 42.41 45.42 46.99 48.01 48.58 50.59 51.38 52.37
48.17 43.49 51.09 55.72 52.61 43.88 32.68 34.83 38.39 42.26 41.75 37.54 36.67 35.96 37.20 35.93 37.40 36.53 36.03 40.90 42.33 41.32 42.40 42.08 35.71 34.84 42.47 42.26 40.90 42.30 43.19 44.27 44.24 42.23 38.04 36.44 40.19 48.53 46.74 47.54 48.15 49.13 51.21 51.77 52.08
46.81 39.67 52.02 52.57 40.55 40.35 35.33 37.16 41.74 40.86 42.78 40.79 41.21 40.26 38.89 39.50 37.81 37.65 36.89 40.49 44.91 44.60 39.81 43.43 40.46 33.65 37.24 42.15 48.10 46.69 44.50 45.30 40.32 37.83 41.47 40.52 40.14 47.90 48.43 48.50 48.64 49.94 50.91 52.61 52.72
44.15 45.83 51.38 49.35 35.81 35.80 38.84 38.40 40.07 40.35 41.35 40.01 39.81 42.63 42.69 39.72 36.46 39.56 40.82 45.42 46.49 44.64 42.10 44.82 40.31 34.28 33.88 38.12 42.84 43.11 44.93 46.33 46.46 44.14 40.84 38.55 40.57 48.58 50.08 49.28 49.23 49.79 51.24 52.27 52.16
45.30 40.94 45.52 45.42 44.69 40.73 37.65 37.93 37.74 42.89 41.02 42.43 41.99 44.40 41.39 39.44 41.92 39.46 41.33 45.42 47.66 45.96 47.81 47.92 42.59 40.76 36.50 39.76 41.67 40.67 43.13 45.53 45.57 40.88 41.39 42.15 42.95 45.69 48.21 48.59 49.33 49.91 51.21 51.92 51.74
44.41 42.92 45.10 38.24 39.76 41.05 41.75 40.63 39.02 39.47 43.13 43.62 42.29 42.93 41.19 37.39 38.86 39.53 42.31 44.52 46.19 47.60 46.88 46.30 40.68 42.73 43.37 44.34 45.08 43.90 43.52 44.24 43.39 45.02 41.40 44.14 43.84 47.17 48.83 49.59 50.52 51.08 51.15 51.00 50.65
42.25 41.74 46.20 43.66 42.65 40.85 40.34 39.50 39.21 40.47 43.09 40.93 41.00 42.86 43.74 39.43 40.25 40.11 42.64 44.48 43.57 46.76 45.35 47.25 41.27 42.94 40.45 42.99 43.75 41.92 44.08 45.09 44.95 45.31 45.08 45.29 45.47 51.29 51.34 51.12 50.60 50.84 50.46 50.01 50.11
46.60 47.03 46.09 44.58 44.50 41.55 41.65 40.41 40.40 42.83 44.21 45.97 43.85 43.76 43.18 43.32 46.07 49.24 49.69 48.87 48.41 45.84 43.85 43.84 42.08 41.10 37.67 41.64 41.32 37.88 42.66 43.47 44.53 45.81 45.50 42.49 47.17 51.33 47.63 48.21 49.24 50.74 50.51 50.04 50.30

GFSSW_sfc_wetblb_024.txt.gz
Wetbulb
56.74 57.01 57.49 57.31 57.35 57.47 57.48 57.87 58.27 58.98 59.81 60.41 60.95 61.37 61.37 61.62 61.34 58.25 53.83 58.27 59.92 61.77 61.72 58.09 58.24 57.58 60.65 58.68 59.56 57.98 47.40 44.50 46.30 47.13 49.03 52.09 50.68 53.69 55.05 52.57 54.49 55.14 53.47 55.81 58.88
56.95 56.99 57.10 57.14 57.12 56.97 57.28 57.33 57.75 58.07 58.38 59.04 59.56 59.90 60.33 60.53 56.85 54.24 60.51 63.04 63.02 61.74 57.12 54.62 53.66 55.29 52.95 56.49 56.62 52.48 46.72 46.87 51.33 51.28 50.12 52.54 52.17 53.02 52.72 52.59 52.57 53.70 56.28 56.42 56.78
57.31 57.25 56.80 56.99 56.79 57.04 56.76 57.28 57.06 57.97 57.93 57.94 58.37 59.16 59.57 59.09 52.09 52.02 63.50 63.89 64.10 62.26 58.98 57.17 55.41 53.83 52.45 54.82 54.55 52.98 47.58 51.66 52.06 53.09 53.90 52.17 51.75 53.74 51.84 50.52 53.23 52.74 55.43 57.00 56.58
57.55 57.33 57.02 56.62 56.31 57.15 57.09 56.40 56.95 57.04 58.01 57.75 57.98 58.69 59.57 55.59 40.35 55.69 61.23 60.10 61.92 61.07 58.15 55.50 53.34 49.15 49.88 49.67 54.02 49.68 52.87 52.96 53.09 54.34 53.91 51.26 53.11 51.68 52.08 52.45 56.09 56.23 56.78 56.81 56.24
57.41 57.46 57.38 56.79 56.54 56.97 56.89 56.70 56.20 56.45 57.32 57.60 57.89 58.49 54.95 48.35 47.82 58.29 59.40 58.20 57.64 57.39 54.83 53.23 50.84 48.81 46.20 49.70 52.23 50.77 52.14 53.61 53.97 53.78 53.97 53.94 51.19 51.27 51.72 54.49 56.25 56.86 57.15 56.11 56.35
57.42 57.39 57.65 57.16 57.01 57.20 57.31 56.39 56.72 56.56 56.24 57.30 58.05 57.90 51.57 42.27 54.52 55.75 57.29 56.11 55.29 54.26 53.29 53.67 51.85 52.19 48.29 48.21 47.59 52.45 53.03 53.09 53.83 53.17 53.19 51.64 51.18 51.62 52.65 54.68 54.43 55.49 54.94 54.52 54.95
57.79 57.77 58.19 57.74 57.25 57.79 57.06 57.21 56.53 56.74 56.45 56.26 57.11 55.13 48.74 45.55 54.64 55.23 55.48 54.65 55.29 53.70 50.80 54.33 54.33 51.40 50.22 47.01 51.45 50.15 47.47 51.65 52.06 52.25 51.72 52.59 48.53 49.13 53.47 54.47 53.60 53.97 52.57 52.67 53.10
58.16 57.88 57.92 58.35 57.53 57.28 56.72 56.72 56.80 56.96 56.62 55.92 56.42 53.18 44.69 54.34 55.33 53.84 54.47 52.90 54.00 53.66 52.52 53.68 54.68 51.70 49.97 50.86 49.32 47.07 47.08 42.80 49.74 51.88 51.76 50.58 43.59 51.11 53.99 52.66 52.34 52.64 49.99 50.40 53.40
58.78 58.27 57.95 58.12 57.72 56.82 55.79 56.13 56.40 57.06 56.58 55.87 51.83 49.55 41.78 55.63 50.25 52.79 53.74 50.36 52.04 52.51 52.85 52.97 51.02 48.30 48.08 43.57 42.02 44.21 39.16 41.37 45.18 51.61 50.38 49.00 45.09 51.16 53.78 52.74 50.36 49.79 50.33 50.96 52.12
59.38 58.42 57.94 57.93 57.80 56.63 55.16 54.67 55.34 55.53 55.05 54.12 51.93 44.61 46.61 44.91 50.19 51.74 53.24 52.27 49.07 49.12 48.51 47.76 45.95 43.15 43.64 40.60 33.35 37.76 39.79 41.91 42.98 48.89 49.19 46.97 46.62 50.00 52.32 50.67 49.10 49.57 49.89 50.08 51.71
59.14 58.57 57.75 57.63 57.50 56.31 53.91 51.66 46.68 43.94 48.42 43.94 44.61 44.24 46.71 50.63 52.10 49.43 51.45 49.26 48.40 45.76 39.48 44.46 38.81 36.26 39.24 41.30 41.92 42.14 41.55 41.63 45.33 49.93 47.32 46.42 46.56 48.66 50.93 50.98 49.46 49.99 49.70 49.34 50.70
58.87 58.32 57.65 57.53 57.00 56.09 53.75 47.00 47.30 48.16 40.67 46.92 46.85 46.82 49.32 50.36 44.41 47.12 51.26 43.90 42.76 37.89 41.00 38.90 35.29 40.31 42.69 42.46 41.60 41.32 40.92 41.45 46.36 49.16 47.74 46.29 46.48 49.17 49.26 49.92 50.52 50.31 50.06 49.30 49.90
58.54 58.02 57.52 57.10 56.23 54.59 51.17 49.19 52.54 49.85 39.45 42.27 45.84 45.33 46.42 47.86 43.47 44.76 47.85 44.89 40.44 37.76 38.01 34.66 38.01 42.62 41.09 40.22 39.03 39.36 39.73 41.17 40.23 46.63 48.22 44.41 42.11 44.42 48.35 49.90 50.54 51.26 52.20 50.57 50.21
58.01 57.82 57.27 56.02 50.85 51.32 48.87 53.94 51.91 50.51 33.73 36.65 39.27 43.72 46.21 45.44 40.34 47.70 48.43 45.08 41.00 36.69 37.95 36.93 41.22 39.58 39.24 38.01 39.89 35.52 42.90 44.46 42.76 43.00 37.64 43.96 32.79 42.13 46.22 47.55 49.64 49.08 48.86 49.58 50.13
57.60 57.48 56.76 54.98 52.65 49.87 51.27 51.38 51.10 48.01 24.49 39.02 40.16 48.40 46.31 41.23 42.39 43.35 48.19 44.95 38.24 37.57 38.52 34.79 37.05 37.03 36.32 37.66 40.74 38.02 44.50 42.96 43.62 41.67 41.28 42.50 38.39 40.63 46.06 44.93 47.75 46.01 47.07 49.51 49.89
57.19 57.05 56.26 53.83 52.51 52.30 52.09 51.07 48.02 32.48 23.89 35.78 39.87 38.77 38.89 41.04 40.90 43.71 42.77 45.75 44.67 39.22 39.06 37.64 42.55 40.11 38.86 41.24 41.26 42.04 41.90 41.96 43.56 41.69 35.10 39.22 39.01 38.33 42.69 45.14 45.26 46.27 47.45 49.53 49.42
57.01 56.65 54.91 53.30 48.01 52.64 51.12 46.52 32.52 27.75 38.04 35.19 35.70 38.27 37.15 36.90 37.65 39.14 38.48 36.80 34.51 31.62 31.24 35.05 35.79 39.53 41.33 37.31 40.34 40.32 38.13 31.87 32.92 33.81 32.78 41.16 37.71 40.72 42.46 45.90 47.39 46.59 47.51 48.99 49.27
56.53 56.39 55.03 52.86 53.48 51.58 48.45 37.44 26.34 34.73 34.42 39.01 38.10 37.42 35.29 37.09 36.82 37.14 36.70 34.12 38.12 36.23 31.88 29.16 26.61 37.05 39.74 37.75 38.16 38.84 35.36 33.67 28.18 29.42 31.33 40.25 35.02 39.10 44.98 46.45 48.15 48.55 48.84 49.11 48.72
56.13 54.90 52.41 52.54 53.31 50.66 42.68 29.81 31.45 35.56 38.66 36.70 37.07 34.78 34.96 36.84 37.01 36.09 35.13 34.18 36.34 38.25 31.34 32.12 30.87 40.07 40.91 42.06 42.88 37.64 33.07 41.44 37.66 36.62 34.14 35.05 38.13 40.86 44.93 44.17 45.32 46.99 48.28 47.69 48.27
53.00 51.32 50.16 53.24 52.96 47.69 39.29 33.39 35.49 40.38 40.37 38.99 33.31 36.04 32.09 34.28 33.72 34.46 34.28 38.88 36.21 40.65 40.06 34.24 30.33 38.08 40.70 43.67 45.04 42.70 44.39 37.90 36.85 29.96 30.09 33.72 35.47 36.02 40.54 41.78 44.02 45.99 46.52 47.52 48.47
48.93 44.73 50.30 53.33 52.26 43.31 33.16 34.88 37.74 41.51 41.82 37.84 36.63 35.94 35.45 34.58 35.19 34.58 35.62 39.61 41.13 39.92 40.10 37.13 33.50 35.80 38.04 37.84 36.86 40.88 40.76 40.93 39.85 38.87 32.85 29.24 33.74 42.20 42.20 44.07 43.55 44.89 47.77 47.99 48.19
46.78 40.75 51.27 52.81 41.35 40.81 36.10 38.04 40.49 39.69 42.18 40.45 39.86 38.90 37.26 37.77 35.29 35.27 35.77 38.96 43.73 41.29 36.36 38.01 35.78 32.66 35.49 41.88 45.12 44.93 42.40 41.32 34.84 34.87 36.69 34.14 32.85 44.30 43.30 44.35 45.48 45.32 48.57 48.68 48.99
43.68 45.27 51.70 50.16 35.74 36.41 39.17 38.60 39.24 39.41 40.10 39.26 38.50 40.48 41.65 38.38 34.88 37.33 39.08 44.19 44.90 41.89 39.95 41.01 37.06 32.06 33.63 39.99 44.02 41.74 44.00 42.72 42.57 40.82 35.55 32.21 32.81 45.05 43.92 43.57 45.25 45.12 47.53 48.79 48.81
45.06 40.06 44.84 45.60 44.17 39.84 37.34 36.85 36.19 41.08 39.89 42.05 40.68 41.68 39.90 38.09 40.05 37.83 38.99 44.22 45.29 43.08 46.71 45.96 38.83 34.82 34.15 37.36 41.29 39.97 41.55 42.15 40.70 35.48 35.73 35.85 36.11 41.16 42.90 43.53 44.51 45.30 47.22 48.33 48.65
44.39 42.02 43.45 37.21 38.65 40.30 40.71 39.18 37.37 36.32 40.67 41.89 39.96 39.60 39.56 35.83 36.73 37.32 40.44 43.02 45.40 45.02 44.81 43.84 38.51 39.81 40.92 42.20 42.68 41.42 41.61 41.89 40.38 40.64 35.63 38.33 38.72 41.62 43.70 43.81 44.68 45.42 47.21 47.67 47.61
41.26 41.06 44.56 43.00 41.60 39.94 39.91 38.88 38.17 39.52 41.04 40.23 38.58 41.23 41.26 37.88 38.19 36.46 41.15 41.45 40.40 44.09 41.57 43.43 38.42 40.56 38.71 42.40 42.50 40.74 42.65 42.87 42.72 42.55 42.05 42.27 40.43 46.66 44.43 46.09 45.15 44.98 46.37 47.21 47.51
46.78 46.14 43.73 42.67 41.97 39.89 39.92 39.63 39.69 41.36 42.01 43.21 42.24 41.26 41.35 43.06 43.18 45.79 45.63 45.45 45.75 42.55 41.64 41.65 39.99 38.70 34.38 39.90 38.93 34.44 39.69 42.34 43.59 43.95 43.75 39.79 44.14 46.18 43.76 45.60 45.36 45.30 46.26 46.49 46.68

GFSSW_sfc_wetblb_027.txt.gz
Wetbulb
57.04 57.01 57.10 57.11 57.11 57.24 57.47 57.57 57.96 58.27 59.31 60.33 61.05 61.61 61.49 61.80 61.54 58.14 53.08 56.68 58.49 61.70 61.91 56.66 55.65 55.39 55.11 55.41 57.12 54.76 43.76 41.76 43.36 44.00 46.58 50.00 48.74 51.75 53.22 50.50 51.92 52.22 51.29 54.87 58.81
57.27 57.20 57.17 57.14 56.98 57.02 57.05 57.42 57.47 58.03 58.04 58.75 59.50 60.07 60.57 61.13 56.77 53.87 59.59 63.09 63.82 62.13 56.23 53.43 51.86 52.58 48.10 52.25 54.07 50.08 44.36 45.52 48.89 48.55 47.34 50.41 49.73 51.35 51.09 50.52 49.94 50.94 54.16 53.82 56.31
57.42 57.41 57.47 57.02 56.89 56.61 56.87 56.59 57.15 57.14 58.04 57.77 58.34 59.18 59.99 59.41 51.68 50.45 62.00 63.85 64.27 62.95 58.52 56.63 54.61 51.60 47.58 48.94 50.72 50.66 46.88 49.57 50.65 52.06 51.95 50.17 49.66 51.59 48.97 47.90 51.26 51.18 52.99 54.41 55.51
57.46 57.53 57.44 57.12 56.49 56.36 56.98 56.65 55.97 56.61 57.43 57.46 57.57 58.44 59.42 55.50 40.84 54.14 60.37 61.93 63.18 60.98 58.05 55.02 51.97 46.36 45.00 46.11 50.55 47.58 51.76 52.23 52.38 53.68 52.30 49.46 51.49 49.08 49.81 49.83 53.20 53.58 54.08 53.75 54.32
58.17 57.33 57.50 57.47 56.90 56.52 57.00 56.75 56.48 55.56 56.30 57.06 57.39 58.08 54.79 48.20 47.52 57.28 60.27 59.71 57.11 56.77 54.71 52.79 49.57 47.11 42.48 45.04 47.28 47.26 49.53 52.44 53.47 53.32 52.65 52.31 49.68 49.59 49.49 52.25 53.86 54.68 54.73 53.84 54.05
58.93 57.71 57.59 57.68 57.12 56.96 57.17 57.35 56.68 56.32 55.73 55.92 57.27 58.04 51.28 41.70 52.93 54.51 55.66 54.18 53.88 54.59 53.24 52.60 50.67 50.42 46.42 44.75 45.06 47.98 49.56 50.25 52.64 52.42 52.09 50.34 49.10 49.44 50.71 52.55 52.15 52.85 52.87 53.23 52.89
59.62 58.60 58.12 58.02 57.22 57.16 57.63 56.95 57.17 56.67 56.15 55.62 56.02 54.77 48.71 44.56 52.30 53.11 54.53 53.78 53.95 52.57 48.61 52.12 52.88 49.77 49.22 44.90 48.07 48.13 45.31 46.71 47.93 51.24 50.57 51.89 46.90 46.86 50.80 52.09 51.25 52.49 51.53 53.52 50.40
59.74 59.02 58.14 58.00 57.74 57.34 56.65 56.25 56.54 57.06 56.45 56.14 55.45 51.96 43.69 53.51 53.77 52.55 52.70 51.28 51.88 51.68 51.36 51.19 52.10 48.01 47.82 49.75 45.82 43.57 43.30 39.17 45.94 48.73 50.55 49.77 43.02 48.91 51.05 49.92 49.80 50.96 49.77 49.17 51.71
59.78 59.21 58.29 58.02 58.10 57.63 56.09 55.46 55.39 56.28 57.16 56.54 51.59 48.18 41.59 54.36 49.70 51.93 51.61 49.30 50.52 50.63 50.52 52.03 48.62 45.36 45.57 42.91 38.55 39.94 35.96 38.19 41.94 48.73 48.66 47.78 44.21 49.21 50.97 50.43 49.82 48.01 48.06 47.97 49.71
59.42 59.15 58.49 58.08 58.07 57.37 55.85 54.26 54.80 55.42 55.54 54.70 51.97 44.50 46.22 43.98 49.86 51.23 52.09 51.05 48.06 47.63 47.44 46.52 42.83 38.42 39.56 39.43 31.37 33.31 34.84 37.99 39.07 44.21 46.83 45.95 45.45 47.39 49.49 50.02 50.15 48.29 48.00 46.84 49.19
59.22 58.66 58.48 57.92 57.83 56.87 53.29 49.26 45.74 44.73 48.73 43.67 44.25 43.27 45.94 49.51 50.92 49.31 50.66 48.34 46.85 43.67 37.94 42.33 36.31 33.07 35.86 39.28 39.11 38.05 36.69 36.73 41.53 46.14 45.15 44.59 45.29 47.54 48.64 48.98 46.44 47.07 45.91 46.24 48.00
58.63 58.32 58.57 57.66 57.59 56.37 51.93 45.90 47.39 47.66 40.80 47.43 47.07 46.42 48.56 50.61 43.95 46.98 50.44 42.79 41.13 36.81 39.04 37.25 33.85 38.28 40.56 39.83 40.42 38.55 36.23 36.20 41.24 45.66 44.77 44.57 44.31 47.96 49.11 48.35 49.91 48.15 47.80 46.52 47.27
58.24 57.83 58.03 57.21 56.72 54.07 50.13 47.59 50.52 49.55 40.28 42.10 46.07 45.21 46.09 47.87 43.26 44.02 46.99 43.63 39.04 36.46 36.87 33.83 35.96 40.94 39.52 38.04 37.10 37.24 35.74 35.92 37.28 42.69 44.35 42.63 41.93 44.47 47.28 49.39 48.47 49.50 49.45 49.49 48.66
57.52 57.66 57.30 56.52 50.53 49.80 48.23 52.06 50.87 50.89 35.28 36.69 39.15 43.86 45.97 46.36 40.96 48.35 48.84 44.93 40.60 36.02 37.64 36.82 39.76 37.92 37.67 36.37 37.49 33.85 39.73 39.03 38.46 39.01 34.93 42.90 35.10 39.84 44.56 45.11 45.70 45.62 45.68 48.29 48.06
57.04 57.32 56.82 54.55 48.05 46.46 49.46 51.11 51.50 48.43 22.48 37.77 39.85 48.54 46.55 41.96 42.91 43.17 48.83 45.09 39.24 37.40 37.78 34.85 36.14 35.81 34.51 36.26 39.58 35.29 40.75 38.79 38.75 37.83 39.03 39.34 37.30 38.11 42.42 42.19 45.69 47.82 44.22 47.37 48.40
56.82 56.88 56.15 52.23 51.70 51.39 51.29 50.63 47.07 32.96 20.47 35.40 39.47 37.80 39.50 41.26 41.52 43.57 42.59 45.68 44.50 39.35 39.16 36.98 41.45 39.54 37.54 39.56 40.12 41.17 37.80 37.77 38.46 37.45 32.23 37.35 38.16 35.55 39.63 43.69 44.65 46.08 45.80 46.97 47.70
56.67 56.64 54.92 53.33 46.75 51.47 50.60 44.26 32.15 25.35 36.86 34.49 35.39 37.84 36.35 36.66 37.81 38.96 38.15 36.57 34.00 29.85 27.87 34.66 36.14 38.79 40.47 36.15 38.60 37.98 33.08 27.05 25.84 27.97 28.53 38.48 37.33 38.83 41.76 43.25 46.13 44.14 45.89 46.80 47.94
56.37 56.24 54.92 52.44 52.34 51.01 48.31 38.62 26.29 32.31 33.03 39.12 38.03 36.97 34.84 36.88 37.13 36.44 36.50 33.72 36.43 34.89 32.24 26.60 24.41 35.01 39.20 36.48 33.74 34.36 33.34 26.22 20.90 25.54 29.28 39.47 33.56 37.42 47.70 44.47 46.15 47.43 47.03 47.16 47.54
55.94 54.62 52.32 51.80 52.04 50.54 42.14 30.11 28.21 32.95 38.23 36.66 37.24 34.98 34.37 36.10 36.28 34.49 33.27 34.02 35.43 35.84 29.70 29.41 29.40 39.29 39.77 39.55 38.46 33.92 30.91 36.03 32.78 33.24 32.31 35.19 36.61 39.20 41.38 42.19 45.09 45.35 45.94 45.78 46.64
52.53 51.42 50.05 52.31 52.07 47.51 38.46 32.21 34.14 40.32 40.33 39.33 33.60 35.69 31.35 33.12 33.10 32.60 32.24 36.25 35.40 38.21 39.03 34.46 28.00 35.52 36.36 40.38 39.27 38.49 40.23 30.43 32.14 25.99 27.98 31.06 31.21 33.31 37.85 39.84 43.48 44.35 44.41 45.41 46.64
50.37 45.90 51.02 52.61 51.09 42.99 32.63 34.79 37.07 41.32 42.08 37.95 36.19 35.28 35.24 34.18 33.50 32.13 33.35 37.06 39.55 39.11 39.27 36.76 33.17 32.78 36.05 36.07 35.30 36.15 35.61 35.86 36.43 33.19 29.43 26.84 31.35 38.76 39.88 42.06 43.16 44.54 45.18 45.61 46.24
47.82 40.90 51.28 51.66 40.00 39.88 35.90 37.81 41.06 40.01 42.50 40.33 39.55 38.23 36.72 36.53 34.11 32.47 33.29 37.53 42.56 41.07 35.56 38.25 35.71 30.33 33.31 41.29 42.96 41.54 38.33 37.81 30.22 31.89 34.83 31.18 30.98 40.65 41.18 42.42 44.39 44.55 45.85 46.35 47.08
44.59 45.09 51.15 49.19 35.34 35.98 39.38 38.97 40.01 39.18 39.32 38.50 38.06 39.35 40.06 36.81 34.49 34.99 36.13 42.49 43.06 40.35 37.26 38.68 33.53 31.01 33.00 37.86 41.66 38.16 39.71 39.87 39.27 40.03 35.89 29.72 30.96 41.85 40.53 41.54 42.85 44.59 45.61 46.26 46.39
44.87 39.11 44.76 45.90 44.05 39.12 37.36 37.45 37.08 40.80 39.42 40.42 39.67 40.93 39.76 36.41 38.37 35.94 35.89 41.44 42.26 42.06 44.33 41.31 36.82 33.33 32.98 36.44 38.10 35.44 39.70 42.30 41.01 35.77 35.27 34.08 35.08 37.10 39.01 41.25 41.63 45.03 46.10 46.15 46.51
45.15 41.46 42.32 36.99 39.00 40.03 39.92 39.01 36.87 35.35 39.50 40.94 37.58 39.86 38.44 34.97 35.68 35.21 39.16 40.69 42.44 44.18 43.53 42.48 34.94 38.07 38.73 38.65 40.62 40.53 40.86 40.98 39.36 40.31 37.00 36.04 37.21 39.35 40.28 41.19 42.75 44.83 45.64 45.72 45.76
41.73 41.72 43.30 40.30 40.90 39.66 39.77 38.81 38.20 38.63 39.00 37.90 37.25 39.60 39.49 36.82 36.47 33.35 39.00 40.23 39.97 42.13 41.01 42.42 35.67 38.63 38.31 42.18 41.13 39.53 41.78 41.51 41.71 41.66 41.09 40.20 38.19 41.52 41.64 41.97 41.97 44.31 45.74 45.51 45.60
46.21 46.38 44.77 42.54 40.01 38.77 38.25 38.77 39.05 40.66 41.07 42.16 40.85 40.56 39.50 39.60 42.25 42.42 43.24 43.32 43.51 41.10 38.66 39.54 38.44 38.75 32.66 39.61 39.67 35.05 39.60 40.55 40.82 41.15 41.72 37.90 41.29 41.66 41.98 43.47 42.99 42.71 46.18 45.98 45.60

GFSSW_sfc_wetblb_030.txt.gz
Wetbulb
57.15 57.01 57.17 57.39 57.09 56.81 56.72 57.35 57.34 57.94 58.42 59.76 61.02 61.88 61.85 61.76 61.79 58.28 53.03 56.28 57.48 61.95 61.05 55.50 54.75 53.87 53.55 52.13 55.91 53.48 43.40 40.42 42.66 42.49 44.88 49.06 47.72 50.72 50.41 48.91 51.07 51.05 50.54 52.40 56.24
57.44 57.41 57.25 57.26 57.28 56.84 56.83 56.53 57.11 57.35 57.85 58.27 59.36 60.21 61.07 60.57 56.95 53.56 59.15 63.00 63.77 63.24 55.57 52.86 51.06 52.34 47.04 49.15 52.30 49.70 44.47 44.84 47.47 47.83 46.76 48.67 48.31 49.19 49.34 48.95 48.69 49.63 52.79 54.77 57.37
58.01 57.57 57.59 57.60 57.03 56.45 56.58 56.51 56.51 56.76 57.64 57.46 57.97 58.90 59.28 58.91 50.81 50.05 61.05 63.63 64.25 62.78 57.64 55.87 53.76 51.02 45.61 47.01 48.25 49.92 46.60 48.68 49.61 51.19 50.79 49.09 48.40 50.68 47.95 46.82 49.90 50.04 50.83 52.90 53.61
58.59 57.89 57.68 57.65 57.00 56.10 56.76 56.53 55.96 56.01 56.93 57.39 57.36 58.19 58.58 54.92 36.32 52.54 60.85 61.56 63.85 61.25 57.22 54.32 51.06 45.97 43.35 44.97 48.95 44.60 49.88 51.34 51.97 52.67 51.40 48.83 49.89 48.28 48.39 49.11 52.02 52.58 52.53 51.86 52.49
59.15 58.48 57.66 57.68 57.41 56.68 56.49 56.64 56.40 55.81 55.82 56.92 57.24 57.83 54.07 47.70 47.17 54.94 59.39 59.65 57.06 57.55 54.89 52.74 48.74 46.58 42.40 43.14 44.81 43.65 46.92 50.28 51.87 52.53 52.44 52.65 49.24 48.43 48.92 51.73 52.51 53.04 53.36 52.35 52.38
59.72 58.99 58.21 57.65 57.77 57.12 56.97 57.07 56.73 56.26 55.79 55.41 56.81 57.38 50.06 39.54 52.01 53.07 53.51 53.22 53.75 54.12 52.90 52.52 50.07 49.88 45.79 44.22 42.55 45.07 45.80 47.02 49.72 49.94 51.30 49.71 49.95 48.42 49.97 51.68 51.10 52.11 52.02 51.74 52.24
60.56 59.91 58.86 58.30 57.71 57.26 57.33 57.28 57.12 56.39 56.41 55.72 55.76 54.57 48.34 43.81 50.90 51.66 52.75 51.11 52.30 53.44 49.51 52.90 52.58 48.54 47.39 44.38 47.33 45.84 42.43 44.68 45.57 46.28 47.04 51.04 47.52 48.11 50.23 50.71 50.10 50.43 51.06 51.08 52.25
60.42 59.81 59.12 58.39 57.70 57.51 57.37 56.71 55.95 56.45 56.50 56.29 55.50 51.51 42.78 52.91 52.95 51.84 51.78 50.22 51.50 51.22 50.52 50.22 49.47 46.46 45.39 47.43 44.97 41.80 39.94 36.17 43.24 45.94 47.39 49.20 42.56 48.85 50.44 48.30 48.81 49.28 49.30 48.85 50.38
60.42 59.91 59.36 58.39 58.16 58.18 57.44 56.13 55.06 55.86 56.42 56.82 51.93 47.91 39.14 53.17 49.15 50.87 50.97 48.43 49.45 49.55 49.52 51.69 47.43 42.61 44.09 41.62 38.80 37.15 32.86 35.12 40.21 46.39 46.32 46.39 43.51 49.12 50.87 47.98 47.35 47.83 47.71 48.59 47.98
59.42 58.97 58.86 58.35 57.94 57.65 56.55 54.87 54.64 54.41 55.48 55.19 51.84 44.59 45.75 43.81 49.26 50.40 50.66 50.27 46.99 46.81 46.16 44.92 42.31 37.61 37.95 37.06 29.95 33.31 32.18 35.09 36.12 42.41 44.32 43.59 43.76 47.47 48.69 47.40 48.01 49.77 50.31 46.83 47.06
59.26 58.59 58.42 58.25 57.79 57.41 53.67 49.33 44.38 43.29 49.06 44.93 44.21 43.34 44.98 49.06 50.45 49.16 50.16 47.65 45.75 42.58 37.96 41.16 35.82 32.24 34.75 37.53 37.92 36.91 33.98 33.53 36.87 42.62 41.58 41.78 42.82 45.37 48.43 47.19 45.38 46.73 46.31 45.62 46.51
58.13 58.11 58.29 58.13 57.65 56.68 50.72 44.50 45.46 45.90 39.12 47.10 47.39 46.35 48.19 49.70 43.78 46.60 49.73 42.24 40.68 36.59 38.25 37.23 34.14 38.72 38.56 37.86 38.14 37.53 35.02 34.25 37.53 41.19 41.82 40.77 40.94 44.84 47.48 48.33 48.39 49.34 46.92 45.39 46.07
57.73 57.50 57.66 57.75 57.02 54.16 49.52 46.46 49.50 49.39 39.76 42.61 45.49 45.32 46.21 47.99 43.46 44.26 46.68 42.96 38.69 36.43 36.48 33.54 35.21 39.77 38.20 36.64 35.16 34.96 34.60 34.30 33.89 38.36 39.95 38.57 37.71 41.47 46.29 48.67 49.06 50.15 50.27 46.39 47.88
57.12 57.19 57.34 57.01 51.55 49.74 46.86 50.47 49.04 51.00 34.59 36.66 38.95 44.15 46.20 47.00 41.51 48.67 49.00 44.71 40.49 35.95 36.92 36.25 39.34 37.53 36.46 35.10 36.44 31.84 38.25 37.95 36.01 35.01 28.87 39.66 31.40 38.17 42.59 45.22 46.98 48.78 45.91 46.26 48.00
56.25 56.78 57.04 54.92 47.94 46.66 47.88 50.81 51.53 48.58 13.51 36.33 39.35 48.56 46.47 42.56 43.13 43.35 49.19 45.23 38.82 37.20 37.03 33.79 35.23 35.26 33.86 34.79 38.86 34.13 39.42 36.87 37.66 34.68 33.79 33.35 32.18 36.57 42.86 42.13 44.79 47.25 46.61 46.79 47.91
55.88 56.33 56.24 52.57 51.52 51.00 51.01 51.50 47.96 27.18 16.61 34.91 39.14 37.92 39.03 41.36 41.99 43.67 43.20 46.27 44.58 39.79 38.70 37.20 41.38 38.67 37.30 39.06 39.40 40.66 37.60 37.17 36.15 34.97 28.58 31.62 32.07 32.92 38.77 41.73 43.89 47.22 44.58 45.54 47.33
55.41 56.00 54.62 52.13 47.41 51.67 50.73 45.22 30.25 16.51 35.34 33.53 34.89 36.94 36.38 36.80 37.48 39.56 38.63 37.31 35.13 30.50 29.52 34.93 35.59 38.52 40.59 35.90 38.92 36.99 33.00 26.12 24.59 24.66 22.73 32.61 31.99 33.83 40.33 43.92 45.52 46.34 44.59 45.65 47.04
54.86 55.45 54.66 51.38 52.05 50.98 47.03 38.40 23.35 30.32 31.72 38.36 37.21 36.61 33.84 35.85 36.80 36.64 35.66 33.85 36.69 34.65 30.74 21.81 20.89 34.58 38.51 35.85 33.28 33.97 32.67 26.85 17.40 16.82 23.02 36.02 30.90 35.05 43.68 46.43 47.72 45.34 45.91 46.16 46.61
53.48 53.77 51.93 51.48 51.89 50.24 41.50 29.63 26.53 31.40 36.96 35.67 36.32 33.31 33.77 36.26 36.01 35.59 33.63 31.88 36.00 35.83 28.71 25.23 25.92 37.93 37.87 38.59 37.81 32.03 30.32 34.94 28.69 30.32 27.65 30.74 34.30 40.49 43.47 41.31 42.26 43.10 44.51 45.06 46.43
50.32 50.09 49.29 51.92 51.76 47.22 37.22 32.12 32.54 39.63 39.65 38.50 31.17 35.00 31.42 33.18 33.35 33.57 30.82 34.65 34.54 36.98 37.58 32.30 25.17 35.66 37.51 39.33 38.88 35.73 36.89 27.89 29.94 16.11 20.76 29.37 30.69 32.64 37.67 38.41 40.49 41.92 43.30 44.98 46.38
48.75 45.67 49.74 51.99 50.31 41.68 32.34 35.08 35.74 41.39 40.90 36.84 34.85 35.34 35.33 33.89 33.61 30.52 31.34 35.11 37.17 37.10 37.30 35.55 33.05 31.51 35.67 32.44 32.40 33.15 31.11 32.57 30.74 29.39 25.22 27.39 31.40 40.59 41.44 41.51 40.95 42.43 44.16 44.95 45.72
47.07 37.57 49.97 50.91 40.05 38.87 35.23 37.79 40.82 38.83 42.19 40.06 39.45 38.34 37.09 37.24 35.31 31.09 31.35 34.92 40.24 39.48 34.09 37.15 35.00 28.84 30.71 37.51 38.17 35.80 33.20 33.22 26.94 24.58 30.29 29.71 29.54 40.59 40.07 42.94 44.25 43.41 44.53 45.50 46.43
44.25 43.84 49.91 48.70 33.06 34.80 38.71 38.26 40.10 39.17 39.49 38.72 37.97 39.04 39.72 36.45 34.27 33.71 35.10 40.43 41.91 39.65 37.20 38.16 33.48 27.45 31.35 33.73 38.81 33.53 36.48 35.79 36.05 35.67 29.07 27.53 29.56 41.03 38.54 40.51 43.57 42.57 43.99 45.06 45.41
44.30 38.11 43.70 45.11 43.34 38.59 36.44 36.51 36.77 41.55 40.14 40.26 38.63 39.90 38.35 36.66 37.81 35.27 35.12 39.45 42.06 41.60 43.43 40.99 35.10 31.65 29.56 34.08 37.74 35.06 35.19 37.34 35.03 30.16 29.41 31.65 34.44 38.27 37.45 39.16 41.26 42.42 44.27 44.43 45.26
44.68 40.29 42.43 36.06 38.24 39.38 39.22 39.20 36.75 36.76 39.88 40.65 37.25 37.91 37.50 35.02 34.54 34.35 37.26 38.87 41.57 43.53 42.07 39.11 33.38 33.41 34.08 35.28 37.15 37.99 37.50 38.03 34.92 35.35 30.97 33.18 35.32 40.04 39.63 39.67 42.06 43.45 44.20 43.94 44.22
42.19 41.39 42.11 39.50 41.02 39.76 39.25 37.82 37.50 38.19 38.15 36.39 36.09 38.24 39.12 36.89 35.78 32.09 36.19 37.86 39.03 40.71 40.02 41.41 33.27 34.49 34.64 40.61 38.39 37.64 39.03 39.03 38.70 37.56 34.68 40.58 40.10 42.71 40.40 40.36 41.01 42.37 43.79 43.79 44.35
46.11 44.96 43.09 40.48 39.85 38.08 38.61 38.48 39.00 40.96 41.01 41.38 39.37 38.56 38.54 39.60 41.33 41.39 41.40 41.74 42.69 41.10 38.48 38.62 36.49 34.52 34.03 38.77 38.28 34.57 35.43 40.46 37.82 41.94 42.95 39.37 41.36 41.59 40.60 41.38 41.46 42.33 44.57 44.53 44.72

GFSSW_sfc_wetblb_033.txt.gz
Wetbulb
57.63 57.33 57.44 57.42 57.58 57.52 57.14 56.91 57.37 57.78 58.23 59.27 60.65 61.97 62.32 62.21 62.17 58.79 53.87 56.50 57.49 61.67 60.70 54.69 54.12 53.62 52.20 50.14 54.34 50.93 42.43 39.86 41.41 41.06 43.40 46.56 46.06 49.43 49.89 46.86 49.46 49.11 50.24 51.46 55.40
58.30 57.67 57.53 57.60 57.42 57.50 57.22 56.93 56.85 57.11 57.90 57.91 59.20 60.30 61.22 60.51 57.27 54.78 59.32 63.18 63.94 63.38 55.00 51.63 49.67 51.43 46.23 47.35 50.45 49.13 44.44 43.62 46.00 45.30 44.58 47.83 47.38 48.32 48.30 48.31 47.59 48.16 50.95 54.78 56.79
59.05 58.18 57.68 57.82 57.68 57.22 56.90 56.95 55.98 56.61 57.27 57.28 57.78 58.63 59.21 58.08 50.07 49.41 60.50 63.37 64.53 63.25 56.58 54.97 52.80 50.00 44.47 45.77 47.04 48.14 45.87 48.10 48.77 49.74 49.80 47.50 47.47 49.38 46.94 45.85 49.02 49.01 50.19 52.21 55.14
59.86 58.89 58.22 57.85 57.92 57.15 56.71 56.98 56.38 55.50 56.61 57.20 57.11 57.89 58.15 54.03 36.34 51.00 60.69 61.44 63.12 60.66 56.83 53.71 49.97 44.48 42.34 43.57 47.64 42.64 47.06 49.80 51.01 51.99 50.79 48.25 49.27 47.29 47.12 47.86 50.31 51.23 51.55 50.75 51.53
60.42 59.47 58.55 57.89 57.75 57.47 56.59 57.19 56.65 55.96 55.58 56.68 57.02 57.61 53.19 46.29 46.63 53.41 60.10 57.60 57.81 58.25 54.74 52.28 47.71 44.95 41.34 41.98 43.21 42.20 44.86 48.20 49.83 50.79 50.73 51.61 49.62 48.00 48.60 50.87 51.85 51.81 51.71 51.18 51.07
60.85 60.27 59.46 58.44 57.62 57.82 57.08 57.21 57.33 56.44 55.72 55.27 56.48 57.18 49.11 37.84 50.26 52.36 52.20 52.25 52.81 54.86 53.42 52.73 49.51 49.19 45.16 43.79 41.98 43.50 44.28 44.60 46.27 47.33 48.15 47.66 48.24 48.27 48.40 50.56 50.04 50.48 50.76 51.38 51.10
60.30 60.55 59.61 58.91 57.65 57.86 57.35 57.54 57.24 56.78 56.40 55.60 55.73 54.24 47.63 43.10 50.12 50.35 52.04 49.95 50.04 52.45 50.55 52.51 52.13 47.90 46.92 43.57 46.42 45.01 41.19 43.15 43.70 44.88 44.70 47.63 44.46 45.80 50.50 50.72 48.48 49.13 49.31 50.93 51.38
60.33 60.19 59.74 59.01 58.23 57.66 57.36 57.66 56.57 56.44 56.32 56.17 55.27 50.83 41.59 52.23 51.87 51.30 51.13 49.25 50.37 50.30 50.23 51.02 49.98 48.25 45.72 47.40 43.56 40.41 38.21 34.41 41.29 44.23 45.30 46.35 38.90 46.41 50.63 50.84 48.36 48.35 47.66 48.49 49.68
59.57 59.84 59.48 59.01 58.32 58.14 57.94 56.97 55.39 55.42 56.08 56.74 51.90 45.63 38.63 51.78 48.54 50.43 50.51 47.90 48.58 48.37 48.59 51.32 48.49 41.78 43.25 40.29 35.78 35.50 31.94 32.38 37.57 44.52 43.99 44.04 40.32 45.95 50.24 48.01 46.33 46.67 46.97 48.26 48.52
58.60 58.91 58.80 58.49 58.23 57.94 57.24 55.69 54.37 53.69 54.52 55.19 51.18 43.90 45.01 43.78 48.33 49.92 49.76 49.88 46.41 46.12 45.22 43.92 42.05 39.36 39.87 37.39 27.06 29.19 33.51 33.98 33.92 40.25 41.38 40.71 41.17 44.91 47.21 47.10 46.20 46.71 46.58 47.33 47.78
57.92 57.89 57.97 58.13 58.04 57.74 54.84 48.70 43.97 42.95 48.86 44.79 44.62 43.70 45.03 48.69 50.30 48.53 49.55 47.29 45.28 42.16 36.42 40.00 35.09 31.93 34.45 36.43 36.82 35.70 32.92 31.77 35.12 40.21 37.81 37.73 39.31 42.24 45.11 45.61 46.95 45.84 46.41 46.83 46.56
55.82 57.64 57.48 57.88 58.03 57.25 51.04 43.57 43.68 45.65 39.92 46.62 47.15 45.83 47.82 49.47 43.44 46.08 49.24 41.84 40.28 35.73 37.56 35.89 32.69 36.78 37.68 36.99 36.79 35.79 34.20 32.86 36.34 39.50 37.61 36.47 36.67 40.43 41.65 42.86 45.97 47.38 47.86 47.45 45.25
55.36 55.51 57.23 57.39 57.15 54.13 49.52 46.74 48.99 47.30 37.24 41.71 45.14 45.10 45.87 47.19 43.43 43.87 46.04 42.06 37.85 35.78 35.70 33.29 34.02 39.03 37.21 35.68 33.87 33.36 31.91 32.53 32.98 36.76 38.34 35.55 33.78 36.32 41.18 44.54 46.60 48.57 49.47 49.70 47.97
54.47 53.87 57.20 56.62 52.96 51.67 48.19 49.47 48.19 50.67 33.86 36.07 39.07 43.61 46.36 47.17 41.43 48.17 48.17 44.43 39.87 35.00 35.76 35.84 39.01 36.69 35.06 33.72 35.06 30.81 36.32 35.69 34.69 33.29 26.42 34.90 25.23 33.36 37.42 40.91 44.35 46.69 47.96 48.15 45.77
53.41 53.23 56.80 56.26 49.70 47.45 47.78 49.68 49.84 46.84 14.03 35.70 38.86 48.64 46.89 42.11 43.03 42.75 49.27 44.95 38.40 37.12 35.75 33.17 34.83 34.56 33.30 34.20 37.80 33.24 38.47 36.22 36.06 32.52 29.76 31.06 26.38 29.55 38.36 37.88 41.91 43.59 47.10 46.24 45.91
52.72 52.29 55.68 52.78 50.94 50.32 50.81 50.66 48.69 30.86 18.21 34.13 38.73 38.89 39.71 41.58 42.15 43.30 43.35 46.35 44.47 39.52 38.95 36.89 41.28 37.63 35.89 37.91 38.31 39.41 36.76 36.28 36.23 32.82 25.07 29.16 28.77 27.91 32.44 37.66 41.09 44.27 45.70 45.73 46.81
52.65 51.91 53.78 52.44 46.55 51.28 50.90 46.27 31.59 23.13 34.29 32.59 34.06 36.16 36.17 35.87 37.84 39.75 37.67 37.89 35.57 31.61 30.38 34.49 35.91 38.95 39.26 34.64 37.29 36.24 33.38 25.55 23.86 25.11 22.12 30.14 28.56 30.98 35.21 39.45 42.28 43.60 43.88 45.53 44.98
52.30 52.42 53.02 52.70 51.98 51.66 47.48 37.92 23.81 29.36 30.52 38.26 36.45 36.03 32.14 35.41 35.98 36.65 36.73 34.20 37.59 35.93 30.15 24.30 21.15 33.15 37.80 35.82 32.12 32.88 31.98 26.12 19.39 20.74 22.26 31.61 25.82 30.71 39.18 41.93 42.85 44.13 44.50 43.53 44.88
51.75 49.89 50.48 51.54 52.09 50.87 42.28 29.59 25.80 29.81 36.21 35.20 35.77 32.34 32.58 36.00 36.00 35.76 34.89 32.87 33.95 35.89 29.71 25.77 24.54 35.46 36.86 37.75 36.72 32.25 29.79 33.69 27.94 29.71 26.39 27.33 30.31 35.25 40.21 40.94 41.27 42.20 42.86 42.65 44.48
47.85 47.56 48.13 52.45 51.99 47.31 37.71 30.47 30.82 37.73 38.37 37.23 29.90 33.38 30.73 33.15 32.87 34.06 33.00 34.10 34.23 36.70 35.81 29.28 22.91 33.98 36.93 38.47 37.96 34.33 35.42 27.61 29.32 19.43 19.17 23.59 26.85 29.80 33.72 37.80 39.95 39.61 40.90 42.24 45.00
44.69 41.67 49.56 52.45 50.50 41.92 32.66 35.15 34.54 41.02 40.30 35.99 33.71 33.53 33.63 33.11 33.90 31.89 30.76 33.88 36.14 36.12 37.11 33.67 32.09 30.63 35.68 32.74 31.99 33.07 31.49 31.71 29.17 26.59 20.04 18.28 26.03 35.08 38.05 39.24 37.94 39.59 41.74 43.72 44.90
44.08 35.51 50.05 50.90 35.49 38.23 34.98 36.64 40.05 39.27 40.62 38.95 38.94 37.23 35.73 35.84 34.64 30.95 30.34 33.32 38.20 37.60 33.36 35.65 33.83 27.82 29.57 36.43 38.48 36.14 32.83 32.78 25.34 20.83 25.67 27.41 26.87 38.30 37.36 38.57 40.76 42.11 43.54 44.65 45.21
38.70 42.41 49.72 46.73 31.74 32.88 38.22 37.77 40.06 38.33 38.39 37.53 36.97 38.76 39.84 36.78 34.65 34.26 33.67 38.56 39.23 37.30 34.93 37.25 32.43 26.41 28.64 33.27 35.85 33.75 34.86 34.41 32.78 30.52 24.65 21.47 25.47 39.21 39.07 39.52 40.75 42.84 44.81 45.40 44.75
39.73 34.19 42.68 42.10 41.86 37.03 36.36 36.30 36.06 40.57 39.85 40.34 38.72 39.83 38.09 36.59 38.13 34.34 35.06 38.59 39.70 39.48 43.00 40.62 34.91 30.63 26.81 31.08 34.23 32.27 33.69 33.90 31.74 27.08 28.03 28.25 30.75 35.78 37.87 39.09 39.72 41.82 44.32 44.83 44.60
40.96 36.66 39.72 33.25 36.25 37.80 37.91 36.63 35.23 36.30 40.29 41.26 38.13 38.06 36.95 34.91 35.16 34.66 35.99 37.32 40.11 42.35 41.37 39.02 31.58 33.82 34.12 34.90 35.57 35.01 33.01 33.14 30.96 31.57 28.75 31.49 31.66 35.22 39.15 40.43 42.03 43.61 43.53 43.72 43.85
39.67 40.91 42.38 38.85 40.41 38.62 37.30 36.62 36.44 37.82 38.33 36.97 37.05 37.29 37.99 36.14 35.85 32.20 35.60 35.96 36.16 40.81 39.79 40.44 32.73 33.86 31.89 36.11 35.42 34.54 35.59 34.27 35.14 33.59 34.60 35.97 34.99 41.47 41.89 43.20 41.36 42.52 43.41 43.53 43.69
45.13 46.18 42.87 40.79 39.12 37.96 37.86 38.21 37.85 40.47 40.72 40.65 39.05 38.30 37.70 38.96 41.31 41.31 40.39 40.37 40.05 38.88 38.24 37.17 34.65 33.49 31.37 35.88 36.30 32.43 36.39 34.63 36.23 37.20 35.90 33.36 37.80 41.32 39.93 41.02 41.96 42.63 43.80 43.72 44.06

GFSSW_sfc_wetblb_036.txt.gz
Wetbulb
59.13 58.27 57.69 57.38 57.49 57.63 57.44 57.00 57.06 57.67 58.06 58.39 60.06 61.70 62.28 62.80 62.16 59.06 54.36 56.48 57.24 62.10 60.43 54.37 53.24 52.69 51.19 49.07 53.44 49.08 41.97 38.99 39.69 39.91 41.76 45.41 44.47 48.28 48.98 45.41 48.33 48.19 49.18 50.48 55.02
59.87 58.95 58.20 57.61 57.55 57.65 57.56 57.03 56.59 57.12 57.48 57.90 58.45 60.09 61.18 60.52 57.76 55.78 59.88 63.30 64.09 63.40 55.32 51.17 48.75 50.73 45.59 46.45 49.40 48.23 42.95 42.03 45.08 44.08 43.26 46.09 45.72 47.35 47.68 47.07 47.15 47.96 50.23 53.55 56.73
60.64 59.74 58.85 58.15 57.70 57.79 57.32 56.91 56.56 56.40 56.86 57.76 57.63 58.35 58.88 58.02 49.32 49.39 60.03 63.74 64.61 63.66 56.02 54.06 51.91 48.97 43.93 44.67 45.74 46.53 44.51 46.55 47.67 49.25 49.37 46.87 46.69 48.25 45.87 45.33 48.29 47.14 49.55 52.16 55.54
60.74 60.45 59.56 58.56 57.92 57.99 57.11 56.93 56.77 55.81 56.49 57.40 57.31 57.77 57.67 53.34 37.09 49.49 60.62 60.64 62.17 60.94 56.90 53.16 49.06 43.28 41.51 41.94 46.03 40.72 46.18 48.44 49.72 51.20 50.28 47.82 49.21 47.55 46.48 47.81 49.73 49.26 50.79 49.89 49.89
60.38 60.49 60.06 58.98 58.15 57.92 57.47 56.64 56.93 56.57 55.60 56.63 56.91 57.38 52.39 45.06 45.68 52.16 58.58 56.26 57.80 57.50 55.29 52.47 47.14 44.39 40.37 40.73 42.28 40.68 43.87 46.71 47.24 47.12 48.48 50.03 48.21 48.24 48.45 50.43 52.38 52.56 51.40 50.44 50.32
60.04 60.22 59.98 59.64 58.61 57.99 57.76 56.75 57.30 56.75 56.10 55.33 56.23 56.50 48.21 35.52 48.49 50.80 51.28 50.98 52.85 56.59 54.05 52.92 48.63 48.09 43.36 42.67 41.01 42.74 43.59 43.62 45.17 45.24 45.65 45.52 46.07 46.58 48.53 50.60 49.55 49.85 49.98 50.68 49.89
58.93 59.48 59.22 59.30 58.88 57.86 57.99 57.24 57.38 57.34 56.63 55.82 55.71 53.63 46.46 41.95 49.80 50.74 51.34 48.72 49.18 52.45 51.50 52.80 51.81 47.20 46.98 42.21 45.42 44.20 40.25 41.94 42.70 43.73 43.27 45.35 42.45 43.21 48.66 50.11 49.81 50.23 49.45 50.03 50.31
57.21 58.46 58.97 58.91 58.72 58.19 57.90 57.38 57.45 57.16 56.35 56.31 55.32 50.10 40.48 51.17 51.04 50.58 50.12 48.17 49.10 49.42 50.32 52.15 52.71 48.66 45.93 44.13 42.31 40.39 39.63 33.32 39.61 42.53 43.72 44.49 37.10 44.28 47.50 48.03 48.10 48.46 48.11 48.74 50.63
55.49 57.07 58.46 58.56 58.42 58.26 58.01 57.27 56.49 55.45 55.78 56.53 51.05 44.27 38.98 51.37 46.73 49.24 49.56 46.91 48.06 47.64 48.07 51.68 47.78 42.88 42.58 37.93 35.29 37.94 29.64 31.86 36.45 42.04 42.10 41.89 37.94 43.84 46.95 46.08 45.69 46.52 46.62 47.90 48.57
53.90 55.05 56.98 57.73 58.06 57.79 57.81 56.22 54.98 53.36 53.67 54.35 51.09 43.39 44.28 43.01 47.27 49.09 48.98 49.18 45.85 45.63 44.78 43.45 43.16 37.17 38.05 36.40 25.57 27.65 29.28 31.43 32.50 37.92 38.71 37.91 38.10 42.38 44.99 44.89 44.77 45.49 45.60 46.05 47.05
53.07 54.36 55.38 57.30 57.54 57.53 55.21 49.55 43.24 40.99 47.42 44.00 44.58 43.05 44.82 48.12 49.73 47.59 48.60 46.32 44.59 41.94 36.30 39.47 34.59 32.74 34.91 35.10 35.22 33.54 30.90 31.16 34.30 38.80 36.27 35.78 36.61 39.26 42.14 42.80 42.59 44.92 45.95 45.98 46.80
52.58 53.83 55.27 55.14 57.47 57.32 51.77 44.86 43.23 43.85 38.32 45.46 46.56 45.82 47.58 48.85 43.24 45.61 48.65 41.34 39.85 35.27 37.38 35.53 32.24 35.97 36.69 35.79 35.56 34.29 33.29 32.64 35.24 37.79 36.71 35.45 35.23 38.96 40.59 41.56 42.74 43.64 45.61 46.43 47.33
51.70 52.31 54.41 54.37 56.74 54.57 49.32 46.65 48.87 46.92 36.67 40.04 44.48 45.31 45.56 46.94 43.16 43.20 45.26 41.30 37.13 34.74 35.26 32.19 33.14 38.31 36.90 34.95 33.12 32.45 31.61 31.64 31.05 34.44 36.45 34.35 31.98 34.35 38.88 41.16 42.39 43.59 45.03 47.38 48.00
50.79 51.40 52.59 54.36 52.73 51.65 47.90 50.00 49.86 48.07 27.84 34.10 39.74 42.98 45.62 45.93 40.45 47.57 47.03 42.66 37.93 33.83 34.83 34.54 38.27 36.39 34.28 32.83 33.97 30.23 35.15 34.55 33.00 30.44 25.45 32.75 24.34 30.67 34.48 36.61 38.30 40.98 43.57 46.06 46.92
50.65 50.94 51.92 53.27 51.06 48.07 49.45 49.36 50.83 41.59 13.71 35.33 38.73 48.70 46.92 40.94 42.12 42.35 48.19 44.85 37.76 36.63 36.04 32.71 34.06 33.87 33.23 33.68 35.73 31.99 36.94 34.43 34.37 31.19 29.24 29.75 25.87 27.17 33.04 33.73 37.06 39.41 41.73 45.02 47.07
49.76 50.39 51.72 50.64 52.36 51.41 50.64 50.91 45.79 25.07 19.16 34.18 38.77 39.19 40.30 41.56 42.10 43.13 43.73 46.40 44.41 39.18 38.75 36.57 40.55 37.73 35.24 37.18 37.25 37.92 35.38 34.91 34.86 33.45 25.81 28.40 27.16 28.20 31.05 33.42 36.35 39.79 41.49 45.37 46.48
50.68 50.56 50.16 51.47 48.04 51.15 51.21 46.18 31.41 23.84 33.17 32.18 34.07 37.12 37.14 36.54 38.46 39.24 38.27 38.22 35.16 31.65 31.18 34.79 35.94 39.09 39.76 35.14 36.41 34.64 32.18 23.52 21.24 23.09 20.83 29.17 26.89 29.68 33.23 35.31 37.11 38.63 41.07 43.13 44.73
50.33 50.62 50.78 51.58 51.90 51.42 47.72 36.69 21.43 29.48 30.15 37.65 35.32 35.23 32.26 35.57 35.64 37.01 36.73 34.05 38.22 36.23 30.78 27.01 21.02 34.27 38.72 35.36 30.72 31.57 31.03 21.76 13.55 18.06 20.93 29.44 24.21 29.17 36.81 40.22 41.26 41.87 41.59 43.03 42.53
50.51 46.81 48.09 51.72 52.24 50.77 41.68 29.27 26.00 29.49 35.21 34.66 34.75 30.90 30.94 34.52 34.55 34.70 34.92 34.09 35.90 37.76 30.87 27.19 24.13 33.75 35.97 37.14 36.36 32.53 28.93 33.27 26.38 25.71 22.93 27.58 28.63 34.28 37.04 37.28 38.78 39.33 39.90 38.91 41.72
43.81 44.59 46.25 51.68 52.59 47.25 36.69 30.36 30.45 36.57 37.65 36.36 28.89 32.02 28.71 32.60 32.15 33.87 33.07 33.59 34.67 36.56 37.69 29.33 19.84 31.28 35.07 37.02 37.28 34.99 36.69 28.23 28.35 19.54 17.35 21.74 23.09 26.30 32.72 34.61 37.47 39.05 39.68 40.68 42.07
43.43 39.52 47.97 51.81 50.50 41.10 31.65 33.18 33.86 39.83 39.24 35.11 31.75 31.43 31.90 32.57 33.82 32.42 30.66 33.53 35.44 35.10 36.97 32.51 29.26 27.75 34.81 32.92 31.22 33.04 30.85 32.44 30.54 27.94 17.17 15.74 22.78 31.97 35.02 36.42 39.01 38.62 38.04 39.93 42.78
43.39 35.19 49.13 50.77 36.07 35.78 34.55 37.07 40.26 38.51 40.13 38.13 36.75 35.72 33.55 34.25 33.54 32.63 30.26 33.39 37.21 36.87 33.00 35.68 32.83 26.70 28.19 35.98 37.99 35.77 32.58 32.29 26.52 21.45 24.68 21.76 24.29 37.21 37.07 38.98 40.87 40.13 40.21 41.37 43.78
39.25 40.58 49.54 47.53 30.27 32.16 37.95 37.43 38.36 38.10 37.76 36.65 35.46 37.61 37.95 35.78 33.43 35.49 34.91 37.94 38.11 36.18 33.59 35.83 31.58 23.12 23.62 33.19 35.28 32.89 34.32 34.06 33.18 32.06 24.57 18.94 23.91 36.93 38.02 38.93 40.53 41.35 41.88 42.41 42.34
39.29 34.79 41.33 41.43 40.50 37.14 35.83 35.17 35.16 40.03 38.26 38.96 37.67 39.52 37.46 36.49 37.90 34.24 35.49 39.13 38.90 37.83 41.18 39.62 34.25 28.84 25.42 29.64 34.09 30.92 33.03 33.45 31.95 27.35 25.91 25.47 28.09 33.69 36.68 38.48 38.90 40.45 43.19 43.50 42.24
39.61 35.05 38.28 32.36 34.06 38.10 38.32 36.96 34.59 34.69 38.72 40.11 37.49 37.18 35.94 34.56 34.42 34.86 37.16 36.83 38.95 40.84 40.14 38.39 32.06 33.62 33.89 34.60 34.64 33.81 33.82 33.05 30.82 31.01 25.95 29.14 29.95 34.71 37.30 39.53 37.11 41.44 43.83 44.63 42.15
39.12 38.80 41.03 36.74 39.15 37.53 37.91 34.13 34.63 36.53 36.82 36.27 36.01 37.24 36.91 35.77 36.44 33.49 35.67 36.41 35.21 38.18 37.75 39.65 33.15 34.76 31.91 35.68 35.60 32.84 34.99 35.00 33.77 33.58 31.62 31.69 31.01 39.29 41.37 37.72 38.72 39.79 42.57 44.10 42.41
45.45 45.20 39.71 37.64 38.31 36.54 36.28 36.64 36.55 38.75 39.40 39.04 38.75 37.95 36.89 38.50 40.98 41.47 41.08 40.65 38.95 38.29 38.41 37.57 34.68 32.91 29.67 35.41 34.99 32.71 34.22 35.45 34.73 35.23 34.09 29.32 34.70 39.22 39.17 41.40 41.23 40.92 43.52 44.31 43.61

GFSSW_sfc_wetblb_039.txt.gz
Wetbulb
61.31 60.35 59.41 58.13 57.53 57.48 57.70 57.57 57.53 57.43 57.65 58.03 58.46 60.56 62.01 62.40 62.39 58.93 53.97 57.19 58.20 62.60 60.51 56.11 54.53 53.61 53.12 51.69 54.87 51.41 45.89 42.08 42.32 41.78 44.96 49.16 48.24 51.68 52.38 50.81 52.03 53.34 53.82 55.12 58.67
60.76 60.98 60.25 58.84 58.03 57.62 57.63 57.64 57.15 56.98 57.37 57.81 57.62 59.17 60.33 60.37 58.00 56.25 60.90 63.27 63.90 63.30 57.21 52.76 50.44 51.69 48.06 49.16 51.83 50.43 45.44 44.28 47.07 46.49 46.72 48.45 48.75 49.67 50.73 50.14 51.31 52.67 54.84 57.46 59.26
60.23 60.62 60.71 59.77 58.65 57.65 57.80 57.42 56.95 56.70 56.98 57.47 57.28 57.85 58.56 57.94 50.33 50.72 59.97 63.43 64.72 63.65 56.84 54.78 52.81 50.51 46.50 47.84 48.73 49.65 45.17 47.56 48.74 50.58 51.62 49.94 49.63 51.18 49.50 48.74 51.42 51.82 53.18 54.34 58.37
59.31 60.20 60.58 60.42 59.29 58.04 57.95 57.40 57.12 56.85 56.02 57.16 57.09 57.38 57.59 53.94 39.39 50.96 60.36 60.14 61.74 61.68 56.86 53.85 50.37 45.90 44.07 43.65 47.21 44.14 47.27 49.00 50.09 51.67 51.03 49.73 51.38 50.70 49.94 51.30 53.00 53.02 53.36 53.47 54.60
57.91 59.15 59.87 60.29 59.64 58.56 58.05 57.56 57.02 57.06 56.05 56.28 56.79 57.13 52.58 45.27 46.81 52.84 57.55 55.17 58.72 57.87 55.54 52.66 48.59 45.65 42.51 43.09 44.35 43.87 45.26 47.42 48.35 46.93 47.35 49.97 49.08 49.88 50.45 53.47 54.10 54.96 55.02 54.60 54.66
56.08 57.05 57.95 59.27 59.68 59.24 58.20 57.70 56.74 57.31 56.61 55.36 55.92 56.09 47.74 35.88 48.61 50.98 51.54 51.23 55.16 56.36 54.18 52.88 50.53 48.59 45.29 44.44 43.29 44.40 44.71 44.95 46.13 46.21 46.88 46.30 47.04 48.27 49.94 53.11 53.19 53.15 53.99 54.33 53.49
54.63 55.57 56.39 57.73 59.09 59.02 58.32 57.98 57.04 57.58 56.96 56.01 55.87 53.22 46.87 42.05 50.49 51.35 51.73 49.70 50.80 55.39 53.18 53.71 52.55 48.68 47.42 44.19 47.02 45.21 41.97 43.31 44.06 45.10 44.63 46.48 42.78 42.99 49.42 51.10 51.00 51.77 52.83 54.08 54.96
53.48 54.00 55.04 56.04 58.26 58.93 58.39 58.06 57.45 57.58 57.07 56.66 55.90 50.41 40.32 51.13 51.57 50.93 51.07 49.29 50.46 52.27 52.71 54.49 53.67 49.78 46.59 46.22 43.08 41.38 40.81 35.87 41.60 43.58 44.76 45.19 36.89 44.98 48.49 48.31 48.60 49.95 51.47 52.49 54.18
52.75 53.09 53.83 54.97 55.77 58.32 58.20 58.20 57.37 56.56 56.25 56.11 50.89 44.65 40.12 51.29 46.57 49.53 50.02 47.11 48.31 48.83 49.79 54.04 48.83 43.88 43.75 39.01 35.74 36.81 31.26 34.12 37.42 43.30 43.24 42.89 39.35 45.33 48.08 46.77 46.52 47.85 49.49 50.69 52.27
52.08 52.69 53.06 54.24 54.76 57.40 57.81 57.12 55.98 53.97 53.72 54.12 51.79 43.63 44.74 43.09 47.13 48.60 49.81 49.25 46.32 45.94 45.41 44.65 43.41 39.10 39.84 36.99 28.05 29.83 31.22 33.32 34.37 38.93 39.65 38.03 38.24 42.23 44.92 45.04 46.13 46.85 47.67 48.85 49.73
51.60 52.07 52.57 53.30 54.79 56.87 56.06 50.84 44.94 43.24 47.44 41.60 43.78 42.19 44.73 48.01 49.95 47.12 48.82 46.61 45.44 42.93 37.65 40.77 36.77 33.51 35.70 36.46 35.82 34.88 33.68 32.95 36.16 39.22 37.22 36.47 37.23 39.98 43.11 43.45 42.99 44.62 46.12 47.71 48.84
51.01 51.63 51.81 52.56 54.96 55.18 52.71 45.39 43.55 43.81 38.00 44.53 45.53 45.68 47.54 48.81 42.84 45.51 48.43 41.74 40.61 36.00 37.88 36.48 33.17 37.02 37.58 36.79 35.53 34.28 32.46 32.17 35.17 37.89 36.77 35.73 34.97 38.75 40.71 41.66 43.20 43.78 44.77 46.44 48.51
50.33 50.90 51.15 51.73 53.14 52.24 49.54 47.05 48.84 47.28 36.44 39.76 43.51 44.66 45.37 46.74 42.68 42.70 45.33 41.65 37.89 35.31 35.75 32.73 34.74 38.45 36.84 35.08 33.32 33.35 32.24 32.16 31.50 35.17 36.81 34.58 32.39 36.20 39.66 41.01 42.25 43.78 45.15 46.43 47.20
49.87 50.35 50.65 50.85 48.73 48.72 48.04 50.13 49.95 48.67 27.47 33.15 39.11 42.63 45.72 45.70 40.35 47.55 46.80 42.65 38.43 34.81 35.45 35.07 38.56 36.47 34.75 33.88 34.65 30.20 35.63 34.99 33.31 31.77 26.24 34.14 24.71 33.75 37.29 38.29 40.40 41.29 42.74 44.21 45.68
49.42 50.04 50.20 50.33 46.76 47.07 49.77 50.41 50.01 44.62 12.14 35.20 39.46 48.62 46.49 41.25 41.26 42.85 47.29 44.36 37.25 36.10 36.11 32.40 34.79 34.42 33.24 34.06 35.96 32.70 36.81 34.54 34.11 31.97 30.33 30.78 27.62 32.62 35.09 34.61 37.49 40.21 41.91 42.76 45.42
49.02 49.51 49.83 48.11 47.98 49.59 51.86 51.01 45.43 29.42 14.04 34.11 39.13 40.05 40.09 40.44 41.87 43.36 43.20 46.15 44.31 38.89 38.43 36.04 39.77 37.61 35.65 37.22 37.39 38.25 34.80 35.21 34.86 33.24 25.12 29.71 28.61 29.48 33.80 36.42 38.50 40.48 42.05 43.48 45.43
49.50 49.78 48.92 48.75 44.06 51.49 51.52 46.05 30.18 21.66 32.97 32.05 34.04 38.41 38.08 36.86 38.92 39.41 39.11 37.11 35.10 31.23 30.92 35.87 36.59 39.65 39.71 35.10 37.14 35.86 33.38 24.20 21.33 22.78 21.23 29.97 27.96 30.80 36.02 37.71 38.68 39.31 40.58 42.50 45.16
49.47 49.80 48.84 48.25 50.14 51.56 48.33 35.90 24.44 29.32 29.91 36.79 35.80 36.60 33.36 36.40 36.52 37.92 36.12 34.45 38.52 36.15 31.31 27.82 23.88 34.57 39.24 36.15 33.06 33.33 32.29 24.45 14.63 17.37 21.85 29.25 25.70 31.00 37.48 40.40 41.75 42.14 42.27 43.30 44.26
50.43 46.51 46.62 47.51 50.65 50.87 39.79 29.98 26.79 29.88 35.22 34.00 34.39 31.40 31.13 34.45 34.97 34.78 35.17 34.41 36.48 37.86 30.54 27.91 27.10 33.85 36.39 37.41 36.92 32.17 29.06 34.04 25.53 26.91 22.82 26.58 30.16 35.48 38.74 38.44 39.41 40.18 41.87 42.13 42.24
45.18 41.21 42.51 48.92 50.97 47.36 35.72 32.18 30.44 36.20 37.27 36.04 29.94 31.75 28.45 31.02 31.42 32.27 32.30 34.19 35.08 39.00 38.92 32.79 26.43 30.75 34.59 37.34 37.05 33.81 36.08 27.28 27.97 19.96 18.57 23.62 25.00 27.38 32.78 35.52 38.33 40.27 42.33 42.31 42.58
43.92 36.68 46.43 50.43 50.33 38.54 31.46 32.83 33.99 38.72 38.63 34.47 32.00 31.19 31.37 31.81 32.18 31.94 31.15 34.17 36.10 35.09 38.33 34.67 30.24 27.46 34.34 31.67 29.53 32.08 30.21 32.38 31.44 29.24 21.86 20.37 24.94 33.57 34.68 36.74 38.79 40.65 42.58 42.35 40.82
42.48 34.10 48.19 50.41 34.23 32.96 33.40 35.73 40.70 38.24 39.52 37.66 36.92 34.84 33.00 33.62 32.60 32.76 32.00 32.75 37.13 36.51 33.37 35.53 32.68 24.64 26.88 34.36 36.51 34.96 32.82 31.82 26.28 25.26 27.56 25.99 25.55 39.21 38.23 39.64 41.07 42.04 43.31 43.48 43.47
37.38 37.83 48.99 45.77 29.84 31.90 37.42 37.22 39.05 37.99 37.12 36.14 35.41 37.45 37.72 34.66 32.12 34.35 35.28 38.44 37.66 35.83 33.25 35.30 31.71 24.85 23.22 31.18 34.75 32.81 34.02 34.09 32.90 31.51 26.68 23.00 25.69 37.64 38.48 37.96 39.91 41.73 43.75 42.65 41.43
38.92 32.93 38.14 40.31 38.63 34.88 35.09 35.07 35.53 40.43 38.04 38.17 37.23 38.57 36.92 35.55 37.39 34.30 35.27 39.24 38.36 37.91 40.72 39.17 33.39 26.39 23.11 28.08 33.85 30.72 33.33 33.31 31.73 27.44 27.20 27.41 28.94 33.76 35.67 37.12 39.29 40.99 44.26 42.52 40.74
39.32 34.46 38.08 32.30 34.66 37.00 37.85 36.48 35.13 34.37 38.03 38.48 36.15 36.33 35.75 33.16 33.90 34.26 36.18 36.76 38.07 40.16 39.40 37.38 31.56 32.45 32.96 33.93 34.21 33.53 33.09 33.30 30.65 30.98 27.88 30.24 29.86 33.63 36.66 38.44 39.45 42.09 43.81 43.44 40.44
38.21 36.24 40.31 36.72 38.00 37.77 37.84 35.42 35.12 35.85 36.43 35.47 34.47 36.87 37.45 34.62 35.01 33.36 35.42 35.44 34.95 38.44 37.07 38.93 32.69 34.88 31.97 35.43 35.37 33.13 35.80 34.89 35.11 33.34 32.47 32.43 31.62 38.25 38.51 41.18 40.69 41.34 43.32 43.69 40.92
43.19 44.69 39.90 38.12 37.01 36.60 36.42 35.37 36.16 38.06 37.77 38.14 38.20 36.66 36.27 37.49 39.90 40.91 41.52 40.48 39.89 38.58 37.22 37.20 34.98 32.98 28.56 34.96 34.99 33.22 36.16 35.24 35.35 35.61 34.44 30.58 34.93 38.27 37.55 39.65 41.22 42.79 43.68 44.61 41.50

GFSSW_sfc_wetblb_042.txt.gz
Wetbulb
60.95 60.87 60.98 60.33 59.12 58.18 57.78 58.03 58.25 57.85 57.53 57.82 58.26 59.12 61.24 61.89 62.38 59.77 55.75 59.20 60.37 62.70 61.56 59.07 57.28 56.45 56.66 54.79 57.86 57.19 47.84 44.75 46.26 46.74 48.30 52.43 51.02 54.55 55.55 54.14 55.67 56.49 56.71 58.95 61.29
59.11 60.17 60.71 60.96 59.93 58.94 58.11 58.04 58.14 57.57 57.04 57.49 57.96 58.50 59.73 59.90 59.34 56.57 61.19 62.99 63.68 63.44 59.09 56.17 53.94 54.35 52.48 52.69 54.60 52.45 47.42 46.90 50.69 51.43 49.71 51.50 51.93 53.12 53.02 53.55 54.28 55.91 57.79 59.98 61.54
57.83 59.21 59.74 60.52 60.44 59.48 58.48 58.29 57.79 57.31 56.75 56.99 57.39 57.56 58.50 58.69 52.77 54.08 62.51 64.55 64.82 64.11 60.87 57.88 55.72 53.42 50.01 52.11 52.24 51.68 47.73 50.60 51.08 52.29 53.15 52.64 52.72 54.60 52.61 51.36 54.74 54.84 56.52 57.95 59.47
55.48 57.17 58.40 59.24 60.13 59.90 58.92 58.59 57.75 57.39 56.70 56.59 57.13 57.21 57.74 56.37 41.73 56.31 60.42 59.87 62.29 63.05 58.76 56.25 54.00 50.37 48.28 47.21 50.72 46.96 50.44 51.36 51.75 53.56 52.82 51.83 54.23 52.86 53.48 53.64 56.66 57.01 57.44 58.17 58.73
53.82 55.15 56.44 57.04 58.68 59.49 59.28 58.70 57.89 57.65 57.06 56.10 56.64 56.94 54.50 48.16 49.98 55.41 56.47 56.25 60.11 60.72 56.14 53.21 51.85 50.73 47.35 47.89 48.37 47.11 48.63 49.73 51.00 51.18 51.00 51.59 50.33 51.37 52.47 56.13 57.94 58.36 58.27 58.48 59.19
53.23 53.62 54.64 55.72 57.00 58.54 59.28 58.71 58.08 57.71 57.29 56.02 55.79 56.31 49.99 40.55 52.66 54.57 54.45 54.97 58.96 58.10 56.93 55.01 51.61 52.48 48.60 47.57 46.71 47.66 47.65 48.39 49.37 49.35 50.01 48.11 49.08 50.24 51.48 54.33 54.10 55.00 55.86 57.37 58.33
52.29 53.02 53.61 53.91 55.42 57.01 59.06 58.88 58.18 57.45 57.47 56.60 56.19 54.07 48.22 45.92 53.12 54.58 53.73 53.50 55.24 58.07 54.76 56.38 55.08 51.48 51.02 46.47 49.75 48.11 44.51 46.90 47.61 48.43 47.64 49.35 45.28 46.29 51.60 52.98 52.26 53.37 54.63 55.64 56.65
51.99 52.36 52.90 53.29 54.37 55.64 57.45 58.92 58.39 57.98 57.67 56.83 56.43 52.46 45.10 52.64 54.89 52.54 53.53 52.45 56.41 57.34 57.36 57.24 55.89 51.69 48.75 48.93 45.97 43.38 43.80 39.89 45.42 46.20 47.47 46.98 40.70 47.59 51.40 51.55 50.93 52.19 53.33 54.28 55.75
51.40 51.93 52.28 52.99 53.61 54.37 55.27 58.48 58.20 57.57 57.50 56.85 52.71 49.06 44.12 52.61 48.67 51.99 53.14 50.10 53.08 53.65 55.12 57.08 54.14 47.97 47.13 42.36 39.74 41.15 37.33 38.45 40.78 45.84 45.69 45.48 42.99 47.78 51.26 50.37 50.20 51.41 52.81 53.74 54.86
50.97 51.32 51.70 52.44 53.04 53.57 54.41 58.05 57.51 56.30 55.09 54.52 52.79 44.64 47.62 45.21 48.73 50.51 52.44 52.09 49.57 50.56 49.31 48.39 46.88 42.98 42.69 40.51 35.20 36.60 36.03 37.73 38.08 42.50 43.49 42.16 42.24 46.34 48.95 48.94 49.26 50.77 52.30 52.95 53.59
50.23 50.81 51.17 51.81 52.28 52.94 53.23 53.63 45.20 44.05 47.95 43.97 44.27 44.16 45.99 49.68 51.89 48.85 51.17 49.81 49.43 47.26 41.18 44.37 39.29 36.79 40.07 41.78 41.40 38.68 37.41 36.41 39.81 42.61 40.58 40.03 40.57 42.73 45.28 46.00 46.41 47.75 49.09 50.23 51.93
50.06 50.34 50.64 51.41 51.73 52.21 51.99 46.68 46.03 48.99 40.81 46.86 47.36 47.18 48.81 49.89 44.01 46.98 51.05 44.80 44.07 39.77 42.67 39.90 34.99 41.02 41.76 41.53 39.47 38.64 36.58 36.63 39.56 41.12 39.68 39.34 38.76 42.82 44.42 44.90 46.16 46.68 47.38 48.05 49.21
49.87 50.17 50.32 50.73 50.98 49.80 47.27 46.25 51.52 50.07 41.85 41.93 45.50 45.61 47.04 48.35 43.91 44.53 47.74 45.20 42.14 39.38 39.74 37.18 38.07 40.74 39.75 38.40 36.57 37.24 35.94 36.38 35.77 39.10 40.31 38.62 37.65 42.00 43.85 45.23 46.24 46.82 47.64 48.37 48.70
49.74 50.06 49.87 50.34 47.50 48.12 44.31 51.39 51.03 49.74 37.42 36.81 39.88 43.51 47.20 47.55 42.03 49.06 49.14 45.39 41.36 38.31 39.45 38.77 41.87 38.30 37.58 36.35 38.02 33.76 39.26 37.61 36.12 34.48 31.12 37.97 30.66 39.23 42.57 43.63 45.00 46.36 46.93 47.67 48.78
49.35 49.89 49.99 49.85 45.24 43.14 48.20 52.04 50.72 46.50 26.41 38.21 39.82 49.49 47.24 42.51 43.42 43.92 49.46 45.10 39.11 38.56 38.96 36.06 37.27 37.20 34.96 36.42 39.21 35.03 39.15 37.39 36.61 33.79 32.07 33.88 28.93 36.76 41.32 39.76 42.39 44.97 46.66 48.05 49.21
49.74 49.65 49.48 48.02 48.08 47.71 50.85 51.32 46.54 32.07 25.46 34.45 40.09 39.99 40.03 41.13 41.93 44.37 43.63 46.58 45.09 39.78 39.30 39.01 42.18 39.97 39.49 40.39 40.12 40.24 37.56 37.10 36.46 33.91 26.62 33.22 31.74 34.35 38.56 40.25 42.24 44.72 45.95 47.34 48.18
49.45 49.68 48.79 48.75 43.10 50.51 50.61 44.68 30.57 29.30 36.10 32.74 34.69 39.30 37.94 36.67 39.08 40.68 38.92 37.48 36.34 32.00 32.53 36.97 37.62 40.91 41.29 36.87 39.28 37.34 34.49 28.52 26.07 24.94 25.71 34.30 32.58 34.87 40.82 42.28 43.09 43.64 45.16 47.36 48.64
49.54 50.48 49.36 48.14 50.67 50.12 46.66 33.08 27.63 32.63 33.33 37.64 37.40 38.15 35.05 37.31 37.86 37.92 37.19 34.63 39.06 37.52 34.31 31.36 30.36 37.36 40.92 37.84 35.18 34.96 33.67 28.62 21.40 24.12 28.43 33.62 28.42 35.76 42.37 43.60 44.74 45.39 45.84 47.72 48.87
49.48 47.63 46.43 49.14 50.86 49.33 40.66 29.34 31.53 33.82 36.52 34.70 36.05 32.91 32.81 35.84 36.75 35.75 35.56 34.89 37.94 38.79 32.76 31.78 29.91 37.55 40.05 40.40 39.42 34.22 30.79 36.91 29.85 31.30 26.49 30.61 35.38 40.26 42.30 42.30 43.34 44.00 45.70 46.96 48.11
45.97 45.45 46.01 50.69 50.50 45.34 35.73 32.29 33.50 38.99 38.81 38.15 31.60 33.98 29.87 32.83 33.46 33.93 34.19 38.34 37.65 41.14 41.82 35.63 30.37 34.78 36.81 39.93 39.83 36.95 38.50 28.58 30.49 21.31 22.04 29.67 31.78 32.98 38.13 39.47 41.83 42.55 44.71 46.23 48.39
44.82 40.28 46.84 51.01 49.58 36.62 31.86 34.17 36.50 40.80 40.56 36.97 34.53 33.11 34.18 32.59 34.45 33.67 34.95 37.52 40.11 39.83 41.78 37.23 33.41 32.25 34.70 33.18 32.94 33.16 31.86 33.20 32.58 30.88 24.66 23.72 30.61 40.15 38.39 39.89 41.07 43.31 44.68 46.34 47.92
41.76 33.65 47.72 50.08 35.40 34.09 34.77 35.91 40.56 38.84 41.75 39.72 39.48 37.60 35.59 35.98 34.33 34.90 34.86 36.96 40.91 40.78 36.42 38.61 33.54 28.42 30.95 38.14 39.75 38.33 34.96 33.57 27.92 27.02 29.07 28.41 29.08 41.40 40.65 42.36 43.44 43.45 44.14 46.74 48.09
38.37 36.55 48.29 47.02 32.82 33.82 37.28 38.24 40.05 38.90 38.81 38.43 37.67 39.65 39.70 36.37 33.52 36.17 36.98 40.76 40.85 39.48 37.22 38.17 31.99 28.02 31.09 34.71 36.34 33.56 35.42 35.25 34.31 32.64 28.29 25.94 30.26 40.91 42.01 42.72 43.53 42.79 44.45 46.37 46.99
38.92 32.99 38.68 41.58 40.88 38.03 36.21 36.45 36.84 41.36 39.49 40.59 39.31 40.85 38.76 36.51 38.45 35.31 36.36 39.73 40.85 40.48 41.43 40.52 35.05 31.94 29.07 32.93 35.97 32.19 34.05 35.01 32.14 28.82 30.13 30.87 32.57 38.10 39.58 40.37 42.26 42.88 43.62 46.76 46.88
37.28 34.25 38.51 34.46 36.55 38.29 39.27 37.93 36.47 35.91 40.20 40.86 38.15 38.62 37.68 34.58 35.67 35.08 37.27 37.99 39.62 40.09 39.85 37.90 32.61 33.55 34.36 35.39 35.88 35.03 33.99 34.26 31.96 31.94 28.77 33.28 34.25 37.91 40.21 40.03 41.27 42.94 44.76 45.82 44.93
35.46 34.58 38.94 37.89 39.44 38.37 39.01 37.49 36.87 37.43 38.51 36.90 37.06 38.49 38.57 36.09 37.04 34.64 36.84 36.77 36.84 39.68 37.91 38.89 33.12 34.99 32.32 36.54 36.36 34.16 36.93 37.26 37.30 36.88 34.41 34.25 33.84 41.60 43.14 43.05 42.59 43.98 43.83 43.93 44.91
43.04 43.77 39.16 38.09 37.35 37.65 36.78 38.22 38.13 40.23 39.96 41.17 40.22 38.82 37.52 39.23 42.03 42.37 42.06 41.55 40.72 39.04 37.09 36.79 33.65 32.88 29.80 36.01 35.89 34.76 37.47 37.42 37.60 36.74 36.58 32.58 37.36 41.88 41.15 41.95 41.54 42.96 44.34 45.19 43.89

GFSSW_sfc_wetblb_045.txt.gz
Wetbulb
57.71 59.36 60.19 60.44 60.98 60.19 59.31 58.70 58.35 58.57 58.09 57.76 57.96 58.29 59.40 61.02 61.94 59.58 55.99 60.53 61.83 63.31 62.52 59.75 58.35 57.83 57.77 55.82 57.10 58.43 49.21 45.45 47.27 47.30 48.98 53.26 51.70 55.12 56.44 54.51 55.40 56.71 57.14 60.53 62.73
56.07 57.03 58.38 59.58 60.06 60.66 59.78 58.98 58.42 58.55 57.83 57.33 57.73 58.10 58.74 59.85 58.93 56.07 61.70 62.85 63.42 63.98 59.56 56.86 54.73 55.59 53.36 53.71 54.67 52.79 47.19 47.29 50.65 51.23 50.71 52.52 52.67 53.64 53.28 53.44 53.54 55.79 58.34 60.31 62.01
53.88 55.01 56.12 57.64 58.48 59.74 60.33 59.31 58.67 58.34 57.59 56.79 57.73 57.82 57.86 58.28 53.86 54.68 63.79 64.43 64.67 63.95 61.21 59.10 57.53 54.94 51.07 52.60 52.73 52.29 47.35 50.91 51.47 53.63 53.91 52.52 52.29 54.59 52.78 51.64 54.21 54.05 56.73 59.05 60.75
52.89 53.62 54.76 55.65 56.96 58.11 59.68 59.90 58.90 58.42 57.57 56.44 57.46 57.57 57.60 56.98 43.61 57.62 61.04 64.24 64.89 63.12 60.28 57.62 55.25 51.57 49.90 48.48 52.07 48.06 51.39 52.00 52.74 53.73 53.45 52.15 54.27 52.63 53.42 53.77 56.43 57.46 59.08 58.62 59.00
52.27 52.80 53.38 54.44 55.27 56.43 57.73 59.50 59.25 58.54 57.84 56.57 57.01 57.27 54.51 50.30 51.01 59.26 57.53 57.73 59.77 60.38 57.64 55.37 52.50 52.00 48.48 50.21 50.80 48.52 50.22 51.61 52.29 52.47 52.61 53.19 51.31 51.95 53.04 56.21 57.50 57.70 58.30 58.56 59.22
52.34 51.91 52.58 53.19 53.84 54.37 56.21 58.10 59.45 58.59 58.04 57.01 56.29 56.92 51.54 42.80 54.11 56.86 57.15 57.12 58.69 58.38 56.60 56.06 52.49 53.66 50.41 49.20 48.11 50.16 49.85 50.14 51.24 50.80 51.36 49.36 49.84 50.83 51.84 54.62 54.62 55.49 56.13 57.25 58.58
51.74 51.92 52.10 52.58 53.39 53.66 55.23 56.65 58.97 58.62 58.10 57.52 56.28 54.79 49.75 47.78 54.14 54.92 55.82 56.19 58.83 57.63 55.38 56.57 56.13 51.20 51.27 47.58 50.84 49.83 46.16 48.23 48.88 49.64 48.84 50.55 46.27 47.17 52.14 53.57 52.82 53.70 54.64 55.18 56.20
51.66 51.03 51.79 51.94 52.71 53.39 54.53 55.30 56.73 58.75 58.32 57.51 56.75 53.48 46.67 54.19 56.27 53.41 55.06 55.18 59.60 59.49 57.00 57.40 56.63 52.79 50.32 50.11 47.37 44.88 45.72 41.47 47.60 47.99 48.87 48.02 41.77 49.19 52.55 52.19 51.61 52.66 53.41 54.27 55.46
51.48 51.02 51.20 51.33 52.08 52.83 53.70 54.06 55.31 58.41 57.92 57.29 53.51 51.06 45.41 53.44 50.26 53.69 53.92 51.96 55.97 57.23 57.94 56.91 54.91 49.69 48.55 43.67 41.33 43.12 38.89 41.58 44.12 48.01 47.15 46.53 43.97 49.53 51.90 51.80 50.83 52.02 52.78 53.47 54.47
50.92 50.59 50.43 51.03 51.42 52.21 52.83 53.54 54.55 57.40 55.97 55.29 53.01 46.34 48.34 46.47 51.01 52.14 54.08 53.08 51.78 51.92 50.99 50.22 48.52 44.01 44.16 41.89 36.11 38.95 39.04 41.00 40.66 45.39 45.27 43.65 43.71 47.62 50.04 50.02 50.16 51.30 52.53 53.35 53.72
50.61 50.10 50.38 50.67 51.10 51.91 51.55 49.13 48.72 46.80 49.59 45.53 46.11 45.40 47.72 50.54 52.44 50.33 52.38 50.76 50.86 48.50 42.61 45.39 40.74 38.42 41.83 43.35 43.73 40.88 39.95 39.59 42.84 45.39 42.89 41.92 42.49 44.82 47.40 47.84 47.73 48.65 49.58 50.57 51.98
50.09 49.99 50.24 50.55 50.86 51.35 50.10 43.37 44.36 46.86 41.46 48.13 47.76 48.00 50.16 50.82 45.00 47.87 52.38 46.21 45.08 41.28 43.85 40.15 36.94 43.14 44.93 43.73 42.14 41.14 39.04 38.90 42.23 44.11 41.54 41.02 40.68 44.33 46.11 46.76 47.84 47.98 48.38 49.05 50.38
49.98 49.82 50.05 50.21 50.40 49.59 47.17 45.47 49.69 47.98 40.83 44.26 47.27 46.64 47.38 49.16 45.09 44.94 48.86 46.82 43.48 40.71 40.32 38.61 40.35 43.26 42.11 40.46 38.69 39.23 37.84 38.47 38.35 41.72 42.49 40.72 39.26 43.36 46.94 47.88 48.46 48.92 49.59 50.12 50.25
49.83 49.65 49.95 50.05 46.79 47.49 45.05 48.87 49.68 50.65 34.70 36.92 41.14 44.91 47.87 48.17 43.23 49.80 50.26 46.74 43.31 39.80 41.16 40.68 43.23 39.73 39.62 38.31 39.78 35.55 41.52 39.82 38.23 36.52 33.34 40.33 31.58 40.06 43.80 45.03 46.24 47.35 48.46 49.02 49.77
49.40 49.64 49.91 49.51 46.35 43.94 47.13 50.34 48.88 46.33 27.19 39.56 40.85 49.85 48.23 43.81 44.92 44.72 50.53 45.99 40.42 40.53 40.78 37.81 38.76 38.67 36.83 38.19 40.76 36.74 40.32 38.51 37.90 34.29 32.72 35.26 31.84 37.75 43.08 41.64 44.08 46.57 47.83 48.70 49.94
49.16 49.27 49.35 47.16 48.06 48.00 50.56 49.33 45.26 29.82 26.97 34.80 40.02 39.44 40.00 42.29 43.06 45.02 44.38 46.97 45.79 40.52 41.25 40.74 43.76 41.77 40.77 41.47 41.37 40.99 37.97 37.10 36.54 34.23 27.53 34.56 34.40 35.84 39.53 41.74 43.41 45.91 46.94 48.09 48.89
49.11 49.30 48.21 48.41 41.69 49.97 49.73 44.04 29.39 25.47 37.20 33.05 35.20 38.90 38.35 36.84 39.10 40.72 38.72 37.56 36.68 32.06 32.27 37.58 38.11 41.34 42.47 37.80 40.45 38.54 34.46 29.22 27.09 25.87 26.38 36.71 34.48 36.25 42.06 43.79 44.15 44.67 46.42 47.53 48.33
49.05 50.35 49.38 48.79 50.15 49.83 45.67 34.00 25.77 33.31 33.59 38.64 38.28 38.33 34.95 37.27 37.79 38.52 37.16 34.26 39.24 38.52 35.16 31.15 30.78 38.39 41.18 38.08 35.88 35.82 34.84 29.97 23.70 26.91 30.46 36.98 29.91 36.38 43.90 45.02 45.73 46.45 46.96 47.73 47.74
50.08 48.80 47.12 48.67 50.64 49.88 39.86 28.00 31.34 34.56 37.15 36.15 37.25 34.11 34.18 36.59 37.76 37.69 36.67 35.99 38.67 39.62 34.60 33.64 32.30 40.12 41.68 41.49 39.84 35.34 31.37 37.45 30.23 31.74 27.31 31.75 36.65 41.45 43.75 43.99 44.62 45.22 46.16 46.34 47.78
45.35 45.18 46.78 50.09 50.77 45.84 35.92 30.61 34.24 39.87 40.02 39.54 32.37 34.92 31.64 34.04 35.04 35.76 35.13 39.86 37.86 41.66 43.19 37.67 31.46 37.39 39.30 41.11 41.15 38.35 40.08 28.92 30.38 22.19 23.05 31.77 34.38 35.81 40.74 42.42 43.93 43.56 44.46 46.19 48.09
44.87 38.97 47.54 51.23 49.78 39.44 31.70 33.97 36.55 41.58 42.00 38.52 35.86 34.56 34.72 33.93 35.72 34.59 35.30 39.08 41.93 41.16 41.89 39.42 35.39 32.70 36.25 34.40 34.45 34.93 32.97 33.78 34.39 31.65 26.53 26.04 32.41 42.77 40.82 42.23 41.87 43.43 45.14 46.50 47.29
42.10 34.52 48.21 49.96 36.00 36.20 34.94 37.36 40.50 39.87 42.52 40.70 40.77 38.82 36.73 37.16 35.43 36.23 35.97 38.86 43.52 42.92 37.01 39.61 35.39 30.44 32.71 39.25 40.65 39.02 35.26 34.36 28.13 28.48 30.82 29.88 30.45 42.52 43.19 43.53 43.54 43.92 45.45 46.79 47.35
38.70 36.56 48.98 47.51 33.70 34.75 38.45 38.27 40.23 38.83 39.74 40.21 38.88 40.70 41.71 37.74 34.41 37.94 39.40 42.37 42.99 41.80 39.22 39.22 33.37 28.59 31.71 34.96 38.48 34.44 36.53 36.74 35.33 33.99 29.21 26.38 30.59 43.37 43.90 43.62 44.10 44.06 45.20 45.77 46.34
38.03 34.27 39.28 41.41 42.33 37.38 36.47 36.32 37.20 42.50 40.49 42.36 41.13 42.54 40.29 38.30 40.63 37.24 38.14 40.29 42.68 42.07 42.32 42.22 35.51 32.47 30.53 33.44 36.62 32.27 35.01 36.40 33.17 29.45 30.73 31.17 33.57 38.99 41.38 42.31 43.70 43.85 45.36 46.10 46.24
37.07 35.05 38.10 35.38 37.77 38.73 39.63 38.29 36.74 36.21 41.31 42.61 39.77 40.44 39.62 36.01 37.33 37.09 39.14 39.41 41.18 41.42 40.59 39.05 32.71 34.74 35.24 36.03 36.34 35.76 35.73 36.54 33.58 33.25 29.13 32.85 33.24 38.33 40.86 42.28 43.51 44.50 44.58 44.68 46.43
36.85 35.65 38.36 39.57 40.38 38.69 38.63 38.29 37.36 38.08 38.93 38.25 38.88 40.59 40.39 37.92 38.64 36.94 39.42 38.37 37.63 39.90 38.73 39.12 32.89 34.54 31.82 36.53 37.15 35.94 38.42 38.83 37.83 37.57 36.70 36.56 34.81 41.94 43.85 44.66 43.28 43.12 43.69 43.76 44.18
43.38 42.96 39.78 38.86 39.36 38.65 38.57 39.37 39.00 41.26 41.23 42.46 41.63 40.25 38.72 40.13 42.94 43.50 43.90 43.21 42.24 39.42 37.55 36.73 34.17 32.59 29.91 36.98 36.95 34.65 38.77 38.72 38.63 39.46 37.98 33.53 39.52 43.10 41.39 41.37 41.95 42.65 43.55 43.87 44.97

GFSSW_sfc_wetblb_048.txt.gz
Wetbulb
54.88 55.72 56.97 57.80 58.78 59.44 60.52 60.42 59.55 58.88 58.80 58.71 58.08 58.15 58.41 59.33 60.76 59.62 54.44 59.47 61.42 63.82 61.88 60.39 58.16 56.95 56.90 54.12 54.93 54.83 45.27 42.35 44.29 45.26 46.83 50.62 49.06 52.31 52.97 50.62 52.58 51.72 51.84 57.27 62.58
53.51 54.03 54.99 56.21 57.06 58.16 58.91 60.41 59.93 59.12 58.76 58.47 57.76 57.96 58.19 58.64 56.42 54.69 60.40 64.17 64.43 64.14 57.89 55.85 53.37 54.53 51.44 51.75 52.08 49.47 44.99 45.86 49.90 49.20 48.21 51.04 49.99 50.67 50.03 49.93 49.73 51.15 54.18 58.66 59.21
53.61 53.22 53.37 54.28 55.38 56.80 57.64 58.68 60.17 59.27 58.78 58.15 57.38 57.97 57.89 57.35 52.54 52.82 63.56 64.15 64.56 63.90 60.15 58.21 56.47 53.65 49.17 50.92 50.32 49.14 44.69 49.14 49.49 50.54 52.61 51.21 50.53 51.48 49.29 47.73 50.78 50.19 52.54 56.11 58.18
53.30 53.29 53.09 52.91 53.99 55.07 56.07 57.16 58.61 59.75 58.84 57.98 57.05 57.86 57.66 54.74 41.44 57.17 64.63 64.53 64.80 62.69 59.42 57.03 54.46 50.02 47.69 46.17 49.93 45.74 49.86 50.30 50.93 52.30 51.89 49.97 52.18 50.42 49.98 50.00 53.75 53.72 54.22 55.21 55.38
52.99 52.68 52.47 52.76 52.78 53.54 54.39 55.31 57.33 59.15 59.13 58.06 57.04 57.46 53.88 48.76 49.34 59.61 60.68 59.70 61.96 60.41 57.13 55.19 51.37 49.98 46.68 48.20 48.77 46.32 48.13 50.38 51.24 51.00 50.29 52.23 49.81 49.34 50.15 52.79 54.30 54.96 55.16 54.52 54.70
53.07 52.95 52.31 51.91 52.62 52.99 53.94 54.48 56.04 57.71 59.27 58.22 57.05 57.37 50.37 41.35 54.47 58.31 57.54 56.30 57.12 57.84 56.92 56.25 53.03 53.06 49.26 48.48 47.70 49.26 48.96 48.88 50.01 49.41 49.73 48.09 47.98 48.72 48.99 51.92 51.89 53.15 52.97 53.60 54.53
53.05 52.59 52.17 51.77 52.10 52.23 53.21 53.93 55.59 56.06 57.52 58.46 57.39 54.40 48.50 46.25 53.99 54.47 56.12 54.63 57.80 56.45 55.08 56.81 55.68 51.30 50.67 47.44 50.59 48.84 44.22 46.58 47.39 47.85 47.15 48.48 44.30 45.00 49.92 51.27 50.10 50.43 51.39 52.66 53.48
52.43 52.09 51.93 51.47 51.42 51.53 52.38 53.51 54.17 55.01 55.75 58.55 57.57 51.97 45.20 54.91 55.91 53.10 53.75 53.86 57.14 58.05 57.68 57.76 57.10 52.55 49.89 49.59 47.09 44.13 43.92 38.01 45.09 47.12 47.76 46.53 38.31 46.50 49.70 49.13 48.47 49.52 50.39 51.06 52.38
52.01 51.52 51.39 51.31 51.00 51.28 51.79 52.76 53.31 54.31 55.27 58.16 53.15 49.98 43.70 54.00 50.26 53.11 53.12 51.39 55.25 56.39 57.16 57.82 54.78 49.42 48.17 42.11 39.06 40.51 34.27 37.45 40.99 46.67 45.11 43.75 39.65 46.63 49.38 46.98 46.54 47.67 48.99 50.29 51.25
51.54 51.11 50.91 50.79 50.68 51.11 51.69 52.34 52.86 53.01 54.01 55.49 53.28 46.36 48.06 46.16 50.56 52.12 52.99 53.40 52.43 53.22 51.68 50.78 48.88 43.09 42.94 39.17 31.18 34.75 35.07 37.53 37.46 42.51 43.35 40.86 40.58 44.66 46.97 46.85 46.01 46.97 47.61 48.13 49.50
50.91 50.65 50.55 50.49 50.52 50.78 50.10 48.35 44.71 45.26 49.32 45.56 45.63 45.59 46.89 51.13 52.45 50.08 51.83 50.20 50.81 49.24 42.44 46.54 40.88 36.79 39.48 41.34 41.48 40.23 37.77 36.36 39.76 43.53 40.42 39.15 39.52 41.89 44.35 44.64 44.62 45.74 46.82 48.14 49.51
50.60 50.46 50.28 50.37 50.57 50.62 48.86 42.37 42.98 45.42 38.87 48.36 48.47 48.25 49.60 50.31 44.71 47.91 51.74 45.57 44.98 39.97 43.41 39.59 34.90 41.56 43.63 42.99 40.90 39.34 36.84 36.10 39.77 42.61 39.52 37.83 37.71 41.45 43.45 43.75 44.66 45.00 45.55 46.50 47.51
50.17 50.11 49.79 49.79 50.28 48.60 45.88 44.47 48.74 46.13 35.92 42.67 47.21 46.56 46.42 48.90 44.22 45.00 48.39 46.33 42.18 40.14 40.19 36.72 39.24 43.50 41.38 40.06 37.85 37.30 35.21 35.66 35.62 39.24 39.56 37.05 35.13 38.45 43.08 44.51 45.24 46.22 46.89 46.98 46.73
49.68 49.78 49.71 49.67 46.38 46.63 43.59 49.03 48.89 47.30 32.10 36.88 41.93 45.15 47.12 48.05 42.62 49.24 50.06 46.61 42.88 39.12 40.02 38.83 42.95 39.85 38.62 38.09 38.65 33.70 39.73 39.02 37.25 33.82 28.09 36.25 25.62 34.50 39.22 40.69 42.75 42.69 43.92 45.47 46.91
49.34 49.49 49.65 49.23 44.65 42.32 45.80 49.56 48.61 43.34 20.99 39.08 41.20 50.63 47.64 43.48 44.37 44.13 49.93 46.33 40.28 40.28 40.45 36.41 38.35 37.41 36.30 37.91 40.38 35.74 40.11 37.35 36.59 31.90 29.64 31.05 25.95 31.46 38.28 37.68 39.44 41.14 43.06 44.11 44.82
49.15 49.44 49.48 46.81 46.72 46.08 48.99 47.85 44.22 29.08 21.11 35.35 40.11 40.49 40.37 43.04 43.01 44.33 44.44 47.15 46.25 40.98 41.42 39.91 43.61 40.92 39.41 41.11 40.95 40.68 37.23 36.33 34.68 31.48 25.20 29.67 29.12 28.91 34.11 37.09 38.23 40.89 41.60 43.50 43.56
49.20 49.48 48.57 48.44 41.06 48.07 48.08 42.36 28.73 23.50 35.47 34.04 35.41 39.57 38.66 38.11 39.45 40.33 39.02 37.26 34.86 30.97 31.87 36.42 37.38 40.83 42.14 37.98 40.38 38.67 34.00 23.03 23.15 22.87 20.35 34.11 30.25 31.99 38.88 40.54 41.29 41.16 39.54 41.94 41.55
50.15 50.30 49.31 48.89 49.84 48.13 44.97 33.83 22.97 32.66 33.11 37.95 37.50 38.38 34.65 37.94 37.89 38.29 37.08 34.39 38.76 36.59 33.28 29.88 28.04 36.97 40.66 37.72 34.64 35.18 33.92 24.72 18.16 19.53 24.26 32.76 25.78 30.94 40.43 41.87 41.83 42.53 42.30 42.49 42.33
49.94 46.92 47.42 48.18 50.04 47.36 38.47 25.99 28.48 34.16 36.44 36.38 36.88 34.12 33.30 36.68 36.99 36.29 35.49 34.23 37.10 38.36 33.16 30.85 32.24 40.58 40.84 40.96 39.50 34.83 30.77 34.38 27.88 27.35 19.81 26.31 30.49 36.40 40.05 39.63 40.39 40.69 41.77 41.53 42.62
44.76 44.40 45.00 49.90 49.64 44.52 35.03 30.22 32.50 36.47 39.13 38.71 32.21 35.47 30.79 33.57 34.30 34.93 34.58 38.14 37.18 40.59 41.28 37.09 30.54 37.08 39.73 41.36 40.57 36.23 37.93 27.33 26.10 12.74 15.66 24.71 27.36 30.35 35.08 37.42 39.86 39.20 39.43 41.22 42.32
44.40 38.66 46.69 50.64 48.39 39.31 30.16 33.04 35.01 39.88 41.84 37.76 35.10 34.26 34.26 33.64 35.33 34.09 34.34 38.90 40.28 39.69 41.19 38.63 33.90 31.88 36.34 33.30 32.33 33.77 32.75 32.02 30.30 26.14 17.63 19.06 25.67 36.00 36.05 38.54 38.09 39.29 40.91 41.53 41.29
40.40 33.41 47.67 49.01 34.94 35.35 33.89 35.96 39.62 39.33 42.98 41.15 40.37 38.19 35.50 36.32 34.54 34.47 34.10 38.22 42.34 41.86 36.27 39.16 35.07 29.63 30.89 37.15 38.97 37.91 33.22 32.14 22.51 19.99 25.24 22.28 26.12 40.78 39.06 38.21 39.40 39.77 41.77 42.27 43.32
37.92 37.61 47.66 46.22 30.28 31.43 37.45 37.84 38.46 38.92 40.19 40.24 38.98 40.23 40.05 36.48 32.91 37.33 37.81 41.47 42.80 40.76 38.02 38.59 32.95 25.42 29.56 32.82 37.12 31.86 34.75 34.67 33.28 30.97 25.14 23.84 25.98 40.18 40.54 41.40 42.97 42.94 42.47 42.22 43.12
38.84 33.62 39.38 41.01 40.23 36.73 35.32 35.19 36.64 41.93 41.56 42.51 40.60 41.36 38.55 37.47 39.59 36.74 36.28 40.23 41.90 42.15 43.79 41.52 35.20 27.36 23.36 30.64 34.61 28.19 32.61 33.84 32.66 28.11 27.91 28.60 30.10 35.70 38.83 40.72 42.30 42.69 43.91 42.76 43.72
38.48 34.97 38.10 34.19 36.37 38.23 39.03 37.76 35.81 36.13 41.69 42.79 40.23 40.17 38.35 35.16 36.55 36.05 37.89 38.36 40.68 41.33 39.10 37.71 29.93 32.09 33.59 34.87 34.59 33.16 33.00 33.75 32.35 31.86 28.55 30.89 32.69 36.99 40.08 40.41 41.13 42.74 43.55 43.33 43.48
37.19 34.65 37.22 37.95 39.76 38.55 38.87 36.82 36.91 38.21 39.37 38.49 38.65 40.62 40.25 37.10 38.16 35.77 37.67 37.44 35.90 38.29 37.96 38.87 30.41 33.55 27.80 34.14 34.37 32.01 34.58 35.07 35.84 36.15 36.22 37.00 36.50 41.63 43.19 41.83 41.92 42.20 43.09 43.02 43.13
43.34 42.94 39.32 38.88 38.33 37.58 37.48 37.75 38.73 40.49 41.63 42.72 40.95 39.28 38.42 39.71 41.93 42.05 42.84 41.64 41.01 37.22 36.73 36.57 33.52 31.54 28.27 34.14 34.35 31.16 35.52 36.66 37.98 40.03 39.00 35.08 38.89 42.23 41.16 42.58 41.65 42.15 43.18 43.68 43.61

GFSSW_sfc_wetblb_051.txt.gz
Wetbulb
54.13 54.49 54.15 54.43 55.04 56.71 57.88 58.64 59.57 60.61 59.62 59.07 58.99 58.32 58.16 58.47 58.94 57.41 53.61 56.94 59.85 64.88 61.84 58.96 57.15 55.86 54.74 50.97 51.89 49.40 40.15 38.14 41.51 42.54 43.95 48.87 46.52 50.84 50.73 49.03 50.20 49.64 52.16 58.40 63.51
53.99 54.04 54.02 53.75 53.62 54.20 55.81 57.41 57.99 59.30 59.95 59.12 58.85 58.07 57.87 58.46 54.37 52.67 59.38 63.01 64.98 65.16 58.31 54.62 52.92 53.10 48.38 49.10 49.10 44.58 40.85 41.89 46.94 46.78 45.33 49.09 48.64 48.86 48.19 47.64 46.70 48.20 54.38 56.83 62.25
54.23 53.94 53.51 53.51 53.33 53.50 54.16 55.05 56.56 57.52 59.24 59.34 58.69 57.56 57.88 56.94 50.83 50.52 62.18 63.65 64.83 64.28 57.96 56.07 54.90 51.67 47.15 47.78 46.64 45.16 41.07 47.44 49.15 49.98 49.82 49.28 48.76 50.47 47.01 45.23 47.73 47.82 50.34 55.15 57.16
54.47 53.99 53.88 53.67 52.99 53.08 53.01 54.14 54.71 56.19 57.71 59.63 58.57 57.23 57.84 53.69 39.22 56.08 64.44 64.10 64.87 62.16 58.81 55.85 53.46 50.07 45.23 43.94 47.35 43.14 46.87 48.24 49.39 50.64 49.76 48.07 50.41 48.69 47.84 47.42 51.23 51.29 51.53 53.23 53.97
54.20 54.14 53.74 53.49 53.16 52.58 52.91 53.14 54.34 55.23 56.79 57.99 58.52 57.27 54.53 47.24 48.13 59.13 62.70 63.95 61.38 59.66 56.48 54.42 51.13 48.54 44.21 45.20 45.97 42.76 45.56 48.64 49.31 49.04 48.29 49.77 47.52 47.20 47.81 50.52 51.99 52.12 52.52 51.61 53.39
53.74 53.80 53.36 53.02 52.83 52.43 52.35 52.52 53.34 54.37 55.78 57.15 58.53 57.86 50.46 41.33 53.31 59.17 58.46 58.08 58.87 57.88 55.64 55.76 52.69 50.75 47.15 46.56 45.00 46.88 47.79 46.16 47.47 47.05 47.26 46.73 46.07 46.17 47.09 50.58 48.72 49.67 49.94 49.95 51.62
53.42 52.77 52.40 52.48 52.51 52.32 52.17 51.96 52.65 53.48 54.53 56.34 57.49 54.72 48.00 44.67 51.73 56.13 56.48 54.07 56.21 56.74 54.71 56.77 56.00 51.57 49.44 45.58 48.08 48.48 43.05 44.31 45.11 46.00 45.19 47.15 42.72 43.14 48.12 48.82 47.56 48.25 48.30 50.14 50.50
52.52 52.45 52.03 51.68 51.93 51.68 51.62 51.87 52.18 52.60 53.74 55.44 56.42 52.42 43.53 53.93 53.73 52.77 52.27 52.70 55.69 56.59 55.81 57.28 56.52 52.47 49.97 47.36 45.81 42.43 41.13 36.41 43.27 45.78 46.36 45.16 37.75 45.19 48.21 46.33 46.88 48.31 49.07 48.11 49.67
51.98 51.61 51.51 51.50 51.27 51.14 51.08 51.67 52.02 52.58 53.47 54.19 52.41 48.99 41.56 55.66 50.19 52.24 51.48 50.53 53.56 54.92 56.87 57.82 54.44 49.13 48.31 42.82 39.12 39.56 31.61 35.29 38.89 45.14 44.48 43.25 38.02 45.18 47.81 45.76 44.28 46.19 47.40 48.94 50.26
51.34 51.10 51.05 50.92 50.86 50.95 51.05 51.26 51.58 51.60 50.64 51.53 52.67 43.93 47.43 45.47 50.05 51.50 51.48 52.21 51.51 52.70 51.77 50.87 48.50 43.12 40.71 39.07 31.31 32.25 32.69 33.96 34.46 40.55 41.50 39.42 38.36 42.56 45.32 44.11 42.21 43.54 44.21 45.17 48.32
50.73 50.69 50.56 50.59 50.67 50.83 48.63 44.61 39.73 41.37 44.72 43.83 44.92 44.47 46.71 50.24 51.67 49.65 50.75 49.58 51.82 49.12 42.77 47.45 40.72 35.78 37.40 38.75 38.99 37.81 34.88 34.30 36.70 41.23 37.78 37.37 37.34 39.66 41.94 42.32 43.23 43.61 42.16 45.56 47.52
50.36 50.17 50.18 50.26 50.25 50.54 47.73 40.24 40.95 42.79 36.30 44.92 46.52 47.02 49.18 49.84 44.23 47.22 50.43 44.67 45.92 41.78 42.83 40.62 36.63 41.28 42.23 41.46 39.73 37.91 34.44 33.71 37.96 40.33 37.78 36.17 36.17 39.81 41.61 41.83 43.16 43.44 42.53 44.12 46.65
50.04 49.95 50.03 50.12 49.93 47.48 43.80 43.49 46.84 46.56 35.70 39.13 42.03 46.00 46.41 48.33 43.58 44.07 47.13 45.31 41.80 39.08 39.62 35.46 38.10 42.49 39.95 38.74 37.19 34.69 32.49 33.05 33.48 37.16 36.68 34.49 32.90 35.90 40.43 41.95 43.61 44.85 45.32 44.91 45.24
49.79 49.80 49.88 49.83 45.20 44.49 41.64 48.15 48.06 47.07 31.23 35.56 39.52 44.34 46.40 47.56 41.89 48.50 48.78 45.65 42.61 38.65 39.90 38.63 41.68 39.88 37.74 36.99 37.00 31.88 37.56 37.30 35.71 31.95 26.54 33.80 24.15 30.84 36.81 38.45 39.75 40.53 42.03 44.25 44.86
49.39 49.22 49.69 49.49 43.77 41.33 45.13 48.10 45.92 42.14 17.27 37.82 39.11 50.47 47.08 42.94 43.18 43.71 49.32 46.38 38.90 39.70 38.70 35.20 37.60 37.70 35.50 37.00 39.06 34.34 38.86 35.68 34.53 29.76 27.08 28.67 24.84 29.06 34.43 35.47 37.62 36.67 39.06 40.91 42.97
49.22 49.49 49.75 47.01 45.64 44.97 48.28 47.45 44.33 25.42 16.16 35.06 40.74 40.58 39.90 41.89 42.36 43.87 44.47 45.95 45.41 40.64 39.98 38.08 42.38 39.63 38.08 39.71 39.46 39.65 35.86 34.59 32.73 29.43 20.93 26.73 26.54 26.06 31.60 35.48 35.19 37.16 39.87 40.13 41.54
49.29 49.81 49.01 48.22 41.66 46.33 46.69 41.73 21.93 13.73 33.50 32.65 34.69 38.93 38.70 37.94 38.33 39.78 39.01 36.86 33.54 31.01 31.53 35.67 36.60 39.10 40.74 35.67 37.75 35.98 29.78 17.18 24.49 23.29 18.74 30.31 26.70 27.96 35.59 39.20 39.35 39.12 39.03 40.59 40.88
50.44 50.68 47.77 48.02 49.34 46.44 42.30 33.35 16.67 28.92 30.51 38.95 38.99 38.31 35.72 37.12 37.48 38.58 36.67 32.83 36.60 34.46 28.93 25.17 24.00 35.09 38.73 35.75 32.68 32.93 30.26 19.19 14.46 16.07 22.43 30.11 24.46 29.92 37.55 40.52 40.22 41.14 39.83 40.43 39.69
50.64 45.51 45.29 48.14 49.78 45.38 37.53 25.41 24.87 30.62 35.74 36.27 36.92 34.01 34.33 36.82 36.91 36.31 35.57 33.23 35.08 35.64 28.58 27.29 28.56 38.97 39.05 39.31 37.62 32.92 27.77 32.90 23.50 23.86 17.29 23.75 27.94 34.01 37.52 37.37 37.65 39.32 39.88 39.70 40.62
45.34 43.42 43.65 47.98 48.32 42.59 32.43 28.56 31.83 35.34 35.50 38.43 32.62 34.60 31.13 33.76 33.26 33.65 33.79 36.34 35.95 38.14 38.36 36.34 28.80 37.62 39.12 40.98 40.55 34.88 36.35 24.48 20.49 10.04 13.16 21.74 23.64 28.05 33.32 35.33 37.43 37.42 37.99 39.59 41.30
43.86 38.69 45.50 47.63 45.08 36.90 27.05 31.28 34.10 36.46 39.93 37.55 34.44 33.69 32.71 33.60 33.80 32.82 32.85 37.23 38.28 37.55 40.07 38.16 31.83 32.24 37.38 33.86 32.05 33.67 32.16 31.11 27.27 22.92 15.24 16.31 23.05 33.24 34.38 35.71 35.25 37.34 40.13 40.61 41.13
39.86 32.89 45.20 47.24 31.90 34.21 32.74 35.86 36.06 37.18 41.79 40.00 38.28 35.59 33.55 35.69 33.27 34.15 32.43 35.76 40.76 39.55 34.86 38.75 34.50 26.98 27.99 35.32 37.81 35.34 32.16 30.79 17.86 16.42 19.51 23.28 24.38 37.56 38.36 36.84 38.60 40.92 43.11 43.53 43.62
38.25 38.54 44.83 43.03 27.27 29.53 36.32 35.27 36.18 39.34 40.07 40.22 37.99 38.96 38.52 35.63 31.85 35.43 36.49 40.57 42.05 40.12 37.35 37.27 32.55 25.55 29.27 33.52 36.79 31.77 35.14 33.30 30.49 26.95 17.90 19.02 23.54 37.42 36.68 39.12 41.23 42.20 42.61 43.45 45.17
38.64 31.40 37.84 39.62 39.44 35.98 34.53 34.09 34.96 41.52 40.88 42.14 39.88 40.29 38.10 35.88 37.62 35.43 34.83 40.07 42.00 42.09 44.44 41.46 33.98 23.97 21.78 27.12 31.85 26.94 31.08 31.73 31.79 23.70 25.09 24.53 28.54 34.61 36.95 39.00 41.23 42.31 40.66 40.80 42.84
38.64 35.14 36.92 33.44 35.46 37.66 37.79 37.15 35.96 36.65 41.04 41.79 38.25 39.01 38.25 35.13 36.01 35.10 36.73 36.59 39.51 41.89 40.09 37.42 25.63 29.40 31.53 33.29 33.52 31.89 30.70 31.81 26.18 30.32 27.63 30.19 30.96 34.76 38.72 40.61 42.78 44.17 42.08 44.15 44.57
37.28 35.03 37.99 36.00 39.18 37.18 37.40 36.43 36.81 38.27 38.28 37.36 36.87 40.01 38.40 35.84 36.50 34.18 36.30 34.85 34.55 35.92 35.30 36.45 26.25 31.89 25.97 32.74 33.41 30.56 32.87 33.02 33.33 33.25 33.25 33.46 33.24 40.84 43.35 43.56 43.48 42.16 43.17 43.37 44.10
42.40 42.72 38.93 37.17 38.10 36.56 35.89 36.96 38.44 39.58 40.56 41.12 39.35 38.57 37.48 38.49 40.08 40.13 40.17 39.59 38.52 35.65 35.64 35.32 31.18 28.67 23.54 32.12 31.92 26.60 32.71 33.64 33.65 36.02 36.86 33.89 38.88 43.49 42.90 42.68 41.16 41.84 42.51 42.49 42.99

GFSSW_sfc_wetblb_054.txt.gz
Wetbulb
54.71 54.62 54.62 54.15 54.19 54.02 54.22 54.60 56.22 57.80 58.50 59.96 59.73 59.38 58.88 58.33 58.41 55.06 51.93 56.14 58.19 64.11 62.54 58.62 56.36 54.99 54.31 49.69 50.53 47.88 39.12 37.04 39.52 39.96 41.83 46.69 46.41 49.41 49.67 46.84 48.82 48.22 52.93 57.98 62.31
54.59 54.61 54.62 54.39 54.24 53.71 53.73 53.47 53.80 55.10 56.60 58.10 60.08 59.42 58.59 58.31 54.03 50.67 57.39 62.62 63.39 64.08 59.90 54.04 53.34 53.17 47.72 48.09 48.03 43.90 38.78 40.34 45.48 45.53 43.80 46.81 47.35 48.54 47.42 46.34 45.75 48.80 54.97 60.14 62.06
54.84 54.99 54.84 54.63 54.13 53.99 53.59 53.23 53.18 54.25 55.17 56.53 58.17 59.59 58.03 56.84 48.95 49.06 59.84 62.63 64.02 63.81 59.82 56.97 54.47 51.18 46.66 46.67 45.70 43.70 40.15 45.76 47.50 49.17 48.88 47.91 47.35 49.17 46.16 44.77 46.26 46.58 53.86 56.29 59.40
54.65 54.49 54.58 54.31 54.04 53.80 53.68 53.33 52.63 52.96 54.35 55.56 57.05 58.96 57.77 53.84 36.48 54.32 63.11 62.52 64.17 62.20 57.35 54.57 52.51 48.94 44.60 43.74 46.72 41.62 45.47 47.05 48.43 49.77 48.12 46.51 48.93 46.70 47.34 47.60 50.10 49.59 50.36 51.62 54.71
54.59 54.31 53.80 54.03 53.62 53.30 53.35 53.23 53.20 52.86 52.91 54.43 56.11 57.92 54.76 45.99 45.57 55.59 62.82 63.02 60.62 59.38 55.97 52.94 50.24 48.62 43.29 44.15 45.04 41.56 44.29 47.17 48.39 48.44 46.87 48.01 46.75 46.86 47.48 50.25 51.13 50.10 51.33 50.80 50.87
53.64 53.42 53.11 52.87 52.97 52.95 52.65 52.63 52.67 52.35 52.55 53.58 55.18 56.78 50.71 40.38 52.96 55.16 58.78 59.09 59.00 57.57 55.19 54.42 51.85 50.93 46.11 45.39 43.77 45.44 45.66 45.25 46.48 46.21 46.39 45.58 45.14 45.19 46.26 49.99 48.89 48.88 48.73 49.00 50.12
53.02 52.62 52.32 52.37 52.17 52.07 52.41 52.34 52.10 52.07 52.42 53.33 54.46 53.70 48.19 43.57 51.67 57.73 58.06 56.80 58.46 57.25 54.08 55.53 55.40 51.10 48.44 44.95 47.67 46.67 42.21 43.26 44.50 45.15 44.66 46.05 43.21 42.07 47.41 47.80 47.07 47.29 47.31 48.76 48.91
52.62 52.09 51.88 51.48 51.55 51.53 51.74 51.86 51.56 51.74 52.21 53.15 54.08 50.81 44.40 53.01 53.25 51.63 52.79 52.39 54.52 56.64 57.08 57.39 56.77 52.39 48.54 46.67 44.43 42.03 40.48 36.26 42.84 44.69 45.26 44.84 38.04 43.93 47.10 45.11 45.05 45.83 46.96 47.51 49.10
51.91 51.57 51.26 51.06 51.08 51.03 51.06 51.46 51.67 51.94 52.33 52.70 49.06 47.24 42.27 54.32 49.71 51.42 51.31 50.37 52.51 54.55 56.04 57.91 54.73 49.82 48.63 41.33 38.73 37.14 32.02 34.09 38.30 44.66 43.99 41.96 37.53 44.37 48.11 44.05 43.31 43.96 44.44 46.27 48.21
51.12 50.78 50.65 50.63 50.74 50.71 50.84 51.35 51.31 50.57 49.31 49.84 48.54 43.36 46.08 44.68 49.59 51.42 51.40 51.13 50.75 52.65 51.25 50.79 49.52 43.80 43.23 40.06 32.53 32.79 32.42 33.40 34.18 38.67 40.45 38.53 38.52 42.44 43.64 43.35 42.99 43.12 42.86 43.44 45.99
50.67 50.55 50.37 50.34 50.53 50.64 48.36 44.14 37.86 37.74 43.05 38.98 41.15 42.25 45.60 49.66 51.40 49.06 50.17 48.58 51.47 48.49 43.70 47.21 41.45 38.14 38.01 41.24 37.59 37.60 36.19 32.82 35.97 40.29 36.01 35.80 35.91 38.89 41.73 40.73 41.78 42.53 42.08 43.29 45.09
50.50 50.21 50.21 50.38 50.52 50.42 46.44 39.01 40.10 41.15 35.29 41.55 42.73 44.99 47.65 49.68 44.07 46.83 49.89 44.10 46.31 41.06 43.52 41.78 37.78 41.72 42.67 40.91 39.05 37.72 34.30 33.04 36.68 39.13 36.07 34.60 34.40 38.42 40.82 41.20 42.40 43.74 44.25 43.76 43.97
50.19 50.04 49.81 50.00 50.14 46.60 43.15 42.35 46.65 45.78 35.11 37.01 42.39 41.80 45.24 47.72 43.45 43.67 46.89 46.16 44.16 40.95 40.03 37.72 40.21 42.71 39.92 37.90 37.26 34.58 32.00 32.35 32.90 36.09 34.70 33.29 32.86 34.95 38.34 40.13 42.31 44.08 44.49 44.65 44.57
50.09 49.78 49.59 49.73 44.35 43.33 40.49 47.05 48.01 46.72 28.90 32.24 36.35 39.79 46.99 46.95 41.41 47.63 48.60 46.10 42.27 39.99 39.94 38.96 41.70 40.56 38.66 36.25 36.19 31.74 36.37 36.41 34.48 31.22 25.62 33.13 23.43 30.38 34.88 36.10 37.96 37.83 39.26 42.69 44.02
49.78 49.81 49.78 49.65 44.28 40.74 44.20 47.73 47.07 42.94 7.65 36.23 36.28 45.93 47.40 42.74 42.56 43.57 49.52 45.96 39.06 39.65 39.88 35.45 37.29 36.85 35.29 36.55 37.86 33.55 37.84 35.19 33.58 28.97 25.91 26.94 25.18 28.94 33.86 34.89 35.57 35.57 37.26 39.12 42.24
49.24 49.57 50.15 47.19 46.08 46.04 46.28 47.09 43.99 20.01 11.34 32.69 38.72 38.68 39.98 41.94 41.68 43.99 44.25 46.39 45.98 40.62 39.34 37.09 41.42 39.18 37.71 39.04 39.23 38.83 34.88 32.93 31.33 26.88 16.13 25.08 26.12 26.31 30.81 34.19 35.07 37.60 39.35 40.10 38.73
49.36 50.54 49.38 48.37 42.51 47.45 45.66 41.92 21.74 15.73 32.28 31.61 33.56 38.90 38.14 37.20 38.25 40.25 39.25 36.97 34.61 31.81 32.33 35.72 35.69 38.59 40.23 35.17 37.74 35.18 28.05 15.39 14.51 13.95 17.20 28.38 25.35 27.84 34.18 37.64 37.34 38.55 38.64 39.54 39.56
50.90 50.33 47.51 47.58 48.38 45.70 43.13 32.66 18.37 28.29 28.87 33.35 38.31 38.48 36.17 37.45 37.90 38.79 36.43 32.61 36.48 34.16 29.61 27.81 25.89 34.77 37.91 35.49 32.66 31.61 28.74 18.77 12.28 17.31 20.68 28.45 23.61 29.52 35.76 37.73 38.39 38.66 38.21 39.33 39.85
50.12 44.24 43.44 47.43 48.16 45.35 35.78 21.82 24.40 29.43 33.21 33.74 37.59 34.40 34.17 36.42 37.35 36.47 35.58 33.25 34.83 35.09 28.53 26.69 26.43 37.84 38.02 38.60 36.74 32.46 25.38 31.45 21.91 20.30 15.44 22.34 26.31 31.72 35.48 35.64 36.63 37.85 39.12 38.69 39.89
43.82 42.84 43.62 48.66 47.02 41.38 31.30 28.08 31.56 35.86 33.89 37.67 32.37 34.52 30.30 32.87 34.43 34.21 33.78 35.92 35.36 37.28 37.13 32.70 24.91 37.01 38.58 40.58 39.66 33.47 35.09 24.29 17.76 8.35 11.62 20.00 21.78 24.99 30.67 33.29 35.92 36.74 37.64 39.99 43.11
39.38 38.49 43.85 47.07 44.76 36.89 27.22 30.34 33.70 36.58 36.01 37.04 33.42 32.56 32.63 31.56 33.29 32.77 33.22 36.07 37.08 36.34 37.42 35.42 29.51 33.44 37.48 33.53 30.49 32.85 29.66 27.10 25.41 21.39 14.05 14.93 22.55 31.50 32.60 34.41 34.74 36.39 38.59 40.47 41.45
37.89 32.79 43.68 47.14 31.09 33.24 31.48 35.45 35.75 35.64 41.22 40.03 36.95 36.04 33.58 33.32 32.15 31.57 31.47 34.55 38.86 38.17 33.72 36.28 31.71 27.52 31.18 34.78 36.76 34.55 31.38 28.36 17.45 14.94 15.97 23.05 22.69 35.57 33.08 34.72 36.36 39.58 40.88 43.50 42.61
38.25 35.61 43.19 41.75 29.68 30.71 34.65 35.22 35.74 37.46 39.72 39.77 36.54 37.04 36.94 33.56 31.87 33.39 33.77 39.34 39.72 37.82 35.42 35.76 30.31 22.65 25.84 31.12 36.28 30.46 32.58 32.50 28.20 24.25 16.43 16.38 22.61 35.64 35.21 39.42 40.22 39.63 42.54 42.87 41.88
34.01 29.69 34.87 38.02 38.02 35.55 33.36 32.90 35.57 40.56 39.73 40.30 37.63 38.69 36.04 34.53 36.10 33.28 35.17 39.99 41.17 40.77 44.13 40.08 31.24 23.50 20.84 25.08 29.58 24.39 30.61 31.85 30.19 20.52 22.07 22.32 26.90 33.80 36.16 38.47 41.30 43.00 43.74 44.34 42.36
38.22 34.55 36.90 31.89 35.29 36.85 37.43 37.46 36.94 36.59 39.63 39.96 36.93 37.40 36.80 34.14 34.11 33.59 36.12 37.69 39.83 42.33 39.97 36.65 26.07 28.18 30.18 32.31 32.25 31.29 29.76 30.22 27.47 30.05 22.83 27.24 28.34 33.41 37.37 39.28 41.86 45.08 43.57 44.08 44.54
37.09 35.65 37.90 36.69 38.96 37.49 37.65 36.79 36.63 37.47 38.22 37.26 36.89 39.10 38.05 35.38 35.26 33.48 35.19 34.13 33.62 37.18 37.02 36.57 25.25 30.83 25.52 31.36 32.13 29.63 32.26 31.73 31.42 31.40 31.07 31.59 30.94 38.98 41.39 44.59 43.91 41.82 41.60 42.02 41.77
42.31 42.44 38.69 36.16 35.76 36.43 36.29 36.59 37.93 39.34 40.30 41.15 40.53 38.63 36.71 37.93 39.12 39.15 38.94 38.41 37.40 34.75 33.58 33.60 29.18 28.68 22.86 30.48 30.15 25.21 30.99 32.21 32.14 33.20 34.61 30.66 35.86 41.59 42.80 43.44 40.57 37.38 38.53 38.33 36.82

GFSSW_sfc_wetblb_057.txt.gz
Wetbulb
55.30 55.09 54.58 54.99 54.93 54.52 54.22 53.48 53.68 53.61 54.57 55.73 56.73 58.34 59.84 59.27 58.50 54.65 49.21 53.64 57.02 62.31 64.17 58.85 57.72 55.48 53.51 49.63 49.28 46.36 38.70 36.08 38.21 39.48 41.32 44.89 44.39 48.10 48.19 45.70 47.47 47.81 52.95 55.79 60.95
55.41 55.30 55.45 55.07 55.20 54.94 54.23 53.50 53.42 53.09 53.45 54.82 56.10 57.17 59.13 58.92 53.88 50.75 55.77 59.36 61.97 62.45 57.97 54.13 51.81 52.01 47.77 47.86 47.30 43.48 37.92 39.46 44.24 43.91 43.01 45.50 45.59 47.07 47.31 45.69 44.99 48.77 55.98 59.18 61.78
55.72 55.51 55.32 55.15 54.97 54.62 54.42 54.03 53.76 53.04 53.01 53.21 54.65 56.28 57.31 56.77 48.24 46.14 57.63 60.52 61.77 62.65 59.21 56.81 54.48 51.30 46.37 45.88 45.18 43.46 38.81 44.19 46.38 47.97 48.11 46.00 46.01 47.97 45.14 44.34 44.79 45.47 48.69 53.48 58.91
54.40 54.78 54.62 54.42 54.26 54.19 54.03 53.86 53.83 53.63 53.02 52.91 53.30 54.93 56.50 53.57 35.19 51.44 61.43 62.02 61.45 60.95 57.24 54.65 51.17 47.14 44.41 43.67 46.03 41.15 44.72 46.12 47.69 49.17 47.36 44.61 47.11 45.79 46.60 47.30 49.42 49.30 50.11 50.08 52.22
54.06 53.99 53.55 53.55 53.49 53.65 53.81 53.35 53.40 53.36 53.21 52.73 52.81 53.77 52.89 46.44 43.68 52.63 58.83 62.34 57.33 58.78 55.72 52.93 48.87 47.63 42.87 44.32 44.21 41.52 43.54 46.47 47.76 47.99 46.30 46.96 44.58 45.32 46.15 49.79 49.36 50.41 50.24 49.61 49.30
53.84 53.41 53.02 52.83 52.76 52.60 52.55 53.02 52.93 52.83 52.52 52.30 52.57 53.11 48.71 41.32 50.90 52.78 52.38 58.47 56.61 57.34 54.77 53.00 50.01 50.07 46.44 43.73 44.21 44.68 45.26 45.39 45.80 45.76 45.52 44.73 44.36 44.31 44.99 48.67 48.02 47.75 48.68 48.23 48.65
53.06 52.53 52.21 52.21 52.12 52.07 52.02 52.16 52.39 52.13 51.95 52.21 52.42 50.21 46.39 45.56 50.40 51.87 54.69 57.55 58.02 57.49 53.91 54.67 53.67 50.22 47.53 44.19 47.04 45.43 41.32 42.38 43.66 44.85 44.41 45.19 42.18 41.19 46.27 47.54 46.18 47.40 46.04 47.55 47.98
52.21 51.75 51.53 51.29 51.33 51.30 51.40 51.65 51.67 51.64 51.83 52.16 52.50 48.84 42.65 53.23 54.30 50.96 52.50 53.68 57.72 57.82 56.07 56.25 55.59 51.31 47.41 45.89 43.67 41.60 39.86 35.87 42.37 44.43 45.00 44.59 37.38 43.14 45.99 45.78 44.62 45.29 46.21 47.13 46.98
51.66 51.25 51.08 50.90 50.84 50.83 50.87 51.25 51.51 51.82 51.91 51.73 46.85 44.22 40.78 53.22 49.02 51.43 50.25 50.07 51.55 54.50 56.22 57.32 54.81 49.21 48.54 41.44 36.31 36.67 31.48 34.34 38.21 44.11 43.35 41.61 36.76 43.09 46.11 43.77 42.99 43.50 44.11 44.64 46.20
51.19 51.04 50.74 50.54 50.61 50.69 50.85 51.27 51.37 50.59 48.38 48.53 46.73 40.22 43.41 43.71 48.39 50.10 50.46 50.11 50.05 51.26 51.54 52.07 49.87 45.73 44.45 40.54 33.12 32.43 32.33 32.76 34.13 37.58 39.68 38.23 37.08 42.27 44.26 42.32 42.35 43.29 43.93 44.11 45.02
50.69 50.52 50.49 50.44 50.47 50.78 47.68 42.95 36.62 35.46 42.61 36.81 37.78 38.32 44.83 48.88 51.66 48.47 49.23 47.56 49.29 48.55 43.87 47.76 41.42 39.17 41.71 42.43 38.85 36.45 34.16 32.13 34.54 39.02 35.62 34.76 34.78 38.36 40.58 39.34 39.19 41.17 42.90 43.91 44.65
50.56 50.43 50.38 50.33 49.94 50.33 45.38 38.41 38.72 40.84 34.50 40.13 40.99 41.46 44.40 48.19 43.69 46.90 49.00 42.65 44.80 42.32 44.55 42.41 38.37 42.57 43.96 43.89 40.33 37.99 34.03 32.26 35.93 37.81 35.10 33.95 33.42 38.08 40.46 40.81 41.43 42.77 43.23 43.69 43.15
50.10 50.05 50.22 50.16 50.11 45.60 41.02 40.81 46.24 45.52 34.88 36.17 40.02 39.67 42.75 47.12 43.36 43.90 46.09 44.74 43.71 41.59 40.75 38.68 39.93 43.29 40.76 38.85 37.25 34.68 32.18 32.03 32.13 35.00 33.46 32.10 31.14 34.49 37.92 39.68 40.66 41.92 43.35 43.89 43.88
49.67 49.98 49.89 50.02 44.70 44.07 40.29 46.37 47.14 46.26 27.57 30.59 36.30 39.50 43.39 46.55 41.60 47.78 47.61 46.16 43.49 39.82 40.40 38.62 41.22 40.02 37.82 36.27 36.60 31.70 35.79 35.75 33.54 30.60 25.75 32.08 22.81 30.04 34.07 35.18 37.10 37.80 38.52 39.86 41.64
49.60 49.50 49.76 49.90 45.04 41.20 43.98 47.39 46.20 42.67 5.33 33.54 33.83 45.13 44.67 42.36 42.06 43.08 48.99 46.14 40.08 39.78 39.19 36.86 36.63 37.81 36.41 36.29 37.36 33.41 37.28 34.41 32.54 28.33 24.70 26.58 24.97 28.80 31.52 33.37 35.88 35.57 36.89 38.05 38.91
49.76 50.09 50.87 48.68 47.01 45.93 47.57 45.77 43.62 19.65 13.12 31.03 35.66 33.78 36.02 41.16 41.37 43.26 44.02 46.50 46.39 40.25 39.84 36.92 42.12 39.04 37.08 38.84 38.84 37.84 33.73 31.95 29.74 26.18 16.80 24.50 25.12 25.79 29.49 31.86 34.15 36.43 37.03 37.51 37.91
50.47 51.14 48.52 48.54 41.88 47.36 45.63 41.61 19.63 11.73 31.28 30.61 31.47 32.87 37.46 37.15 38.17 40.01 39.10 37.90 36.59 31.95 32.91 35.49 35.44 38.47 39.68 34.94 37.11 33.76 28.84 18.13 15.41 14.14 17.02 27.43 25.21 27.46 33.35 35.75 36.08 35.78 35.50 38.17 39.49
51.24 49.06 46.39 47.72 47.86 45.95 40.10 27.36 16.85 27.48 28.48 33.87 34.64 35.90 35.84 37.71 38.16 38.87 36.61 33.11 35.73 34.67 31.24 27.63 27.88 34.65 37.66 35.03 32.70 30.62 28.67 19.72 13.05 14.40 19.53 26.71 22.97 28.42 34.90 35.96 36.29 37.18 36.47 39.50 39.81
48.79 45.56 44.76 47.08 47.39 42.64 34.96 21.45 23.65 29.75 32.65 31.13 35.84 33.52 34.48 36.92 37.62 36.49 35.28 34.00 35.15 34.83 29.55 25.41 25.33 36.45 37.64 37.99 36.36 31.64 23.80 29.89 21.80 19.99 15.96 21.86 25.35 30.47 34.18 34.09 35.92 37.36 39.18 38.86 40.88
40.50 40.42 43.21 48.15 45.49 41.46 31.29 26.62 32.01 35.11 32.71 33.91 32.50 33.69 31.25 35.19 35.41 34.22 34.17 36.83 34.82 36.32 36.40 30.89 25.43 36.46 36.84 39.42 37.89 32.97 34.31 23.82 18.42 11.27 13.44 19.74 21.09 24.16 29.25 31.66 34.75 35.63 36.42 38.75 41.52
38.07 34.81 42.05 47.00 44.87 33.79 27.26 29.60 33.16 35.69 36.43 36.93 32.15 31.74 31.64 33.05 33.55 32.01 32.89 35.48 36.42 35.69 36.75 33.92 29.50 33.52 36.80 33.98 31.51 31.12 27.51 26.55 25.25 21.66 15.59 15.84 22.12 29.43 30.18 32.88 33.94 35.63 37.10 38.87 40.49
35.67 25.85 42.71 44.72 30.86 31.93 29.72 34.05 36.56 36.44 40.80 39.23 37.67 35.49 32.32 34.30 33.02 32.54 31.53 33.38 38.01 37.42 32.81 35.27 30.85 29.73 31.86 34.18 35.95 33.76 30.65 27.61 18.27 16.29 16.45 21.28 21.17 33.50 34.12 34.95 35.15 37.24 39.10 42.04 42.45
33.96 33.38 41.80 40.65 27.67 30.24 35.56 36.03 36.43 37.49 38.52 38.25 35.13 37.41 37.65 33.04 30.55 32.81 32.80 37.86 39.02 37.00 34.73 35.13 27.78 18.66 27.60 32.47 35.49 30.34 31.93 29.03 26.45 22.06 14.02 15.26 21.56 33.89 32.42 34.51 37.37 40.99 43.33 45.52 45.22
32.81 28.06 34.51 35.54 37.10 35.29 33.09 34.65 36.27 39.15 37.62 38.50 36.33 37.63 35.56 33.96 35.01 32.66 33.99 38.92 39.00 38.93 43.16 39.07 29.68 23.37 20.23 24.76 29.13 22.93 29.96 29.76 29.81 20.76 20.69 21.48 24.53 31.33 34.84 35.55 39.48 41.43 42.80 42.18 44.58
36.01 32.75 37.49 32.39 33.01 37.07 38.41 38.19 35.36 34.55 38.42 39.35 36.63 36.90 36.08 32.55 33.13 32.60 35.15 36.16 38.53 42.85 37.79 35.16 25.86 27.54 29.39 31.49 31.54 29.82 29.50 30.01 26.84 28.14 20.96 24.92 27.14 32.06 36.21 37.31 39.86 42.35 42.11 41.66 42.21
36.78 35.23 38.26 36.55 38.78 36.79 37.48 36.01 36.75 36.91 37.15 36.39 35.73 37.34 36.97 34.53 34.97 32.59 34.67 33.61 33.15 35.86 35.25 34.57 25.42 29.12 24.97 30.80 31.32 29.31 31.51 30.89 31.03 31.44 30.72 31.55 30.67 38.54 40.11 41.22 43.49 40.89 38.86 39.21 38.30
41.61 42.48 38.70 33.73 32.71 34.24 35.01 36.04 36.73 38.20 40.87 41.41 39.58 37.56 36.11 36.97 37.94 38.66 37.97 37.32 36.64 34.29 33.11 33.95 28.40 27.23 20.38 29.17 29.32 24.91 30.02 31.16 31.33 31.58 33.27 29.31 34.66 40.12 40.55 43.16 42.24 37.89 36.91 36.39 36.19

GFSSW_sfc_wetblb_060.txt.gz
Wetbulb
55.84 56.85 56.33 56.27 56.09 55.57 55.64 55.15 54.57 53.98 53.94 53.72 54.45 56.03 57.27 58.18 59.24 55.16 49.93 52.86 54.47 61.14 62.27 58.29 57.78 57.66 52.83 49.35 48.45 45.54 38.19 35.20 38.19 39.48 41.52 45.38 42.88 46.79 46.93 44.26 46.06 47.13 48.82 54.86 62.50
54.95 55.05 55.62 55.71 55.77 55.62 55.29 54.92 54.83 54.63 53.77 53.60 53.54 54.38 55.62 56.82 54.53 51.17 56.19 59.43 60.40 61.31 55.74 55.58 54.13 53.10 48.13 47.67 46.99 42.77 37.33 38.53 43.13 43.40 42.96 45.10 44.77 45.77 45.58 45.30 44.29 45.10 52.43 59.19 64.73
55.05 54.77 54.88 55.01 54.78 54.53 54.54 54.51 54.60 54.36 54.22 53.55 53.71 53.49 54.25 54.76 48.56 47.06 59.13 61.14 60.90 60.01 58.05 55.45 54.65 51.03 46.65 45.88 44.78 43.01 38.35 42.89 45.45 46.65 47.70 45.76 44.58 46.66 43.94 43.16 45.00 44.87 48.02 54.80 59.39
55.10 54.90 54.72 54.38 53.96 53.96 53.99 54.08 54.08 53.98 53.80 53.71 53.48 53.00 53.41 50.63 38.78 47.80 59.70 59.39 61.39 57.66 57.01 55.01 51.33 47.70 45.39 42.85 45.54 40.71 44.06 44.94 46.95 48.30 47.00 44.01 45.62 43.73 45.24 46.28 48.44 48.82 49.06 48.99 56.21
54.34 54.09 53.86 53.68 53.43 53.42 53.29 53.40 53.34 53.56 53.26 53.07 52.93 52.54 49.43 46.33 45.21 51.43 56.87 54.83 58.34 55.80 54.67 53.02 48.85 48.00 44.15 45.00 44.24 42.29 43.12 45.78 47.15 47.42 45.88 46.39 43.83 44.04 45.04 48.43 48.59 49.97 49.52 48.35 48.17
53.59 53.13 52.68 52.44 52.38 52.40 52.41 52.40 52.63 52.71 52.40 52.58 52.19 51.83 45.06 39.47 52.07 51.65 51.32 53.25 55.23 54.09 54.83 53.69 49.91 49.28 44.99 43.65 43.34 44.53 45.28 45.21 45.74 45.31 45.18 44.04 43.02 43.61 44.31 46.11 46.89 47.61 48.14 48.46 49.82
52.69 52.26 51.81 51.77 51.71 51.67 51.80 51.84 51.91 51.87 51.86 52.36 52.14 48.67 42.95 42.06 50.71 50.23 51.92 54.51 55.10 54.39 54.10 54.97 52.69 49.49 46.57 43.39 46.35 44.71 40.93 41.82 43.32 44.23 43.76 44.32 40.91 40.45 45.82 46.80 45.54 45.55 45.79 47.54 47.96
52.17 51.59 51.61 51.52 51.28 51.21 51.33 51.45 51.37 51.50 51.72 51.85 51.66 46.91 38.04 50.76 51.53 51.83 50.91 52.89 56.29 57.45 56.51 56.21 54.61 50.63 46.54 45.42 43.24 41.69 39.76 36.06 42.28 43.76 44.47 44.30 35.68 42.36 45.04 44.45 44.63 44.85 43.54 44.99 47.58
51.55 51.44 51.15 50.92 50.85 50.86 51.07 51.55 51.67 51.78 51.89 51.54 46.24 43.20 35.96 51.74 47.81 51.11 50.12 47.56 54.35 55.60 55.60 56.67 53.94 48.40 46.95 39.37 37.70 39.78 31.66 34.23 38.43 43.90 43.27 41.28 36.43 41.74 43.83 42.26 42.37 42.72 43.50 44.49 45.18
51.33 50.94 50.99 51.00 50.86 50.88 50.74 51.33 51.01 49.71 48.15 48.36 46.03 38.18 40.21 41.65 48.27 50.48 49.80 48.87 49.25 51.78 50.57 50.55 49.12 44.60 43.73 39.76 31.39 34.17 33.95 33.00 35.33 37.80 39.30 37.54 36.32 41.25 43.29 42.62 41.72 41.65 42.03 42.96 44.18
50.86 50.67 50.46 50.50 50.64 50.42 47.80 41.92 36.82 34.65 41.19 35.70 36.30 36.63 39.82 45.79 50.22 48.21 49.24 46.37 49.10 48.90 43.58 47.18 41.80 39.40 40.86 42.37 38.33 36.25 34.07 32.64 34.43 37.95 34.95 34.14 33.61 36.95 40.37 38.61 38.26 40.09 41.32 42.95 44.73
50.68 49.94 50.09 50.48 50.62 50.48 45.20 37.84 38.18 41.15 34.56 38.82 39.47 40.01 42.77 44.23 42.92 46.45 49.26 41.65 43.90 41.41 44.53 40.54 34.58 42.50 45.30 43.22 39.10 37.62 34.89 32.26 35.14 36.99 34.53 33.63 32.73 37.27 40.33 39.52 40.52 41.25 41.72 41.33 42.40
50.24 50.31 49.96 49.95 50.18 46.61 41.81 40.29 46.26 44.78 33.64 35.44 39.02 38.37 39.78 41.72 41.42 43.77 46.04 42.92 41.77 41.06 41.58 37.88 38.06 44.97 43.38 40.72 38.50 36.87 34.27 32.12 32.13 33.87 32.60 31.17 30.47 33.20 36.88 38.67 39.08 40.20 40.87 40.76 40.79
49.82 49.74 50.01 50.38 44.48 44.06 40.96 45.96 46.66 46.22 27.28 28.91 34.41 39.04 40.89 41.25 41.52 47.90 47.05 45.11 42.65 40.05 40.64 39.20 42.39 42.51 41.03 38.65 38.71 32.63 36.74 35.66 33.31 30.12 26.49 30.96 23.73 30.30 32.93 34.74 36.24 35.97 36.60 37.19 37.29
50.92 51.64 51.60 50.89 44.52 39.58 42.60 46.73 46.24 41.75 8.64 31.71 34.30 44.64 42.91 38.65 42.88 42.58 47.91 46.10 40.55 40.56 40.51 36.45 38.46 38.27 37.58 37.47 38.15 33.28 37.05 33.97 31.66 27.49 23.96 26.60 24.97 29.00 30.85 32.38 33.20 34.43 35.32 36.77 38.47
51.68 51.20 50.32 46.15 44.04 45.10 47.40 46.15 43.15 23.01 13.53 29.04 34.95 34.47 35.33 38.66 41.31 42.24 44.31 46.60 45.12 40.39 39.31 37.44 41.69 39.87 37.47 38.47 38.19 36.68 32.62 30.88 28.32 25.90 16.14 22.91 24.03 25.60 28.79 30.14 33.14 34.05 36.21 37.95 39.01
51.38 50.07 47.95 48.26 40.67 46.75 43.68 41.21 20.90 16.59 30.93 26.78 29.73 32.94 33.23 37.41 38.23 39.76 39.19 38.52 36.48 32.35 32.39 35.69 35.75 37.71 39.96 35.03 37.35 33.38 28.23 16.13 14.37 14.19 16.15 25.87 23.79 26.76 31.98 34.28 34.19 34.24 37.02 38.40 39.71
50.83 48.95 46.82 47.79 45.88 43.83 39.45 26.57 15.64 26.85 29.31 34.49 33.88 33.53 33.47 37.98 37.43 38.32 36.76 34.60 37.08 35.19 30.82 26.34 26.94 34.73 37.74 35.09 32.19 30.02 28.41 20.14 11.72 14.41 19.34 26.61 22.37 27.09 32.61 33.54 36.12 36.39 37.02 38.75 40.47
48.32 42.16 45.78 46.99 46.17 43.95 36.06 22.08 24.59 28.37 32.28 31.54 33.07 32.36 34.61 37.32 37.24 36.05 34.71 31.93 35.32 34.26 30.37 26.39 27.47 36.98 37.66 37.70 36.25 29.87 23.61 29.12 20.32 17.83 15.42 21.53 24.94 29.67 32.97 33.06 35.01 36.09 37.73 37.27 39.55
39.05 38.41 40.31 45.98 45.32 41.58 31.96 27.33 30.69 34.97 33.09 32.00 31.71 34.52 31.93 33.76 34.56 33.85 33.17 34.77 34.07 35.53 35.10 29.42 25.23 35.62 36.44 38.92 37.25 32.28 33.01 24.08 19.48 12.64 12.92 18.60 19.70 23.89 28.50 30.45 34.75 35.21 35.85 37.33 39.86
37.27 33.33 40.66 45.07 44.39 35.07 27.54 29.90 32.56 37.13 35.30 35.76 30.85 31.89 33.52 31.91 33.57 30.26 31.14 34.75 36.02 34.77 35.68 32.95 29.40 32.65 36.04 33.80 30.77 31.02 28.29 26.32 24.85 20.47 15.37 16.05 22.23 29.26 30.70 33.20 32.63 34.19 36.32 37.22 39.65
34.54 24.77 40.63 42.80 32.19 32.15 31.76 35.20 36.94 37.40 39.53 36.98 36.80 34.66 31.53 32.62 31.01 30.49 30.21 33.25 37.87 37.03 32.91 34.69 32.14 29.44 30.93 33.39 35.15 33.37 30.23 26.86 19.01 17.39 19.28 19.78 21.98 31.79 31.82 33.66 35.56 36.44 38.13 41.67 42.65
31.64 31.99 40.54 41.62 31.15 32.35 36.16 37.14 37.60 37.56 37.30 36.44 34.61 37.69 36.00 31.61 29.55 31.83 32.62 37.27 38.57 37.01 34.13 34.89 27.25 23.41 28.14 32.57 34.53 30.88 31.07 28.55 25.42 22.31 20.86 16.59 21.41 33.41 31.16 32.41 34.92 36.95 41.73 42.30 42.39
32.91 28.91 35.00 38.11 38.29 36.18 34.57 34.56 34.15 38.48 37.39 37.24 35.79 37.03 35.14 32.79 34.14 32.23 33.65 38.02 38.52 38.27 42.39 38.33 28.53 23.89 21.11 24.69 28.66 23.18 29.96 28.63 25.93 18.16 20.61 20.05 23.80 30.04 32.86 33.84 35.63 38.04 42.28 40.41 42.70
33.69 32.14 36.87 32.93 36.10 36.76 38.28 37.17 34.60 34.19 37.77 38.74 36.42 36.47 34.85 31.33 32.41 32.48 34.35 35.00 37.99 42.07 36.83 34.69 26.30 27.23 29.07 30.92 30.62 29.24 29.56 28.93 24.60 25.88 21.39 24.12 25.16 30.68 34.21 36.25 37.64 40.87 40.88 38.82 38.33
36.44 35.04 37.41 35.58 36.23 35.34 36.97 35.47 35.45 36.58 36.25 35.41 34.78 36.46 36.07 33.23 33.13 31.72 33.62 32.03 32.42 34.92 34.05 33.77 24.99 28.09 24.62 30.37 30.69 29.04 30.69 30.19 30.15 30.48 28.69 29.78 29.96 38.33 39.95 40.17 39.79 41.14 37.87 36.49 35.78
41.11 42.20 38.57 33.14 31.33 31.52 32.49 34.85 36.16 37.72 39.97 40.28 38.69 36.65 35.10 36.38 37.04 37.29 37.21 35.75 35.39 33.63 32.37 31.75 28.14 24.79 19.94 28.23 29.02 24.68 29.32 30.60 30.25 30.86 31.83 27.27 34.16 39.24 39.00 40.45 42.22 38.59 36.40 34.71 34.91

GFSSW_sfc_wetblb_063.txt.gz
Wetbulb
56.38 55.98 55.71 55.48 55.82 55.99 55.90 55.93 55.74 55.47 55.33 54.82 53.95 54.05 54.33 55.43 56.12 53.04 52.64 54.11 55.61 60.51 61.79 58.15 57.52 58.18 54.40 51.19 50.00 47.87 42.33 38.62 41.10 40.65 43.55 46.67 45.97 49.70 50.58 49.38 50.13 51.05 52.59 57.39 63.37
56.16 56.27 55.87 55.67 55.46 55.29 55.05 54.89 54.95 54.96 55.07 54.80 54.73 53.72 53.90 54.50 49.92 49.35 57.57 60.40 60.76 60.14 54.18 53.41 53.12 54.63 51.26 49.40 48.46 45.36 40.72 40.89 44.66 45.73 44.61 46.98 47.70 49.53 49.47 48.43 49.51 50.52 55.21 62.35 65.12
55.55 55.47 55.27 54.99 54.93 54.72 54.60 54.36 54.40 54.40 54.21 54.56 54.16 54.46 53.18 52.52 46.44 47.81 60.25 62.54 61.92 60.36 56.87 54.60 55.97 53.29 49.44 47.89 46.52 44.90 40.75 44.36 46.12 46.93 48.73 47.86 47.96 49.87 48.45 47.50 49.84 49.40 51.72 60.09 63.47
54.99 54.68 54.38 54.17 53.95 53.86 53.71 53.65 53.77 53.70 53.83 53.72 53.98 53.56 53.03 48.62 37.04 49.65 58.79 61.43 62.30 59.11 54.87 54.50 52.59 49.45 47.47 44.84 46.69 42.18 44.87 45.62 47.49 49.14 48.49 47.05 48.81 47.57 48.67 49.93 51.36 52.20 52.57 54.17 61.94
54.28 53.97 53.44 52.94 52.78 52.60 52.52 52.61 52.98 53.00 53.15 52.79 53.12 53.04 48.83 41.00 42.89 52.40 57.94 55.44 55.55 57.05 52.32 52.43 49.90 49.39 45.03 46.42 45.30 43.64 44.65 46.58 48.16 48.29 47.77 48.42 46.52 47.25 47.54 50.69 51.46 51.58 51.91 52.28 53.21
53.54 53.14 52.60 52.25 52.19 52.06 52.00 52.06 52.17 52.26 52.31 52.21 52.60 52.00 44.67 35.05 50.04 52.03 51.61 51.75 55.76 54.80 52.15 53.66 50.88 50.57 47.05 46.13 44.80 45.81 46.31 46.09 46.94 47.05 47.21 45.54 45.37 45.65 47.32 49.33 49.49 49.59 50.77 51.37 52.14
52.56 52.25 52.00 51.88 51.83 51.62 51.54 51.62 51.86 51.69 51.82 51.96 52.21 48.94 42.30 38.58 48.14 50.37 49.28 49.79 53.71 54.31 51.24 54.64 53.72 50.25 47.18 44.55 47.49 45.11 42.09 44.06 45.20 45.36 45.21 46.32 42.61 42.22 48.00 48.87 48.46 48.71 49.63 50.03 51.41
52.29 51.99 51.70 51.54 51.50 51.36 51.48 51.69 51.70 51.80 52.03 52.12 51.93 46.78 37.52 48.10 48.65 47.25 48.05 49.91 54.03 55.32 54.49 56.28 54.70 50.64 47.60 47.25 44.85 42.71 42.43 37.75 43.77 44.80 45.40 45.32 37.19 44.33 47.28 46.67 47.10 47.60 47.96 48.04 49.89
51.90 51.81 51.52 51.22 51.33 51.25 51.31 51.63 51.58 51.87 51.91 51.76 46.48 42.76 35.88 48.12 44.55 47.16 50.75 47.82 52.00 53.45 55.13 56.50 53.43 49.06 46.61 40.99 39.21 40.62 34.34 36.36 39.86 44.68 44.22 43.61 38.74 44.12 46.24 45.43 45.35 45.81 46.45 46.69 47.82
51.50 51.29 51.08 50.75 50.96 50.99 51.13 51.09 50.88 48.50 47.81 48.35 45.80 37.51 39.55 37.42 47.29 47.92 51.32 50.49 49.44 51.52 50.43 49.58 47.75 43.95 43.86 40.22 31.05 34.55 34.10 36.15 36.92 40.72 41.99 39.95 39.26 42.87 44.57 43.83 44.26 44.92 45.89 46.21 46.18
50.82 50.77 50.77 50.75 50.38 50.73 48.05 43.04 37.33 35.80 40.42 34.74 36.05 35.84 39.18 43.25 47.56 47.58 49.60 47.40 48.86 48.38 42.84 45.81 41.31 38.19 40.40 41.73 39.20 38.17 35.83 34.88 37.34 40.23 38.22 37.04 36.71 39.16 41.72 41.39 41.51 42.79 43.99 45.19 46.37
50.81 50.51 50.35 50.16 50.04 50.17 45.69 37.88 37.54 39.84 32.80 39.20 38.63 39.02 41.68 43.27 38.77 46.28 49.59 42.72 44.34 41.35 44.25 40.66 37.05 41.09 44.19 43.60 39.76 38.21 35.33 34.42 36.98 38.61 38.02 35.25 35.12 39.16 41.49 41.60 42.72 43.31 43.74 43.42 44.29
51.12 51.67 51.78 51.61 49.91 47.50 42.48 40.15 46.31 43.89 34.30 34.77 38.22 37.76 39.04 40.34 37.58 43.51 46.32 43.89 41.82 40.86 41.49 37.07 37.13 43.33 43.57 41.60 37.98 36.97 35.44 33.54 34.30 36.06 35.53 33.55 33.75 35.62 39.15 39.68 40.27 40.56 40.81 41.50 41.00
51.53 51.68 51.62 50.97 43.54 43.73 40.13 46.30 47.19 45.60 26.15 27.80 33.70 38.06 39.69 39.64 37.27 47.85 48.10 45.35 42.27 39.27 41.44 38.16 42.35 40.70 39.31 37.89 38.62 35.43 38.57 36.76 34.50 33.44 30.37 33.50 28.30 33.71 35.26 35.36 36.55 38.29 39.95 40.74 41.12
51.65 51.42 51.08 48.86 40.93 39.49 41.93 46.64 45.87 42.02 11.77 31.78 34.45 44.08 41.47 36.41 40.44 43.39 48.30 45.68 39.53 40.33 40.72 36.13 39.71 39.04 34.98 35.26 39.15 35.74 38.40 35.24 33.09 30.21 30.12 30.24 29.07 32.37 34.49 32.96 35.21 37.65 39.73 41.26 42.13
51.62 50.82 50.26 45.77 43.31 45.46 46.18 46.43 42.70 21.84 5.04 28.88 34.50 34.74 34.86 34.48 38.31 43.14 43.37 47.04 44.89 39.73 39.53 38.02 42.41 41.04 38.16 40.84 40.33 37.57 33.88 31.94 29.78 28.27 22.97 26.46 27.28 29.07 32.02 33.90 36.13 38.35 40.28 41.09 42.51
51.29 50.30 48.36 47.74 42.14 45.43 45.05 40.29 22.32 16.71 30.54 24.77 29.66 32.38 32.58 35.51 38.07 39.75 38.83 38.52 36.46 31.89 32.57 35.25 36.27 38.84 40.49 35.15 38.02 35.31 31.86 22.91 20.29 21.19 21.88 27.69 25.91 29.60 33.90 36.43 37.66 38.94 40.00 40.94 42.72
50.73 48.26 46.72 46.57 46.47 45.08 41.81 25.36 18.26 27.21 28.77 34.89 33.83 33.64 31.05 36.69 37.76 38.29 37.33 35.14 37.33 35.86 31.78 29.63 28.55 35.39 38.54 36.42 33.62 32.07 32.89 24.05 17.29 18.56 21.43 27.47 24.47 29.75 34.46 35.47 38.76 40.00 39.60 40.44 42.70
48.24 40.45 41.91 45.04 46.42 44.81 36.24 19.02 22.13 28.74 33.04 32.10 32.40 29.92 33.83 36.21 36.84 36.75 34.36 34.97 35.92 35.23 29.81 27.32 29.19 37.61 38.04 38.12 37.05 32.07 28.50 30.13 21.25 20.55 19.98 24.63 27.90 32.99 35.45 36.52 37.83 38.22 39.53 40.38 42.39
38.33 37.26 38.32 44.96 45.91 42.97 31.46 28.96 31.06 35.48 33.89 33.10 30.50 34.10 31.11 33.16 34.46 33.86 33.69 35.95 35.52 36.57 36.00 31.29 28.81 36.21 36.44 39.05 37.11 33.99 33.26 26.15 22.62 15.67 18.33 21.68 22.78 26.98 31.41 34.65 37.12 37.54 38.42 39.92 42.30
36.37 33.36 39.58 44.13 42.16 35.84 28.31 31.23 33.53 38.39 37.15 35.36 31.36 32.22 31.34 31.61 32.55 30.32 32.28 35.51 36.44 35.76 35.94 33.27 30.54 32.61 36.42 33.81 30.86 31.71 28.95 27.08 26.26 23.27 19.33 19.04 24.70 30.64 33.44 35.54 35.72 37.20 38.70 40.71 43.48
33.58 27.21 39.96 41.70 35.01 34.31 33.20 35.92 38.41 37.63 39.35 37.27 35.53 34.13 31.62 32.02 30.93 30.16 30.46 33.49 37.50 37.28 33.08 34.63 32.05 29.38 31.34 34.42 36.00 33.96 30.67 27.55 21.45 20.54 21.58 21.44 24.91 33.98 33.70 35.36 35.58 37.08 39.02 43.43 43.53
31.28 31.39 39.89 39.97 32.27 32.96 36.53 37.39 38.18 36.53 35.83 35.55 34.07 35.90 34.96 31.85 29.54 31.43 32.55 37.32 38.47 36.94 34.57 34.83 27.83 25.37 28.25 32.00 34.61 32.01 31.87 29.59 27.30 25.74 21.78 20.27 25.30 33.83 34.56 35.00 36.27 37.07 39.37 42.43 42.35
32.64 29.20 35.27 36.33 37.54 36.69 34.98 30.66 33.32 37.98 36.67 36.76 35.17 36.19 33.85 32.03 33.78 31.64 33.76 37.28 38.61 39.15 41.71 37.61 29.18 26.01 23.18 26.89 30.40 25.61 30.24 29.43 27.43 23.83 23.28 22.43 25.76 31.88 34.56 35.19 37.48 38.41 41.55 41.40 38.97
33.72 31.78 36.99 31.92 32.08 35.02 34.81 34.79 33.70 33.68 37.06 37.93 35.51 35.40 33.84 30.65 31.78 31.83 33.66 34.79 38.01 40.28 36.62 34.80 27.28 28.21 29.76 31.74 31.19 29.99 30.36 28.70 24.98 26.69 24.86 26.87 26.11 31.23 34.08 35.42 37.72 39.66 41.17 40.01 37.71
33.92 34.99 37.18 34.51 33.01 32.58 34.69 33.76 34.38 35.65 35.65 34.88 34.03 35.45 35.13 32.79 32.41 31.27 32.94 31.50 32.06 34.73 33.64 33.98 27.42 28.99 26.12 30.93 30.84 29.51 31.02 30.89 30.12 30.52 28.79 29.10 29.71 37.87 39.54 40.72 40.11 40.76 39.43 37.76 36.66
40.20 41.99 38.71 32.60 29.82 31.19 34.42 34.14 35.35 36.56 39.32 39.50 37.37 35.26 34.03 35.08 36.90 36.82 36.11 35.73 35.61 33.76 32.23 31.63 28.76 25.86 22.18 29.03 29.49 25.48 29.63 30.54 30.92 31.54 32.59 28.47 33.80 38.88 38.51 39.92 41.89 39.59 37.88 36.09 34.30

GFSSW_sfc_wetblb_066.txt.gz
Wetbulb
56.07 56.83 56.53 56.29 56.08 55.91 55.94 55.85 55.60 55.57 55.52 55.56 55.45 55.23 54.65 54.31 54.40 51.95 49.17 56.04 58.35 60.12 61.57 58.56 57.54 58.33 58.36 53.77 53.82 53.99 46.20 43.19 45.67 45.88 47.54 51.71 50.71 53.60 54.50 53.11 53.56 55.05 55.79 60.34 64.80
55.90 56.09 55.96 55.79 55.54 55.19 55.10 55.18 55.22 54.95 54.99 54.89 54.95 55.04 55.13 54.18 49.80 47.64 55.29 60.46 62.06 60.50 56.26 55.38 52.98 55.46 53.50 52.54 51.58 48.56 44.50 44.84 48.84 49.51 47.94 49.10 50.89 51.80 51.42 51.51 52.35 54.00 57.89 63.62 65.87
55.56 55.32 55.01 54.80 54.54 54.15 53.88 53.77 53.89 54.10 54.29 54.38 54.57 54.55 54.23 53.44 45.56 45.31 57.88 60.51 62.60 61.79 57.61 56.02 55.81 54.00 50.47 52.57 49.88 48.49 44.81 48.52 48.47 49.59 50.40 49.21 50.51 53.53 51.78 50.42 52.98 52.88 55.85 62.36 64.05
55.00 54.70 54.33 54.13 53.68 53.35 53.15 53.02 52.99 53.18 53.12 53.75 53.51 53.60 53.70 49.94 34.92 54.02 58.26 60.91 62.58 60.72 57.16 54.14 53.00 49.98 47.91 46.47 50.99 45.17 48.47 48.74 49.44 50.94 50.37 49.12 51.90 51.28 52.65 52.60 55.00 56.60 56.40 58.36 63.55
54.19 53.84 53.37 53.02 52.81 52.67 52.66 52.73 52.73 52.80 52.52 52.65 52.64 52.86 49.79 42.30 42.93 52.46 55.86 55.62 55.65 56.92 54.14 51.94 50.16 50.37 45.72 47.52 49.43 46.64 47.65 49.30 50.02 50.45 50.32 50.56 49.94 50.60 51.60 54.78 55.67 55.59 55.11 55.92 58.85
53.54 53.04 52.64 52.54 52.42 52.16 52.10 51.95 52.15 52.23 52.01 51.93 52.10 51.70 45.87 36.76 50.30 51.29 52.01 51.47 53.05 54.45 54.00 52.85 51.19 52.54 48.97 47.75 46.40 48.93 48.89 48.14 49.74 49.21 49.52 47.89 48.63 49.71 51.45 54.64 54.13 54.51 54.85 55.77 55.99
53.21 52.64 52.44 52.23 52.08 52.12 52.10 52.17 52.14 52.12 52.16 52.13 52.07 49.74 44.04 41.21 49.54 50.73 50.87 48.56 49.49 51.39 52.44 53.64 54.75 50.88 50.99 46.55 50.85 48.31 44.75 47.46 48.17 48.12 47.26 49.39 45.07 46.36 51.73 52.98 52.20 52.80 53.67 54.48 55.40
52.69 52.29 52.10 52.00 51.87 51.73 51.93 52.04 51.97 52.03 52.20 52.40 51.92 48.47 39.47 48.70 51.01 48.69 49.18 46.12 48.72 52.73 55.76 54.75 55.84 52.28 49.69 51.12 48.74 45.57 44.80 40.16 45.96 47.38 47.80 47.21 40.15 46.79 50.95 51.24 50.41 51.37 52.30 53.03 54.19
52.26 51.67 51.49 51.51 51.35 51.09 51.15 51.73 52.00 51.84 52.02 52.07 47.92 44.76 37.44 48.72 44.94 48.29 48.40 45.37 50.10 53.61 55.49 55.32 54.01 49.18 48.58 44.20 41.18 42.32 37.58 39.02 41.98 47.57 46.56 45.67 41.95 47.25 49.99 49.77 49.88 51.05 51.95 52.33 53.05
51.64 51.50 51.52 51.44 51.24 51.07 50.97 51.08 51.28 49.24 48.97 49.39 46.75 39.68 42.29 39.21 44.76 48.03 49.40 49.16 47.92 50.70 50.10 49.84 48.03 44.61 44.00 41.23 34.21 37.53 37.95 39.52 39.44 44.17 45.32 43.25 42.73 46.18 48.69 48.33 49.59 50.68 51.26 51.79 52.32
51.47 51.85 52.20 52.21 52.20 50.41 49.55 47.04 41.91 39.89 43.40 38.23 38.43 37.91 40.18 44.18 47.28 46.13 48.18 47.23 48.17 48.39 41.81 46.35 41.15 37.92 41.17 44.33 43.61 42.20 40.18 38.18 41.33 43.46 44.02 43.34 43.41 45.14 47.85 48.57 48.43 49.20 49.88 50.63 51.59
51.90 52.09 52.17 51.89 51.79 49.93 47.63 40.88 40.24 42.57 34.40 40.34 40.46 40.64 42.95 44.08 38.16 43.95 49.37 43.54 43.84 41.44 43.47 41.55 37.09 41.56 44.72 44.62 42.40 41.46 39.60 38.70 39.61 43.71 42.12 40.98 41.10 44.46 46.21 46.88 47.68 48.26 49.28 49.99 50.12
51.81 52.02 51.86 51.50 50.53 47.20 43.78 42.26 47.63 45.19 34.36 36.14 39.12 38.42 39.97 42.12 36.34 40.56 44.67 44.11 43.34 40.76 41.65 38.30 39.42 44.09 42.06 42.15 39.99 40.78 39.25 38.90 38.16 39.17 40.61 39.65 39.76 42.38 42.37 42.80 43.83 44.51 46.13 46.74 46.96
51.56 51.80 51.42 50.16 45.75 45.34 41.19 45.89 46.77 45.38 29.79 29.37 34.52 38.46 40.64 40.86 36.72 44.50 46.36 45.33 42.75 38.94 39.36 38.96 41.67 41.45 39.70 39.95 41.13 35.98 42.06 41.31 38.28 38.14 35.12 38.66 34.78 38.23 39.21 40.10 43.05 45.40 46.78 47.49 47.92
51.24 51.31 50.78 49.00 44.69 41.41 43.52 46.65 46.08 42.80 17.63 33.11 35.10 44.05 41.06 36.82 37.62 42.95 48.61 46.37 41.35 40.94 40.54 35.07 37.53 36.68 34.17 39.42 41.67 37.60 41.73 40.25 39.16 36.94 36.15 35.59 35.03 36.70 39.64 38.65 41.70 44.83 46.64 47.81 48.65
50.64 50.85 49.51 48.51 47.12 46.39 47.40 46.78 42.80 27.68 18.08 29.36 35.38 35.75 35.22 36.25 36.59 43.43 43.58 47.62 47.14 40.80 39.86 38.37 43.36 40.53 39.24 40.55 40.74 39.35 36.28 37.09 37.46 36.39 30.93 34.58 33.57 34.33 36.55 39.02 41.45 44.21 46.27 47.63 49.07
50.51 50.35 48.43 49.05 42.72 47.61 46.39 41.48 28.59 23.34 30.54 29.25 30.76 33.75 33.74 33.90 36.43 38.67 39.21 39.78 38.20 34.65 32.52 35.63 36.02 39.66 40.77 35.28 38.45 37.62 36.83 29.83 29.36 29.03 29.54 31.85 31.22 35.56 38.83 40.27 43.46 44.06 45.93 47.60 49.55
50.56 48.47 48.39 47.56 48.53 46.68 42.77 33.47 23.85 29.18 29.85 35.23 33.71 33.29 30.43 36.97 37.12 38.72 37.82 36.00 40.02 39.15 35.22 32.28 29.22 35.67 38.22 37.05 35.40 36.72 36.07 32.13 24.60 26.29 29.21 31.26 29.47 35.01 38.91 41.48 44.01 44.05 44.82 46.81 48.92
48.70 47.15 47.50 47.89 47.80 46.22 38.13 29.64 27.54 30.03 33.70 32.63 32.89 31.05 34.08 37.26 37.26 36.94 36.20 35.23 37.34 38.79 33.76 31.84 31.65 37.87 39.37 39.35 39.44 35.60 34.72 35.36 29.29 28.05 29.62 32.91 33.67 37.39 39.50 40.27 42.08 43.01 44.34 46.49 48.17
45.28 44.59 44.59 48.09 48.65 45.28 37.14 30.95 32.79 34.87 34.38 32.84 31.43 36.50 32.02 35.11 35.33 36.38 35.71 37.58 37.06 38.89 40.23 36.17 31.12 36.96 37.63 40.89 39.27 38.22 38.18 31.69 32.58 25.11 24.71 28.71 30.72 33.56 36.01 38.94 41.39 42.87 44.09 45.80 48.06
44.38 42.04 45.04 47.59 47.63 40.59 32.26 32.79 34.84 39.12 37.45 36.20 35.15 34.85 35.66 34.66 36.11 35.14 34.88 37.84 39.33 38.06 40.35 38.76 36.31 33.58 37.63 35.55 34.35 34.65 34.45 32.65 33.83 30.60 28.61 27.12 31.17 40.23 39.66 41.59 41.01 42.14 43.37 45.79 47.50
42.03 39.87 46.39 47.55 40.10 38.29 35.97 36.90 39.07 38.58 40.51 38.68 39.37 38.09 36.07 36.25 34.94 34.87 34.61 37.28 40.76 40.65 36.96 38.83 36.85 31.87 32.36 37.24 38.92 37.46 35.38 34.76 31.98 27.32 29.28 30.07 31.38 39.72 42.62 41.55 40.65 41.90 43.57 46.47 47.23
40.10 39.90 47.20 46.43 33.96 35.28 39.25 38.48 39.69 39.16 38.68 38.80 37.84 39.53 38.99 36.10 33.75 35.74 36.20 39.91 40.85 39.89 38.64 39.60 34.65 28.46 29.26 34.21 37.02 34.80 35.66 34.22 33.06 32.74 28.74 29.56 30.93 38.86 40.58 40.26 42.40 41.98 43.98 45.77 45.20
41.24 36.88 42.28 44.19 41.70 37.04 36.16 37.30 37.28 41.01 40.37 40.25 38.89 40.19 38.15 36.36 38.30 35.00 36.04 39.21 41.37 41.33 41.33 41.48 34.53 32.39 29.35 31.14 35.02 32.30 33.62 34.00 33.96 30.80 30.31 31.95 32.91 36.92 39.51 40.49 43.08 44.32 44.89 45.83 44.39
41.38 35.83 38.07 34.90 38.58 37.25 39.62 38.99 37.13 36.66 41.20 41.87 39.43 38.79 37.11 34.07 35.07 34.57 36.56 38.07 40.83 40.77 40.23 39.80 32.47 32.60 33.09 34.08 33.97 33.20 33.19 32.55 30.76 33.37 32.59 33.11 33.39 38.23 39.88 41.52 43.67 45.21 45.08 44.00 42.09
37.76 37.13 38.63 38.12 37.60 38.93 38.78 37.69 37.68 38.70 39.42 37.97 37.42 38.52 39.44 36.09 36.15 34.49 37.01 37.23 37.23 39.57 38.76 38.78 33.28 33.40 30.39 33.25 33.47 31.78 33.79 34.12 33.44 34.46 33.57 34.07 34.27 42.00 43.84 43.73 43.02 44.75 42.97 41.39 39.39
42.58 43.13 39.91 37.03 37.46 38.04 35.45 36.55 38.25 40.30 41.57 41.87 40.13 39.17 37.63 37.79 39.78 41.36 41.22 40.72 40.46 38.17 36.30 36.25 34.63 32.35 28.61 31.70 32.09 29.76 33.02 33.81 34.22 35.62 35.84 32.26 38.24 42.17 41.41 41.73 42.44 43.46 41.43 39.45 38.20

GFSSW_sfc_wetblb_069.txt.gz
Wetbulb
56.21 56.45 56.35 56.14 56.10 55.83 55.68 55.55 55.64 55.72 55.58 55.49 55.51 55.66 55.76 55.53 54.77 52.31 47.76 55.54 58.77 61.74 59.68 58.60 57.78 58.22 59.16 56.02 55.74 54.48 46.13 44.82 47.21 47.75 49.37 53.72 52.91 55.65 56.91 54.83 55.12 55.86 55.54 62.05 68.42
56.18 56.13 55.84 55.56 55.26 54.94 54.62 54.43 54.17 54.30 54.96 54.86 54.99 55.00 54.97 55.09 51.55 48.51 54.60 58.31 60.99 62.16 57.01 54.97 52.75 55.72 52.61 52.84 52.59 48.98 45.09 45.81 50.59 51.65 50.41 52.24 52.37 53.58 52.54 52.49 52.86 53.87 57.20 62.94 66.25
55.70 55.28 54.89 54.79 54.52 54.34 54.04 53.67 53.47 53.28 53.59 54.00 54.26 54.65 54.28 53.80 45.93 46.96 58.25 58.02 61.07 61.79 58.80 56.03 55.24 54.36 50.98 52.43 50.81 49.19 44.68 49.04 49.62 50.48 51.51 50.25 50.03 53.31 51.72 50.20 52.55 52.62 54.95 60.63 63.27
55.07 54.64 54.31 53.87 53.61 53.39 53.38 53.22 53.24 53.11 52.85 53.11 53.41 53.37 53.41 50.35 35.72 53.20 58.69 56.93 59.88 60.27 57.24 53.82 51.92 49.58 48.91 48.11 51.88 45.99 49.05 49.95 50.99 50.89 49.71 48.78 50.63 50.63 52.32 52.75 55.59 56.02 57.98 59.73 62.95
54.38 54.16 53.82 53.52 53.41 53.09 52.96 52.80 52.98 52.92 52.71 52.35 52.38 52.60 50.10 43.10 43.50 53.18 55.10 53.06 54.17 57.05 54.24 52.16 48.84 49.50 46.06 48.67 49.41 47.40 48.70 49.78 50.96 51.33 50.89 51.37 49.47 49.70 52.01 55.41 56.41 57.36 56.61 57.15 60.19
54.00 53.72 53.24 53.06 52.80 52.81 52.64 52.60 52.69 52.31 52.23 51.95 51.81 51.71 46.72 37.93 50.55 52.00 50.67 50.05 50.51 52.84 52.87 53.12 50.13 51.40 48.77 47.94 48.19 49.42 49.60 49.03 50.18 50.03 50.75 48.80 49.19 50.62 52.55 55.46 55.22 55.32 55.70 56.82 57.19
53.37 52.99 52.66 52.32 52.20 52.31 52.54 52.58 52.54 52.33 52.16 52.47 52.27 50.09 44.76 42.29 50.56 51.27 51.23 48.92 49.27 48.23 46.29 54.60 54.15 50.14 50.85 46.71 50.98 49.24 45.39 47.30 48.16 49.17 47.88 49.89 46.15 47.01 52.59 54.01 53.53 54.11 54.48 55.11 56.29
52.97 52.61 52.36 52.27 52.20 52.04 52.02 52.00 51.94 52.08 52.30 52.54 52.25 48.83 40.29 49.99 51.79 49.65 50.17 46.87 47.88 49.22 48.52 54.30 55.69 52.30 49.25 50.53 47.78 44.64 44.63 39.63 46.82 47.90 48.53 47.30 40.98 48.45 51.95 51.57 51.48 52.54 53.23 53.84 54.44
52.65 52.25 52.38 52.74 52.82 52.48 51.89 51.69 51.45 51.93 51.97 51.84 48.17 45.83 39.06 49.76 45.59 48.83 49.31 44.42 45.50 45.87 49.81 54.85 53.07 49.74 49.35 43.78 41.90 42.51 37.11 39.72 42.58 47.94 47.03 45.23 41.97 47.56 50.58 50.35 50.32 51.43 51.97 52.37 53.00
52.20 52.34 52.73 52.70 52.50 52.31 52.26 50.99 50.64 50.46 49.71 49.68 47.26 40.42 43.22 40.50 45.25 47.29 49.66 47.39 43.61 45.26 47.93 48.93 47.90 44.16 45.28 41.20 35.17 37.58 38.53 41.12 39.99 44.90 45.77 44.08 43.38 47.19 49.04 49.04 49.56 51.02 51.83 52.28 52.43
51.89 52.38 52.55 52.34 52.26 51.91 48.20 46.07 42.81 40.29 44.30 39.64 39.51 39.84 41.33 45.14 47.90 45.27 48.03 45.10 44.27 43.94 41.98 46.28 41.25 35.94 40.57 42.43 43.46 42.38 40.78 40.01 42.99 45.49 43.98 43.19 43.62 45.47 47.93 48.58 48.50 49.80 50.71 51.35 51.96
51.72 52.20 52.24 52.18 50.77 49.89 48.31 41.91 42.07 42.85 35.11 41.90 41.49 41.53 43.99 44.63 38.85 42.98 47.76 39.64 37.50 35.59 42.82 41.49 37.57 42.25 44.10 43.45 41.86 41.71 39.87 40.06 43.03 44.84 42.87 43.30 42.43 46.14 47.58 47.63 48.42 49.04 49.70 50.31 51.28
51.91 52.02 51.77 51.74 48.82 48.23 44.10 42.48 46.79 45.14 35.05 37.27 40.79 39.85 41.18 42.96 37.94 39.45 45.12 40.65 38.60 39.16 41.11 38.56 39.47 43.93 41.92 41.10 39.48 40.64 39.40 40.29 39.74 42.56 42.80 41.39 39.81 42.56 46.17 47.94 48.47 48.03 48.89 50.10 49.89
51.74 51.75 51.40 50.92 46.89 46.73 42.51 45.69 46.85 45.88 29.54 31.74 35.44 38.40 41.10 41.41 36.08 43.29 45.83 42.48 43.03 38.80 41.65 40.44 43.08 41.65 40.42 38.96 40.61 37.34 43.88 42.81 40.83 38.08 33.03 40.84 33.08 40.74 44.09 42.62 43.54 45.85 47.66 48.57 49.14
51.16 51.50 51.11 49.84 47.04 42.22 44.27 47.72 46.83 42.91 18.31 34.17 35.76 44.61 41.85 36.85 36.59 39.96 46.16 44.07 40.05 38.57 40.72 35.76 40.05 40.42 39.44 38.33 40.69 39.02 43.90 43.01 41.38 38.92 38.31 36.63 34.15 39.32 41.35 39.64 42.50 45.91 47.61 48.78 49.72
50.78 51.17 50.81 49.53 48.36 46.82 48.33 46.94 44.58 29.37 18.65 30.58 36.47 35.05 35.48 35.83 37.01 39.80 41.63 43.70 44.65 38.99 41.40 39.30 43.17 40.71 39.56 40.78 41.58 41.87 41.58 40.58 40.18 38.37 31.86 37.64 35.95 34.48 37.89 40.87 43.10 45.97 47.55 48.91 49.91
50.84 50.71 49.68 49.13 42.83 47.92 46.78 41.67 30.91 25.12 33.57 30.31 32.19 35.37 33.72 34.78 34.35 35.34 36.28 37.99 35.98 31.75 32.89 35.65 36.16 39.07 40.11 35.12 39.22 39.28 36.59 30.64 29.58 28.97 30.57 37.29 33.98 37.65 40.31 43.59 44.50 45.32 47.33 49.31 50.82
51.16 49.37 49.29 48.57 50.50 48.04 43.51 34.51 26.11 30.02 30.64 35.74 34.73 36.14 31.53 35.14 33.34 38.47 38.83 36.93 41.07 39.01 35.56 32.57 29.29 33.91 38.43 37.32 34.68 36.64 36.12 33.58 26.78 28.34 31.39 34.13 31.14 36.97 42.06 44.09 46.07 47.10 47.74 49.53 50.39
50.68 49.97 48.97 50.31 49.64 47.96 39.59 31.33 28.12 30.19 33.70 32.51 35.03 31.03 33.86 37.91 37.67 38.75 36.77 36.71 39.56 41.21 35.00 32.59 31.63 37.88 38.96 39.60 39.98 35.68 33.87 37.78 31.84 33.35 31.99 33.14 36.35 39.27 40.33 41.79 44.18 44.89 46.41 48.27 49.68
46.72 46.63 47.54 49.63 49.69 44.63 39.02 30.92 33.07 36.11 35.83 34.17 32.39 36.44 32.43 36.14 36.95 37.73 38.08 39.90 39.09 41.23 42.56 37.54 31.23 36.66 38.34 40.62 40.53 38.87 39.58 32.50 34.53 25.94 26.25 31.81 33.94 34.68 36.23 39.03 42.53 43.81 45.68 47.47 49.18
47.67 44.17 47.77 49.98 48.98 44.67 33.07 34.90 36.13 39.97 39.09 36.57 37.29 35.38 37.09 36.70 38.43 37.29 37.22 39.78 41.12 39.86 42.81 41.14 37.25 34.41 38.35 36.72 35.29 36.24 35.28 34.85 34.90 32.58 29.93 27.70 32.22 41.61 39.39 41.59 42.65 44.12 45.18 46.91 48.28
46.01 41.68 49.83 51.08 39.81 39.72 38.31 38.58 39.70 40.76 41.53 40.08 40.69 39.90 38.38 38.73 37.53 37.54 36.53 39.75 42.46 42.39 38.55 41.24 38.08 31.90 34.20 38.91 40.50 39.56 37.93 38.23 32.59 29.87 31.67 31.53 31.29 42.94 43.35 43.52 43.23 43.82 44.95 47.64 48.43
42.66 44.31 51.48 50.14 35.44 38.12 40.98 40.40 41.42 40.82 40.67 40.50 39.47 41.30 41.49 38.23 35.19 38.05 38.68 41.75 42.58 41.49 40.13 41.30 36.39 29.58 30.56 35.64 38.51 35.80 37.94 37.90 35.50 35.16 30.94 30.29 30.94 43.16 44.12 42.60 43.11 43.23 45.53 47.22 47.79
43.24 37.71 45.55 47.00 43.14 37.22 36.35 38.35 38.44 42.98 42.06 42.14 40.63 41.92 40.02 38.33 40.43 36.83 37.64 40.60 42.93 42.14 42.15 43.21 37.19 34.02 30.95 32.47 36.72 34.08 35.46 36.11 33.32 31.87 32.75 33.60 33.84 37.60 40.95 41.19 43.18 45.36 46.29 47.51 46.96
43.04 38.18 39.56 38.62 40.80 39.76 40.58 40.73 38.45 38.00 42.85 43.30 40.29 40.20 38.57 35.52 36.67 36.26 38.41 39.68 41.81 41.18 41.91 41.53 33.58 34.62 35.33 35.90 35.80 34.81 34.42 34.91 31.41 34.38 33.99 34.97 35.83 38.51 41.17 42.43 44.23 46.47 47.05 47.22 45.73
38.33 37.11 39.09 40.24 42.33 40.61 39.91 38.09 38.43 40.01 41.03 39.09 38.84 40.38 40.73 37.24 37.69 35.69 38.45 39.21 38.74 41.30 40.32 40.89 34.77 35.20 31.93 35.17 35.11 32.90 35.39 35.94 35.06 35.52 35.76 36.25 35.61 42.68 44.24 45.59 44.89 46.29 46.60 44.98 43.87
43.38 43.71 40.07 40.86 41.23 39.28 37.73 37.52 38.31 41.76 42.67 43.27 41.87 40.93 39.18 39.34 42.02 43.18 43.23 42.77 42.01 39.93 38.83 38.43 36.31 33.72 30.52 33.48 33.67 30.84 34.55 35.49 36.17 37.34 37.40 32.92 38.56 43.37 42.35 43.32 43.90 45.05 44.72 43.75 41.77

GFSSW_sfc_wetblb_072.txt.gz
Wetbulb
56.69 56.67 56.41 56.04 55.89 55.81 55.53 55.42 55.11 55.12 54.99 55.32 55.64 55.62 55.58 55.69 55.63 52.12 46.83 51.23 56.64 61.72 60.24 57.75 54.52 56.67 58.24 55.66 55.97 53.47 43.72 41.08 43.80 45.86 47.81 52.30 51.78 54.51 54.67 51.62 52.19 52.38 52.22 63.08 67.72
56.09 56.03 55.67 55.42 55.06 54.69 54.51 54.65 54.56 54.30 54.36 54.23 54.61 55.06 55.03 54.76 50.59 47.24 54.52 58.42 58.89 61.17 56.62 53.83 50.58 54.03 51.86 52.35 53.06 47.99 41.93 42.73 48.64 50.05 49.41 50.95 51.41 52.16 50.79 49.82 50.13 49.84 58.18 63.13 66.46
55.55 55.14 55.12 54.79 54.67 54.35 54.05 53.87 53.80 53.65 53.48 53.63 53.76 54.12 54.54 53.38 44.30 44.79 57.25 58.33 58.91 59.64 57.58 56.19 53.95 52.13 49.14 50.94 50.39 48.17 42.95 46.93 48.53 50.45 50.37 49.96 49.36 51.96 50.24 47.29 49.72 49.17 52.73 58.92 63.82
54.86 54.79 54.73 54.51 54.21 54.01 53.86 53.68 53.47 53.38 53.26 53.11 53.23 53.48 53.44 49.58 33.98 51.12 57.15 58.47 59.32 56.64 56.18 53.86 50.91 47.62 47.01 45.55 50.20 44.52 47.81 48.44 49.69 51.01 49.59 47.19 49.26 48.39 49.33 49.12 52.51 51.56 53.07 58.86 58.16
54.61 54.15 53.74 53.73 53.61 53.41 53.29 53.54 53.35 53.13 52.94 52.61 52.20 52.35 49.02 42.42 42.22 51.90 55.93 53.54 52.77 54.42 53.02 51.45 48.16 47.05 43.81 46.69 48.68 46.79 47.22 48.88 50.09 50.29 49.36 49.63 47.31 47.11 47.76 51.15 53.14 55.21 55.15 54.05 58.21
54.34 53.80 53.47 53.23 53.17 53.01 52.89 52.93 53.17 52.81 52.69 52.60 52.06 51.44 45.29 36.47 50.06 51.36 50.77 49.81 49.31 49.82 50.82 52.09 49.71 48.66 47.24 46.37 45.90 48.72 49.13 48.53 49.07 48.90 49.76 47.79 47.21 48.10 48.33 51.47 51.44 53.34 51.78 51.34 52.78
53.88 53.37 52.93 53.14 53.38 53.33 53.38 52.89 52.80 52.44 52.38 52.56 52.54 49.87 43.00 40.81 50.24 51.30 50.59 48.52 48.90 47.47 45.86 52.45 53.10 48.22 47.68 45.77 49.61 48.27 44.73 46.91 46.49 47.83 47.04 48.75 44.80 45.34 49.86 51.81 49.81 50.84 50.14 52.04 53.31
53.39 52.93 52.89 53.21 53.41 53.36 53.38 53.26 52.54 52.01 52.02 52.53 52.43 48.37 39.22 49.68 50.89 49.13 49.32 47.12 47.94 47.57 46.59 48.82 50.30 50.35 47.01 49.50 47.31 43.86 44.13 39.58 45.86 46.96 47.25 46.25 38.93 47.15 50.47 49.68 48.89 49.64 49.48 50.33 51.48
52.62 52.65 52.84 53.06 52.97 52.83 52.68 52.79 52.35 51.72 51.78 51.83 47.58 45.03 37.71 50.96 45.37 47.99 48.24 44.68 45.50 45.88 46.68 48.08 49.26 48.29 47.36 41.93 39.51 41.80 36.33 37.68 40.41 46.96 45.68 43.98 40.16 46.13 49.50 48.62 48.03 47.93 48.51 48.76 49.74
52.15 52.45 52.89 52.86 52.48 52.13 52.09 51.71 50.34 49.49 49.88 49.36 47.38 39.66 42.38 40.31 45.33 46.69 48.41 47.51 43.27 43.18 43.44 44.97 47.06 43.36 42.87 39.66 32.26 34.43 35.41 37.64 37.07 43.64 44.64 42.14 41.19 45.08 47.09 46.60 46.44 47.26 48.20 48.65 48.52
51.79 52.38 52.49 52.39 51.48 50.85 49.92 46.81 41.77 39.98 43.29 38.69 39.08 39.05 41.36 45.34 47.22 44.76 47.14 44.66 42.61 38.65 37.40 44.44 39.86 36.90 39.33 41.01 41.45 40.83 38.77 37.16 40.15 43.95 42.73 41.68 41.62 43.80 45.83 45.28 45.28 46.37 46.21 47.03 48.64
51.35 51.91 52.30 52.05 51.32 50.21 48.00 41.51 41.28 41.65 34.89 41.92 41.76 41.52 43.95 44.63 38.23 42.05 46.58 39.01 36.57 32.61 36.24 39.18 36.26 40.52 43.02 42.88 41.18 40.79 38.40 38.02 41.48 43.87 41.36 41.08 40.78 44.32 45.74 44.93 46.04 46.75 46.44 46.41 46.80
51.12 51.60 52.19 51.80 51.29 48.85 43.84 41.84 46.43 45.77 34.19 37.34 40.65 39.83 40.83 42.65 37.48 38.56 43.55 40.21 34.69 32.82 34.05 35.93 38.25 41.93 42.50 40.35 38.69 38.49 36.16 37.49 38.37 41.21 38.80 37.05 36.51 41.01 44.64 45.85 46.17 47.56 46.90 46.29 46.02
51.14 51.49 51.88 51.29 46.99 46.40 42.47 46.26 47.33 46.36 29.42 31.65 35.63 38.54 41.25 41.33 35.67 43.87 44.95 40.25 36.62 32.36 33.52 38.46 43.29 41.41 40.36 39.40 39.95 35.34 41.32 40.86 40.68 36.06 29.33 37.62 27.25 37.61 42.12 42.97 44.83 42.67 43.19 43.95 43.94
51.02 51.42 51.23 50.59 46.26 42.30 44.81 47.49 46.70 42.72 17.38 34.05 35.06 43.92 42.09 36.71 37.31 38.83 45.26 40.99 34.33 35.45 39.80 35.94 39.08 39.30 37.21 38.36 41.97 37.58 42.50 41.53 40.13 35.11 33.47 33.12 27.55 35.74 40.67 39.35 39.76 40.40 42.99 44.64 45.47
50.86 50.86 50.63 49.38 48.24 46.93 48.31 47.57 43.93 28.84 18.07 30.79 37.25 35.05 34.94 36.41 36.62 40.30 40.10 42.04 41.14 40.56 40.37 39.18 42.89 40.94 40.35 41.53 41.07 41.25 38.41 39.93 38.95 35.35 28.46 32.39 29.99 30.10 34.95 38.46 39.49 42.27 44.34 45.54 45.79
51.43 50.87 48.99 48.85 43.18 48.53 47.40 41.83 28.50 23.14 34.35 30.11 32.90 35.05 33.53 35.06 35.89 37.34 35.25 35.24 35.02 31.63 32.03 35.66 36.03 39.59 40.78 37.65 39.66 37.08 34.11 29.38 27.75 27.22 23.40 35.39 30.79 33.04 38.74 41.72 42.32 42.43 43.62 45.75 47.08
51.36 51.03 49.68 48.82 50.17 48.54 44.54 34.10 23.21 30.55 30.24 35.70 36.05 35.51 32.24 35.45 33.99 36.05 35.76 35.69 39.27 38.29 34.01 30.67 27.23 35.58 38.91 37.48 34.79 34.43 36.33 31.33 23.27 21.97 24.40 32.77 25.93 30.81 39.28 43.12 44.65 45.13 45.75 46.86 46.82
51.20 49.68 48.87 49.97 50.09 47.96 39.59 27.44 27.19 30.50 34.39 31.78 33.37 32.44 34.19 35.57 35.16 34.09 34.42 36.33 37.55 40.18 32.96 29.23 29.26 37.17 38.42 39.88 39.74 35.62 33.26 36.65 29.52 29.60 23.77 27.00 30.08 34.35 36.57 40.72 42.12 42.78 44.37 45.40 46.72
46.64 47.01 47.33 50.46 50.15 44.65 38.33 31.80 33.56 37.67 36.07 34.72 30.79 35.61 32.49 36.20 34.51 36.27 36.42 39.78 37.84 40.63 41.63 36.02 29.81 36.68 37.83 40.49 39.56 38.06 39.63 30.07 31.84 24.07 22.64 25.03 27.14 27.95 32.19 37.14 40.60 41.04 42.28 45.25 46.66
46.67 43.61 47.63 51.05 48.88 42.46 32.54 33.37 36.83 41.18 40.31 36.74 36.23 35.71 36.86 35.97 37.62 36.09 35.74 38.97 40.85 39.89 41.91 39.55 35.91 34.56 37.61 36.03 35.06 34.93 33.63 33.62 33.10 29.56 24.14 19.87 24.37 35.24 35.15 38.17 39.10 41.04 43.31 44.70 46.03
45.59 40.37 49.52 51.04 38.41 39.80 36.73 39.21 40.31 41.07 42.16 40.31 40.86 39.25 37.52 37.84 36.18 36.22 35.14 37.48 42.13 41.09 37.39 40.13 35.12 31.13 34.00 38.00 39.91 37.86 36.97 35.41 25.39 24.12 27.45 25.70 23.82 38.55 37.64 39.21 40.91 41.60 43.25 45.10 46.07
41.63 43.58 51.07 49.91 34.60 35.90 39.11 40.03 41.81 40.58 40.82 40.41 39.45 40.95 40.98 37.39 33.90 37.23 37.27 41.44 42.49 40.50 37.69 39.08 32.78 27.08 29.36 33.68 36.81 33.39 36.19 36.63 33.28 33.24 28.97 23.13 24.36 39.12 38.04 38.06 39.86 40.35 42.12 44.67 45.46
42.52 35.37 42.67 44.79 42.48 37.94 37.22 37.63 38.96 43.35 41.86 42.47 40.89 41.80 39.41 37.27 39.17 36.04 36.75 40.85 42.14 40.59 42.80 41.57 34.52 28.74 23.27 29.29 33.90 28.30 33.29 34.36 31.62 27.03 28.57 27.79 30.33 35.53 37.31 37.83 38.95 40.73 42.47 44.23 44.48
42.00 36.90 38.95 36.56 39.11 39.93 39.92 39.14 37.97 37.76 42.63 42.83 40.13 39.89 37.94 34.62 35.65 35.52 37.59 38.79 41.19 42.26 39.97 38.67 28.84 30.39 33.35 34.74 34.89 33.99 32.69 32.84 25.91 30.48 24.13 30.70 32.57 35.44 38.40 38.37 39.44 42.68 43.63 44.41 43.59
38.51 36.28 38.59 37.66 41.64 39.53 39.17 37.23 36.78 38.36 40.15 39.01 38.27 40.03 39.99 36.42 36.53 34.18 36.58 36.19 35.90 37.90 36.68 38.44 29.31 31.62 27.45 34.22 34.07 30.50 34.33 34.28 33.20 33.07 32.56 33.59 33.15 38.98 40.61 41.02 41.71 41.16 43.86 43.86 42.98
40.95 42.25 39.33 37.89 39.47 37.92 37.41 37.15 37.90 40.46 42.61 42.97 41.38 39.99 38.31 38.47 40.89 41.00 40.57 40.19 39.22 36.57 36.16 35.93 32.16 28.61 24.09 31.61 31.67 26.30 32.29 33.62 34.26 35.03 34.70 29.64 34.89 39.58 39.44 41.30 40.85 41.60 43.25 42.87 41.69

GFSSW_sfc_wetblb_075.txt.gz
Wetbulb
56.39 56.24 56.05 55.66 55.58 55.17 55.03 54.48 54.56 54.84 55.10 55.05 54.98 55.18 55.76 55.69 55.27 51.84 46.98 50.45 51.55 59.16 60.65 57.18 53.19 54.32 56.48 54.73 54.49 52.38 43.73 41.57 44.12 44.03 46.79 53.00 50.66 54.73 53.19 50.01 50.48 49.99 59.53 63.82 66.74
55.83 55.62 55.43 55.37 55.30 54.91 54.64 54.48 54.36 54.03 54.26 54.03 53.94 54.17 54.68 54.84 50.51 46.66 53.00 57.59 58.74 58.66 55.35 52.76 49.69 51.68 51.18 50.71 52.40 45.46 41.12 42.91 48.22 48.31 47.65 50.59 51.41 52.25 51.61 48.90 47.60 55.44 63.44 65.33 65.76
55.37 55.37 54.89 54.50 54.54 54.32 54.07 54.03 53.90 53.81 53.71 53.65 53.74 53.70 53.81 52.82 44.55 43.35 55.96 57.87 58.79 58.53 53.95 55.19 53.86 50.64 47.51 47.89 49.16 46.70 41.43 47.04 48.02 49.30 49.63 48.98 49.77 53.13 50.97 47.21 48.11 52.76 61.51 63.69 64.08
55.16 55.06 54.68 54.39 54.13 54.09 53.88 53.80 53.69 53.68 53.18 53.14 52.87 52.85 52.73 48.83 32.64 49.91 56.90 56.54 58.18 55.90 52.89 52.97 50.72 46.33 44.89 45.20 47.66 42.86 47.56 48.20 49.29 49.83 49.05 46.66 49.23 50.61 51.59 48.55 52.28 50.90 56.54 61.53 62.72
55.03 54.57 54.18 53.96 53.96 53.98 53.89 53.66 53.35 53.36 53.09 52.68 52.53 51.32 48.66 41.38 40.54 50.70 54.37 53.29 52.90 53.71 49.82 49.99 47.74 45.59 42.42 44.02 45.08 44.25 46.09 48.79 49.78 49.67 47.77 48.82 46.25 47.14 47.25 49.32 52.92 53.50 55.48 56.68 59.51
54.04 53.98 53.60 53.69 53.89 54.00 53.99 53.91 53.69 52.93 52.68 52.56 52.42 50.98 44.12 35.72 48.81 50.16 50.01 49.95 49.56 49.75 49.26 50.64 48.69 48.17 45.48 43.81 43.76 45.77 47.51 47.98 48.11 47.68 48.80 47.15 46.27 47.37 47.42 49.77 50.56 52.05 50.83 50.83 54.43
53.38 53.19 53.20 53.17 53.74 53.62 53.55 53.57 53.53 53.13 52.44 52.19 52.21 49.40 43.00 39.61 49.16 50.11 49.96 48.39 48.69 47.10 45.02 49.94 52.07 48.54 44.73 43.02 47.17 45.85 42.71 45.68 46.16 45.85 45.55 47.45 43.92 44.97 48.92 49.89 47.79 47.26 48.31 49.89 51.07
53.26 52.91 53.28 53.46 53.35 53.16 53.04 53.36 52.86 52.75 52.09 51.61 52.04 47.65 38.57 48.62 48.26 47.58 47.77 46.35 48.08 48.14 46.28 47.27 50.09 48.11 46.51 47.74 44.15 43.02 41.72 38.51 44.59 45.26 46.09 45.16 37.91 46.49 49.49 47.24 47.25 46.68 47.03 48.14 49.89
52.46 52.22 53.25 52.96 52.86 51.79 52.01 52.33 52.48 51.80 51.17 50.87 46.86 43.86 37.74 50.66 45.37 47.08 46.17 43.95 45.52 46.39 46.84 47.99 48.51 47.34 46.27 40.97 36.38 39.58 36.08 36.43 40.90 45.74 44.01 42.39 38.30 45.69 49.09 47.51 45.29 46.76 47.75 46.96 47.72
51.93 51.96 52.39 52.84 52.20 51.37 50.95 50.50 51.13 48.93 48.83 49.12 47.27 37.60 41.58 40.23 45.33 46.42 46.32 46.82 43.39 43.99 43.12 43.40 43.94 43.07 42.05 38.50 31.03 33.01 34.20 36.28 35.76 42.37 42.19 40.31 39.77 44.67 46.40 46.44 45.75 45.31 46.63 46.59 46.53
51.65 52.02 52.25 52.74 52.13 51.24 47.38 46.32 40.70 38.45 42.73 38.34 38.37 38.23 41.28 45.39 46.97 44.55 46.01 43.32 41.56 39.27 35.41 42.33 38.63 36.60 37.90 39.36 38.67 37.31 36.09 34.72 38.12 41.86 40.06 38.83 40.11 42.99 45.04 44.42 43.69 44.27 45.34 45.66 47.43
51.37 51.94 52.20 52.47 52.07 50.59 44.99 39.98 40.92 41.50 34.61 40.95 41.79 41.36 43.56 44.95 37.96 41.71 45.55 39.18 37.15 32.20 34.62 35.91 35.27 40.03 42.69 41.03 40.48 38.58 35.57 34.30 37.62 42.29 41.46 38.66 39.22 42.79 44.99 43.58 44.42 45.30 45.54 46.07 44.45
51.23 51.74 51.99 51.98 51.68 46.12 41.33 40.61 45.51 45.11 31.64 36.78 40.03 39.45 40.69 42.25 36.96 37.93 43.03 39.00 34.24 33.02 33.40 33.05 37.00 42.86 41.51 39.66 37.97 37.86 34.29 34.31 35.86 38.72 40.12 37.04 34.17 38.63 43.65 45.17 44.45 46.70 46.84 46.19 44.94
51.20 51.38 51.34 51.63 45.39 42.96 40.53 45.25 45.93 44.63 23.04 32.02 35.52 38.73 41.35 41.64 35.84 43.50 44.09 39.34 35.85 31.75 33.26 33.35 39.12 40.32 39.24 37.66 39.11 35.67 40.11 40.29 39.35 35.20 30.02 34.83 25.03 32.91 39.46 43.03 42.99 44.36 44.52 43.84 44.06
50.94 51.32 51.10 51.06 43.57 39.93 43.87 45.90 44.94 41.98 15.63 33.38 35.52 43.80 41.92 36.75 36.63 38.36 45.06 40.62 33.65 34.16 34.51 32.61 37.72 37.54 38.21 37.99 40.30 35.84 41.70 40.36 39.81 37.01 30.76 31.52 26.41 29.91 37.06 39.16 42.38 41.32 41.03 42.40 43.71
50.92 51.46 50.55 47.20 45.93 45.13 45.91 44.83 42.69 25.25 17.18 31.45 36.49 34.33 34.39 36.24 36.95 39.69 39.35 40.94 39.71 35.48 36.33 38.55 42.96 40.94 39.80 41.26 40.83 40.57 38.57 38.89 38.25 36.10 28.64 29.69 27.80 26.33 32.33 38.92 39.36 40.39 40.71 43.18 44.28
50.93 51.52 48.08 47.77 40.79 45.58 44.97 38.44 23.57 20.95 32.93 30.68 33.53 35.70 33.65 33.90 35.45 36.65 34.77 32.89 31.95 28.77 30.51 36.14 35.78 39.90 42.28 37.48 39.78 38.67 34.26 28.98 27.25 27.86 22.12 31.78 27.83 30.38 34.96 38.51 40.53 40.70 41.67 43.02 43.84
51.54 51.93 49.19 48.03 46.57 47.23 43.52 27.51 18.25 27.96 29.30 35.46 34.98 35.21 32.55 35.46 34.41 35.30 32.90 30.41 33.49 34.90 32.32 29.96 27.76 36.37 39.49 37.60 35.70 35.36 34.72 30.04 24.20 20.25 23.29 31.41 25.48 31.34 35.60 39.63 42.90 44.11 44.06 44.62 44.27
51.13 45.35 44.54 46.49 47.47 44.52 38.67 23.88 27.36 30.26 33.84 32.04 31.68 31.79 33.81 35.13 34.89 34.20 33.43 34.88 37.85 39.92 30.88 28.32 29.92 37.49 39.96 40.59 39.59 35.89 32.67 36.40 28.80 26.74 22.89 26.18 27.80 34.10 36.67 38.27 41.05 43.22 44.90 43.64 44.80
42.31 41.84 42.92 48.16 46.64 41.20 32.52 29.60 30.71 37.40 36.35 35.97 28.81 34.56 32.34 34.34 33.98 34.00 35.92 38.52 37.50 39.49 38.71 32.74 28.98 36.97 38.22 40.68 39.85 38.30 38.91 30.72 28.81 22.93 20.27 23.27 23.57 26.56 30.93 35.48 39.09 40.76 42.85 44.16 44.93
41.58 39.20 44.59 48.04 44.97 36.90 30.28 31.90 35.43 40.14 39.46 35.88 35.16 33.73 33.26 33.84 35.03 33.55 34.58 37.56 40.05 39.29 40.31 36.69 31.63 34.08 37.17 35.64 33.76 35.41 34.42 34.32 32.69 30.24 23.12 17.82 23.39 32.51 34.43 37.61 37.53 39.17 42.28 44.72 45.04
39.13 33.50 46.00 46.55 34.45 36.28 35.78 38.79 41.14 40.70 41.28 40.17 38.11 36.92 34.43 34.77 33.67 33.45 33.02 36.30 41.27 40.36 37.01 39.33 35.10 30.47 33.53 39.18 39.75 38.67 36.36 34.50 25.15 24.48 26.65 22.68 25.46 35.75 34.74 37.28 38.64 39.57 42.49 44.42 44.15
36.33 37.23 45.87 43.30 28.47 34.46 36.45 38.72 40.94 39.15 39.44 38.91 37.76 39.04 38.43 34.96 31.78 35.27 35.56 40.52 41.44 39.18 36.09 38.17 30.78 25.81 28.68 33.56 36.02 32.58 36.38 36.79 32.73 31.03 25.50 23.35 24.54 36.80 37.31 37.20 39.21 39.40 42.13 43.69 43.56
37.94 31.08 36.43 40.07 39.92 37.61 36.58 36.21 38.06 41.30 39.98 40.76 39.00 39.60 36.84 34.92 36.64 34.15 35.15 40.04 41.24 39.24 43.21 40.71 33.02 25.60 22.72 27.35 30.99 26.82 32.71 32.33 27.35 21.62 25.54 25.06 28.48 34.53 36.84 36.78 37.55 39.36 41.35 43.19 43.16
36.59 36.38 38.15 31.67 34.22 38.51 38.93 38.88 36.99 35.93 40.38 41.08 38.95 37.82 35.77 31.73 33.02 32.85 35.58 37.02 39.55 41.83 38.69 36.68 27.33 29.14 31.74 33.86 33.91 32.07 31.80 31.11 24.20 29.57 24.43 30.25 30.72 34.83 36.93 36.83 37.27 39.00 40.66 42.57 42.43
33.49 33.73 36.25 34.14 36.79 38.17 37.58 35.86 36.16 37.82 37.91 37.87 36.94 38.63 37.12 33.82 33.65 31.59 34.39 33.78 33.52 35.84 34.74 36.59 27.23 29.43 24.91 32.69 32.47 29.54 33.01 32.93 32.10 32.34 31.30 32.08 31.91 37.72 40.35 39.50 39.04 39.55 41.40 42.22 41.55
37.04 38.12 38.05 35.57 34.97 36.24 36.33 36.87 37.37 39.58 41.22 41.85 39.56 37.96 35.75 36.73 38.77 38.48 37.34 37.42 36.20 34.13 33.93 33.63 29.64 25.59 21.34 30.49 29.98 24.93 30.50 32.11 32.33 33.13 32.83 28.56 34.00 37.70 38.12 39.96 40.45 40.54 42.36 42.56 41.60

GFSSW_sfc_wetblb_078.txt.gz
Wetbulb
54.72 56.10 55.99 55.72 55.48 55.41 55.21 55.11 54.87 54.72 54.40 54.69 54.58 54.61 54.73 55.26 55.40 51.93 47.01 50.89 52.21 57.47 57.53 54.31 54.01 52.54 55.47 52.80 55.30 50.58 40.76 41.08 41.91 43.08 45.06 51.14 49.83 53.49 54.43 49.88 51.06 51.85 58.83 62.84 65.49
55.31 55.88 55.76 55.26 54.86 54.78 54.69 54.54 54.44 54.30 54.28 54.14 54.00 53.94 53.86 54.16 50.43 47.61 52.85 56.72 58.00 58.92 52.38 50.15 49.88 49.87 49.81 50.37 52.27 48.86 39.63 41.49 47.32 47.90 46.81 49.95 50.94 50.98 50.01 50.02 49.79 58.33 62.89 64.45 65.10
55.41 55.61 55.29 55.08 54.87 54.68 54.58 54.36 54.25 54.07 53.97 53.70 53.62 53.58 53.23 51.83 43.72 42.90 55.60 57.64 57.99 57.95 53.64 52.19 53.30 49.53 46.89 49.74 48.26 46.81 41.59 45.59 47.26 50.37 49.46 49.28 49.10 51.57 49.34 47.21 50.37 56.82 61.45 62.62 63.40
54.55 55.09 54.73 54.48 54.38 54.58 54.66 54.67 54.40 53.96 53.14 53.37 53.03 52.41 52.09 48.44 30.86 47.61 55.89 55.77 56.37 54.76 52.59 49.69 49.95 45.95 43.98 45.28 47.27 42.53 45.77 46.04 48.24 49.65 49.08 48.14 50.05 48.65 50.08 50.58 52.27 53.05 62.81 62.00 62.00
53.64 54.15 54.00 53.84 54.06 54.29 54.52 54.35 54.44 54.17 53.30 53.15 52.53 51.39 48.23 40.73 39.79 49.12 53.56 52.98 51.44 53.13 49.88 47.77 46.87 46.43 41.56 44.77 44.48 43.16 44.79 47.25 48.60 48.87 48.40 49.06 47.29 46.91 49.50 53.89 52.57 53.15 60.92 60.95 60.82
53.64 53.84 53.54 54.03 54.06 54.00 53.97 53.79 53.61 53.74 52.87 52.34 51.89 51.69 43.39 34.48 46.64 48.80 49.07 49.67 48.53 47.52 49.53 48.84 47.80 49.06 44.99 42.63 42.66 46.59 46.30 46.49 47.37 47.19 48.22 46.44 46.68 47.30 51.35 54.46 50.67 51.67 54.10 59.00 60.62
53.22 53.01 53.16 53.38 53.72 53.69 53.03 53.11 53.32 52.98 52.47 52.54 51.11 49.16 42.63 38.54 46.74 48.21 49.07 48.25 48.32 46.83 46.31 48.26 50.52 48.20 45.85 41.68 45.58 44.65 41.81 44.43 45.86 45.47 45.52 47.20 43.85 44.54 48.14 49.50 49.28 48.80 48.81 50.45 54.54
52.94 52.60 52.44 53.15 53.40 52.73 52.35 52.60 52.59 52.09 52.16 52.12 51.59 47.04 37.74 48.33 47.04 47.51 46.60 46.39 48.51 48.44 46.80 48.11 50.71 48.54 46.58 46.32 43.10 40.49 42.02 35.77 42.75 44.49 46.03 46.24 38.76 45.75 49.12 47.84 47.27 48.26 46.78 46.67 49.43
52.57 52.37 52.93 52.86 53.12 52.43 52.18 51.68 52.22 51.75 51.97 51.42 46.59 43.51 36.59 49.98 44.66 46.44 45.94 44.01 45.54 46.53 46.75 48.49 49.57 46.80 46.32 39.40 35.81 38.46 31.63 34.90 38.90 44.54 43.91 42.83 39.02 45.34 48.80 47.09 46.29 46.63 46.41 46.46 46.89
51.82 52.07 52.77 52.81 52.84 52.27 51.19 50.58 50.46 49.24 48.86 49.19 46.96 37.27 40.08 40.13 44.83 45.83 46.31 46.81 43.74 43.63 41.96 43.27 44.41 42.13 41.88 37.81 29.44 33.32 34.94 34.08 34.28 40.54 40.80 39.42 39.00 43.47 46.08 45.54 44.88 45.26 44.90 45.36 46.46
51.72 51.97 52.55 52.48 52.51 51.96 46.39 43.70 38.46 36.80 41.50 37.77 38.32 37.60 40.82 44.55 45.76 44.03 45.98 42.75 41.86 39.99 33.79 41.01 37.13 34.73 37.75 39.40 38.80 36.53 35.29 36.27 36.15 40.70 39.41 38.16 39.07 42.60 45.42 43.70 43.48 44.35 44.74 45.59 46.95
51.55 51.95 52.17 51.91 52.30 50.22 43.69 39.18 40.40 39.66 32.86 39.95 41.08 41.01 43.15 43.75 37.86 41.04 45.55 37.97 36.31 31.29 33.92 35.39 32.81 39.25 41.96 40.90 39.39 37.95 34.89 32.80 36.46 41.24 39.42 38.84 39.09 41.85 44.09 43.43 42.72 44.19 45.05 45.78 44.99
51.48 51.80 52.04 51.52 51.50 44.65 40.61 39.89 44.92 44.00 31.07 36.15 39.92 39.32 40.42 41.51 36.34 37.25 42.22 38.01 33.77 32.08 32.06 31.22 34.63 41.30 41.12 38.68 37.35 36.19 34.02 33.14 33.37 37.16 37.76 36.40 36.17 38.80 41.99 44.12 44.16 45.17 45.63 46.19 44.77
51.43 51.76 51.78 51.46 44.58 42.41 39.69 44.34 44.72 43.03 24.00 32.59 35.81 38.20 40.99 40.91 35.03 43.11 43.07 38.58 34.81 31.32 32.99 32.10 37.11 37.79 37.06 37.17 38.55 33.92 39.77 39.10 38.13 33.04 28.90 35.81 27.37 33.70 40.46 41.17 43.44 43.00 43.49 43.55 43.62
51.11 51.49 51.86 50.67 42.31 39.14 43.09 45.31 43.55 38.84 13.92 34.74 35.59 44.52 41.66 35.95 35.72 38.21 43.64 39.57 32.59 32.77 32.87 29.78 33.65 35.65 35.27 37.73 39.72 36.03 41.35 39.38 38.32 34.70 32.61 30.74 28.40 30.41 34.56 37.34 41.14 44.85 44.92 43.20 42.50
51.18 51.81 50.96 46.46 45.93 44.07 45.01 44.06 40.65 19.26 16.46 31.20 36.16 34.15 34.14 36.19 35.81 39.39 38.65 40.97 39.61 35.33 35.04 34.66 41.96 40.48 39.13 40.95 40.77 41.20 39.46 39.26 38.97 36.97 29.11 29.93 29.63 27.03 31.14 36.08 39.46 43.88 43.59 41.72 42.19
51.29 51.87 48.85 47.11 40.06 46.33 45.39 37.35 20.70 17.59 32.88 29.60 32.79 33.62 32.27 32.66 33.19 35.01 33.26 31.06 29.73 24.74 28.68 33.57 37.21 40.37 42.40 36.94 40.26 37.65 34.71 26.89 26.64 27.81 22.71 30.24 28.88 32.35 33.15 37.13 38.98 41.08 40.15 42.11 43.26
51.51 51.90 48.32 47.17 45.67 45.98 43.83 26.26 19.88 26.39 30.07 35.51 34.30 34.61 32.36 34.90 33.46 34.41 32.38 30.54 34.48 33.49 32.92 29.82 27.43 36.70 39.98 38.36 36.55 35.72 31.29 21.83 17.70 21.13 22.52 30.16 25.70 30.90 34.20 36.69 39.10 40.69 42.22 42.63 42.93
49.77 43.89 43.46 45.79 46.59 43.59 35.90 23.37 28.04 30.94 34.26 32.67 33.79 31.93 32.60 34.93 34.07 33.81 31.64 32.41 35.64 34.94 31.60 28.31 29.76 38.37 40.23 40.40 38.35 35.84 33.25 35.56 25.14 24.20 19.06 25.29 28.63 33.55 35.31 35.43 38.42 40.03 41.81 41.67 43.41
41.61 41.17 42.32 47.39 45.60 40.39 31.01 27.81 30.36 35.61 37.09 35.59 30.09 34.45 32.73 35.08 34.55 33.08 34.32 38.38 37.34 38.08 39.66 33.14 29.28 36.80 39.00 40.87 39.41 38.22 38.44 31.12 31.28 23.89 19.06 22.29 23.45 27.54 31.11 34.53 38.29 39.57 40.20 42.40 44.81
41.32 38.99 44.24 47.00 44.08 35.55 27.30 25.88 33.35 38.98 38.77 34.76 32.99 33.00 32.81 34.45 34.46 33.06 33.16 37.28 39.22 38.22 38.79 35.40 31.86 33.52 36.63 35.08 34.71 35.85 34.43 34.38 31.62 26.61 19.80 17.06 23.15 31.76 33.60 37.14 38.40 39.41 41.75 42.77 43.68
37.97 32.15 44.85 45.40 33.33 33.17 29.57 37.61 40.68 39.14 39.90 38.66 36.72 35.76 33.29 32.94 32.27 31.79 32.89 36.25 40.87 39.20 35.99 37.26 34.27 29.33 32.40 37.60 40.23 37.80 35.06 33.34 21.87 25.45 20.91 20.16 24.16 34.07 34.05 37.40 39.35 39.62 42.59 43.07 43.48
35.77 36.09 43.55 41.15 28.54 34.49 36.11 37.51 40.89 39.20 38.01 37.86 36.75 37.62 37.05 33.58 30.80 33.31 34.92 40.19 40.78 39.01 37.23 37.92 31.34 27.01 29.61 33.83 37.40 35.01 37.31 37.24 31.85 25.87 19.71 19.30 24.31 35.90 35.30 36.43 39.35 39.69 42.05 42.37 42.54
34.72 28.93 35.23 37.43 37.02 32.73 34.36 35.42 37.51 42.55 39.12 40.02 37.90 38.25 35.65 34.09 35.44 33.33 34.22 39.65 41.11 38.74 43.76 40.70 31.88 25.86 23.25 26.78 30.56 27.65 32.81 35.18 28.58 19.04 23.05 23.29 27.44 33.18 34.97 36.82 37.60 39.56 42.42 41.62 42.48
33.90 32.24 33.78 26.75 31.47 34.15 35.71 36.32 35.94 36.14 40.19 40.81 38.45 37.41 34.62 31.06 32.26 31.67 34.56 36.26 39.26 41.24 37.99 35.72 27.19 29.18 31.03 33.46 32.24 30.50 30.81 30.40 25.89 28.27 24.78 28.58 29.88 34.46 37.16 36.74 38.65 39.34 41.56 41.77 41.60
30.46 28.66 33.55 31.72 34.36 33.20 35.68 34.11 35.33 37.40 37.80 36.87 36.30 37.65 35.79 32.61 32.47 30.59 32.88 32.45 32.50 35.57 34.28 35.24 28.17 28.08 24.52 31.35 31.00 29.03 32.05 31.61 30.75 31.34 30.57 30.99 30.96 38.76 39.27 38.43 37.26 36.95 39.34 41.38 41.49
34.54 36.96 37.14 30.92 31.15 29.93 31.85 34.24 36.12 39.33 40.04 41.70 39.27 36.88 35.33 35.83 37.48 38.06 37.50 36.35 34.79 33.46 32.98 32.59 29.03 25.32 20.86 28.95 29.12 24.37 29.65 31.21 31.24 32.55 32.98 28.54 33.30 35.69 37.69 38.49 38.49 38.46 40.03 41.57 41.60

GFSSW_sfc_wetblb_081.txt.gz
Wetbulb
55.25 56.34 56.52 55.96 55.71 55.42 55.06 55.17 55.10 55.04 54.79 54.59 54.55 54.57 54.43 54.46 54.63 52.12 47.33 51.02 53.11 57.31 56.99 52.13 52.86 51.11 53.98 51.21 53.41 49.39 41.03 40.38 40.29 40.40 42.75 49.93 49.07 52.16 52.51 49.32 50.67 49.63 57.25 61.02 66.06
54.00 55.85 55.84 55.64 55.50 55.24 54.97 55.07 54.90 54.68 54.43 54.41 54.27 54.08 53.94 53.76 49.13 46.70 52.88 56.67 57.95 58.18 52.94 49.02 47.59 49.56 47.46 48.75 50.21 46.42 42.20 40.84 45.11 45.13 44.76 49.51 49.98 51.09 48.98 47.82 48.81 49.84 61.10 64.27 67.28
54.15 53.80 54.71 54.88 54.72 54.79 54.97 55.01 54.98 54.76 54.50 54.11 53.74 53.24 52.85 51.24 41.99 41.32 54.92 57.79 57.93 56.79 53.31 52.33 50.52 49.26 44.96 46.85 47.16 46.54 40.45 44.33 46.53 47.53 49.18 48.68 48.99 52.40 49.40 46.12 48.83 48.56 53.03 61.93 64.54
54.15 54.52 54.61 54.41 54.86 54.90 54.95 54.88 54.55 54.71 54.35 53.66 53.19 52.72 51.72 47.50 29.99 46.57 55.10 55.51 56.42 55.09 52.18 49.97 47.93 46.15 42.29 42.31 46.51 42.03 45.44 45.41 47.64 49.28 48.48 46.47 48.70 48.49 50.35 49.54 52.18 52.54 52.74 58.18 61.36
53.97 53.99 53.69 53.63 54.14 54.54 54.48 54.11 53.90 53.93 53.98 52.71 52.70 52.05 47.79 39.71 39.17 48.33 53.49 52.38 50.47 50.22 48.16 47.65 45.35 45.66 40.99 42.61 45.79 44.78 46.26 46.98 47.24 47.87 47.75 48.59 45.98 47.07 48.64 52.47 53.35 53.79 52.12 58.56 60.51
53.57 53.34 53.11 53.28 53.11 54.01 53.26 52.93 53.16 53.23 52.82 50.87 51.88 52.05 43.35 34.11 45.12 47.55 48.18 49.37 47.89 46.98 48.07 48.81 46.46 47.29 44.12 42.37 44.22 46.95 47.00 45.35 46.26 45.60 46.23 45.26 45.26 47.50 48.22 52.49 52.82 53.06 49.71 58.74 59.96
52.76 53.14 52.87 53.54 53.57 53.74 52.91 52.85 52.89 52.59 52.15 50.86 52.11 48.96 41.60 38.03 45.75 46.77 48.75 47.61 47.96 46.80 43.99 49.89 49.72 47.36 45.97 41.82 46.32 45.67 42.30 45.14 43.83 44.25 44.14 45.22 42.94 43.54 49.14 52.78 51.76 51.83 48.59 52.21 58.96
52.50 52.61 52.78 53.46 53.54 53.17 52.68 52.13 52.68 51.66 52.56 51.77 51.83 46.15 36.57 47.50 46.26 46.80 46.94 46.41 48.09 47.79 46.09 47.01 50.85 47.36 46.36 44.89 42.01 41.34 42.18 37.43 41.97 44.03 44.53 44.05 37.43 44.71 51.33 50.72 50.06 51.12 49.92 48.80 51.41
52.05 52.43 52.75 53.18 53.20 52.88 51.67 51.43 52.27 52.21 51.79 51.91 45.53 41.31 35.05 48.85 43.90 45.58 46.04 44.07 45.78 45.89 45.81 47.06 49.37 45.27 46.00 40.01 35.32 37.45 30.29 35.16 37.50 43.43 42.05 40.70 36.82 45.25 49.05 48.92 47.54 48.18 50.64 47.63 48.26
52.01 52.13 52.67 52.62 52.64 52.55 50.45 50.34 50.33 49.30 48.88 48.39 46.46 35.74 39.74 39.15 43.58 45.29 45.23 46.07 43.56 42.02 39.93 42.86 43.88 41.03 41.84 37.91 28.88 30.61 30.95 32.05 32.67 39.68 39.53 38.39 36.90 44.15 47.65 47.81 47.98 48.13 47.58 46.51 47.23
51.77 52.04 52.51 52.53 52.28 51.44 45.42 41.27 37.40 35.85 39.81 36.74 37.70 37.06 40.18 43.61 46.44 43.88 44.92 42.85 42.53 39.10 32.60 40.64 37.21 34.33 36.86 39.82 37.02 36.58 34.44 33.32 35.51 39.45 39.33 37.14 37.26 42.23 44.32 44.70 44.86 46.13 48.86 46.49 46.80
51.55 52.04 52.39 52.16 51.98 49.06 43.10 37.41 39.04 38.22 31.10 39.21 40.40 40.30 42.70 42.91 37.20 41.12 44.89 37.37 37.09 31.96 33.70 34.60 32.79 37.72 40.59 41.00 38.56 37.57 34.25 32.54 35.88 39.62 38.28 37.11 37.65 41.99 44.03 43.99 44.49 44.74 45.61 45.01 44.82
51.52 51.70 52.01 51.48 50.78 44.13 40.07 38.94 43.92 42.53 30.16 35.99 39.89 38.98 39.99 41.00 35.57 37.17 41.43 37.98 34.81 31.88 31.11 30.81 33.77 39.15 39.99 38.89 36.98 35.31 34.38 32.97 33.16 36.01 36.31 34.78 34.45 38.96 43.02 43.04 43.94 44.55 45.07 44.55 44.64
51.15 51.54 51.78 51.35 43.94 41.48 38.93 43.54 44.04 41.80 19.78 32.26 35.80 37.49 40.63 40.01 34.20 42.80 42.64 38.10 35.04 31.40 32.11 31.57 36.73 37.38 36.44 37.10 38.95 34.08 38.19 37.32 36.74 31.72 27.39 35.41 25.51 32.50 40.66 41.60 42.29 44.41 43.53 43.44 42.74
51.13 51.53 51.70 50.08 41.50 38.41 42.35 44.58 43.15 36.32 9.38 34.70 35.64 43.81 41.19 34.48 35.04 36.94 42.81 38.38 31.49 32.33 31.39 30.54 32.71 35.73 33.92 37.60 39.98 37.10 41.34 38.74 37.75 32.71 27.79 27.78 27.51 30.30 33.54 36.58 41.14 43.31 45.04 43.49 43.46
51.25 51.73 50.00 45.72 44.13 43.53 44.29 43.62 38.98 19.31 13.77 30.31 35.92 34.22 33.99 35.07 34.71 38.57 37.45 39.84 38.80 34.69 33.53 33.41 38.52 39.28 38.42 40.20 40.83 41.66 39.52 38.75 37.86 33.99 26.82 28.54 29.07 27.86 30.76 34.97 36.93 41.94 43.11 43.61 42.68
51.70 51.76 48.60 46.15 39.69 44.97 44.88 35.69 20.74 19.42 33.27 30.32 32.65 33.12 31.88 30.94 30.08 34.48 32.02 29.67 28.84 22.26 27.17 32.68 35.57 39.68 41.40 34.73 40.77 39.33 34.45 27.58 26.82 27.24 23.83 28.69 28.36 32.79 34.10 35.36 37.13 38.73 40.64 41.08 40.92
51.80 51.03 49.01 46.31 45.28 46.05 42.08 26.64 20.36 26.64 29.90 35.90 35.38 34.70 31.08 33.72 33.66 32.88 30.44 24.84 31.87 32.42 28.64 28.37 26.89 35.78 38.67 37.24 36.62 34.44 31.86 21.60 17.60 22.70 23.62 28.48 25.15 30.69 35.19 37.37 37.81 38.21 40.47 40.28 40.94
49.37 43.02 42.86 44.86 45.75 45.56 34.19 23.95 29.51 30.88 34.78 32.72 34.71 31.09 32.27 34.81 33.10 32.03 29.59 30.87 32.74 33.66 30.65 29.15 29.90 38.35 39.49 40.67 39.61 35.85 28.64 33.30 24.22 22.35 17.73 24.42 27.91 32.91 33.56 35.60 35.76 36.70 39.17 40.07 41.35
40.97 40.47 41.63 46.44 45.03 40.36 29.85 30.20 29.21 34.53 35.72 35.46 29.38 32.47 29.82 34.34 32.29 32.61 32.05 35.76 35.01 35.89 38.67 32.41 29.95 37.29 38.66 40.98 39.38 35.89 37.89 28.59 31.16 13.97 17.28 21.21 22.28 26.83 30.72 34.09 35.24 36.74 37.88 39.58 42.08
40.64 37.90 43.11 45.94 43.15 33.63 24.70 25.40 31.66 37.85 37.95 34.49 31.52 31.78 32.57 31.01 34.79 32.72 32.48 37.22 39.70 38.49 37.79 35.59 32.79 33.45 37.40 35.71 34.28 35.36 34.04 33.06 29.65 25.69 19.12 17.05 22.82 30.02 31.46 34.72 35.66 37.14 39.43 41.10 42.45
36.98 30.03 43.55 43.86 31.19 31.06 25.71 34.60 39.76 38.13 38.87 37.57 35.98 34.78 32.17 31.75 30.70 32.51 32.65 35.29 40.43 39.17 34.98 37.12 34.02 29.56 32.65 37.36 38.99 36.27 34.41 33.46 21.47 25.70 25.07 16.93 23.01 32.39 32.16 34.42 38.00 38.70 41.40 41.90 42.65
34.40 34.74 41.82 40.25 25.20 25.75 33.66 36.22 39.02 38.46 37.24 37.25 36.07 37.09 35.53 31.82 29.49 32.98 35.61 40.53 39.95 38.33 35.52 37.36 31.20 27.61 28.79 33.60 36.84 34.43 36.00 36.45 31.28 25.28 18.69 18.63 23.97 34.73 32.98 35.11 38.68 39.88 41.36 42.06 41.95
33.61 28.51 33.45 35.86 34.75 30.64 31.60 31.65 34.84 40.40 38.23 38.98 37.33 37.35 34.67 31.54 33.91 31.83 33.73 39.67 41.24 37.72 43.78 40.06 31.54 26.25 23.11 26.27 33.26 31.92 33.73 35.13 33.29 26.88 23.13 21.77 27.62 31.77 32.98 35.06 37.85 41.42 42.47 41.37 42.39
31.91 30.10 34.72 24.62 29.41 32.49 33.40 34.24 33.80 34.01 38.21 39.09 36.33 36.18 33.80 29.65 30.84 30.66 33.54 35.90 38.61 41.66 37.59 34.98 27.75 28.18 29.88 32.32 31.67 30.69 30.68 33.20 31.45 31.14 25.14 27.79 27.84 33.25 34.19 35.40 37.26 40.34 41.99 41.39 41.57
29.76 26.90 30.61 29.17 32.03 31.88 33.51 31.81 33.21 35.81 36.18 34.96 35.07 36.69 35.55 31.58 32.18 29.69 31.49 31.71 32.21 34.56 34.22 34.44 26.49 28.15 25.26 31.43 31.18 29.66 31.31 33.12 33.58 32.88 30.59 30.18 30.10 35.87 37.73 36.86 37.13 38.02 40.45 41.01 41.70
32.63 34.33 33.53 28.76 28.31 28.24 29.19 31.37 33.30 34.91 38.46 39.87 39.65 36.10 34.77 35.56 36.49 36.42 36.53 36.21 34.38 32.68 32.37 31.93 28.74 24.72 19.34 28.70 28.42 23.51 28.97 30.60 31.72 31.55 32.99 28.83 34.06 35.38 35.27 37.75 37.46 37.15 40.22 41.57 41.52

GFSSW_sfc_wetblb_084.txt.gz
Wetbulb
54.53 54.33 55.27 55.32 55.64 55.45 55.48 55.50 55.55 55.52 55.32 55.26 54.85 54.61 54.55 54.34 53.96 50.65 47.02 51.28 52.82 56.94 56.23 52.92 51.65 50.82 53.08 51.70 52.80 49.87 43.10 41.06 39.87 39.53 41.98 48.64 47.93 50.68 51.91 50.03 49.37 49.17 53.02 57.97 63.35
54.13 54.09 55.04 55.51 54.99 55.11 55.25 55.34 55.37 55.26 55.18 55.20 54.79 54.17 53.87 53.39 48.09 45.54 52.29 57.15 57.34 58.11 52.72 50.14 47.11 49.02 47.20 47.03 49.80 47.90 42.58 39.96 44.61 43.21 42.64 46.62 48.53 49.89 49.36 48.93 47.61 48.23 52.95 62.12 66.99
54.52 54.44 54.88 54.69 54.76 55.01 55.31 55.18 54.82 54.49 54.52 54.39 53.74 53.86 52.56 50.54 40.20 39.89 55.35 56.70 58.16 57.11 52.88 51.50 50.58 48.44 44.28 44.50 45.72 47.31 39.84 43.54 45.13 46.83 48.23 47.55 47.76 52.00 47.56 46.25 48.42 47.27 50.10 54.06 60.11
54.17 54.11 54.04 54.03 53.72 54.08 54.92 54.41 53.74 53.75 53.74 53.94 52.46 52.40 52.19 46.59 28.62 43.86 54.79 55.86 56.00 54.92 51.60 49.09 47.83 44.84 41.65 40.54 44.35 43.86 46.73 44.82 46.22 48.80 48.04 46.28 48.24 47.31 49.03 49.31 51.11 50.78 51.33 52.16 53.18
53.38 54.10 53.70 53.72 53.81 53.79 54.18 53.48 53.51 53.35 53.44 52.29 52.02 51.58 47.15 38.73 38.04 46.92 52.53 52.20 50.01 50.33 48.70 46.56 44.84 44.78 40.64 40.83 42.38 44.41 45.70 46.21 46.41 47.79 47.00 47.18 45.12 45.96 48.08 52.46 52.50 53.19 53.49 51.18 51.97
52.74 53.33 53.27 53.35 54.02 54.08 53.53 52.95 53.21 52.89 52.46 51.43 50.79 51.48 42.73 32.43 43.75 46.64 48.07 48.02 47.85 46.75 47.08 47.67 45.66 46.19 44.44 41.88 41.73 43.71 44.96 44.86 46.29 46.55 47.21 44.80 44.17 45.77 46.63 52.32 52.36 52.09 52.39 51.77 51.44
52.64 52.83 52.83 53.25 54.02 53.78 53.01 52.65 53.14 52.29 52.08 50.92 51.25 48.62 40.58 37.04 44.97 46.95 48.47 47.24 48.02 46.74 43.56 48.07 47.94 45.74 46.34 41.65 45.45 44.08 40.40 43.24 43.79 45.16 43.00 43.90 40.49 42.57 46.61 51.87 51.63 51.90 50.45 51.63 51.89
52.75 52.59 52.85 53.09 53.48 53.27 52.13 52.48 52.50 52.42 51.31 51.20 51.72 44.33 35.36 46.46 45.41 47.98 47.46 46.07 47.68 47.83 46.53 46.56 46.44 45.69 45.44 44.80 41.81 40.76 40.42 34.09 43.34 43.19 43.77 42.65 36.28 42.72 48.51 48.84 49.78 51.58 51.35 50.70 51.64
52.45 52.56 52.76 52.95 52.89 52.82 51.08 51.24 51.98 52.22 51.95 51.53 44.42 40.14 33.48 47.69 43.08 44.54 46.20 43.60 45.58 45.58 46.41 46.60 44.81 44.10 44.96 40.04 34.84 38.17 34.29 35.03 36.92 43.84 41.32 40.02 35.35 42.41 48.73 47.97 48.24 51.20 50.57 50.39 50.35
52.43 52.40 52.71 52.98 52.37 52.17 49.86 50.16 49.99 48.99 48.05 47.53 46.01 34.68 39.44 38.12 43.01 44.65 44.73 45.80 42.72 41.88 40.83 41.90 42.97 38.76 39.63 38.25 26.75 31.35 33.14 36.07 34.37 39.75 40.96 36.91 35.62 40.30 47.46 47.17 46.85 49.62 49.96 50.02 48.35
52.36 52.31 52.65 52.83 51.94 50.06 45.39 40.19 36.67 34.96 39.12 35.75 37.10 36.09 39.97 44.16 46.77 43.07 44.03 42.69 41.95 38.74 32.17 35.31 35.18 31.21 35.88 39.22 35.09 34.47 34.25 33.42 36.64 39.64 39.67 35.61 37.50 39.06 42.55 46.26 46.83 48.24 49.05 49.04 48.68
52.13 52.27 52.55 52.12 51.44 48.16 42.39 36.36 37.63 37.56 31.23 38.18 39.45 39.57 41.91 42.43 36.44 40.26 44.23 35.55 36.12 31.79 33.55 32.51 30.70 36.61 40.40 39.31 38.31 34.91 34.45 33.22 35.99 38.67 37.66 36.34 36.60 40.35 41.08 42.36 45.81 47.66 48.55 49.39 50.07
51.87 51.99 52.02 51.86 50.47 43.59 39.03 38.06 43.30 41.56 30.42 35.28 38.98 38.41 39.28 40.55 34.93 36.30 40.53 36.19 34.04 31.83 31.45 28.85 34.12 40.12 37.72 37.27 36.86 34.17 33.71 32.34 32.68 36.27 35.54 34.38 33.56 37.21 40.33 41.47 41.93 44.83 48.93 50.10 50.43
51.72 52.03 51.62 50.63 43.30 40.69 38.02 43.01 43.21 40.39 19.70 31.98 35.43 36.66 40.09 39.38 33.53 42.19 42.41 36.84 35.04 31.48 31.22 32.05 38.19 37.13 35.37 34.10 37.51 32.58 37.79 37.24 34.59 32.33 29.75 33.07 26.33 30.92 37.93 39.86 40.46 42.55 42.88 46.12 47.98
51.49 51.90 51.63 49.54 40.61 37.74 41.48 43.92 41.84 35.32 10.23 33.54 35.87 43.33 40.66 33.55 33.88 35.95 42.00 38.11 31.94 32.24 30.66 29.19 33.54 34.52 32.91 34.69 39.35 35.74 39.89 37.65 35.09 31.10 28.31 26.99 27.02 29.78 32.57 35.61 41.19 43.21 43.47 44.44 45.18
51.08 51.34 50.54 45.44 42.68 42.24 43.85 42.73 37.56 19.44 12.04 29.39 36.20 33.99 32.89 34.19 33.85 37.61 36.39 39.14 39.11 34.24 33.19 32.94 37.84 37.58 35.90 36.79 41.04 41.27 38.59 37.84 35.89 31.58 22.88 27.46 27.94 26.40 29.69 34.02 35.21 39.86 43.09 44.91 45.16
51.52 51.49 48.68 45.41 39.24 44.24 42.04 35.10 20.11 14.45 30.87 30.17 33.06 33.24 30.03 29.18 30.21 33.17 30.77 27.98 26.06 22.40 24.38 32.17 34.52 39.21 39.95 33.93 40.53 39.95 32.74 28.40 27.06 26.66 22.51 27.57 26.75 31.28 32.37 34.85 36.52 37.79 40.32 42.65 43.98
51.21 50.66 49.59 45.77 46.56 46.30 38.57 25.88 13.41 24.87 20.81 35.10 35.73 34.09 28.43 32.22 31.79 31.88 29.27 24.10 29.57 29.47 24.19 25.60 26.09 35.52 39.26 35.62 35.64 36.72 31.51 21.12 16.18 20.36 22.20 28.32 24.63 30.32 35.20 37.29 38.36 38.79 39.31 39.97 40.77
48.53 42.25 42.25 44.30 46.20 45.71 33.29 19.91 22.06 22.66 33.75 32.77 34.23 28.63 31.83 34.21 33.39 32.34 29.91 25.42 29.18 31.95 28.59 27.38 29.44 37.59 38.39 40.25 39.44 35.26 31.13 31.06 22.83 20.11 19.31 24.25 26.41 32.81 33.07 34.51 35.22 36.00 37.14 37.82 38.85
40.60 39.81 40.82 45.44 46.57 41.87 27.20 27.14 26.09 33.91 34.34 35.82 28.66 31.11 25.86 32.33 31.45 31.26 29.98 33.37 33.27 33.46 37.11 32.71 29.44 36.34 36.52 40.59 39.43 36.28 36.93 26.84 27.43 14.91 16.84 20.67 19.83 26.14 30.72 32.80 33.74 35.41 35.83 37.65 39.88
40.04 37.67 41.93 44.76 45.00 32.38 22.21 23.40 30.23 36.65 37.03 33.84 29.72 29.84 31.16 31.02 33.07 30.35 32.36 36.25 37.36 35.82 36.86 35.46 32.38 33.49 35.16 34.02 33.99 35.23 30.84 32.45 29.25 23.92 18.16 16.60 23.02 29.14 30.50 32.37 32.64 35.01 36.69 38.36 40.71
36.21 29.68 42.19 42.93 29.06 28.83 24.51 32.96 39.13 37.42 37.86 36.20 35.10 33.69 31.32 30.39 30.56 33.07 34.03 36.44 40.75 39.51 33.72 36.79 34.07 29.47 32.61 37.34 38.89 35.59 33.29 32.03 22.77 23.14 23.49 17.21 23.54 32.26 31.07 32.02 33.55 36.33 38.88 40.05 41.63
33.25 33.31 40.59 38.72 24.09 24.28 31.96 34.69 37.46 36.95 37.44 37.50 36.34 36.41 34.68 31.44 28.64 31.49 35.69 40.39 40.79 39.41 35.66 36.76 30.87 27.43 29.38 32.39 36.13 33.65 34.03 33.06 28.52 25.95 24.85 19.01 24.11 34.04 32.41 33.92 35.25 37.30 39.15 40.42 41.16
31.76 26.12 31.19 34.06 33.24 29.88 31.86 30.26 33.31 38.52 37.76 38.36 37.97 38.42 34.27 30.53 32.84 30.68 34.37 38.87 41.33 39.48 43.27 40.47 31.86 27.39 23.82 26.27 31.85 30.88 32.44 33.19 27.23 18.83 23.57 22.05 26.08 32.27 33.64 34.22 35.45 37.83 39.58 39.61 40.62
29.69 29.90 33.61 22.48 26.04 29.67 31.53 32.74 32.56 32.19 37.05 38.67 37.77 37.39 34.35 29.73 30.41 29.84 34.52 37.11 39.33 40.89 38.22 35.54 27.75 27.92 29.20 31.17 31.62 30.24 30.54 31.69 27.73 29.31 24.69 25.39 27.87 32.82 34.23 33.87 35.19 39.43 40.65 40.53 40.42
28.25 25.98 28.74 26.23 28.55 28.50 30.74 30.08 29.11 31.93 34.32 33.63 34.92 37.47 36.86 32.80 30.33 28.31 32.02 32.34 33.46 36.27 34.61 33.80 28.65 28.64 25.36 30.71 30.20 29.27 30.62 32.22 32.56 32.32 30.09 30.40 29.10 34.38 35.66 33.42 35.31 38.20 40.36 40.89 41.39
31.34 32.76 30.77 27.77 24.93 25.45 25.76 25.71 27.76 30.54 33.05 37.60 35.18 33.28 34.30 36.16 36.75 35.25 35.01 35.65 34.31 32.80 32.87 31.39 28.09 25.25 20.32 28.24 27.97 23.83 28.60 30.92 32.27 32.63 33.45 28.50 34.34 36.05 33.87 35.97 36.74 37.39 40.53 41.93 41.45

GFSSW_sfc_wetblb_087.txt.gz
Wetbulb
54.42 54.95 54.90 56.41 55.50 55.58 56.09 56.07 55.92 55.56 55.57 55.48 55.60 54.80 54.39 53.65 53.32 50.18 46.10 51.35 53.24 57.28 57.23 53.31 52.18 52.32 53.77 50.90 54.02 50.71 43.95 41.69 42.99 42.58 45.69 49.43 49.33 51.46 53.52 51.69 52.39 54.20 57.28 59.77 65.39
53.96 55.56 54.99 55.19 55.00 54.74 54.64 55.68 55.36 54.87 54.74 54.67 54.81 54.05 53.32 52.64 47.96 44.95 51.07 55.69 57.83 57.96 52.51 49.82 47.65 50.24 48.64 47.86 50.30 48.18 43.40 43.24 46.32 45.87 46.43 48.76 49.18 50.70 50.64 50.12 49.95 51.50 54.92 58.11 62.90
54.00 54.55 54.97 54.50 54.33 54.35 54.36 55.41 54.34 53.89 53.65 53.96 54.18 52.45 52.09 50.77 41.00 39.97 54.99 56.84 57.23 57.17 52.90 51.26 50.66 48.19 45.81 47.79 46.95 46.95 41.95 45.78 46.42 47.83 49.00 48.31 49.69 52.44 49.93 48.22 51.37 51.03 52.81 55.81 57.35
54.02 53.97 54.55 53.86 54.89 54.74 54.94 54.36 53.70 53.61 53.76 53.65 52.57 52.58 52.71 46.84 29.16 43.90 54.08 55.34 55.78 54.67 51.67 47.98 47.66 44.76 43.38 42.89 46.25 43.23 46.71 46.45 47.36 49.39 48.98 47.95 50.43 49.95 50.13 50.77 53.26 53.37 54.48 54.29 54.05
53.74 53.61 53.60 53.57 54.70 54.76 54.36 53.75 53.52 53.83 52.68 52.27 51.97 52.88 46.97 39.21 38.06 46.85 52.69 52.01 49.51 49.13 48.17 45.66 43.21 43.68 41.11 42.71 44.95 43.99 46.00 47.42 48.18 48.79 48.58 48.97 48.08 49.08 49.95 52.42 53.79 54.30 54.54 53.90 53.93
53.68 53.62 53.47 53.68 54.18 54.33 53.67 53.05 53.75 53.03 52.35 51.23 51.26 51.50 42.82 32.66 44.37 48.07 47.91 47.88 47.78 46.55 44.97 47.62 44.39 45.83 43.71 42.15 42.49 45.20 45.94 46.78 47.38 46.94 48.13 46.46 46.39 48.40 49.53 52.15 53.08 53.80 53.61 53.94 54.50
53.53 53.30 53.22 53.65 53.75 53.84 52.99 53.30 53.21 52.67 51.94 51.71 51.83 48.04 40.65 37.12 46.39 48.39 48.98 47.19 47.97 46.83 43.04 47.73 47.78 44.93 45.35 42.37 45.32 45.54 41.43 43.81 45.25 46.54 45.40 46.40 43.19 44.16 49.11 52.13 51.61 52.36 53.82 53.86 54.28
53.40 53.21 53.28 53.39 53.36 53.28 52.02 52.73 52.70 52.04 51.38 51.83 51.90 44.67 35.51 46.28 46.01 47.88 47.68 45.71 47.66 47.85 46.79 47.35 46.80 44.70 43.73 46.36 43.17 41.99 41.18 37.08 42.87 45.18 46.33 45.36 40.24 44.78 48.66 50.05 49.98 51.87 52.89 53.35 53.57
53.16 53.14 53.23 53.32 53.40 52.75 50.91 51.10 51.94 51.69 51.67 51.35 44.75 41.06 34.78 48.46 43.23 45.52 46.54 43.41 45.44 45.61 46.36 47.71 45.72 43.29 43.61 38.83 36.75 39.30 34.04 34.89 38.79 44.69 43.47 42.91 39.49 44.72 48.35 49.03 48.49 50.51 52.06 52.68 52.74
52.95 52.91 53.12 53.11 52.85 52.14 49.82 50.58 49.98 48.55 47.34 47.27 45.62 35.71 39.49 38.19 43.18 44.21 45.72 45.77 42.86 42.00 41.47 41.64 41.28 38.58 38.36 34.12 28.43 31.57 33.94 35.35 36.03 41.98 42.35 39.28 39.33 42.53 47.00 48.21 48.37 49.54 51.63 52.09 52.23
52.51 52.68 52.81 52.89 52.00 49.84 45.06 40.20 36.82 34.67 39.05 35.63 36.75 36.13 39.70 43.93 45.89 43.32 44.73 42.63 42.16 38.38 30.76 35.52 32.52 32.32 35.28 36.31 36.81 36.75 35.36 35.32 37.72 40.98 41.17 39.73 39.50 41.89 45.87 47.33 46.88 48.81 50.51 50.95 52.13
52.17 52.52 52.66 52.56 51.21 48.00 41.89 36.49 37.06 37.49 30.98 38.14 39.04 39.15 41.49 42.54 36.45 40.63 44.27 36.66 35.96 31.69 32.88 31.78 29.29 36.88 38.68 38.75 38.29 36.55 34.63 34.79 37.92 40.55 41.26 39.04 39.01 41.84 43.18 46.51 47.49 48.53 49.13 50.56 51.78
52.07 52.29 52.54 51.98 50.31 43.07 38.74 37.97 43.00 41.35 30.34 35.03 38.89 38.26 39.05 40.71 35.12 36.42 40.72 36.82 33.67 31.69 30.72 28.08 32.76 38.74 38.06 36.12 34.27 34.96 34.34 33.62 34.82 38.38 38.38 38.00 37.00 39.26 42.17 43.67 45.55 47.58 50.23 50.94 52.18
51.80 51.83 51.61 50.54 42.81 40.28 37.67 42.61 42.67 39.58 19.00 29.82 35.17 36.97 39.97 39.58 33.20 42.26 42.54 37.44 34.55 30.93 31.97 32.15 37.37 36.84 34.82 35.40 35.61 31.48 38.19 37.25 36.24 35.43 31.55 36.62 29.06 34.09 39.86 40.78 42.53 46.02 45.96 49.32 51.04
51.27 51.32 51.43 49.55 40.42 37.40 40.99 43.10 41.11 35.24 9.57 32.61 35.18 43.31 40.34 33.67 34.08 35.98 42.12 38.34 31.78 32.15 31.58 30.40 34.85 35.85 33.34 34.43 35.34 35.62 39.14 37.75 35.19 32.72 31.83 32.27 31.56 33.53 35.40 38.66 41.53 42.99 43.77 45.69 48.37
51.71 50.86 51.01 45.05 41.79 41.65 43.50 41.53 37.16 19.73 10.59 29.50 36.16 33.85 33.02 34.31 33.98 36.64 36.69 38.74 39.05 34.12 32.89 32.65 37.56 37.32 36.18 36.81 36.51 36.52 38.40 37.49 36.35 32.40 26.63 29.60 31.15 30.62 32.96 36.34 41.06 45.01 45.15 46.61 47.27
51.12 51.33 47.97 44.94 38.77 44.41 41.12 34.89 20.25 13.72 29.34 28.01 32.79 33.56 30.63 29.08 30.09 32.30 30.78 25.96 24.88 18.98 18.73 32.83 33.43 39.40 38.46 34.31 36.07 34.13 34.90 28.20 26.06 25.81 22.89 29.13 29.28 33.34 35.88 37.59 39.02 40.89 43.36 45.08 46.99
50.63 51.44 48.94 45.28 46.65 45.99 37.66 25.76 11.96 24.00 19.33 34.58 35.90 34.58 29.39 31.50 30.60 30.60 28.92 23.68 28.44 28.42 20.66 24.44 23.53 34.54 38.27 33.96 33.00 36.12 32.58 24.95 18.95 21.46 23.90 29.70 27.17 32.78 37.93 39.49 40.02 40.76 41.08 42.01 44.11
49.39 41.72 42.01 43.49 47.06 45.84 33.65 19.07 20.00 20.46 30.88 33.23 34.72 30.32 31.05 33.54 33.37 30.95 28.48 25.51 27.15 30.57 27.18 27.43 29.21 36.88 38.62 38.04 36.31 35.57 28.55 32.15 24.30 23.17 24.66 27.47 29.76 35.00 36.40 36.93 37.59 37.94 39.09 39.75 40.64
39.97 39.36 40.03 44.73 47.11 41.12 26.48 25.78 25.62 33.30 33.88 35.99 29.03 31.32 29.73 32.73 30.81 30.53 29.59 31.13 31.92 32.38 36.00 33.27 27.97 35.59 37.35 39.82 39.28 36.69 37.19 28.89 26.38 18.26 20.18 23.94 25.32 30.14 33.89 35.50 36.47 37.46 38.73 39.62 40.77
39.42 36.62 41.06 45.86 45.13 32.91 20.84 21.84 29.34 36.12 37.32 34.59 31.33 31.05 31.93 31.66 32.57 30.43 31.77 34.76 34.84 34.29 35.67 35.71 33.19 32.37 35.52 33.18 34.27 35.10 34.09 31.38 30.12 26.88 22.11 20.94 26.26 32.90 34.27 34.98 34.41 34.93 37.69 39.36 41.00
35.73 27.48 41.34 44.84 28.23 27.78 23.07 31.71 38.00 36.33 37.66 37.16 36.62 34.86 33.08 32.64 31.12 33.04 31.87 34.72 39.60 37.51 32.24 35.74 34.34 29.55 31.29 37.27 39.46 37.08 33.68 32.04 25.37 25.25 21.10 22.08 27.52 35.29 34.82 34.81 34.53 35.72 39.24 40.43 42.27
31.75 31.97 39.39 40.11 23.29 25.02 31.11 33.08 35.50 35.97 36.03 36.52 35.76 37.62 37.11 33.35 30.69 33.44 35.27 40.63 40.99 37.60 35.15 36.56 31.98 27.85 29.52 32.55 36.91 34.64 34.72 31.80 29.30 28.27 25.26 23.77 26.87 35.05 34.80 36.61 37.72 38.71 40.06 41.40 42.18
29.90 23.78 29.88 32.48 31.20 27.11 28.08 29.11 31.74 37.26 35.50 37.15 37.29 39.17 35.50 31.94 34.28 32.54 32.71 39.61 41.09 40.75 42.62 40.70 32.61 27.89 22.45 26.49 31.35 30.71 32.73 31.90 28.68 24.27 25.61 25.41 29.20 34.82 36.10 36.24 36.79 39.56 40.65 41.41 42.28
28.38 28.85 30.75 21.11 24.81 26.71 30.76 32.68 27.21 28.25 32.50 36.01 35.07 33.36 30.61 29.99 30.82 30.82 34.28 34.72 39.70 41.12 39.37 37.30 30.26 29.41 30.51 31.73 32.57 31.86 31.79 31.51 25.68 28.60 25.88 28.49 28.90 34.89 35.45 36.12 36.06 38.59 40.66 40.67 41.42
27.90 25.25 27.37 25.62 27.00 25.67 27.69 26.88 25.92 27.63 28.79 28.13 30.65 30.95 32.00 30.33 32.90 32.55 33.53 34.01 34.07 37.55 36.01 34.96 29.99 29.68 27.07 31.53 31.42 30.33 31.58 31.83 32.07 31.93 30.80 30.59 30.17 35.26 36.92 37.03 36.96 38.67 40.51 40.75 41.68
30.23 31.82 29.03 27.02 24.24 23.65 24.53 25.16 26.92 28.60 30.75 32.00 30.79 30.16 31.84 34.68 36.57 38.03 36.68 37.00 36.63 35.22 34.59 32.32 30.35 27.14 22.32 29.02 28.86 23.90 28.57 30.67 32.22 32.50 33.19 29.55 34.61 36.49 36.12 36.81 37.95 37.61 40.63 41.85 42.47

GFSSW_sfc_wetblb_090.txt.gz
Wetbulb
54.97 54.92 55.89 55.64 55.62 55.09 55.03 55.27 55.80 55.43 55.08 55.00 55.18 55.33 54.86 53.88 53.37 51.66 46.80 51.66 54.25 57.43 56.48 54.90 53.73 55.32 56.19 53.45 55.60 55.16 46.87 44.64 46.72 47.43 49.14 54.25 52.68 55.08 56.34 54.85 55.45 58.58 58.79 63.82 66.82
54.98 54.73 55.62 55.41 54.70 55.12 54.69 55.18 55.34 54.82 53.93 54.08 54.39 54.47 53.26 53.31 49.49 46.34 51.12 55.61 56.83 57.78 52.85 50.92 49.64 52.22 50.59 50.27 52.08 49.24 45.56 46.65 51.08 51.68 50.84 53.13 53.26 54.29 53.52 53.46 53.57 55.57 58.78 65.69 67.65
54.54 54.19 54.60 54.86 54.30 55.90 55.07 55.30 54.54 53.86 54.10 53.54 54.27 53.10 52.83 52.62 44.12 43.45 54.30 56.09 57.70 57.08 53.24 52.44 50.87 50.14 47.83 49.93 48.50 48.63 44.07 49.76 50.66 52.13 52.83 52.33 52.31 54.65 52.98 51.47 54.45 54.06 57.18 61.78 59.53
54.24 54.25 54.07 54.23 54.29 55.51 55.06 54.58 53.82 53.88 53.83 53.41 53.11 52.70 52.71 48.76 33.48 46.92 53.95 54.87 55.40 55.53 51.75 49.16 47.91 45.37 44.04 44.07 48.01 44.26 48.24 48.94 51.14 51.76 51.68 51.07 53.56 52.37 53.39 53.71 56.81 57.25 58.75 60.19 59.93
54.16 54.07 54.02 53.99 54.03 54.78 54.57 53.63 54.00 53.82 53.14 52.48 52.21 53.12 49.09 41.68 40.90 49.68 52.85 52.61 51.11 51.70 48.96 46.26 45.29 44.63 40.46 43.99 46.35 44.41 46.61 49.47 50.95 50.78 51.80 53.07 51.63 51.98 52.85 55.90 57.26 57.69 57.73 58.47 59.08
54.23 53.87 53.72 53.94 53.87 54.07 53.96 53.35 53.70 53.11 52.60 51.55 51.43 50.80 44.98 36.11 48.11 51.38 50.08 49.03 48.95 48.17 46.42 47.95 44.31 45.74 43.21 42.40 43.82 46.23 46.78 48.40 49.68 50.15 51.30 49.90 50.82 52.11 53.57 56.32 56.11 56.61 57.17 57.89 58.07
54.06 53.76 53.51 53.67 53.62 53.69 53.12 53.43 53.17 52.46 51.89 52.14 52.24 49.25 42.87 40.05 49.27 51.46 50.06 48.55 49.11 47.93 45.11 47.93 48.07 45.03 44.46 41.49 47.06 46.26 42.40 46.48 48.24 49.06 48.70 51.43 47.55 48.38 53.89 54.99 54.79 55.67 56.93 57.45 58.10
53.57 53.46 53.52 53.69 53.66 53.10 52.38 52.48 52.10 51.41 51.56 52.13 51.55 47.86 40.03 48.19 50.84 49.47 49.34 47.34 48.80 48.67 47.22 49.07 49.23 45.61 44.42 45.58 44.63 42.16 43.01 38.63 46.10 48.16 48.90 48.99 42.89 50.02 53.98 53.55 53.44 54.85 55.83 56.94 57.73
53.10 53.35 53.40 53.64 53.45 52.54 51.41 51.14 51.92 51.80 51.80 51.11 47.62 44.78 38.42 50.79 45.06 48.33 49.25 45.08 46.41 46.76 47.58 48.59 47.12 42.87 43.06 36.17 37.30 39.43 35.33 37.61 41.55 48.20 47.41 47.36 43.14 49.45 53.20 52.72 52.54 53.76 55.09 55.93 57.28
52.61 52.97 53.19 53.37 52.82 51.85 49.99 50.73 50.06 49.33 49.11 48.99 47.68 40.67 42.71 40.08 45.13 46.28 48.56 47.11 44.21 43.32 41.81 41.83 42.06 38.26 39.23 34.35 30.56 33.93 35.82 38.12 39.21 44.90 46.35 44.57 44.57 47.37 50.85 51.73 52.06 52.78 53.79 54.92 56.46
52.28 52.63 52.92 52.99 51.93 49.56 48.25 47.85 43.27 40.78 43.27 38.83 38.91 38.80 40.88 44.92 47.81 44.94 46.92 44.85 43.88 40.01 32.77 36.65 35.52 32.41 36.78 37.59 36.87 39.45 37.94 37.23 41.37 45.45 44.30 43.39 43.76 46.51 48.97 50.20 50.69 51.66 52.95 54.22 55.81
51.97 52.22 52.60 52.50 51.10 47.93 47.16 42.13 40.83 42.29 36.20 40.94 41.08 41.06 43.32 44.42 38.38 42.37 46.58 39.26 37.71 33.21 35.30 33.36 32.01 37.69 39.96 38.30 37.71 37.67 37.22 37.62 40.64 44.16 43.87 43.24 42.74 46.44 48.50 48.89 50.27 51.01 51.86 53.34 55.01
51.90 52.04 52.40 51.97 50.16 47.22 44.24 42.30 46.80 45.59 36.61 37.25 40.55 39.64 40.59 42.53 37.71 38.41 43.08 39.84 36.00 32.98 33.40 31.18 35.41 39.20 38.07 36.99 34.22 37.22 36.88 38.14 38.10 41.91 43.22 42.55 40.03 42.80 46.88 48.97 50.28 51.73 53.04 53.75 55.12
51.69 51.71 51.63 50.56 46.28 45.97 42.76 45.86 46.99 44.47 32.43 33.39 36.33 38.90 40.94 41.26 35.42 43.45 44.23 39.71 36.01 31.39 34.01 32.93 37.85 37.06 36.91 34.83 35.05 33.67 40.71 40.39 39.54 37.92 32.81 41.91 32.22 40.98 44.67 45.69 47.90 49.95 51.95 53.39 55.18
51.59 51.51 50.89 49.83 46.67 43.53 44.43 47.03 46.35 42.39 23.62 34.95 36.06 44.47 41.45 36.48 36.67 38.17 44.18 40.34 32.72 32.23 34.48 31.30 35.79 36.04 34.63 35.62 36.69 35.79 41.20 39.88 39.95 37.97 37.33 37.15 34.64 39.78 42.32 43.14 46.05 48.82 50.98 52.63 54.49
51.64 51.27 50.61 48.30 47.85 46.21 47.77 46.84 44.07 31.42 23.68 31.73 37.02 34.84 34.10 35.96 35.64 38.13 38.61 40.87 39.92 34.29 34.38 34.08 38.93 38.62 38.23 38.68 38.75 37.81 38.54 39.31 39.56 37.53 29.69 36.17 35.68 36.61 39.18 42.18 45.74 49.00 50.74 51.80 52.90
51.13 51.03 50.84 48.31 44.87 47.11 46.76 43.08 31.41 28.02 32.77 32.05 33.99 34.55 33.08 31.38 32.04 33.74 32.57 31.98 29.88 26.53 27.68 32.76 34.13 39.25 40.27 35.27 36.88 34.35 35.02 28.98 27.53 28.43 27.97 35.25 34.61 38.07 42.51 43.70 45.67 47.42 49.82 52.01 53.05
50.96 51.93 48.89 48.29 48.29 46.36 44.20 36.02 26.48 29.83 32.04 36.07 36.11 35.39 29.84 32.96 31.28 31.74 30.58 28.21 32.26 31.52 28.17 27.91 25.38 35.74 38.55 36.09 33.66 33.44 34.45 30.47 22.42 24.89 28.77 34.01 30.89 36.15 44.39 46.66 47.83 47.04 47.55 48.51 51.81
49.70 48.90 48.97 48.62 48.04 47.10 38.97 31.22 31.02 32.81 35.51 35.25 36.08 31.82 32.30 33.85 33.05 31.73 30.58 28.97 31.55 33.25 28.90 29.99 28.97 38.27 38.19 36.79 37.22 35.35 33.45 36.57 31.33 30.74 29.46 32.87 36.10 41.10 43.40 43.70 44.08 45.03 46.23 46.95 48.31
47.21 46.49 45.81 47.67 48.19 42.61 35.79 32.87 34.56 36.50 37.15 36.85 31.71 33.18 31.02 32.99 31.16 31.15 30.65 34.57 32.64 34.67 37.49 34.87 28.88 35.49 37.33 38.75 36.71 34.16 38.73 32.61 34.09 25.42 24.54 29.48 31.90 34.89 39.06 41.18 42.25 43.29 45.09 47.29 47.76
46.53 43.67 45.46 47.18 46.67 38.63 33.77 34.50 35.12 39.61 38.49 35.75 33.77 32.41 34.21 33.51 32.55 31.01 32.43 35.17 36.71 34.40 37.01 35.03 34.01 32.76 36.02 33.89 33.68 34.75 35.20 35.16 35.77 33.02 29.13 26.51 31.87 39.66 39.21 41.20 41.26 42.45 43.39 44.87 46.63
44.58 39.55 45.28 46.29 38.24 34.85 33.93 33.64 38.23 38.46 40.16 38.35 37.22 34.66 34.56 35.39 32.79 33.37 32.05 35.24 39.97 38.58 33.10 36.19 34.55 29.64 33.15 38.31 40.61 37.49 37.29 36.63 33.14 28.63 29.23 31.23 32.72 39.84 41.47 41.88 42.54 44.22 44.55 45.59 46.29
40.15 40.64 44.00 43.56 33.79 32.14 34.39 33.51 36.43 34.82 36.27 34.89 36.17 37.97 36.28 34.23 32.22 34.79 33.33 39.09 40.89 38.97 37.18 38.77 34.85 29.28 30.87 34.69 37.39 34.21 36.81 36.37 35.39 34.94 30.37 30.92 33.20 40.60 40.35 41.41 43.76 44.25 45.63 45.47 46.43
39.37 37.69 37.45 40.73 37.23 32.66 29.82 31.33 30.39 35.71 35.84 34.45 34.16 34.39 32.13 35.13 37.08 34.60 32.73 39.38 40.94 40.49 41.78 41.96 35.42 31.31 29.26 31.63 35.59 32.67 36.10 36.84 35.16 32.69 31.88 33.28 35.01 39.24 40.10 41.86 43.46 43.74 45.73 46.33 46.99
37.14 35.04 34.14 32.23 33.44 32.30 32.62 32.70 28.89 28.23 33.07 35.70 33.46 31.93 31.06 29.29 33.21 34.47 34.00 36.91 38.74 39.85 40.14 39.25 33.27 33.37 34.23 34.97 35.46 34.82 35.15 34.79 32.98 35.27 33.22 35.00 34.12 39.92 42.84 42.71 43.68 43.90 45.09 45.73 46.14
37.16 35.55 34.74 33.21 31.74 31.56 31.69 30.03 28.48 29.20 29.61 29.91 29.06 31.49 33.06 30.38 31.47 30.01 32.67 33.65 33.37 38.63 36.63 38.92 33.03 33.38 30.86 34.60 34.94 33.35 35.29 36.21 36.12 36.63 35.54 34.73 34.65 41.02 43.24 44.71 43.24 44.54 44.57 44.85 45.99
37.36 38.57 37.55 31.18 31.43 31.62 30.01 29.22 28.99 30.63 31.79 33.19 32.09 32.07 32.75 33.73 34.90 35.48 36.52 38.07 39.02 37.21 36.57 35.39 34.86 32.60 29.03 32.26 32.48 29.49 32.87 34.95 35.56 36.73 37.17 33.04 38.56 41.93 40.96 41.10 42.91 44.93 44.39 45.60 46.53

GFSSW_sfc_wetblb_093.txt.gz
Wetbulb
54.88 55.14 55.20 56.10 55.50 55.08 55.72 55.17 55.67 55.79 55.18 54.44 54.58 54.86 55.14 54.95 54.06 52.22 47.72 52.32 54.28 57.56 57.40 54.32 54.15 54.52 56.12 53.79 54.92 55.32 45.18 44.19 46.79 47.64 49.72 54.20 52.28 55.43 57.22 55.47 56.26 59.06 60.62 64.40 67.49
54.61 54.94 54.70 55.36 55.17 55.04 56.19 55.66 55.49 54.63 54.29 54.68 54.25 54.84 54.12 53.84 51.25 48.09 53.73 55.71 57.36 57.62 53.18 50.94 48.92 52.31 50.18 50.87 51.77 49.25 44.52 46.33 51.47 51.94 50.33 52.64 53.46 54.24 53.88 54.32 55.08 56.76 63.35 65.62 67.81
54.56 54.69 54.90 54.51 54.86 55.01 56.11 55.32 54.84 54.13 54.53 54.25 54.06 53.71 52.98 53.53 46.23 45.88 55.22 55.82 56.76 57.92 54.14 52.49 51.70 50.16 47.35 49.84 48.99 48.97 44.59 50.19 50.77 52.59 52.18 51.71 52.96 55.63 53.82 51.98 54.82 54.93 60.36 64.69 66.95
54.87 54.75 54.75 54.59 54.65 54.83 55.44 54.93 54.03 54.57 54.01 53.55 53.13 52.85 52.70 50.90 34.76 47.91 53.05 54.63 55.75 55.14 52.84 50.40 48.98 45.67 44.95 43.84 49.05 45.14 48.57 48.67 51.10 51.18 52.02 51.34 52.73 53.27 54.67 55.17 57.60 57.91 60.30 62.95 64.27
54.77 54.86 54.34 54.29 54.64 54.29 54.66 53.81 54.29 54.11 53.24 52.46 52.26 53.08 51.09 44.10 43.46 51.24 52.86 53.20 51.92 51.67 49.95 47.36 45.40 44.74 41.67 45.16 46.70 45.32 47.57 49.04 50.23 50.68 51.77 52.80 51.97 52.56 53.53 56.65 57.75 58.21 59.00 60.45 61.69
54.51 54.45 54.34 54.13 54.17 54.09 54.08 53.38 53.72 53.07 51.73 51.51 51.67 52.40 47.45 39.11 49.71 52.42 51.37 50.10 49.75 49.01 48.54 47.85 45.60 47.52 44.13 43.17 43.10 47.05 47.09 47.41 49.36 49.62 50.83 50.32 50.93 51.84 53.21 56.62 56.32 56.95 57.58 58.68 60.04
54.21 54.05 53.95 54.15 54.11 54.13 53.49 52.93 52.74 51.63 51.78 52.32 51.78 50.48 44.76 42.01 50.19 52.07 50.77 49.34 49.44 49.04 45.89 49.10 48.11 45.60 46.27 41.60 46.79 45.40 42.13 45.45 47.76 48.77 48.36 50.98 47.04 48.82 54.14 55.89 55.12 55.74 56.98 58.28 58.99
53.68 53.73 53.72 53.95 53.98 53.65 52.81 51.74 52.25 51.56 51.81 52.60 52.04 49.13 41.74 49.51 52.10 49.75 50.50 48.45 49.66 49.65 47.43 49.53 49.38 45.71 44.87 45.79 43.22 40.47 42.30 37.70 44.60 47.76 48.45 49.00 41.87 49.11 53.76 53.88 53.68 54.85 56.04 57.49 58.51
53.22 53.33 53.43 53.45 53.77 52.90 52.35 50.89 51.63 52.19 51.81 51.68 49.10 46.23 40.12 50.91 46.30 49.06 49.83 45.99 47.30 47.78 48.73 48.42 47.60 41.08 41.76 39.05 36.69 38.22 35.95 37.40 39.61 47.25 46.48 47.04 43.22 49.04 52.89 53.36 52.85 53.97 55.07 56.30 57.59
52.76 52.90 53.02 53.32 53.20 51.87 50.41 50.50 50.78 50.44 50.43 49.80 48.71 42.02 43.67 41.41 45.98 47.31 49.70 48.07 44.67 44.31 42.82 42.32 41.69 37.26 37.81 36.00 30.87 34.85 35.79 38.04 37.91 44.49 45.77 44.18 44.33 48.24 51.94 52.00 51.88 53.01 54.25 55.41 56.37
52.24 52.61 52.77 53.14 52.42 49.97 49.33 48.80 44.55 42.91 44.75 41.24 40.92 40.35 41.91 45.70 48.17 45.83 47.74 45.82 44.65 41.56 33.60 37.54 34.24 32.75 35.87 37.15 39.27 37.73 37.70 37.48 40.38 45.60 44.04 43.58 43.71 46.90 49.86 50.93 51.00 51.82 52.95 54.04 55.67
52.04 52.34 52.62 52.74 52.08 48.82 48.65 43.93 43.40 44.67 37.69 43.05 42.66 42.40 44.39 45.44 39.27 43.01 47.51 40.10 38.83 33.79 36.97 33.99 31.18 37.63 39.38 39.55 37.68 36.24 36.73 37.43 40.86 45.50 44.10 43.15 42.96 46.82 48.75 49.59 51.03 51.38 52.12 53.17 54.78
51.87 52.04 52.25 52.26 50.72 49.02 46.18 44.24 48.50 47.53 37.95 39.46 42.03 40.96 41.67 43.53 38.88 39.69 43.76 40.73 36.73 33.98 33.56 31.30 35.24 39.80 38.14 36.91 34.71 35.68 36.68 37.88 38.10 42.47 44.43 42.12 40.63 43.59 47.61 49.56 50.90 51.68 52.72 53.43 53.68
51.66 51.96 51.98 51.78 47.66 48.75 45.71 47.20 48.91 47.37 33.77 35.72 37.48 40.39 41.28 41.84 36.28 43.74 44.64 40.75 36.62 32.19 33.29 34.11 37.65 37.70 36.91 35.05 36.00 33.71 41.52 40.41 39.49 38.07 32.96 42.14 32.57 40.73 44.27 45.81 48.08 50.16 51.21 52.38 53.89
51.22 51.90 51.29 50.40 48.84 46.52 46.38 49.04 48.56 44.69 24.41 35.99 37.41 45.61 41.85 37.32 37.96 39.30 45.07 40.72 33.83 33.01 33.24 32.96 34.92 35.88 35.23 36.28 38.09 35.83 40.42 39.89 40.08 37.46 36.97 37.60 34.24 39.34 43.83 42.80 45.94 48.76 50.38 52.09 54.09
51.06 51.44 50.72 49.67 50.31 48.11 49.70 48.93 45.78 30.85 24.93 32.98 38.17 36.19 35.67 36.17 36.70 39.14 39.24 41.74 40.64 34.79 35.71 35.03 39.51 39.29 37.83 39.75 39.40 38.32 39.27 38.71 39.51 37.21 30.22 36.56 35.42 36.24 40.63 43.26 46.33 48.69 50.24 51.77 53.46
50.85 50.50 50.68 50.63 45.91 49.27 49.39 44.66 30.73 27.84 35.58 33.45 34.58 35.96 34.46 33.51 33.64 34.65 33.84 32.96 30.98 27.80 29.61 34.01 35.50 39.34 40.58 34.72 36.77 35.57 35.58 29.64 27.10 27.42 27.58 37.60 35.17 38.62 43.28 45.02 46.98 48.38 50.13 51.91 53.53
50.92 51.94 49.32 50.32 49.55 47.47 46.48 36.92 28.13 32.10 35.54 39.03 37.48 36.17 31.17 34.31 32.97 32.76 32.00 29.59 34.14 33.23 31.33 29.45 26.67 35.72 39.53 36.69 34.48 33.76 34.44 30.13 23.48 25.34 29.18 35.85 31.49 37.74 44.84 46.86 47.60 48.55 49.90 51.95 52.82
52.07 51.38 49.24 49.15 48.70 48.66 40.47 33.26 31.66 32.43 36.65 35.10 36.57 31.98 33.78 34.19 33.85 32.33 31.29 31.33 33.54 34.68 30.47 30.36 29.73 38.28 38.20 38.26 37.98 34.42 31.98 38.45 32.91 34.85 31.24 33.33 36.83 41.88 44.23 44.46 45.69 46.91 47.87 48.55 50.55
50.21 48.83 45.86 48.48 48.97 46.27 37.75 32.47 33.04 38.55 39.06 38.01 30.85 34.67 30.36 32.38 31.13 31.38 31.90 36.29 33.21 36.25 39.06 35.04 28.53 36.14 37.06 38.52 37.50 34.33 36.58 32.01 34.88 25.40 24.42 30.97 33.03 34.85 39.27 42.25 44.65 45.44 46.81 48.39 49.98
49.27 45.46 46.61 48.51 48.51 42.10 34.00 32.58 34.89 40.22 40.10 35.93 33.55 32.25 33.57 33.11 32.36 31.36 32.32 36.34 37.47 35.61 38.71 35.94 33.81 32.26 35.09 33.52 33.01 33.93 34.18 36.54 36.72 34.33 28.82 26.66 31.85 41.50 40.90 42.37 42.92 44.19 45.52 47.19 49.12
48.21 41.36 47.55 48.88 40.68 40.51 34.26 34.48 38.38 36.40 40.00 37.49 37.70 36.11 33.09 34.85 34.28 32.89 31.87 35.21 40.15 38.42 33.85 36.66 34.93 30.24 33.20 38.62 40.68 38.72 36.40 37.85 32.71 30.71 33.07 32.33 32.34 43.04 43.14 43.65 44.67 45.69 46.52 47.67 48.42
43.60 43.24 47.31 45.62 34.17 34.63 36.04 34.73 36.07 34.35 35.46 34.38 33.43 34.84 35.52 33.66 32.83 36.71 32.72 39.85 41.61 38.93 37.36 38.43 34.94 29.40 30.42 34.98 37.83 34.61 37.25 38.96 37.39 37.04 32.90 30.61 32.41 42.85 43.11 43.52 45.15 45.18 47.16 47.77 48.35
43.37 39.29 40.25 42.94 40.07 34.95 32.63 32.90 31.85 36.50 34.93 36.63 34.41 36.15 34.62 34.43 36.45 34.56 32.10 39.13 41.47 40.78 42.59 41.83 36.17 31.89 29.63 32.41 36.49 32.83 36.05 38.42 35.21 34.24 33.70 34.43 35.75 39.31 41.00 42.40 44.73 45.38 46.86 47.98 48.41
43.51 38.71 38.35 35.57 36.37 35.26 34.74 34.24 31.00 30.07 34.61 36.18 34.56 33.84 31.65 31.11 33.67 31.93 34.23 35.50 40.09 41.02 40.51 39.32 34.15 35.19 35.75 37.08 37.12 36.20 36.62 36.92 33.79 36.40 34.99 35.90 36.33 40.53 43.05 43.74 44.50 46.07 46.30 47.07 47.77
41.13 38.42 38.93 36.90 35.23 34.58 34.32 32.57 30.66 31.09 31.59 31.49 31.07 33.49 33.37 31.28 31.19 30.31 32.43 34.93 34.25 38.68 37.03 40.62 34.00 35.14 33.04 36.46 36.36 34.38 36.85 37.71 36.99 37.33 37.12 37.21 36.60 43.74 45.05 45.45 44.97 45.58 45.52 45.68 47.22
42.17 41.77 41.32 34.60 34.80 34.47 33.09 31.65 30.74 32.80 33.57 34.57 34.10 34.30 33.29 34.25 35.82 36.28 36.49 37.04 37.41 37.22 37.76 37.45 36.26 33.98 30.37 34.24 34.39 30.75 35.41 36.67 37.38 38.72 38.39 34.04 39.06 43.43 42.87 43.53 44.00 45.15 45.61 45.91 47.34

GFSSW_sfc_wetblb_096.txt.gz
Wetbulb
54.69 55.38 55.51 55.19 55.88 55.68 55.84 57.08 56.27 56.04 55.13 54.90 54.90 55.10 55.30 55.33 54.97 51.55 46.94 51.54 53.38 56.49 56.69 53.61 52.70 51.99 53.34 51.20 53.07 53.90 44.89 42.01 44.26 45.82 47.53 52.72 50.42 53.67 54.56 52.50 55.29 57.64 60.40 65.66 68.12
54.68 55.52 55.64 55.55 55.21 55.45 55.65 56.47 55.89 55.30 54.66 54.81 55.10 54.43 54.82 54.35 50.73 47.83 53.84 55.18 55.73 57.03 51.83 49.22 48.02 49.06 47.35 48.55 49.82 47.51 43.02 43.64 49.55 50.30 48.92 51.35 51.55 52.08 51.58 51.79 52.72 57.84 62.01 66.70 67.24
54.79 55.73 55.53 55.38 54.78 55.07 55.46 55.96 55.30 54.55 55.19 54.92 54.34 54.17 53.82 53.06 45.80 46.33 54.70 55.19 55.99 55.51 53.46 51.00 50.43 48.09 44.91 47.39 47.59 46.61 42.19 47.46 49.87 51.68 51.71 51.35 51.70 53.69 50.72 49.23 52.81 55.48 60.05 64.31 66.09
55.04 55.45 55.47 54.89 54.76 55.44 54.90 55.27 54.30 54.49 54.53 54.07 53.70 53.42 53.19 50.47 34.63 47.96 52.67 53.72 55.15 53.39 51.86 49.04 47.90 44.21 43.15 42.39 46.83 42.97 46.26 47.84 50.40 50.52 50.73 49.19 52.07 50.99 51.31 51.14 55.56 58.57 61.73 64.42 64.99
54.69 55.21 55.06 54.80 54.63 54.74 54.64 54.52 53.97 54.39 53.63 53.00 53.09 53.24 50.59 44.16 43.02 51.41 53.11 52.61 51.24 50.25 48.84 46.96 44.82 43.42 40.34 43.31 44.96 43.63 45.29 47.74 49.31 49.51 50.31 52.03 50.20 50.11 51.20 54.25 55.88 59.30 60.94 60.97 64.13
54.19 54.52 54.52 54.63 54.55 54.61 54.51 53.51 53.58 53.35 52.72 52.59 52.20 52.72 46.96 38.34 49.44 51.65 50.96 50.39 49.59 48.34 47.47 47.82 45.22 46.01 41.55 42.65 42.50 45.38 45.09 46.68 48.07 48.13 49.48 48.86 49.86 51.34 51.82 54.83 53.14 56.44 55.82 58.32 59.86
53.95 54.06 54.13 54.25 54.32 54.50 53.99 52.97 53.23 52.20 52.21 52.98 52.46 50.41 44.70 42.00 49.55 51.36 50.59 48.61 49.03 47.80 45.31 48.56 48.25 44.66 44.23 41.02 45.79 44.25 40.62 44.63 44.93 47.58 47.41 49.61 46.13 47.03 52.23 53.33 53.42 53.78 53.59 55.49 58.08
53.52 53.49 53.80 54.04 54.02 54.17 53.38 52.81 52.44 52.54 52.39 53.21 52.65 48.89 41.26 49.52 50.93 49.26 49.90 48.21 49.41 49.26 47.46 49.09 49.13 44.07 42.18 45.51 42.50 39.62 39.99 36.03 42.42 46.48 48.00 46.73 40.19 48.41 52.10 51.13 50.31 52.59 51.86 53.65 55.73
53.06 53.23 53.40 53.67 53.72 53.36 52.52 51.95 51.68 52.37 52.43 52.41 48.16 46.05 39.68 50.07 45.97 48.68 49.28 45.38 46.87 47.67 48.58 48.27 45.83 40.09 40.08 38.91 35.22 36.87 32.78 34.89 38.13 45.72 45.45 44.89 40.38 47.46 50.70 49.99 50.30 50.46 50.81 53.24 54.08
53.23 52.64 52.98 53.18 53.67 52.55 51.46 50.57 51.72 51.23 50.51 49.72 47.90 40.67 43.83 41.30 45.95 47.04 49.11 47.52 44.20 44.26 42.80 42.13 40.70 36.23 34.79 34.99 27.60 30.27 30.82 34.87 35.86 40.90 43.55 41.16 41.34 45.97 48.37 48.47 47.48 49.59 49.55 51.17 53.96
52.58 52.53 52.79 53.02 53.20 51.65 48.99 47.68 43.42 41.46 44.55 40.45 40.80 40.46 41.75 45.79 47.83 45.25 47.31 45.01 43.92 41.09 33.77 37.07 32.80 30.40 33.19 35.06 37.50 36.21 34.92 34.43 38.28 42.71 40.78 40.52 41.34 44.27 46.96 48.32 46.99 47.98 49.19 49.70 51.51
52.00 52.18 52.40 52.60 52.68 51.60 48.16 43.70 43.45 43.63 34.99 43.75 42.82 42.35 44.33 45.47 38.89 42.77 46.92 39.16 38.19 32.74 35.61 32.19 27.48 34.44 37.62 36.61 37.18 35.33 35.52 34.58 39.42 42.60 41.32 40.89 40.70 44.56 45.31 46.56 46.74 48.16 48.33 48.97 49.92
51.59 51.87 52.21 52.27 51.76 49.22 46.20 44.36 48.68 47.41 36.65 39.58 42.12 41.02 41.77 43.37 38.35 39.40 43.46 40.46 35.75 32.58 33.16 29.93 33.24 37.87 36.63 35.36 34.50 34.08 33.38 35.78 35.42 40.72 42.51 40.22 38.10 41.73 45.02 46.28 47.05 48.86 49.04 49.48 49.69
51.32 51.73 51.64 51.65 47.70 48.68 45.32 47.62 48.98 47.86 31.54 34.54 37.41 40.29 41.36 41.83 36.07 43.76 44.40 40.02 36.26 31.54 32.76 31.71 36.68 36.06 35.93 35.18 36.35 31.39 38.17 36.67 38.15 35.97 32.34 39.98 28.47 37.99 41.40 43.85 45.59 45.41 46.39 46.44 48.18
51.30 51.11 51.41 50.20 48.24 45.51 46.44 48.96 48.81 44.06 23.77 36.18 37.71 45.33 42.21 36.75 37.91 38.58 44.99 40.34 32.69 32.91 33.17 30.74 34.16 34.53 34.41 36.01 37.74 34.25 38.67 38.60 38.13 36.02 35.02 35.50 31.10 34.94 41.97 40.17 43.07 45.36 46.21 47.46 48.28
51.03 51.19 50.91 49.29 49.64 48.19 49.75 49.18 45.02 30.18 22.01 31.96 38.36 36.58 36.06 35.91 36.91 39.30 38.94 41.36 40.06 34.04 34.42 33.22 39.26 39.09 37.58 39.25 38.80 39.02 38.24 38.57 37.77 35.34 27.64 32.99 31.46 30.73 35.82 40.27 41.90 45.53 46.76 47.97 48.14
50.54 50.33 50.11 50.85 45.33 49.74 49.19 43.44 30.48 25.52 35.98 32.41 34.23 35.95 34.04 33.33 33.90 34.66 33.33 31.45 28.94 25.72 28.34 34.95 35.72 39.27 39.96 35.01 37.47 36.07 34.22 27.87 26.57 26.26 26.28 34.80 31.48 32.58 39.69 43.46 44.16 45.17 46.11 47.79 47.79
51.01 51.12 49.58 49.98 49.84 49.10 46.03 37.22 25.56 30.18 30.26 37.64 36.61 35.81 31.45 33.79 32.66 33.10 31.88 27.10 32.94 31.34 29.56 27.28 23.75 34.97 38.64 36.53 33.55 33.40 33.52 28.03 18.86 20.07 23.84 34.30 29.61 32.48 40.17 42.84 44.11 44.68 45.27 47.29 47.76
52.21 49.82 48.67 48.87 49.67 48.46 40.13 30.44 27.70 29.61 35.57 34.36 35.41 30.50 33.04 33.46 33.67 32.57 29.64 29.72 32.75 32.52 29.57 28.64 28.27 37.53 38.74 39.02 37.73 33.47 31.13 35.71 29.95 30.00 25.37 28.33 30.06 36.34 40.30 40.68 41.33 41.58 44.47 43.53 44.73
49.18 48.08 45.76 49.23 49.63 45.40 37.38 31.07 31.20 37.84 36.97 36.60 28.65 33.26 30.35 32.44 29.99 30.95 30.61 34.87 32.89 35.31 38.91 33.19 27.10 35.34 36.70 38.45 37.49 34.58 35.64 30.68 31.58 23.23 23.53 26.16 26.72 31.18 36.20 37.60 40.62 40.25 41.39 42.24 43.66
47.42 43.94 46.69 49.44 48.39 41.40 31.89 30.63 34.35 38.62 38.68 35.92 33.17 32.39 32.28 32.78 33.17 29.33 32.51 35.79 36.32 34.69 36.71 36.09 32.65 32.00 35.14 32.50 30.95 32.01 30.67 34.28 34.20 30.52 22.74 20.91 25.33 35.43 36.45 39.77 39.81 40.51 42.03 43.58 44.15
46.71 40.86 47.50 48.39 38.80 39.26 32.99 33.95 37.90 35.21 38.43 36.95 36.32 33.80 31.39 32.37 33.65 32.37 32.08 35.11 39.15 37.21 33.14 36.62 34.67 27.38 29.80 36.93 39.33 37.22 33.44 34.70 29.85 28.58 29.55 28.65 25.73 39.06 39.39 40.94 41.98 42.77 43.76 42.85 44.85
42.11 41.87 47.23 45.31 32.93 34.01 35.37 34.96 35.70 33.65 34.67 34.29 33.36 35.08 35.87 32.92 32.77 33.46 33.28 39.20 41.12 37.47 37.45 37.43 33.67 28.13 29.39 34.07 37.41 32.77 35.70 37.31 36.50 33.49 30.12 28.32 26.85 39.96 38.73 39.88 41.12 41.04 42.84 44.04 44.28
41.76 36.94 38.95 41.62 38.09 33.68 32.03 33.02 31.63 36.39 34.77 35.60 34.52 36.12 33.67 33.84 36.43 32.87 32.59 38.60 41.87 41.22 42.90 41.29 35.38 31.15 28.01 30.53 33.46 29.25 33.83 36.90 33.88 30.00 30.38 31.14 30.84 35.44 37.75 39.10 40.76 41.14 42.81 43.76 44.46
42.31 39.39 38.76 34.10 34.05 34.46 34.58 34.17 30.80 29.66 34.69 36.00 34.35 33.74 31.44 29.77 33.09 31.89 33.60 37.10 39.63 41.60 39.90 38.77 32.95 33.89 34.79 36.18 36.03 34.15 34.20 35.66 31.62 34.19 29.61 33.21 33.85 37.26 37.92 37.31 39.50 41.07 42.92 44.27 44.52
38.84 35.66 36.15 34.50 34.98 33.74 33.26 31.37 30.16 30.87 31.85 31.37 30.76 33.29 34.09 30.41 30.95 29.87 31.32 34.21 34.21 37.59 36.70 38.30 33.07 34.18 29.52 36.13 35.58 32.64 36.73 36.52 35.91 35.88 34.84 34.65 33.42 39.16 40.28 41.21 40.57 39.36 42.80 43.16 44.57
41.16 40.99 39.16 34.93 33.47 31.49 30.78 31.20 30.82 32.65 33.96 34.66 33.64 32.98 33.50 34.05 34.48 35.49 36.26 35.79 35.81 36.11 36.90 36.29 35.31 30.81 28.93 32.62 32.83 28.62 33.73 35.23 35.61 36.43 36.30 32.19 36.30 39.22 39.32 40.97 40.21 40.82 41.97 42.90 44.02

GFSSW_sfc_wetblb_099.txt.gz
Wetbulb
56.04 55.64 55.84 56.04 55.54 55.36 55.85 56.16 56.98 56.24 55.76 55.19 55.06 55.74 54.99 55.26 54.96 51.73 46.63 50.07 51.41 56.12 55.22 51.99 51.05 51.20 50.68 48.35 50.84 50.92 43.49 41.45 42.79 42.93 46.01 50.66 49.32 51.70 52.39 51.80 57.40 59.58 61.18 64.55 67.49
55.51 55.58 56.46 56.04 55.41 55.37 55.54 55.84 56.28 55.58 54.78 55.31 55.31 54.87 54.80 54.43 49.99 47.15 53.20 56.10 55.67 56.22 51.05 47.74 45.97 48.98 45.21 46.18 47.12 46.40 42.24 41.23 46.84 47.10 46.07 50.01 50.58 51.77 52.20 51.75 56.20 58.68 64.60 66.91 67.33
54.93 55.27 55.87 56.14 55.42 55.11 55.96 55.30 55.65 54.57 54.42 54.76 54.47 54.32 53.91 52.89 45.61 44.84 54.61 55.11 55.72 55.28 50.53 50.78 48.80 47.59 43.48 45.02 45.07 44.69 40.76 45.85 46.95 48.95 50.95 49.75 50.74 52.87 50.09 48.33 55.53 57.90 62.61 65.15 66.23
54.58 55.08 55.65 55.42 55.22 55.02 55.29 55.03 54.71 54.24 54.51 54.03 53.63 53.51 53.32 49.86 34.13 46.58 53.09 53.70 54.74 53.51 50.17 49.01 46.51 43.48 41.63 40.90 44.37 41.16 44.73 46.24 48.59 51.09 50.28 48.92 51.35 50.92 51.02 49.63 57.68 60.20 64.25 64.53 64.90
54.31 54.65 54.83 54.76 55.23 55.03 55.37 54.97 54.14 53.77 53.42 52.94 53.10 53.34 50.58 44.12 42.88 50.54 53.47 51.84 50.07 49.62 48.24 45.96 43.56 41.62 38.39 41.69 42.95 40.98 43.61 46.23 47.88 49.41 48.91 51.15 49.56 49.50 50.35 53.74 55.28 61.65 63.59 63.56 63.93
54.00 54.25 54.32 54.49 54.62 54.77 55.02 54.56 53.39 53.25 53.04 53.49 52.56 52.73 46.35 38.04 46.61 49.74 49.29 48.97 47.98 47.11 46.63 46.20 43.95 45.57 41.98 40.03 39.72 43.55 43.64 44.05 46.85 47.96 48.31 48.56 49.51 50.84 52.07 54.13 53.45 59.58 60.74 62.35 63.40
53.93 53.85 53.65 54.11 54.31 54.45 54.83 53.83 52.86 52.85 52.44 53.34 52.80 49.83 44.27 41.31 46.83 48.64 49.93 46.97 47.69 46.53 43.26 47.53 46.82 44.07 42.55 39.32 44.29 43.02 39.50 43.28 45.59 46.95 47.04 49.68 45.75 47.15 52.27 53.73 52.53 54.92 56.07 59.03 62.42
53.47 53.37 53.50 53.59 54.08 54.17 53.87 53.23 52.86 52.67 52.97 52.90 52.74 47.29 38.88 49.25 47.31 48.52 48.16 47.86 48.14 48.76 47.82 49.84 47.73 43.78 41.34 41.64 42.42 39.97 39.37 35.01 42.56 45.21 47.28 47.65 39.29 47.99 51.97 51.50 50.79 52.11 50.32 55.47 58.29
53.42 53.08 53.07 53.49 53.46 53.96 53.19 52.72 51.59 52.03 52.93 52.74 47.04 43.34 37.72 50.18 45.47 47.01 46.77 44.80 46.31 47.66 47.74 49.08 45.78 40.38 40.29 33.99 35.41 35.97 33.24 33.20 38.18 45.13 45.98 44.30 40.47 47.00 51.41 50.65 49.42 49.88 50.54 52.50 53.79
53.09 52.95 52.67 52.85 53.40 53.43 52.64 52.34 50.62 50.85 49.76 49.57 47.81 37.62 42.73 41.07 45.65 46.66 46.53 46.82 43.58 43.33 42.97 41.25 39.68 35.92 35.26 32.22 26.68 29.91 31.82 34.05 34.91 41.33 44.30 41.28 41.11 45.09 49.55 49.54 48.66 49.60 49.46 49.74 52.29
52.96 52.21 52.45 52.88 53.04 52.83 49.45 44.11 40.23 38.82 41.73 38.36 39.61 38.81 41.97 45.76 47.50 44.71 46.37 44.12 43.07 39.85 29.87 35.00 30.16 25.56 33.29 33.73 34.26 35.06 33.43 32.73 35.57 41.75 41.63 41.00 41.27 43.07 47.18 48.26 47.76 48.47 50.52 47.28 50.68
52.51 51.49 51.93 52.23 52.67 52.11 47.39 40.47 41.18 41.14 33.04 41.79 42.47 41.57 44.30 45.10 38.72 42.21 45.98 38.03 37.40 30.27 33.51 28.75 26.08 32.70 36.88 36.15 34.36 34.65 33.36 32.49 36.70 40.87 39.79 39.33 39.67 43.64 44.73 45.43 47.69 47.93 48.29 47.02 47.69
51.75 51.51 51.81 52.05 52.04 47.75 43.82 42.46 46.27 44.66 33.58 38.84 41.81 40.59 41.77 43.30 38.07 38.97 42.69 38.77 34.30 31.19 30.64 26.10 31.54 35.96 35.19 34.47 32.15 33.39 33.73 32.99 33.73 38.84 39.88 38.26 36.98 40.38 44.68 44.66 46.44 47.55 47.99 47.73 48.31
51.37 51.39 51.80 51.35 47.99 46.01 43.53 46.43 46.24 44.29 29.11 33.64 37.36 40.13 41.70 41.65 35.96 43.34 44.24 38.65 35.23 30.12 30.71 29.39 35.63 34.14 34.34 33.42 34.84 31.97 37.77 36.37 37.39 35.26 30.64 38.82 28.28 36.92 40.97 42.60 44.25 44.17 44.88 46.34 46.73
51.16 51.18 51.34 50.65 45.82 42.24 45.02 46.84 45.24 40.08 11.18 34.59 37.56 44.90 41.58 36.67 37.64 38.11 43.85 39.12 31.61 31.62 32.32 28.90 32.07 32.88 34.30 35.14 36.88 34.43 38.52 38.07 36.83 34.13 32.43 34.94 31.89 34.05 40.09 39.52 41.47 44.06 43.89 45.31 45.90
50.62 50.94 51.18 48.65 47.88 45.49 46.95 45.73 41.50 22.50 8.88 30.16 38.19 36.16 36.31 36.19 35.74 39.35 38.44 39.91 39.13 33.37 33.78 32.23 37.21 37.88 37.05 38.78 39.06 38.88 38.36 38.14 37.28 35.38 25.14 32.34 31.20 28.65 36.30 39.83 39.21 41.54 43.81 45.76 46.72
50.09 50.72 49.98 50.06 43.87 45.91 46.07 39.61 23.90 14.13 31.56 27.24 32.32 35.00 34.17 32.49 33.37 34.59 32.52 28.53 24.03 24.75 27.11 33.22 34.90 39.31 39.83 34.74 37.22 35.91 33.77 27.48 25.93 26.46 22.35 33.96 30.57 31.62 37.19 41.78 42.83 42.76 43.02 44.84 46.08
50.64 51.09 49.90 48.52 46.32 45.76 42.06 29.59 14.88 27.26 23.75 36.29 35.58 34.42 31.43 33.42 31.67 32.97 29.59 22.18 30.38 30.66 27.08 20.11 25.02 35.17 38.62 35.43 31.20 33.57 32.79 24.56 21.49 22.17 21.98 33.24 27.16 31.70 38.52 39.62 44.17 43.66 43.89 45.53 45.86
51.94 48.38 45.80 46.17 47.38 44.80 34.99 19.39 19.51 24.02 33.66 32.25 32.23 24.86 31.67 33.77 33.28 31.20 23.42 25.19 30.74 31.65 29.52 23.72 27.81 38.27 38.16 38.79 37.25 33.76 30.14 35.72 29.79 28.40 22.46 27.36 29.64 34.64 37.50 38.52 40.10 41.06 42.06 42.60 44.57
47.74 45.41 43.08 47.10 46.72 40.97 28.57 24.89 26.53 36.06 34.12 35.43 23.02 31.73 27.75 32.26 29.83 28.31 26.18 32.45 31.65 33.56 38.08 31.15 27.05 34.62 36.84 38.18 36.48 34.88 35.79 29.85 29.19 21.62 20.84 22.39 23.90 27.08 32.14 35.72 39.52 40.24 41.39 42.35 43.44
45.47 40.27 44.60 46.85 44.79 34.80 21.20 22.60 30.91 36.34 36.86 34.37 31.57 31.89 29.67 30.97 33.20 23.23 29.93 34.18 34.50 33.04 36.11 34.19 29.65 31.07 33.71 31.92 28.96 30.12 28.75 33.34 33.38 27.24 22.10 18.53 23.02 33.99 33.64 36.11 36.77 37.56 40.87 42.39 42.81
43.09 34.74 44.86 45.07 30.26 31.09 23.30 31.21 37.51 33.60 35.99 36.06 33.77 32.34 28.62 32.28 33.63 30.39 30.57 32.47 39.23 34.54 32.74 35.15 32.54 25.69 28.27 36.97 37.60 33.83 31.61 35.25 25.03 26.35 24.47 20.69 23.85 37.03 37.24 38.47 40.12 40.53 42.20 42.25 43.85
39.47 36.46 43.53 41.44 22.29 22.96 30.68 33.97 34.28 32.59 32.70 33.14 32.03 33.82 33.62 31.91 32.16 32.75 32.69 37.73 40.06 37.98 35.19 35.86 33.13 24.68 27.75 33.86 36.76 33.98 35.00 36.76 35.79 30.95 25.79 25.10 25.57 38.32 37.34 37.84 40.29 40.40 40.66 42.27 43.36
37.50 30.32 33.87 36.16 31.83 28.59 28.24 29.40 29.92 34.51 33.56 34.45 33.42 34.30 32.25 32.92 34.96 32.26 32.03 37.15 41.23 40.66 41.87 40.42 34.35 29.21 22.79 26.11 31.31 28.26 32.79 34.91 30.02 24.78 30.46 30.56 30.01 33.29 35.59 36.14 37.18 39.58 41.67 42.45 42.88
37.42 33.67 34.38 27.11 28.22 29.76 30.55 31.04 29.27 28.46 32.86 34.02 32.47 31.99 31.64 26.41 31.77 31.39 33.37 36.18 38.86 40.76 37.84 38.52 32.11 32.96 33.47 34.65 34.64 32.61 32.44 34.65 31.13 33.25 30.06 32.76 32.91 35.26 35.52 36.08 36.63 39.04 42.01 42.80 43.60
33.19 30.60 31.10 29.46 31.73 29.68 29.61 27.08 28.71 29.85 30.48 29.81 29.54 32.54 34.04 28.81 29.59 29.90 31.43 33.45 33.16 36.61 34.53 36.05 30.68 32.32 26.89 34.40 34.63 32.08 34.67 34.92 35.02 34.92 33.82 34.58 32.43 36.40 37.13 39.05 40.36 38.90 41.57 42.76 43.69
36.58 36.71 33.29 31.87 28.96 26.94 26.15 28.00 29.61 30.98 32.43 33.71 32.18 30.00 33.07 32.11 32.63 34.18 35.64 35.54 35.14 35.19 36.41 35.34 34.06 29.01 24.07 30.93 32.17 27.90 32.93 34.98 35.19 35.99 35.99 30.75 34.56 37.65 38.48 40.25 40.45 40.21 41.20 42.07 43.98

GFSSW_sfc_wetblb_102.txt.gz
Wetbulb
55.58 55.78 56.19 56.87 56.00 55.41 55.77 55.75 56.06 56.57 55.81 55.03 55.49 55.88 55.47 55.00 54.64 50.61 46.14 49.83 51.70 57.03 55.13 50.72 49.35 48.66 49.35 47.75 50.55 48.65 41.41 37.32 41.75 43.19 44.01 50.09 49.53 50.55 53.07 52.39 57.62 58.78 59.82 63.46 66.13
55.17 55.41 55.74 56.30 56.19 55.40 55.41 56.06 55.58 55.84 54.93 54.59 55.11 54.96 54.66 54.13 49.55 46.58 52.55 56.81 57.44 56.43 49.81 47.17 43.71 45.47 44.48 44.23 47.12 43.97 38.90 40.15 45.60 46.78 45.89 49.86 50.69 50.81 54.07 54.95 56.94 61.37 64.13 65.66 66.46
54.70 55.03 55.39 56.10 55.90 55.41 55.10 55.65 55.17 54.47 54.64 54.69 54.25 54.24 53.84 52.55 44.85 43.60 54.94 55.37 56.12 55.70 50.13 48.20 46.93 43.64 42.17 43.66 44.22 43.16 37.68 43.71 46.97 48.02 49.45 49.58 49.90 53.23 53.03 51.14 56.02 59.32 62.69 64.16 65.18
54.52 54.57 55.09 55.41 55.26 55.46 55.38 55.71 54.98 53.68 53.64 53.69 53.52 53.64 53.37 49.33 32.56 45.88 53.50 54.01 54.58 52.97 49.94 46.71 45.77 42.01 39.26 38.27 42.90 39.07 43.43 44.59 47.42 49.94 50.20 48.66 50.99 50.66 51.17 49.27 55.06 62.81 64.15 64.65 63.38
54.31 54.17 54.57 54.76 55.07 55.01 55.16 55.31 54.27 53.81 53.45 53.76 53.09 53.55 49.66 43.07 42.49 50.06 52.98 51.77 48.78 48.91 46.10 44.84 42.84 41.99 36.92 39.49 41.76 39.85 41.62 44.79 47.31 48.80 49.13 50.56 49.50 50.54 50.49 53.16 53.83 60.11 63.41 62.88 63.40
54.23 54.31 54.27 54.16 54.71 54.58 54.94 54.96 53.48 53.08 52.63 53.25 53.23 52.73 45.46 36.91 46.01 48.22 47.87 47.86 46.78 45.73 44.41 44.89 43.03 44.43 40.73 39.31 38.92 41.90 42.82 43.25 45.57 47.15 48.26 46.89 49.23 50.48 51.28 53.42 52.44 56.53 60.06 62.21 62.95
54.01 53.74 53.90 53.99 53.77 54.60 54.41 53.93 53.46 52.70 52.80 52.99 53.38 49.79 43.42 40.27 45.94 47.15 48.85 45.88 46.65 45.65 42.44 46.06 46.11 43.39 40.87 38.36 41.90 41.25 39.49 41.69 43.60 45.86 45.74 47.68 45.82 47.21 52.01 52.71 50.90 50.52 53.03 59.89 61.61
54.08 53.77 53.45 53.47 53.94 53.85 54.53 53.67 52.96 52.54 52.71 53.27 52.51 46.46 38.70 48.53 46.22 47.34 46.74 46.79 47.90 48.10 46.96 48.37 46.68 44.11 40.33 41.19 40.97 39.48 39.51 33.84 42.44 44.99 46.67 45.86 38.23 48.07 51.95 51.51 50.06 49.69 49.46 52.86 60.22
53.53 53.49 53.36 52.78 53.12 53.93 53.60 53.08 52.48 51.32 52.21 52.76 46.32 42.27 37.28 49.70 44.64 45.92 45.28 43.92 45.18 47.05 46.80 48.46 44.67 40.53 39.77 34.03 34.34 36.62 32.03 32.77 37.84 45.37 44.36 42.49 40.04 46.89 51.46 51.18 49.06 49.46 48.85 50.17 56.04
53.41 53.06 52.76 52.86 52.91 53.64 53.24 52.53 50.98 50.31 49.18 49.34 47.34 37.13 40.81 40.41 44.44 45.56 45.23 45.69 42.55 42.34 41.97 39.27 37.59 35.09 35.59 31.85 26.19 29.31 31.26 32.57 34.49 41.51 43.61 40.00 40.26 45.03 49.84 49.82 49.10 49.02 48.68 49.05 52.45
52.89 52.68 51.89 52.44 52.74 52.95 49.45 43.11 39.31 37.98 40.71 37.11 38.49 37.76 41.49 44.84 46.37 43.61 45.06 43.11 42.10 38.92 29.58 33.48 25.64 23.60 32.16 33.84 33.90 33.24 32.91 32.29 35.17 42.15 41.71 40.16 40.55 44.95 48.41 48.65 47.67 48.88 49.05 49.79 50.15
52.59 52.13 51.62 52.21 52.56 52.24 46.76 40.19 40.34 39.78 31.71 40.29 40.46 41.26 43.13 44.21 38.28 41.45 45.03 36.64 36.30 29.75 32.31 26.65 23.76 33.39 34.88 35.54 33.90 34.08 31.48 32.11 36.40 40.54 41.04 39.92 39.34 42.84 46.85 46.65 47.35 47.96 48.26 49.50 50.49
52.24 51.43 51.67 52.07 51.99 47.78 42.76 42.26 45.43 43.51 32.74 37.87 40.95 39.79 41.11 43.04 37.78 38.26 41.82 37.84 33.14 30.39 29.60 24.56 29.68 35.37 33.99 34.32 31.93 33.21 31.61 32.57 33.27 38.67 39.52 38.63 36.87 40.22 43.65 46.57 47.61 48.39 48.79 49.77 49.17
51.70 51.40 51.43 51.49 47.71 45.72 41.49 45.67 45.30 43.01 22.67 32.55 37.23 39.63 41.88 41.15 35.71 42.60 43.04 37.49 33.99 29.17 29.95 27.26 34.23 33.86 33.08 33.44 33.86 29.27 36.45 35.41 34.72 33.89 30.48 38.24 27.83 35.67 39.42 41.76 43.69 45.99 47.82 48.58 48.84
51.16 51.36 50.99 51.19 44.97 41.32 44.50 45.80 44.19 38.34 6.11 32.18 36.88 44.70 41.45 36.61 36.94 37.41 42.77 37.95 31.21 30.63 30.50 24.14 30.94 32.41 32.66 33.51 35.74 33.59 39.32 36.19 35.59 32.95 32.26 34.65 30.19 32.54 38.46 38.55 41.74 44.24 45.38 47.07 46.07
50.93 51.17 51.27 48.49 46.32 44.48 46.02 44.96 39.88 19.23 6.11 27.15 37.23 36.12 36.69 35.95 35.14 38.50 37.30 38.77 38.50 32.60 32.83 31.93 36.70 35.99 37.11 38.54 38.20 38.84 37.89 37.78 37.08 33.96 24.43 32.17 31.43 29.82 35.71 38.49 42.01 43.47 44.27 45.93 45.68
50.80 51.11 49.97 49.93 42.93 45.20 45.08 38.11 19.93 12.18 28.86 25.18 31.24 35.08 34.22 32.37 32.95 34.26 31.30 27.71 24.98 21.23 24.81 31.08 33.29 38.99 39.76 34.91 36.26 35.83 33.96 26.88 25.87 25.81 20.77 33.30 32.49 32.90 36.81 41.72 43.82 43.66 43.48 45.43 46.35
50.84 51.11 49.59 47.90 45.65 45.37 40.29 25.06 11.22 25.43 24.18 34.40 34.44 34.86 31.62 31.61 30.70 31.80 27.51 22.08 31.41 29.63 26.22 25.80 24.83 35.22 38.01 34.31 28.94 33.11 32.22 26.84 21.51 19.08 24.84 34.13 27.91 31.84 37.87 40.59 44.25 45.15 44.39 45.31 44.74
51.35 46.71 45.64 45.49 46.72 43.93 32.37 15.07 19.49 22.75 32.20 29.08 30.66 20.23 30.02 32.42 30.82 30.45 20.79 23.78 30.05 31.70 27.53 24.76 28.56 37.68 38.24 38.28 36.23 32.79 29.72 35.28 26.98 25.75 22.49 27.42 30.19 34.63 37.32 37.68 39.22 41.87 42.28 42.29 43.59
46.05 44.48 43.06 46.59 45.68 39.42 26.44 22.71 27.15 33.89 33.18 34.60 24.52 31.43 24.22 30.47 25.54 28.53 24.64 31.34 30.98 33.79 37.81 31.08 26.30 34.59 36.09 37.41 35.83 33.89 35.88 26.15 26.63 21.46 17.96 22.68 23.43 27.19 31.80 34.30 36.51 38.42 39.93 40.81 42.42
44.74 40.20 43.79 46.13 42.71 30.94 19.93 21.44 30.27 34.49 35.87 32.81 29.73 30.70 28.23 29.58 31.67 21.32 27.21 32.92 35.21 32.51 36.40 32.98 28.38 29.14 33.15 29.28 29.60 31.57 30.57 31.64 32.72 24.99 19.10 17.24 22.05 31.26 32.31 34.57 36.33 36.16 38.48 39.19 40.19
43.43 35.03 43.97 43.62 28.60 27.70 22.43 30.50 36.57 32.29 34.62 35.34 32.96 32.42 28.18 31.92 31.87 30.02 27.88 30.93 38.09 35.58 32.54 34.68 29.78 23.76 26.11 36.29 36.44 32.82 30.35 32.46 21.06 23.53 20.98 17.53 23.43 34.26 33.82 36.17 37.95 38.23 40.28 40.89 41.26
39.48 35.80 42.90 38.49 22.67 21.41 29.15 32.20 32.91 31.78 31.36 32.06 30.62 32.84 34.40 32.67 30.58 31.79 31.79 36.15 39.61 37.70 34.82 35.15 31.14 23.57 23.48 32.75 34.97 31.47 33.36 34.15 31.95 26.89 22.66 16.52 23.19 36.53 34.93 36.38 38.72 38.89 39.23 41.01 41.96
36.53 28.01 32.94 33.79 29.53 27.71 27.86 28.28 28.02 33.29 32.26 33.27 32.43 33.33 32.44 31.94 32.95 29.93 28.16 36.41 39.85 40.02 41.10 40.37 33.87 26.15 18.82 25.54 30.09 27.50 31.69 34.03 27.40 20.49 24.94 22.93 28.22 31.85 34.35 36.69 37.98 38.91 40.05 40.11 41.61
37.55 30.03 32.33 25.91 26.97 28.43 29.28 29.76 27.87 27.41 31.51 32.85 31.73 32.32 30.61 28.97 31.64 30.39 31.00 34.07 37.69 39.93 37.06 38.17 30.75 32.93 33.45 33.51 32.61 30.78 30.69 33.28 25.82 31.93 30.37 31.68 32.11 33.00 33.76 33.97 36.94 37.82 40.59 41.05 41.73
34.76 29.64 29.14 27.55 29.53 28.13 29.33 26.80 27.45 28.71 29.45 28.54 28.93 31.85 31.29 29.17 28.77 30.44 31.94 33.43 32.65 34.91 33.51 34.71 29.51 30.22 26.40 32.78 33.70 30.77 33.28 33.81 34.05 33.76 34.39 34.99 33.33 37.23 37.11 37.37 37.85 37.11 40.52 41.62 42.21
35.76 35.62 31.49 30.30 26.86 25.84 25.35 27.19 28.65 30.34 31.25 32.83 31.47 28.88 29.91 31.00 31.73 34.14 34.83 35.24 34.99 34.33 35.64 35.04 30.77 28.08 23.23 29.90 30.28 25.02 32.87 33.23 34.24 34.58 34.54 31.13 34.40 37.40 37.60 38.98 38.49 38.53 39.54 41.19 42.88

GFSSW_sfc_wetblb_105.txt.gz
Wetbulb
55.14 55.57 55.93 56.20 57.10 56.36 55.47 56.00 56.16 55.81 55.97 55.20 55.07 55.52 54.88 55.01 54.42 49.63 45.48 49.22 51.48 57.57 55.25 49.94 47.46 47.54 47.54 45.20 47.38 49.50 39.09 34.95 36.64 40.73 43.80 49.10 47.74 50.90 52.77 51.73 53.58 56.39 58.89 62.85 67.34
55.11 55.11 55.54 55.82 56.50 56.35 55.69 55.29 55.76 55.56 54.49 54.86 54.62 54.68 54.45 54.09 48.94 46.00 51.87 56.23 57.90 56.86 49.18 45.94 43.31 44.34 40.54 42.63 43.62 40.93 37.81 37.85 41.80 43.46 45.38 48.62 49.46 50.14 50.73 53.83 56.39 58.48 63.16 65.59 66.28
54.82 55.18 55.19 55.67 55.93 55.83 55.92 55.93 55.92 54.96 53.63 53.91 54.00 53.99 53.68 52.04 43.86 43.21 54.90 55.60 56.10 54.58 49.54 47.13 45.89 42.67 38.54 42.20 40.62 39.80 36.59 41.07 42.70 46.43 48.67 47.59 48.98 51.98 51.24 50.12 54.49 57.08 61.90 64.57 64.71
54.56 54.76 54.57 54.93 55.03 55.50 55.62 55.68 55.62 54.24 53.57 53.80 53.50 53.98 53.44 48.41 31.24 45.39 53.82 53.99 53.97 51.87 49.22 45.17 43.99 39.89 37.96 37.08 41.88 37.61 40.54 41.58 43.37 48.12 48.11 46.29 50.67 49.80 51.51 49.38 52.15 54.09 63.28 63.41 64.20
54.41 54.26 54.64 54.51 54.71 55.15 55.10 55.61 55.21 53.65 53.13 53.42 53.72 52.82 48.76 41.74 41.61 48.95 52.01 51.24 47.62 48.24 45.37 43.00 40.95 40.09 36.68 37.15 39.38 37.88 39.52 42.10 44.60 46.94 47.81 48.35 48.61 49.64 49.59 51.82 54.41 56.60 63.02 63.05 63.93
54.52 54.53 54.51 54.28 54.33 54.35 54.96 54.76 54.24 53.25 52.71 52.89 53.73 52.52 44.50 35.81 45.52 47.19 46.84 46.81 45.58 44.65 43.25 43.71 41.64 43.19 39.99 37.78 37.29 39.93 41.24 41.25 43.42 45.78 45.66 44.15 46.66 50.17 50.61 52.44 52.08 56.23 59.92 62.26 63.39
54.60 54.21 53.88 54.09 53.65 54.15 54.35 55.09 53.77 53.34 52.55 52.77 53.24 49.70 42.45 39.71 45.11 46.25 47.77 44.86 45.54 44.65 41.65 44.58 45.03 41.99 41.24 37.69 41.18 39.88 37.40 41.07 42.14 43.85 43.76 44.97 41.27 47.32 51.68 51.94 50.33 50.29 51.36 56.26 61.82
54.52 53.75 53.78 53.85 53.42 53.63 54.02 54.07 53.13 52.34 51.98 52.97 52.50 45.39 37.30 48.13 45.32 45.96 45.53 44.89 46.49 46.86 46.03 47.16 45.36 42.74 40.60 40.91 37.21 36.93 38.22 33.13 40.04 43.30 44.71 41.61 34.83 45.81 51.77 50.47 48.65 49.22 48.98 50.83 54.64
54.27 53.36 53.26 53.31 52.98 53.31 53.90 53.45 52.99 51.78 51.10 52.27 45.40 41.36 36.81 49.07 43.50 44.96 44.21 42.80 44.06 45.53 45.94 47.75 43.47 38.90 39.52 33.96 30.55 35.49 27.67 32.83 36.77 44.00 43.93 40.72 35.80 43.99 51.43 51.14 48.50 48.07 47.80 49.55 50.88
53.60 53.14 52.63 52.35 52.78 53.03 53.17 51.95 50.90 49.93 48.51 49.09 46.93 36.70 39.51 39.54 43.53 44.48 44.13 44.67 41.31 41.26 40.71 38.02 35.56 33.55 34.73 31.46 22.89 29.18 30.63 30.98 33.94 41.03 42.41 38.96 38.63 42.89 46.80 50.03 48.81 48.22 46.96 48.04 49.20
53.37 52.47 51.59 51.96 52.43 52.81 48.99 42.50 38.73 37.39 39.93 36.51 37.44 36.78 40.40 43.94 45.44 42.67 43.77 42.05 40.83 37.46 29.28 32.52 24.79 21.95 28.81 34.17 33.70 32.53 32.07 30.00 34.86 41.91 40.27 38.43 38.58 40.55 44.15 44.48 48.06 47.48 46.41 47.33 48.64
53.28 51.87 51.37 51.97 52.29 51.95 45.67 39.77 39.48 38.66 31.29 39.28 39.84 40.11 42.36 43.92 37.99 40.59 43.99 35.56 34.65 28.21 31.54 25.40 21.95 32.06 34.42 35.51 33.80 32.55 31.70 30.64 35.67 40.10 40.90 39.15 38.12 42.13 43.41 43.98 47.71 47.70 46.94 46.97 48.11
52.82 51.70 51.31 51.60 51.41 47.09 42.34 41.65 44.58 42.55 31.62 36.75 39.87 38.91 40.30 42.65 37.98 37.49 40.46 36.69 31.85 28.52 27.72 23.78 28.47 34.32 32.93 33.63 31.68 31.97 31.55 31.51 33.45 39.08 40.02 39.46 37.28 40.29 43.97 45.88 47.33 48.32 48.83 48.18 48.03
52.33 51.41 51.62 51.57 46.53 45.15 41.77 45.01 44.33 41.27 19.95 30.53 36.20 38.76 41.10 40.79 34.61 42.07 41.79 36.50 32.88 28.56 28.62 26.52 33.07 33.28 32.28 33.44 32.80 28.90 35.67 35.50 34.82 34.81 30.86 38.19 28.59 36.91 40.23 42.52 44.76 46.43 47.29 47.33 47.79
52.28 51.43 51.54 51.32 44.71 41.86 43.99 44.94 43.04 36.23 7.01 30.57 35.91 44.01 41.29 36.54 36.13 37.80 41.83 36.76 31.59 30.28 28.51 22.66 30.47 31.67 32.11 33.07 35.12 33.16 37.98 35.01 34.53 34.49 33.99 33.99 29.43 32.35 39.20 38.80 41.47 43.71 46.51 48.75 49.32
51.99 51.31 51.38 48.61 46.01 44.24 45.51 43.83 38.19 18.41 6.38 26.03 36.29 35.45 36.36 35.77 34.83 37.45 36.29 37.98 37.53 32.66 31.69 29.52 36.23 34.91 35.72 37.55 37.53 36.91 36.83 35.53 36.07 34.21 23.59 31.78 30.21 29.68 34.63 37.77 39.75 43.24 46.25 48.59 49.42
51.82 51.23 49.89 49.25 43.10 45.14 44.10 36.82 18.94 9.15 27.25 24.30 29.62 34.18 33.96 32.44 32.86 33.56 30.36 26.82 25.44 20.26 20.04 30.80 32.39 36.47 39.46 34.26 35.74 33.89 32.52 26.21 24.10 24.02 21.29 33.40 30.95 31.77 37.34 40.30 41.64 42.40 44.50 48.08 49.53
51.55 51.26 50.13 47.64 45.43 44.41 38.51 23.86 8.12 22.71 21.40 32.78 33.37 33.96 30.60 32.30 31.40 31.07 27.25 23.53 31.50 30.19 26.03 25.57 24.44 35.25 37.90 33.87 31.06 32.28 32.50 19.60 18.19 19.44 24.34 33.50 27.29 32.35 37.36 40.15 42.63 44.47 45.86 46.25 46.59
51.51 46.68 44.99 45.41 45.99 42.85 30.45 11.31 16.91 21.13 30.78 28.41 29.09 19.44 28.88 32.43 30.79 30.10 20.48 23.77 28.55 31.85 28.75 25.02 25.43 37.44 36.76 36.93 35.95 32.12 29.21 35.10 24.06 23.62 23.12 27.71 30.01 34.27 36.51 37.71 38.13 41.60 43.09 43.16 43.70
45.44 44.31 43.47 46.15 45.00 37.59 24.28 22.34 25.70 33.23 32.41 32.72 21.09 29.69 22.08 30.36 28.64 27.90 23.52 30.07 30.11 32.65 35.74 29.27 23.11 33.85 36.08 36.50 35.36 34.45 35.96 29.50 22.09 14.31 19.63 23.25 22.86 26.25 31.52 34.25 37.77 39.11 40.41 42.22 43.30
44.19 39.93 43.73 45.75 41.82 29.26 17.47 21.24 29.50 33.35 35.28 31.80 28.35 29.15 26.44 30.04 30.43 27.71 25.87 32.02 35.44 32.30 34.95 31.40 25.64 26.62 32.15 29.23 26.89 30.08 27.02 32.17 31.69 23.56 19.21 18.84 22.74 31.25 32.27 34.04 36.42 37.56 39.65 40.26 41.66
42.71 35.02 43.93 43.49 27.69 25.37 22.07 28.85 35.65 31.42 34.43 34.11 32.02 31.52 29.64 32.03 30.87 29.33 26.11 29.50 36.63 35.82 31.80 32.49 26.69 19.32 25.22 33.59 36.14 32.23 29.63 31.11 22.67 22.57 22.98 16.93 24.48 34.58 33.70 36.50 38.11 38.69 40.20 40.65 41.17
37.66 37.51 43.53 40.58 21.91 20.26 28.06 30.82 31.70 31.05 30.32 31.29 29.51 31.69 32.25 32.39 27.66 31.14 29.29 35.15 38.26 36.66 34.21 35.34 28.58 15.62 20.23 29.57 34.12 30.71 32.62 32.85 29.91 25.61 26.29 15.57 23.22 35.82 35.54 36.44 38.30 38.90 39.34 40.42 40.56
36.48 29.67 34.29 33.61 27.89 26.74 27.05 27.23 27.41 32.21 31.14 32.46 31.45 32.45 30.98 31.28 31.31 28.36 27.24 36.59 39.58 39.53 41.24 40.61 34.38 24.49 17.25 25.01 28.66 27.02 30.48 31.65 23.51 18.93 26.81 22.21 25.61 30.94 33.85 35.37 36.32 38.03 39.08 39.46 39.88
37.54 31.10 33.23 26.16 26.76 27.76 27.93 28.44 27.02 26.68 30.46 31.89 30.59 31.00 26.45 26.05 29.15 26.93 28.43 34.18 37.33 38.94 37.37 37.71 30.64 33.99 33.75 33.38 31.29 30.08 29.99 30.81 23.45 27.16 22.11 29.71 29.57 30.99 32.89 33.95 35.50 36.45 39.53 40.65 40.97
34.70 31.30 29.38 27.63 28.93 28.07 28.62 26.52 27.09 27.64 28.56 27.34 28.69 32.39 30.46 27.44 26.37 29.60 28.70 31.65 27.95 35.31 34.75 36.38 29.54 29.10 25.49 31.68 31.95 29.86 31.11 31.39 32.80 32.68 32.77 32.44 30.21 35.28 36.02 35.57 36.65 36.81 39.94 40.77 41.40
36.63 34.44 32.41 29.35 26.43 25.57 25.19 26.31 28.13 29.50 30.45 31.89 30.98 29.34 28.98 30.46 31.54 34.02 32.79 33.78 32.42 33.19 34.08 34.19 28.34 25.06 21.63 27.59 29.65 24.26 29.82 30.61 32.94 33.15 33.98 30.54 34.39 36.37 36.89 37.14 36.43 36.94 37.89 37.99 39.36

GFSSW_sfc_wetblb_108.txt.gz
Wetbulb
56.06 55.73 55.77 55.97 56.39 56.94 56.77 56.12 55.71 55.82 56.17 54.87 54.97 54.95 55.20 55.04 54.19 48.85 44.36 48.86 50.26 56.89 56.37 49.39 46.72 46.22 46.47 43.27 46.04 45.00 37.02 33.18 36.16 36.46 38.62 48.32 47.24 50.53 53.03 49.85 52.86 57.52 56.92 61.95 68.68
55.82 55.50 55.42 55.73 56.20 56.61 56.40 56.29 56.42 56.14 54.93 54.20 54.28 54.31 54.31 54.07 48.35 45.50 51.22 55.68 56.97 57.08 50.32 46.37 42.42 43.29 39.33 41.24 42.53 40.01 34.46 35.23 40.14 40.86 39.64 45.28 47.77 49.02 49.75 49.54 52.18 58.34 62.54 66.88 67.63
55.90 55.33 54.98 55.21 55.47 55.42 55.80 56.14 56.16 56.03 54.53 53.36 54.01 54.04 53.65 51.55 42.56 42.27 54.86 54.69 56.09 54.21 49.25 46.63 45.11 42.10 37.06 40.09 39.47 38.39 34.32 38.49 40.38 43.29 44.78 44.39 47.22 50.31 48.71 47.72 51.00 54.86 61.39 65.53 65.86
56.19 55.27 54.89 54.61 55.39 55.05 55.75 55.69 55.99 55.02 53.68 53.47 54.10 53.08 53.68 47.51 29.27 44.83 53.97 54.17 54.22 50.92 48.59 44.74 42.88 39.37 36.99 35.56 39.62 35.02 38.73 39.52 41.48 44.14 43.47 44.15 48.66 47.20 48.28 49.30 53.98 52.27 62.45 64.67 63.73
56.02 55.08 54.71 54.76 54.54 54.65 54.65 55.58 55.23 53.99 53.02 52.88 54.00 52.89 48.08 40.43 40.60 48.52 52.50 50.74 46.62 47.40 44.49 41.86 39.93 39.07 35.04 36.05 37.97 37.48 37.36 40.15 41.67 42.80 43.09 46.30 45.81 46.10 46.76 49.70 53.44 54.78 59.57 62.00 62.67
55.52 55.35 54.44 54.30 54.06 54.03 54.48 54.72 55.13 53.53 52.64 52.47 53.11 52.10 43.65 35.15 45.07 46.59 46.08 46.14 44.65 43.66 41.93 42.26 40.37 42.20 38.16 37.82 37.34 38.87 39.18 39.40 40.82 41.75 43.57 43.32 43.93 45.30 47.23 51.30 51.99 56.68 59.37 61.13 62.80
55.63 55.08 54.31 54.14 53.88 53.53 54.28 54.33 54.15 53.16 52.79 52.67 52.70 49.02 41.67 39.26 44.96 45.05 46.59 44.21 44.68 43.69 41.19 43.14 43.86 40.80 40.27 37.10 39.98 39.03 34.84 37.90 39.56 40.01 40.53 45.12 40.55 40.51 46.13 48.90 50.69 52.88 54.87 58.87 62.62
56.09 54.99 54.38 53.85 53.38 53.06 53.54 54.07 53.15 52.69 51.71 51.97 52.46 44.66 36.27 46.94 45.04 45.44 44.64 44.00 45.38 45.75 45.17 46.13 44.44 41.44 39.71 40.88 37.35 35.08 35.16 31.06 37.76 39.48 39.95 42.17 34.73 41.64 46.55 45.76 48.38 49.00 49.98 53.63 57.56
56.06 54.97 53.64 53.52 52.72 52.94 53.15 53.25 52.95 52.01 50.84 51.81 44.45 40.57 35.48 48.21 42.73 44.42 43.88 41.90 43.16 44.16 44.48 47.16 42.55 37.42 38.08 33.22 28.18 32.71 28.56 30.30 34.42 39.85 39.78 40.05 36.81 41.96 45.07 44.65 48.18 47.81 47.13 50.71 52.89
55.70 54.46 53.12 52.93 52.16 52.44 52.67 50.86 50.59 49.16 48.37 48.59 46.39 35.71 38.87 38.67 42.84 43.53 43.49 43.77 40.27 40.25 39.26 37.03 34.05 30.55 31.49 30.73 12.82 24.26 28.62 31.11 31.94 36.55 38.77 38.00 37.71 42.26 43.26 42.86 44.59 48.52 46.83 49.40 50.93
55.55 54.27 52.77 52.04 51.93 52.17 48.37 42.49 38.49 37.32 39.51 35.87 36.47 36.06 39.39 42.89 44.46 41.94 42.86 40.98 39.75 36.24 30.33 31.33 24.72 19.80 25.68 30.91 33.28 31.72 29.22 29.37 34.49 40.25 38.24 38.22 37.64 40.11 43.47 41.01 43.07 47.34 46.83 48.38 50.85
55.24 53.58 52.54 51.80 52.12 52.04 45.57 38.91 38.67 37.93 31.22 38.45 39.69 39.23 41.77 44.05 37.72 39.98 43.01 34.86 33.60 27.71 29.59 25.17 21.60 29.74 33.60 33.12 33.32 31.94 29.51 31.26 35.50 39.25 39.46 38.38 37.18 41.31 41.19 41.73 43.31 46.36 46.40 47.49 49.80
54.86 53.13 51.97 51.64 51.94 47.50 42.10 41.62 44.30 41.37 31.65 35.91 38.73 38.22 39.38 41.86 37.06 36.85 39.58 35.66 31.55 29.20 27.40 23.81 27.40 32.86 32.53 31.08 31.22 31.50 30.47 31.95 33.24 39.09 40.68 38.58 36.66 39.19 42.24 44.44 45.56 46.60 47.83 47.87 48.81
54.16 52.66 51.88 52.13 46.79 45.16 41.20 44.59 43.34 39.64 19.19 29.66 35.24 37.99 40.61 40.17 33.70 41.43 40.86 35.70 32.55 28.49 27.78 25.95 31.27 31.94 32.39 30.28 33.20 26.25 34.75 36.37 36.23 33.58 31.00 36.71 28.35 37.25 40.37 41.43 43.82 45.87 46.72 46.45 47.29
53.40 52.12 51.94 51.62 44.97 42.77 43.66 43.87 41.70 35.90 7.94 29.45 35.05 43.34 40.95 35.44 35.30 37.13 40.93 35.76 29.88 29.84 28.40 21.85 29.15 30.69 31.20 33.28 35.07 32.70 37.15 35.59 35.49 32.39 34.55 33.10 28.67 33.66 40.03 38.52 40.98 43.22 45.49 47.62 47.70
53.15 51.96 52.08 48.16 45.28 44.35 44.93 41.86 37.19 18.83 6.14 26.58 35.54 34.91 34.66 35.70 34.08 36.50 35.53 37.07 36.79 32.18 31.11 28.60 35.58 33.80 33.58 37.13 36.02 36.14 36.31 35.50 34.92 31.83 23.80 31.77 29.32 29.20 35.95 38.30 40.33 42.20 45.73 46.50 47.87
52.58 51.76 50.14 48.77 41.92 45.07 43.11 35.60 19.21 10.17 26.48 24.25 29.07 33.69 32.93 31.79 31.80 32.17 30.43 27.30 27.28 21.33 23.57 30.71 31.70 35.31 36.87 34.02 35.00 32.52 27.51 22.70 19.48 19.29 22.96 31.84 28.92 30.23 38.07 40.65 42.16 42.48 44.32 47.07 48.80
52.32 51.66 50.14 47.15 45.86 43.87 36.63 25.18 11.01 21.86 20.31 31.22 32.63 33.50 25.43 32.41 28.29 30.17 27.09 23.70 30.22 30.37 23.52 24.66 24.15 34.78 37.69 34.24 31.18 31.80 27.63 20.48 18.37 21.03 25.17 33.16 26.98 31.00 35.81 41.04 43.55 44.83 44.94 46.97 48.07
51.76 47.31 45.25 44.71 45.44 41.11 29.49 13.75 16.63 20.25 29.45 28.76 28.20 18.22 29.38 31.47 30.80 26.23 19.73 23.34 27.71 32.02 28.95 25.60 25.95 36.92 36.73 36.77 35.80 32.44 28.99 34.09 25.27 22.64 19.95 25.18 27.88 33.31 36.34 36.40 36.68 40.46 43.65 44.38 46.75
46.47 44.48 43.36 46.10 43.85 37.86 25.19 22.81 24.66 31.41 31.69 31.30 19.33 29.34 24.08 28.56 28.06 27.47 22.52 29.96 31.55 31.58 33.77 28.82 17.02 32.05 36.05 36.28 36.28 34.68 36.34 25.48 24.57 17.93 20.68 23.54 23.33 25.47 31.11 33.36 35.61 37.58 41.24 42.63 42.96
44.12 38.20 44.26 45.80 41.07 32.71 18.52 21.03 28.46 32.58 34.81 31.15 27.68 27.09 27.75 30.02 28.26 20.54 23.48 30.96 34.32 33.79 32.56 29.43 24.79 25.52 30.76 30.27 29.29 31.87 30.19 30.65 29.17 24.83 20.54 19.31 23.30 31.41 31.90 33.39 35.18 37.07 39.09 39.94 41.29
42.12 33.59 44.49 43.68 31.83 25.23 21.58 28.10 34.51 30.89 34.51 32.79 31.32 29.50 29.84 31.90 27.11 19.42 25.94 28.31 35.32 36.81 30.49 31.02 26.05 21.51 28.73 32.90 36.32 32.33 30.02 31.64 21.61 22.88 21.52 19.52 24.61 34.23 33.51 36.42 37.98 38.10 40.01 40.31 40.52
37.30 38.05 43.70 41.89 23.44 21.29 27.05 29.34 30.58 30.04 29.74 30.73 28.86 30.80 32.83 31.98 24.57 28.10 24.86 34.16 37.65 36.09 34.63 34.86 25.48 11.96 19.07 26.14 31.88 30.43 32.74 33.35 28.36 26.35 26.13 20.38 24.78 35.21 34.72 36.22 37.86 38.20 39.04 40.37 41.35
36.20 31.83 36.72 38.00 29.28 25.97 26.11 26.61 26.96 31.36 30.30 32.35 30.86 31.79 31.35 31.94 30.29 27.42 25.84 35.79 38.61 37.46 41.69 39.47 33.30 23.61 18.93 25.72 28.22 25.20 30.35 31.23 22.51 20.42 25.03 23.20 26.55 31.25 32.72 34.15 35.31 37.70 38.98 40.18 40.82
35.07 32.06 35.49 30.20 26.76 26.26 26.97 27.33 26.35 26.46 29.52 31.64 30.09 29.76 26.76 25.64 27.15 25.93 28.53 33.82 37.02 37.75 37.28 36.13 28.79 32.48 33.15 33.47 31.19 30.29 29.81 30.89 22.61 25.98 20.77 27.74 28.40 30.35 32.45 33.41 34.51 36.69 39.76 40.53 41.03
34.07 31.69 29.73 27.13 28.36 27.16 28.54 25.89 26.39 26.86 27.92 26.96 28.52 31.20 28.55 26.01 25.52 26.03 27.89 32.09 26.42 35.27 35.40 36.27 27.81 28.46 25.69 30.10 31.71 29.69 30.88 30.35 31.31 30.79 31.43 29.90 29.98 34.22 35.75 35.64 35.83 35.34 37.19 37.92 39.94
35.87 34.84 32.53 28.70 26.14 25.69 24.66 25.91 27.72 28.82 29.77 30.72 31.03 29.31 28.55 29.81 31.13 31.15 31.04 31.70 30.87 33.17 33.38 33.61 26.85 23.75 20.73 26.39 28.31 23.23 27.93 30.72 32.92 32.09 32.60 30.21 32.65 35.62 35.18 36.66 36.14 36.63 37.17 36.48 37.70

GFSSW_sfc_wetblb_111.txt.gz
Wetbulb
57.15 56.42 56.21 56.03 56.63 56.78 57.24 56.86 56.30 56.34 56.12 54.82 54.79 54.88 54.66 54.78 53.46 49.44 44.12 48.48 51.28 56.59 55.33 50.58 48.14 46.94 47.57 44.58 47.21 47.23 36.38 32.55 35.00 37.12 39.42 45.38 43.67 50.05 53.02 50.64 52.23 54.65 58.69 62.40 67.36
57.04 56.47 56.11 55.60 56.05 56.28 56.14 56.05 56.70 56.03 55.87 53.94 54.10 54.15 54.12 54.01 48.62 45.58 50.78 55.08 56.46 56.13 51.13 47.26 43.85 44.44 40.91 42.80 43.87 40.95 35.15 34.45 39.72 41.07 40.51 43.62 44.31 47.36 47.77 49.42 50.66 52.43 60.01 65.21 67.43
57.34 56.81 55.91 55.48 55.46 56.03 55.69 56.34 55.95 56.38 54.64 54.23 53.75 53.49 53.92 51.48 42.28 41.78 54.64 54.40 55.38 54.61 51.03 48.26 45.96 43.11 38.71 40.57 40.98 40.28 34.37 38.11 39.86 42.00 43.97 43.52 45.01 47.76 47.23 46.15 50.18 50.78 52.56 61.85 66.28
57.70 56.66 55.80 55.35 55.39 55.05 55.23 55.40 55.66 55.37 53.47 53.15 53.88 53.11 53.03 48.18 30.35 45.44 53.92 53.66 54.22 51.87 48.86 45.57 43.26 39.46 36.32 35.11 40.19 35.87 39.48 39.87 40.00 42.15 42.68 42.15 45.50 45.16 47.52 48.05 51.59 51.80 52.84 53.22 63.71
57.66 56.48 55.71 55.22 55.07 54.69 54.79 54.93 55.61 54.24 52.86 52.43 53.09 52.72 48.59 41.64 40.27 48.67 53.06 50.60 47.11 47.79 44.77 42.43 40.86 40.15 35.75 35.88 37.52 36.16 37.82 39.78 41.39 42.30 42.38 43.90 42.00 43.08 46.48 51.20 51.10 51.56 53.17 53.56 55.19
57.84 55.96 55.82 54.58 54.39 54.39 54.05 54.97 55.04 53.86 52.71 52.33 52.46 51.49 44.61 34.36 45.69 47.49 46.37 46.47 45.69 44.78 43.14 44.29 41.38 42.57 38.69 37.46 36.70 38.67 38.74 38.67 40.26 40.72 42.02 40.42 41.64 43.46 47.25 50.65 49.94 50.38 50.56 53.36 55.72
57.85 56.03 55.62 54.56 54.39 54.19 53.84 54.53 54.20 53.15 52.44 52.16 52.54 48.63 42.36 38.96 46.35 45.76 46.46 45.13 45.62 44.96 42.46 44.08 45.06 41.65 40.39 36.20 39.74 38.06 34.50 36.18 37.61 39.61 39.41 42.68 38.36 39.04 46.39 47.95 48.08 48.45 48.92 50.55 55.93
58.22 56.17 55.46 54.53 53.78 53.64 53.09 53.95 53.65 52.49 51.70 51.82 52.55 45.32 35.76 46.25 46.32 46.37 45.46 44.90 45.95 46.16 45.87 46.37 45.50 42.16 39.73 40.47 37.23 33.23 33.27 28.86 36.25 38.01 40.47 40.95 32.58 42.56 47.38 46.39 46.63 47.28 46.37 50.14 54.72
58.17 56.68 55.31 53.74 53.28 52.86 53.20 53.58 53.06 52.07 51.32 52.14 45.08 41.85 35.42 47.76 43.09 44.91 44.93 42.62 43.93 44.79 45.45 46.51 43.72 38.85 38.36 32.50 27.95 30.54 24.38 27.88 31.36 39.64 38.91 38.38 34.12 42.59 45.43 46.56 45.71 43.82 42.67 50.07 54.13
58.37 56.41 54.38 52.75 52.49 52.33 52.75 50.98 51.14 49.90 48.95 48.43 46.09 37.25 39.03 38.84 43.15 43.80 44.36 44.32 41.16 41.27 39.93 38.18 34.82 32.48 31.23 29.29 18.53 20.27 25.35 28.94 28.00 36.45 37.60 35.42 35.47 41.68 45.06 46.06 43.94 41.45 42.50 48.38 51.57
57.83 55.48 54.00 52.73 51.81 52.00 47.96 44.19 39.98 38.31 40.69 36.06 36.87 36.20 39.15 42.87 44.32 42.30 43.34 41.84 40.88 37.10 30.38 32.48 28.97 24.68 26.95 29.06 30.23 29.57 28.66 27.35 30.80 35.33 35.69 34.72 34.97 39.73 43.19 42.49 39.86 40.84 43.04 46.09 50.23
57.26 55.10 53.37 52.47 51.68 52.40 45.39 39.83 39.80 39.00 32.75 39.30 39.87 39.39 41.41 43.75 38.00 40.25 43.43 36.18 34.76 29.88 31.92 27.37 24.66 30.18 31.91 32.33 31.17 29.50 29.33 28.80 32.88 36.41 36.28 35.72 35.41 40.29 40.80 40.13 40.77 42.29 44.22 45.65 48.89
55.67 53.87 53.08 51.97 52.16 48.56 43.21 41.90 44.96 41.97 32.70 35.96 38.30 38.03 39.27 41.84 37.15 37.17 39.93 36.38 32.34 29.68 28.83 25.83 28.40 32.40 31.56 31.16 29.77 29.42 29.51 29.69 31.60 37.01 38.63 36.70 34.98 38.83 40.92 42.17 43.32 45.01 46.46 47.15 48.84
54.82 53.70 52.29 52.51 47.69 44.99 41.62 44.85 44.12 40.63 21.54 30.18 35.10 38.11 40.29 40.23 33.90 41.47 41.26 36.76 33.15 28.89 29.27 27.02 31.12 30.80 31.97 30.89 31.33 28.00 35.12 34.89 34.97 33.96 29.83 36.81 28.45 36.44 39.40 39.54 42.20 44.58 45.54 46.99 49.15
53.97 52.99 52.14 51.42 45.32 42.32 43.91 44.79 41.88 36.93 9.99 29.97 35.02 43.40 40.94 35.23 35.34 36.82 41.17 36.40 30.41 29.74 29.81 24.14 27.98 29.96 28.09 33.40 35.17 32.30 33.97 35.29 36.35 34.71 32.87 33.46 30.42 34.55 39.46 37.27 40.63 44.15 45.99 47.37 49.26
53.57 52.83 52.36 48.41 45.85 44.36 44.96 41.82 37.47 21.67 9.47 26.84 35.24 34.80 34.43 35.16 34.10 36.47 35.88 37.52 36.78 32.09 31.46 29.30 34.27 33.57 32.49 36.14 35.01 36.17 35.73 35.19 35.44 32.88 26.76 31.73 30.28 31.13 35.88 38.07 40.84 43.47 45.81 47.84 48.37
53.85 52.51 49.98 48.41 42.48 45.29 43.00 35.48 22.28 13.89 26.75 24.79 29.68 33.77 30.60 29.06 31.11 31.83 30.58 27.14 27.12 24.21 20.41 30.71 32.11 35.05 36.47 33.29 34.95 34.22 28.27 21.92 23.37 23.09 24.19 32.74 30.53 31.73 37.80 41.01 42.71 43.06 45.15 47.00 48.49
52.82 52.07 50.46 47.43 45.95 43.38 36.78 27.63 13.67 22.26 20.77 30.97 32.77 32.25 23.11 29.54 28.19 29.58 27.63 24.21 30.07 30.11 20.57 20.43 21.56 34.32 37.46 34.80 31.32 31.89 28.65 23.97 17.90 20.63 25.57 32.90 27.20 30.01 36.34 38.40 43.63 44.93 45.86 47.41 48.71
51.99 47.46 44.90 45.05 45.31 40.52 31.89 17.78 18.91 20.74 28.87 29.20 27.74 16.81 27.71 30.10 29.65 26.03 21.51 24.55 28.46 30.46 27.43 25.61 21.89 36.28 36.32 35.70 33.85 32.42 27.91 34.33 25.99 25.64 25.03 26.81 29.73 34.60 37.66 37.14 38.00 40.69 45.01 45.86 46.62
46.02 44.48 43.08 46.27 44.37 37.18 28.24 24.71 25.18 29.83 31.30 30.61 19.48 28.28 22.30 27.08 23.28 19.61 22.51 30.18 32.07 32.10 33.76 30.39 21.52 30.85 34.88 35.93 36.63 33.73 36.57 26.98 26.60 19.28 21.18 24.12 25.08 27.00 31.96 33.66 36.46 39.28 41.49 45.22 44.93
44.73 39.77 44.06 46.13 42.59 34.57 21.43 21.78 28.47 32.21 34.61 30.84 27.75 26.91 26.16 25.87 24.91 16.23 23.65 30.39 34.68 35.12 32.15 31.50 25.46 27.19 31.27 31.76 31.21 31.36 31.28 31.50 29.31 25.30 23.03 21.35 25.76 33.79 32.33 33.91 35.86 38.04 39.62 42.69 43.07
41.39 33.76 44.58 44.09 33.75 28.20 21.90 27.41 33.36 30.44 34.25 32.15 30.71 28.88 27.55 29.58 25.57 18.63 25.55 30.07 34.90 37.13 32.32 32.52 26.49 23.25 28.15 33.27 37.21 33.56 30.97 31.30 24.15 24.68 22.18 24.84 26.75 35.18 34.69 36.86 38.34 38.60 40.61 41.19 42.93
38.56 37.85 44.23 42.10 25.68 21.67 26.96 28.46 29.78 29.49 29.85 30.15 29.31 30.76 31.47 28.59 23.53 27.64 25.79 34.18 36.87 37.18 35.26 36.74 27.42 17.31 22.84 29.19 32.75 30.13 32.47 32.69 28.44 28.29 25.04 21.88 26.76 36.12 35.43 36.60 38.12 39.33 40.41 41.15 42.66
37.53 32.35 37.39 39.02 32.16 25.45 25.84 26.19 26.78 30.80 29.64 31.76 30.55 31.57 30.20 29.45 29.74 27.55 23.93 35.20 38.28 36.47 40.89 39.00 33.30 24.62 24.77 27.68 30.34 28.16 31.14 31.49 24.82 25.97 26.10 25.51 28.51 32.13 34.16 35.30 37.11 38.57 40.45 41.47 41.93
36.34 33.75 35.84 29.67 30.73 26.28 26.15 26.82 26.00 26.27 28.89 31.47 29.94 29.80 26.41 25.43 27.07 26.13 28.09 31.21 36.15 38.26 37.21 34.77 28.87 31.79 32.47 33.43 32.73 30.94 31.11 31.80 27.78 28.81 24.82 29.16 29.14 32.24 34.30 35.02 35.83 36.81 38.65 40.02 41.25
33.03 30.94 29.66 26.33 28.34 26.16 28.18 24.97 26.12 26.37 27.88 27.30 28.78 30.27 28.37 25.81 25.52 25.86 27.54 27.71 26.48 33.69 33.40 34.04 25.70 28.50 25.76 31.50 30.84 28.79 30.94 31.90 32.61 32.29 31.40 31.47 31.28 36.25 36.84 37.60 37.56 37.02 37.31 37.82 39.48
35.81 33.70 32.06 28.46 25.04 24.72 24.10 25.11 27.25 28.49 29.11 29.97 30.56 29.25 28.37 29.88 30.73 30.78 30.53 31.37 30.94 31.66 31.37 31.15 27.25 24.62 21.25 26.78 29.20 23.70 28.25 31.67 33.01 32.93 32.74 29.88 33.51 36.49 35.95 36.64 36.50 37.05 37.80 37.71 38.66

GFSSW_sfc_wetblb_114.txt.gz
Wetbulb
58.03 58.07 57.01 56.33 56.28 56.50 56.86 56.87 56.68 56.86 56.86 55.42 54.46 54.87 54.71 54.36 53.35 51.39 45.77 49.25 52.46 55.91 55.13 53.22 51.13 49.76 49.69 46.97 49.03 48.78 38.76 34.30 36.57 37.84 40.71 47.04 45.63 49.45 52.05 51.51 54.06 55.86 57.17 58.89 61.52
58.59 58.17 57.40 56.74 55.81 55.91 56.39 56.15 56.46 56.57 56.38 54.95 52.98 54.35 54.80 54.00 49.65 46.69 51.14 54.68 56.02 56.55 52.94 48.44 44.80 45.95 43.91 44.38 45.63 42.67 37.09 37.01 41.85 42.54 41.83 44.78 46.13 47.57 48.06 47.92 49.86 52.97 56.91 59.52 61.29
59.07 58.53 57.86 56.53 56.07 55.64 56.04 55.88 56.31 56.01 54.94 53.92 53.56 53.82 53.88 52.89 44.94 45.84 54.96 55.87 56.48 56.04 53.06 50.57 48.01 44.64 41.30 43.65 43.33 42.25 37.04 41.12 41.80 43.38 44.18 43.20 44.37 47.65 45.23 44.03 49.79 50.02 54.52 58.06 58.31
59.59 58.94 57.45 56.36 55.40 55.23 55.20 55.43 55.49 55.59 54.00 53.04 53.22 53.34 52.89 49.56 34.20 48.71 54.26 53.78 54.70 53.27 50.63 47.76 45.41 41.30 39.29 38.07 42.17 37.28 41.01 41.59 42.28 43.42 42.51 41.69 45.28 44.09 46.60 48.00 52.03 52.97 55.97 57.37 56.32
60.34 58.88 57.14 56.35 55.49 54.98 54.62 55.01 55.44 55.26 53.65 52.84 52.81 52.91 50.13 43.17 42.39 51.37 53.11 51.71 50.24 49.78 46.30 44.74 42.18 41.19 37.27 38.74 39.63 37.92 39.28 40.96 42.29 42.85 43.02 43.78 41.68 43.35 45.06 49.66 51.81 53.01 53.12 55.45 55.94
60.45 58.89 56.16 56.13 55.28 54.39 54.18 54.19 55.29 54.90 53.48 52.77 52.39 51.89 46.15 36.92 49.39 51.15 49.87 49.32 48.63 47.35 45.49 45.75 42.40 43.61 40.10 39.06 38.12 40.12 39.60 40.23 41.59 41.27 42.15 40.96 42.00 42.83 45.07 49.63 50.87 51.74 51.95 53.24 54.90
59.84 58.17 56.24 56.16 54.52 54.45 53.70 53.89 54.67 53.70 53.19 52.48 52.83 50.07 43.63 41.44 50.05 50.30 48.91 48.55 48.82 47.68 44.23 46.28 46.06 42.33 40.86 37.29 41.36 39.97 35.12 37.83 39.04 40.40 39.85 42.34 38.44 39.61 44.69 47.58 48.11 49.97 52.00 53.11 54.37
57.64 58.79 56.30 55.71 54.73 53.52 53.47 52.95 53.82 53.07 52.24 51.92 53.16 48.13 39.31 47.95 51.55 49.32 49.44 47.44 49.11 48.89 47.58 48.05 47.92 43.51 40.92 41.94 38.84 35.23 34.70 29.92 37.14 40.04 41.07 40.62 33.80 41.24 45.44 45.18 45.04 48.59 51.33 51.28 53.61
57.01 57.80 56.57 55.52 54.22 52.70 52.76 52.79 52.97 52.54 51.94 52.63 48.00 44.46 38.20 49.24 45.35 48.32 49.00 45.03 46.29 46.86 47.55 47.67 45.56 40.75 40.09 34.11 30.35 31.11 26.31 29.71 33.03 39.91 39.68 38.82 35.62 42.58 46.71 45.78 44.40 47.92 50.05 49.01 51.67
56.91 57.17 56.49 54.93 53.62 52.71 52.86 51.42 51.82 51.31 50.59 49.98 47.57 40.78 42.73 40.90 45.46 46.54 48.35 47.02 43.67 43.37 42.09 41.16 39.92 36.08 35.80 31.05 22.97 26.09 26.49 30.04 30.66 36.55 38.83 36.83 37.25 42.12 45.87 46.63 46.38 48.49 49.11 47.71 49.26
56.41 56.74 55.48 54.35 53.43 52.88 50.88 48.62 42.70 40.61 43.95 38.72 39.44 39.04 41.09 45.36 46.82 44.44 46.23 44.57 43.63 40.52 34.23 36.94 32.94 29.62 32.17 33.75 32.89 30.46 28.68 28.12 32.54 36.80 35.42 35.39 37.75 40.71 44.44 45.69 46.19 47.37 47.27 47.21 48.59
56.08 56.34 54.78 53.88 52.72 53.15 49.05 43.17 42.16 42.40 36.53 42.35 41.86 41.59 43.36 45.15 39.57 42.12 46.18 39.02 37.62 32.98 35.42 33.26 29.40 34.12 34.60 33.98 32.01 31.18 28.34 28.63 32.60 37.45 36.71 36.42 36.62 40.56 43.15 44.65 46.08 46.24 46.12 46.80 48.32
56.68 55.14 54.23 52.90 53.31 50.32 46.56 44.57 47.34 45.58 37.43 37.92 40.51 40.04 41.38 43.49 39.15 39.37 42.57 39.68 35.54 32.71 32.87 29.81 32.07 34.92 32.96 32.04 30.62 30.84 29.27 29.23 30.05 35.27 37.87 37.14 33.77 37.50 41.66 43.47 44.36 46.17 47.82 46.69 47.72
54.48 54.31 53.29 52.82 48.95 47.27 44.33 46.99 46.94 43.91 33.27 33.51 36.81 40.00 42.01 42.19 36.49 43.41 43.62 39.67 35.75 31.29 32.44 31.67 34.64 31.93 31.78 31.06 32.05 28.60 34.00 34.50 34.01 30.80 29.08 37.78 26.87 34.53 37.63 39.28 42.58 45.70 47.20 47.73 48.91
53.86 53.88 52.75 52.73 47.49 44.83 45.69 46.76 44.65 42.94 22.25 33.45 37.23 45.31 42.53 37.65 37.68 38.79 43.85 39.32 33.11 32.60 31.96 30.54 30.70 31.04 29.99 30.92 34.26 32.97 35.17 33.68 35.06 32.31 32.97 32.74 32.35 33.04 38.62 37.74 40.86 44.92 47.21 48.64 49.63
53.41 53.59 52.57 49.44 47.08 46.58 46.50 44.30 42.59 31.71 21.16 31.04 37.28 36.17 36.17 36.81 36.43 38.66 38.41 40.60 39.18 33.97 34.46 33.46 37.34 34.46 33.38 35.47 35.44 36.63 35.19 35.43 34.35 33.05 28.78 32.80 33.33 32.80 36.64 38.81 42.29 44.88 46.20 47.93 49.64
52.95 53.14 51.13 50.39 44.64 46.70 45.23 40.89 31.85 25.98 29.95 29.83 32.21 34.83 33.41 32.41 33.33 34.61 33.51 32.45 31.06 27.55 29.44 32.62 34.26 36.28 36.51 32.69 36.81 34.90 32.97 27.94 26.01 27.11 26.29 34.65 31.47 31.39 37.94 41.42 42.99 44.07 45.61 47.93 48.46
53.56 52.72 49.92 47.94 47.79 45.48 41.88 35.98 24.56 26.87 27.57 34.31 34.32 33.90 31.04 32.99 32.51 32.72 32.24 31.64 32.79 30.16 29.01 27.27 26.97 34.35 37.33 34.69 31.90 32.02 32.58 27.80 21.24 23.92 27.29 33.99 27.96 30.27 39.44 41.36 43.20 46.85 45.84 47.13 48.09
52.04 47.73 45.95 45.44 46.16 44.56 37.77 30.33 28.73 29.32 32.37 32.73 31.94 30.02 30.20 32.09 31.43 30.97 29.07 31.69 32.96 33.55 27.60 27.87 28.56 35.46 36.38 35.57 35.24 33.24 31.72 35.20 29.81 29.76 28.26 29.49 32.70 38.63 40.45 40.65 42.11 44.96 44.42 45.61 47.84
46.90 45.05 43.44 46.58 46.20 42.93 35.78 29.91 29.57 32.86 34.44 34.42 30.04 31.57 27.26 30.29 30.00 29.33 29.52 34.94 34.70 36.15 35.69 33.10 27.06 32.90 35.57 37.08 37.81 35.95 36.41 31.42 32.83 24.47 23.26 26.65 29.47 29.23 35.07 36.46 39.67 42.64 42.80 45.85 47.41
45.37 40.29 44.06 46.59 46.33 38.41 32.04 30.93 32.02 35.72 37.34 34.17 32.11 31.03 31.17 30.52 30.36 27.42 28.98 34.41 37.00 37.16 36.90 34.80 30.69 32.84 35.64 33.63 32.41 33.91 32.43 33.62 33.04 30.06 27.13 24.94 28.13 35.01 36.03 38.29 39.16 41.54 44.62 45.44 46.00
42.49 34.96 44.82 44.86 35.70 34.18 32.76 30.59 34.60 34.28 37.77 35.62 35.64 33.72 32.17 32.84 30.45 29.09 29.24 32.78 38.38 38.26 33.85 36.50 32.31 29.60 30.71 36.08 38.23 36.39 34.28 33.90 31.10 27.96 29.08 30.73 28.09 39.02 40.03 41.03 41.80 41.34 43.86 45.61 45.81
37.82 37.73 44.49 42.92 30.59 31.32 31.40 32.07 33.59 33.36 34.97 34.12 33.39 34.92 35.43 32.61 28.52 31.73 30.89 38.08 38.89 38.63 36.64 38.36 32.88 28.26 28.70 32.56 36.38 34.01 36.11 35.03 32.75 33.99 27.75 28.71 29.02 40.60 42.21 41.71 43.39 42.96 44.17 43.89 44.89
39.83 32.76 37.62 40.35 36.58 32.18 30.88 30.77 30.53 34.53 34.02 34.73 34.00 35.75 34.70 32.48 34.30 31.39 32.57 36.74 39.40 38.02 40.78 40.48 34.46 30.67 26.96 29.86 33.75 31.93 35.14 35.22 32.85 32.27 30.88 30.98 32.80 37.09 38.27 39.56 40.14 42.23 43.89 44.38 44.40
39.25 35.56 37.55 30.71 32.60 32.84 32.39 32.33 30.14 30.03 34.06 35.92 33.49 34.14 33.81 30.08 31.52 31.12 32.67 34.95 37.84 39.31 39.99 38.72 31.69 33.34 34.74 35.05 34.59 34.50 34.85 35.11 32.26 32.94 32.09 33.19 33.43 36.18 38.35 40.01 41.06 42.22 43.50 43.13 42.80
35.36 34.93 35.10 33.52 35.97 33.60 31.74 30.40 30.74 30.34 33.02 32.10 32.40 34.46 33.96 31.82 32.09 30.78 33.01 33.51 33.21 38.19 37.59 38.05 32.62 33.34 31.20 34.36 35.55 33.45 34.94 36.55 35.83 35.85 35.76 36.44 34.52 40.10 41.77 43.41 42.45 42.33 42.33 41.50 41.85
38.44 38.37 38.13 32.80 33.48 32.40 31.62 31.34 31.71 33.55 33.03 34.39 35.47 35.02 33.10 34.31 36.16 36.88 37.46 36.60 36.56 35.51 35.76 35.27 34.07 31.74 27.85 31.88 32.96 30.37 32.68 35.02 36.02 36.49 37.25 34.07 36.85 41.33 40.36 40.07 40.28 41.43 41.89 41.37 41.95

GFSSW_sfc_wetblb_117.txt.gz
Wetbulb
59.81 58.89 58.43 57.44 56.69 56.52 56.72 56.78 56.93 56.64 56.78 56.34 53.97 54.07 54.38 54.79 54.49 52.46 47.84 51.57 53.17 55.08 56.11 53.09 52.07 51.03 50.86 48.34 49.32 49.23 39.59 36.11 37.73 38.78 41.07 46.06 44.94 48.94 50.80 48.98 50.44 53.16 53.71 57.66 61.22
60.45 59.53 58.94 57.97 57.10 56.03 56.19 56.73 56.22 56.89 56.21 55.21 53.56 53.93 54.17 54.32 51.08 47.82 53.00 53.22 55.48 57.39 52.89 49.63 48.11 47.98 46.54 46.41 45.84 43.29 38.21 38.05 42.94 43.58 42.20 44.29 44.59 45.64 46.59 47.54 47.75 49.82 53.81 58.49 59.50
61.08 60.31 59.57 58.62 57.11 56.32 56.05 55.97 55.81 56.24 55.47 54.21 53.26 54.06 53.51 54.08 46.42 46.61 56.21 57.55 57.89 56.87 54.24 52.31 49.67 46.38 43.42 45.54 43.85 42.88 37.43 42.54 43.44 44.64 44.96 43.50 43.66 46.54 45.42 44.15 47.98 48.14 50.61 54.75 57.68
59.99 60.99 59.85 58.19 56.85 55.81 55.88 55.53 55.52 55.58 54.86 53.45 53.02 53.55 53.09 50.72 36.57 50.39 54.68 54.56 55.51 54.27 51.68 48.99 47.01 43.28 40.98 39.94 44.20 38.81 42.44 42.87 43.27 44.40 43.51 42.19 44.85 43.05 44.40 45.46 49.30 51.26 52.91 53.60 55.39
58.00 59.04 60.32 57.85 56.25 55.86 55.36 55.05 55.10 55.28 54.86 53.25 52.72 53.15 50.70 44.37 43.76 53.34 53.29 52.22 51.09 50.06 47.48 46.12 43.68 42.77 38.82 40.73 41.39 39.18 40.53 42.26 43.07 42.75 42.55 43.26 41.64 42.18 43.15 47.04 49.32 50.52 52.23 52.73 53.64
56.89 58.66 59.54 57.26 56.11 55.44 55.10 54.31 54.19 55.06 54.29 53.49 52.67 52.36 47.38 38.48 50.93 52.52 51.38 49.77 49.07 47.96 46.52 46.17 43.61 44.25 40.76 39.81 38.58 40.99 40.70 40.74 41.75 41.72 42.60 40.64 41.10 42.51 43.91 46.92 46.80 48.67 49.96 51.56 53.63
56.30 57.24 58.52 56.00 55.94 55.71 54.65 53.95 53.75 54.48 53.95 53.31 53.21 50.99 45.07 43.13 50.66 51.52 50.50 49.28 49.27 48.34 45.18 47.06 46.38 42.66 42.08 38.17 41.96 40.19 35.83 38.53 39.49 40.13 39.36 41.66 37.13 38.33 44.27 46.07 45.02 46.83 49.05 51.20 53.50
55.69 57.22 57.02 56.04 55.92 54.79 54.25 53.56 54.00 53.87 52.64 52.23 53.01 49.52 41.01 49.14 51.52 49.78 50.54 48.64 49.96 49.82 48.11 48.60 47.81 44.13 41.67 42.75 39.82 35.54 35.71 30.38 37.91 39.16 39.94 39.36 31.50 41.16 45.27 44.81 44.16 45.28 48.82 50.45 52.29
55.19 55.92 56.30 56.48 55.32 54.74 53.62 53.65 53.99 53.49 52.83 52.88 49.41 45.68 39.02 50.13 46.77 49.69 50.52 46.20 47.48 47.73 47.90 48.15 46.15 41.07 40.72 35.60 32.00 33.51 26.87 29.54 32.67 38.70 38.50 38.16 34.70 41.61 45.09 44.85 43.59 44.87 45.99 48.66 50.80
54.87 55.78 55.99 56.40 55.16 53.42 53.35 52.87 52.97 52.23 51.20 50.91 47.68 40.28 43.42 41.83 46.39 47.70 49.74 48.13 44.95 44.51 43.04 42.13 40.38 35.73 35.86 32.97 24.11 26.59 27.37 29.85 29.86 35.52 37.56 35.33 35.57 40.83 44.21 44.80 44.14 44.63 46.41 47.65 49.87
54.56 55.56 55.80 56.47 54.69 53.32 52.18 49.33 43.92 42.18 44.84 39.90 40.30 39.96 42.11 46.21 48.02 45.63 47.71 45.72 44.94 41.70 34.58 38.44 33.71 29.19 32.59 34.69 34.17 32.23 29.90 28.35 32.48 36.51 34.79 33.79 34.73 38.92 43.30 44.92 44.73 45.84 47.72 48.59 50.93
54.63 56.31 56.10 55.08 53.82 53.24 51.62 45.53 45.06 45.30 37.25 43.18 42.69 42.76 44.74 46.12 41.00 43.61 47.03 40.03 39.12 33.30 37.18 33.88 29.05 35.68 36.91 35.61 32.84 31.39 28.61 28.40 33.03 36.21 34.55 34.84 35.07 39.73 42.52 44.06 45.75 46.40 47.27 48.77 50.15
53.70 56.17 54.76 53.68 52.91 51.22 47.86 46.95 48.58 46.64 38.14 37.98 42.54 41.56 42.61 44.53 40.71 41.29 43.50 40.92 36.91 34.37 34.20 30.44 34.10 36.90 34.55 32.55 30.29 30.28 28.48 29.04 29.00 33.71 36.37 34.83 34.12 36.16 41.84 44.47 45.85 47.23 48.57 49.76 49.73
52.41 54.06 53.41 53.19 49.40 49.25 46.52 49.25 49.16 46.42 34.21 34.50 37.95 41.43 43.43 43.44 38.50 44.61 44.57 40.88 36.98 33.34 34.61 33.64 37.05 33.95 32.60 30.61 31.95 27.94 34.30 32.93 31.24 29.80 26.85 36.33 27.50 35.16 39.13 40.51 43.36 45.44 47.01 48.53 49.71
52.79 53.28 53.11 53.30 49.06 46.00 47.45 49.41 47.25 43.28 24.33 36.74 38.11 46.51 43.61 39.47 39.31 40.18 45.11 40.71 34.15 34.85 33.80 32.13 33.14 32.89 31.53 32.80 35.26 31.01 35.10 34.11 34.28 31.37 30.84 32.43 28.35 33.67 39.60 37.03 39.78 43.53 46.81 48.93 50.62
52.76 53.31 52.85 50.75 50.21 48.11 49.25 46.61 44.06 32.72 25.01 32.16 38.47 37.04 36.70 38.34 38.02 40.20 40.09 42.22 41.06 35.15 35.89 34.37 39.38 36.65 35.55 36.97 36.68 37.21 34.63 34.21 32.86 31.85 26.88 32.28 29.51 30.99 34.01 37.52 40.79 44.18 46.66 48.12 49.71
52.39 52.87 51.86 51.11 45.55 48.65 46.68 42.40 32.60 28.51 33.28 31.32 32.74 36.23 34.91 33.62 35.14 36.58 35.94 34.99 31.69 28.04 31.13 34.37 35.07 38.23 37.12 33.77 38.02 35.50 32.48 28.16 25.96 25.14 26.66 33.96 30.45 32.44 36.18 38.65 42.67 43.18 44.55 47.66 49.24
52.81 52.70 49.86 48.33 49.57 47.36 44.66 36.42 27.65 30.84 29.49 36.40 35.95 35.85 31.08 34.72 34.74 35.19 34.71 32.54 35.71 31.96 28.38 28.01 27.87 34.89 38.02 34.97 32.03 31.85 33.02 27.93 21.87 24.55 27.58 35.12 28.83 31.88 39.32 42.43 44.09 43.98 45.26 47.75 47.71
51.05 48.50 46.43 46.15 48.09 47.10 39.61 31.39 31.11 32.54 34.32 34.10 34.52 30.36 31.15 34.03 34.04 33.65 33.36 33.65 35.30 35.05 28.64 28.67 29.63 37.13 37.10 36.82 35.72 33.96 32.55 35.91 29.61 30.82 28.35 30.87 33.57 37.42 40.35 42.34 41.56 41.99 44.64 45.85 46.13
47.44 45.74 44.54 47.64 47.88 44.32 36.32 32.43 31.61 36.14 37.27 37.05 31.14 33.92 29.99 31.29 31.53 31.48 32.46 36.63 35.28 37.68 37.66 32.65 27.43 35.63 36.73 38.24 38.53 36.62 37.85 31.02 33.23 25.14 23.75 28.50 28.70 27.96 35.02 37.97 40.12 40.85 43.92 45.30 46.09
45.75 40.29 44.27 47.13 47.59 39.43 31.99 33.55 34.02 37.52 38.82 35.60 34.11 33.18 33.63 31.87 32.28 29.81 32.30 36.34 38.53 37.35 39.19 34.73 32.29 33.88 37.05 34.15 32.89 34.85 32.87 33.63 33.85 30.52 26.52 25.03 27.05 36.74 37.10 38.62 40.79 41.66 44.51 44.97 45.10
42.99 34.19 44.84 46.05 36.37 37.29 34.71 33.57 36.55 36.27 39.52 37.51 37.47 35.69 34.29 34.58 32.22 31.39 30.49 34.75 39.97 38.83 34.19 37.35 33.99 30.80 32.04 37.91 38.93 37.08 35.25 34.55 31.74 29.16 32.13 30.08 28.07 40.64 41.30 41.18 42.08 42.48 44.37 45.20 45.65
37.86 37.38 44.67 44.66 32.48 33.74 34.41 33.88 35.81 35.43 36.86 35.96 35.32 36.95 37.24 34.47 30.56 34.19 33.93 39.54 40.29 38.61 37.15 38.75 33.56 29.38 31.84 35.60 38.72 35.27 37.49 36.51 35.57 36.58 30.77 27.50 29.61 41.26 41.49 41.46 42.51 42.52 43.73 44.42 45.14
38.96 33.07 37.60 39.95 39.73 36.33 32.95 32.59 32.05 36.79 37.18 36.79 36.33 37.60 35.97 34.27 35.92 33.23 33.03 38.07 40.04 39.80 41.21 40.81 34.23 31.79 27.87 30.64 34.21 33.04 35.97 36.85 35.12 32.15 31.00 31.33 32.29 37.22 39.35 39.77 41.77 42.79 43.78 44.57 44.71
41.20 37.27 38.59 32.00 34.54 35.47 35.69 34.59 32.39 31.36 36.40 37.56 35.36 36.06 34.79 31.72 33.30 33.05 34.18 36.70 39.27 41.44 41.22 39.71 31.68 34.13 35.73 36.42 36.75 35.49 35.60 36.71 34.08 35.88 31.77 33.12 33.48 37.02 39.86 40.79 41.30 42.92 43.48 42.81 43.27
38.72 37.95 39.91 36.27 37.26 35.72 33.88 32.91 32.65 33.17 34.97 33.73 33.78 36.63 36.13 33.50 33.78 32.23 34.93 35.27 34.97 39.82 38.99 40.32 33.68 34.81 32.22 36.44 36.84 33.62 36.17 37.01 36.97 37.25 36.41 36.57 35.27 41.49 42.52 43.15 41.82 41.82 42.02 41.54 42.32
43.72 42.48 41.33 36.02 36.12 34.82 35.04 34.32 34.01 35.75 35.29 36.81 37.39 36.84 34.81 36.20 38.67 39.85 40.41 39.95 38.97 37.68 37.66 37.60 36.01 33.59 29.68 34.37 34.22 30.98 33.76 35.52 37.06 38.59 38.30 33.67 37.72 42.24 40.37 40.66 41.04 42.21 42.68 42.04 43.01